<?xml version="1.0" encoding="utf-8"?>
<gpx xmlns:xsi="http://www.w3.org/2001/XMLSchema-instance" xmlns:xsd="http://www.w3.org/2001/XMLSchema" version="1.1" creator="Shapelink.com" xmlns="http://www.topografix.com/GPX/1/1" xmlns:gpxtpx="http://www.garmin.com/xmlschemas/TrackPointExtension/v1">
  <metadata>
    <name>Löpning 42.95 km, 2011-05-28</name>
    <desc></desc>
    <author><name>Jojje Borssén</name></author> 
    <time>2011-05-28T11:45:09Z</time>
  </metadata>
  <trk>
    <name>Löpning 42.95 km, 2011-05-28</name>
    <trkseg>
      <trkpt lat="59.3458368339" lon="18.0825028693">
        <ele>54.2</ele>
        <time>2011-05-28T11:45:09Z</time>
      </trkpt>
      <trkpt lat="59.3457396877" lon="18.0823229099">
        <ele>51.8</ele>
        <time>2011-05-28T11:45:15Z</time>
      </trkpt>
      <trkpt lat="59.3457214152" lon="18.0822872869">
        <ele>51.6</ele>
        <time>2011-05-28T11:45:17Z</time>
      </trkpt>
      <trkpt lat="59.3456671004" lon="18.0821482311">
        <ele>49.8</ele>
        <time>2011-05-28T11:45:22Z</time>
      </trkpt>
      <trkpt lat="59.3456106064" lon="18.0820333991">
        <ele>47.8</ele>
        <time>2011-05-28T11:45:27Z</time>
      </trkpt>
      <trkpt lat="59.3455330739" lon="18.0818529368">
        <ele>44.6</ele>
        <time>2011-05-28T11:45:33Z</time>
      </trkpt>
      <trkpt lat="59.3454153082" lon="18.0816432217">
        <ele>41.6</ele>
        <time>2011-05-28T11:45:39Z</time>
      </trkpt>
      <trkpt lat="59.3453716385" lon="18.0815654376">
        <ele>40.4</ele>
        <time>2011-05-28T11:45:42Z</time>
      </trkpt>
      <trkpt lat="59.345329729" lon="18.0814113783">
        <ele>38.4</ele>
        <time>2011-05-28T11:45:46Z</time>
      </trkpt>
      <trkpt lat="59.3452512744" lon="18.0812111347">
        <ele>36.4</ele>
        <time>2011-05-28T11:45:54Z</time>
      </trkpt>
      <trkpt lat="59.3451957024" lon="18.0810792874">
        <ele>35.2</ele>
        <time>2011-05-28T11:45:57Z</time>
      </trkpt>
      <trkpt lat="59.3451230313" lon="18.0809015073">
        <ele>34.2</ele>
        <time>2011-05-28T11:46:03Z</time>
      </trkpt>
      <trkpt lat="59.3450407211" lon="18.0807788801">
        <ele>33.8</ele>
        <time>2011-05-28T11:46:08Z</time>
      </trkpt>
      <trkpt lat="59.3449290742" lon="18.0805944783">
        <ele>33</ele>
        <time>2011-05-28T11:46:15Z</time>
      </trkpt>
      <trkpt lat="59.3448585824" lon="18.0804341326">
        <ele>32</ele>
        <time>2011-05-28T11:46:20Z</time>
      </trkpt>
      <trkpt lat="59.3447334406" lon="18.0803260061">
        <ele>31</ele>
        <time>2011-05-28T11:46:25Z</time>
      </trkpt>
      <trkpt lat="59.3446638708" lon="18.0802436958">
        <ele>30</ele>
        <time>2011-05-28T11:46:29Z</time>
      </trkpt>
      <trkpt lat="59.3446233024" lon="18.0801311269">
        <ele>28.8</ele>
        <time>2011-05-28T11:46:33Z</time>
      </trkpt>
      <trkpt lat="59.3445948878" lon="18.0801128544">
        <ele>28.6</ele>
        <time>2011-05-28T11:46:35Z</time>
      </trkpt>
      <trkpt lat="59.3444746075" lon="18.0800156243">
        <ele>27.4</ele>
        <time>2011-05-28T11:46:40Z</time>
      </trkpt>
      <trkpt lat="59.344399841" lon="18.0799441267">
        <ele>27</ele>
        <time>2011-05-28T11:46:45Z</time>
      </trkpt>
      <trkpt lat="59.3442922174" lon="18.0798539375">
        <ele>26.8</ele>
        <time>2011-05-28T11:46:50Z</time>
      </trkpt>
      <trkpt lat="59.3441095758" lon="18.0796941785">
        <ele>26.4</ele>
        <time>2011-05-28T11:47:00Z</time>
      </trkpt>
      <trkpt lat="59.3440241642" lon="18.0796058332">
        <ele>26.4</ele>
        <time>2011-05-28T11:47:04Z</time>
      </trkpt>
      <trkpt lat="59.3439198934" lon="18.0794913365">
        <ele>26.2</ele>
        <time>2011-05-28T11:47:10Z</time>
      </trkpt>
      <trkpt lat="59.3438122698" lon="18.0793869818">
        <ele>26.2</ele>
        <time>2011-05-28T11:47:15Z</time>
      </trkpt>
      <trkpt lat="59.3436734655" lon="18.0792567271">
        <ele>26.6</ele>
        <time>2011-05-28T11:47:20Z</time>
      </trkpt>
      <trkpt lat="59.3435567057" lon="18.0791417274">
        <ele>27.4</ele>
        <time>2011-05-28T11:47:25Z</time>
      </trkpt>
      <trkpt lat="59.3434499203" lon="18.0790506162">
        <ele>27.8</ele>
        <time>2011-05-28T11:47:30Z</time>
      </trkpt>
      <trkpt lat="59.3433737288" lon="18.0790379595">
        <ele>28.2</ele>
        <time>2011-05-28T11:47:34Z</time>
      </trkpt>
      <trkpt lat="59.3433514329" lon="18.0791847266">
        <ele>29</ele>
        <time>2011-05-28T11:47:37Z</time>
      </trkpt>
      <trkpt lat="59.3433076794" lon="18.0794206771">
        <ele>30.2</ele>
        <time>2011-05-28T11:47:42Z</time>
      </trkpt>
      <trkpt lat="59.343298124" lon="18.0794621675">
        <ele>30.4</ele>
        <time>2011-05-28T11:47:43Z</time>
      </trkpt>
      <trkpt lat="59.3433282989" lon="18.0796808512">
        <ele>31.2</ele>
        <time>2011-05-28T11:47:49Z</time>
      </trkpt>
      <trkpt lat="59.343312038" lon="18.0798893091">
        <ele>32.6</ele>
        <time>2011-05-28T11:47:53Z</time>
      </trkpt>
      <trkpt lat="59.3432946875" lon="18.0799396005">
        <ele>32.8</ele>
        <time>2011-05-28T11:47:55Z</time>
      </trkpt>
      <trkpt lat="59.3432614113" lon="18.0802580289">
        <ele>33.6</ele>
        <time>2011-05-28T11:48:00Z</time>
      </trkpt>
      <trkpt lat="59.3432243633" lon="18.0804280976">
        <ele>34</ele>
        <time>2011-05-28T11:48:04Z</time>
      </trkpt>
      <trkpt lat="59.3431848846" lon="18.0806489607">
        <ele>34.4</ele>
        <time>2011-05-28T11:48:09Z</time>
      </trkpt>
      <trkpt lat="59.343147166" lon="18.0807829035">
        <ele>35</ele>
        <time>2011-05-28T11:48:12Z</time>
      </trkpt>
      <trkpt lat="59.3431133032" lon="18.0810600091">
        <ele>35.8</ele>
        <time>2011-05-28T11:48:18Z</time>
      </trkpt>
      <trkpt lat="59.3430566415" lon="18.0812931097">
        <ele>36.2</ele>
        <time>2011-05-28T11:48:23Z</time>
      </trkpt>
      <trkpt lat="59.342995286" lon="18.0815630907">
        <ele>36.4</ele>
        <time>2011-05-28T11:48:28Z</time>
      </trkpt>
      <trkpt lat="59.3429408037" lon="18.0818476562">
        <ele>36.6</ele>
        <time>2011-05-28T11:48:34Z</time>
      </trkpt>
      <trkpt lat="59.3429070246" lon="18.0820145398">
        <ele>36.6</ele>
        <time>2011-05-28T11:48:37Z</time>
      </trkpt>
      <trkpt lat="59.3428363652" lon="18.0822781506">
        <ele>36.6</ele>
        <time>2011-05-28T11:48:42Z</time>
      </trkpt>
      <trkpt lat="59.3427672145" lon="18.0825361455">
        <ele>36.8</ele>
        <time>2011-05-28T11:48:47Z</time>
      </trkpt>
      <trkpt lat="59.3426468504" lon="18.0831183523">
        <ele>36.8</ele>
        <time>2011-05-28T11:48:59Z</time>
      </trkpt>
      <trkpt lat="59.3426423242" lon="18.0831406481">
        <ele>36.8</ele>
        <time>2011-05-28T11:49:00Z</time>
      </trkpt>
      <trkpt lat="59.3425696531" lon="18.0833918536">
        <ele>36.8</ele>
        <time>2011-05-28T11:49:04Z</time>
      </trkpt>
      <trkpt lat="59.3425149193" lon="18.0835848888">
        <ele>36.8</ele>
        <time>2011-05-28T11:49:09Z</time>
      </trkpt>
      <trkpt lat="59.3425155899" lon="18.0836476692">
        <ele>36.8</ele>
        <time>2011-05-28T11:49:10Z</time>
      </trkpt>
      <trkpt lat="59.3424945513" lon="18.0838986233">
        <ele>36.8</ele>
        <time>2011-05-28T11:49:15Z</time>
      </trkpt>
      <trkpt lat="59.3424545696" lon="18.0841743878">
        <ele>36.8</ele>
        <time>2011-05-28T11:49:20Z</time>
      </trkpt>
      <trkpt lat="59.342444679" lon="18.0842668402">
        <ele>36.8</ele>
        <time>2011-05-28T11:49:22Z</time>
      </trkpt>
      <trkpt lat="59.3424005902" lon="18.0845478015">
        <ele>37.4</ele>
        <time>2011-05-28T11:49:28Z</time>
      </trkpt>
      <trkpt lat="59.3423825691" lon="18.0848395754">
        <ele>38.4</ele>
        <time>2011-05-28T11:49:34Z</time>
      </trkpt>
      <trkpt lat="59.3422104887" lon="18.0850970674">
        <ele>39.6</ele>
        <time>2011-05-28T11:49:40Z</time>
      </trkpt>
      <trkpt lat="59.3421627957" lon="18.0852730873">
        <ele>40.2</ele>
        <time>2011-05-28T11:49:45Z</time>
      </trkpt>
      <trkpt lat="59.3421065531" lon="18.0855511149">
        <ele>40.6</ele>
        <time>2011-05-28T11:49:51Z</time>
      </trkpt>
      <trkpt lat="59.3420532443" lon="18.0857486763">
        <ele>40.6</ele>
        <time>2011-05-28T11:49:55Z</time>
      </trkpt>
      <trkpt lat="59.3419540864" lon="18.085997032">
        <ele>40.8</ele>
        <time>2011-05-28T11:50:01Z</time>
      </trkpt>
      <trkpt lat="59.3419321258" lon="18.086210519">
        <ele>40.8</ele>
        <time>2011-05-28T11:50:06Z</time>
      </trkpt>
      <trkpt lat="59.3419322096" lon="18.0862556136">
        <ele>40.8</ele>
        <time>2011-05-28T11:50:07Z</time>
      </trkpt>
      <trkpt lat="59.341920475" lon="18.0865497345">
        <ele>41</ele>
        <time>2011-05-28T11:50:13Z</time>
      </trkpt>
      <trkpt lat="59.3418937367" lon="18.0868762933">
        <ele>41</ele>
        <time>2011-05-28T11:50:19Z</time>
      </trkpt>
      <trkpt lat="59.3417734564" lon="18.0871409937">
        <ele>41.6</ele>
        <time>2011-05-28T11:50:25Z</time>
      </trkpt>
      <trkpt lat="59.3416621448" lon="18.087383985">
        <ele>42.6</ele>
        <time>2011-05-28T11:50:31Z</time>
      </trkpt>
      <trkpt lat="59.3415846961" lon="18.0875939516">
        <ele>43.6</ele>
        <time>2011-05-28T11:50:35Z</time>
      </trkpt>
      <trkpt lat="59.3415088399" lon="18.0878153176">
        <ele>44.6</ele>
        <time>2011-05-28T11:50:40Z</time>
      </trkpt>
      <trkpt lat="59.3414332351" lon="18.0880529444">
        <ele>45.8</ele>
        <time>2011-05-28T11:50:45Z</time>
      </trkpt>
      <trkpt lat="59.34137079" lon="18.0882997914">
        <ele>46.2</ele>
        <time>2011-05-28T11:50:50Z</time>
      </trkpt>
      <trkpt lat="59.3413318979" lon="18.0885108476">
        <ele>47.2</ele>
        <time>2011-05-28T11:50:54Z</time>
      </trkpt>
      <trkpt lat="59.3412720512" lon="18.0887373266">
        <ele>48.2</ele>
        <time>2011-05-28T11:50:58Z</time>
      </trkpt>
      <trkpt lat="59.3412010565" lon="18.0889969978">
        <ele>49.2</ele>
        <time>2011-05-28T11:51:04Z</time>
      </trkpt>
      <trkpt lat="59.3411333307" lon="18.0891574274">
        <ele>50</ele>
        <time>2011-05-28T11:51:08Z</time>
      </trkpt>
      <trkpt lat="59.3410785969" lon="18.0893948028">
        <ele>50.8</ele>
        <time>2011-05-28T11:51:14Z</time>
      </trkpt>
      <trkpt lat="59.3410687901" lon="18.0894341977">
        <ele>51</ele>
        <time>2011-05-28T11:51:15Z</time>
      </trkpt>
      <trkpt lat="59.3409969572" lon="18.0896967188">
        <ele>51.2</ele>
        <time>2011-05-28T11:51:20Z</time>
      </trkpt>
      <trkpt lat="59.3409121324" lon="18.0898656979">
        <ele>51.4</ele>
        <time>2011-05-28T11:51:25Z</time>
      </trkpt>
      <trkpt lat="59.3408534591" lon="18.0900653548">
        <ele>51.4</ele>
        <time>2011-05-28T11:51:29Z</time>
      </trkpt>
      <trkpt lat="59.3408628468" lon="18.0903819392">
        <ele>50.6</ele>
        <time>2011-05-28T11:51:35Z</time>
      </trkpt>
      <trkpt lat="59.3408568957" lon="18.0905277842">
        <ele>50.2</ele>
        <time>2011-05-28T11:51:38Z</time>
      </trkpt>
      <trkpt lat="59.3407703945" lon="18.0907600467">
        <ele>49</ele>
        <time>2011-05-28T11:51:44Z</time>
      </trkpt>
      <trkpt lat="59.3406975558" lon="18.0909509025">
        <ele>47.4</ele>
        <time>2011-05-28T11:51:49Z</time>
      </trkpt>
      <trkpt lat="59.340678445" lon="18.0911244079">
        <ele>46.2</ele>
        <time>2011-05-28T11:51:52Z</time>
      </trkpt>
      <trkpt lat="59.340653467" lon="18.0914078837">
        <ele>44.8</ele>
        <time>2011-05-28T11:51:59Z</time>
      </trkpt>
      <trkpt lat="59.3405773593" lon="18.0916437504">
        <ele>44.2</ele>
        <time>2011-05-28T11:52:04Z</time>
      </trkpt>
      <trkpt lat="59.3405644512" lon="18.0918320917">
        <ele>43.8</ele>
        <time>2011-05-28T11:52:08Z</time>
      </trkpt>
      <trkpt lat="59.3405411495" lon="18.0919987238">
        <ele>43.6</ele>
        <time>2011-05-28T11:52:12Z</time>
      </trkpt>
      <trkpt lat="59.3404907743" lon="18.0921687926">
        <ele>43.4</ele>
        <time>2011-05-28T11:52:16Z</time>
      </trkpt>
      <trkpt lat="59.3404901037" lon="18.0922104506">
        <ele>43.4</ele>
        <time>2011-05-28T11:52:17Z</time>
      </trkpt>
      <trkpt lat="59.3404340288" lon="18.0924504244">
        <ele>43.2</ele>
        <time>2011-05-28T11:52:22Z</time>
      </trkpt>
      <trkpt lat="59.3403280816" lon="18.092690985">
        <ele>43.2</ele>
        <time>2011-05-28T11:52:27Z</time>
      </trkpt>
      <trkpt lat="59.3403077136" lon="18.0928804159">
        <ele>43.2</ele>
        <time>2011-05-28T11:52:31Z</time>
      </trkpt>
      <trkpt lat="59.3402902792" lon="18.0931348904">
        <ele>43.2</ele>
        <time>2011-05-28T11:52:36Z</time>
      </trkpt>
      <trkpt lat="59.3402533151" lon="18.0933834975">
        <ele>43.2</ele>
        <time>2011-05-28T11:52:40Z</time>
      </trkpt>
      <trkpt lat="59.3402483697" lon="18.0934451883">
        <ele>43.2</ele>
        <time>2011-05-28T11:52:42Z</time>
      </trkpt>
      <trkpt lat="59.3401314422" lon="18.0937807158">
        <ele>43.2</ele>
        <time>2011-05-28T11:52:49Z</time>
      </trkpt>
      <trkpt lat="59.3400833301" lon="18.0938943744">
        <ele>43.2</ele>
        <time>2011-05-28T11:52:51Z</time>
      </trkpt>
      <trkpt lat="59.3399576016" lon="18.0941417242">
        <ele>43.2</ele>
        <time>2011-05-28T11:52:57Z</time>
      </trkpt>
      <trkpt lat="59.339909741" lon="18.0941953684">
        <ele>43.2</ele>
        <time>2011-05-28T11:52:58Z</time>
      </trkpt>
      <trkpt lat="59.3398501457" lon="18.0944302292">
        <ele>43</ele>
        <time>2011-05-28T11:53:04Z</time>
      </trkpt>
      <trkpt lat="59.3398602039" lon="18.0946002141">
        <ele>42.4</ele>
        <time>2011-05-28T11:53:07Z</time>
      </trkpt>
      <trkpt lat="59.3397446175" lon="18.094878158">
        <ele>41.6</ele>
        <time>2011-05-28T11:53:13Z</time>
      </trkpt>
      <trkpt lat="59.3396901352" lon="18.0949402678">
        <ele>41.6</ele>
        <time>2011-05-28T11:53:15Z</time>
      </trkpt>
      <trkpt lat="59.3396875368" lon="18.0950877055">
        <ele>41.4</ele>
        <time>2011-05-28T11:53:18Z</time>
      </trkpt>
      <trkpt lat="59.3396510755" lon="18.0952747056">
        <ele>41.2</ele>
        <time>2011-05-28T11:53:23Z</time>
      </trkpt>
      <trkpt lat="59.3396410173" lon="18.0953199679">
        <ele>41.2</ele>
        <time>2011-05-28T11:53:24Z</time>
      </trkpt>
      <trkpt lat="59.3396032149" lon="18.0956971534">
        <ele>41</ele>
        <time>2011-05-28T11:53:31Z</time>
      </trkpt>
      <trkpt lat="59.3395543484" lon="18.0960318427">
        <ele>41</ele>
        <time>2011-05-28T11:53:37Z</time>
      </trkpt>
      <trkpt lat="59.3395428652" lon="18.0963740756">
        <ele>41</ele>
        <time>2011-05-28T11:53:43Z</time>
      </trkpt>
      <trkpt lat="59.3394625666" lon="18.0965513528">
        <ele>40.8</ele>
        <time>2011-05-28T11:53:47Z</time>
      </trkpt>
      <trkpt lat="59.3393528475" lon="18.096754111">
        <ele>40.8</ele>
        <time>2011-05-28T11:53:52Z</time>
      </trkpt>
      <trkpt lat="59.3393009636" lon="18.0968399416">
        <ele>40.8</ele>
        <time>2011-05-28T11:53:54Z</time>
      </trkpt>
      <trkpt lat="59.3392665978" lon="18.097081508">
        <ele>40.8</ele>
        <time>2011-05-28T11:53:59Z</time>
      </trkpt>
      <trkpt lat="59.3392392728" lon="18.0972926481">
        <ele>40.8</ele>
        <time>2011-05-28T11:54:04Z</time>
      </trkpt>
      <trkpt lat="59.3392421226" lon="18.0975493018">
        <ele>40.8</ele>
        <time>2011-05-28T11:54:09Z</time>
      </trkpt>
      <trkpt lat="59.3392500854" lon="18.0976952307">
        <ele>40.8</ele>
        <time>2011-05-28T11:54:12Z</time>
      </trkpt>
      <trkpt lat="59.3391534421" lon="18.0979435026">
        <ele>40.8</ele>
        <time>2011-05-28T11:54:18Z</time>
      </trkpt>
      <trkpt lat="59.3390493389" lon="18.0980595081">
        <ele>40.8</ele>
        <time>2011-05-28T11:54:21Z</time>
      </trkpt>
      <trkpt lat="59.3387982172" lon="18.098097981">
        <ele>40.8</ele>
        <time>2011-05-28T11:54:26Z</time>
      </trkpt>
      <trkpt lat="59.3387438187" lon="18.0980777806">
        <ele>40.8</ele>
        <time>2011-05-28T11:54:27Z</time>
      </trkpt>
      <trkpt lat="59.3387118836" lon="18.0980555686">
        <ele>40.8</ele>
        <time>2011-05-28T11:54:28Z</time>
      </trkpt>
      <trkpt lat="59.3386701418" lon="18.0979698218">
        <ele>40.8</ele>
        <time>2011-05-28T11:54:33Z</time>
      </trkpt>
      <trkpt lat="59.3385809584" lon="18.0978563308">
        <ele>41.6</ele>
        <time>2011-05-28T11:54:43Z</time>
      </trkpt>
      <trkpt lat="59.3385210278" lon="18.097841914">
        <ele>42.2</ele>
        <time>2011-05-28T11:54:48Z</time>
      </trkpt>
      <trkpt lat="59.3386539647" lon="18.0978049498">
        <ele>45.8</ele>
        <time>2011-05-28T11:55:04Z</time>
      </trkpt>
      <trkpt lat="59.3386991432" lon="18.0978506312">
        <ele>46.8</ele>
        <time>2011-05-28T11:55:07Z</time>
      </trkpt>
      <trkpt lat="59.3387029988" lon="18.0981649524">
        <ele>47.6</ele>
        <time>2011-05-28T11:55:10Z</time>
      </trkpt>
      <trkpt lat="59.3387028312" lon="18.0983335124">
        <ele>47.8</ele>
        <time>2011-05-28T11:55:13Z</time>
      </trkpt>
      <trkpt lat="59.3386713152" lon="18.0987316527">
        <ele>48.4</ele>
        <time>2011-05-28T11:55:18Z</time>
      </trkpt>
      <trkpt lat="59.3386802839" lon="18.0988251108">
        <ele>48.4</ele>
        <time>2011-05-28T11:55:19Z</time>
      </trkpt>
      <trkpt lat="59.3386398831" lon="18.0990582115">
        <ele>48.6</ele>
        <time>2011-05-28T11:55:22Z</time>
      </trkpt>
      <trkpt lat="59.33860426" lon="18.0992235864">
        <ele>48.8</ele>
        <time>2011-05-28T11:55:24Z</time>
      </trkpt>
      <trkpt lat="59.3385418987" lon="18.0995598682">
        <ele>49</ele>
        <time>2011-05-28T11:55:28Z</time>
      </trkpt>
      <trkpt lat="59.3385372887" lon="18.0998170249">
        <ele>48.4</ele>
        <time>2011-05-28T11:55:32Z</time>
      </trkpt>
      <trkpt lat="59.3385185132" lon="18.0998866785">
        <ele>48.2</ele>
        <time>2011-05-28T11:55:33Z</time>
      </trkpt>
      <trkpt lat="59.3384784477" lon="18.1000231358">
        <ele>48</ele>
        <time>2011-05-28T11:55:35Z</time>
      </trkpt>
      <trkpt lat="59.3384177628" lon="18.1003798695">
        <ele>47.2</ele>
        <time>2011-05-28T11:55:40Z</time>
      </trkpt>
      <trkpt lat="59.3383610173" lon="18.1006692127">
        <ele>46.2</ele>
        <time>2011-05-28T11:55:45Z</time>
      </trkpt>
      <trkpt lat="59.3383201975" lon="18.1008882317">
        <ele>46</ele>
        <time>2011-05-28T11:55:48Z</time>
      </trkpt>
      <trkpt lat="59.3382824789" lon="18.1011298819">
        <ele>45.6</ele>
        <time>2011-05-28T11:55:52Z</time>
      </trkpt>
      <trkpt lat="59.3382792938" lon="18.1012100967">
        <ele>45.4</ele>
        <time>2011-05-28T11:55:54Z</time>
      </trkpt>
      <trkpt lat="59.3381888531" lon="18.1015190535">
        <ele>44.4</ele>
        <time>2011-05-28T11:55:59Z</time>
      </trkpt>
      <trkpt lat="59.3381938822" lon="18.1015863602">
        <ele>44.2</ele>
        <time>2011-05-28T11:56:00Z</time>
      </trkpt>
      <trkpt lat="59.3382001686" lon="18.1017746176">
        <ele>43.8</ele>
        <time>2011-05-28T11:56:03Z</time>
      </trkpt>
      <trkpt lat="59.3381880987" lon="18.102135207">
        <ele>43.4</ele>
        <time>2011-05-28T11:56:09Z</time>
      </trkpt>
      <trkpt lat="59.3381765317" lon="18.1023696487">
        <ele>43.2</ele>
        <time>2011-05-28T11:56:13Z</time>
      </trkpt>
      <trkpt lat="59.3380734343" lon="18.1025366162">
        <ele>42.8</ele>
        <time>2011-05-28T11:56:16Z</time>
      </trkpt>
      <trkpt lat="59.3379679062" lon="18.1026871551">
        <ele>42</ele>
        <time>2011-05-28T11:56:21Z</time>
      </trkpt>
      <trkpt lat="59.3377825824" lon="18.1027097862">
        <ele>41.4</ele>
        <time>2011-05-28T11:56:27Z</time>
      </trkpt>
      <trkpt lat="59.3377023676" lon="18.1026770968">
        <ele>41.4</ele>
        <time>2011-05-28T11:56:29Z</time>
      </trkpt>
      <trkpt lat="59.3374559397" lon="18.1025135659">
        <ele>41.2</ele>
        <time>2011-05-28T11:56:35Z</time>
      </trkpt>
      <trkpt lat="59.3374121024" lon="18.1024986462">
        <ele>41.2</ele>
        <time>2011-05-28T11:56:36Z</time>
      </trkpt>
      <trkpt lat="59.337176571" lon="18.1024163359">
        <ele>41</ele>
        <time>2011-05-28T11:56:40Z</time>
      </trkpt>
      <trkpt lat="59.3369986233" lon="18.1023394739">
        <ele>41</ele>
        <time>2011-05-28T11:56:45Z</time>
      </trkpt>
      <trkpt lat="59.3369210069" lon="18.102297732">
        <ele>41</ele>
        <time>2011-05-28T11:56:47Z</time>
      </trkpt>
      <trkpt lat="59.3367661932" lon="18.1022234684">
        <ele>41.4</ele>
        <time>2011-05-28T11:56:50Z</time>
      </trkpt>
      <trkpt lat="59.3365434861" lon="18.10214493">
        <ele>42</ele>
        <time>2011-05-28T11:56:56Z</time>
      </trkpt>
      <trkpt lat="59.3364336832" lon="18.1019456922">
        <ele>43.4</ele>
        <time>2011-05-28T11:57:02Z</time>
      </trkpt>
      <trkpt lat="59.3362952142" lon="18.1017807364">
        <ele>44.2</ele>
        <time>2011-05-28T11:57:07Z</time>
      </trkpt>
      <trkpt lat="59.3361446753" lon="18.1016310357">
        <ele>45</ele>
        <time>2011-05-28T11:57:12Z</time>
      </trkpt>
      <trkpt lat="59.3359647159" lon="18.1014873699">
        <ele>46</ele>
        <time>2011-05-28T11:57:17Z</time>
      </trkpt>
      <trkpt lat="59.3358189547" lon="18.1014309597">
        <ele>46.4</ele>
        <time>2011-05-28T11:57:21Z</time>
      </trkpt>
      <trkpt lat="59.3356621293" lon="18.1012952568">
        <ele>47.6</ele>
        <time>2011-05-28T11:57:26Z</time>
      </trkpt>
      <trkpt lat="59.3355569365" lon="18.1011243498">
        <ele>48.2</ele>
        <time>2011-05-28T11:57:30Z</time>
      </trkpt>
      <trkpt lat="59.3354700162" lon="18.1011250204">
        <ele>48.6</ele>
        <time>2011-05-28T11:57:33Z</time>
      </trkpt>
      <trkpt lat="59.3353590398" lon="18.10103349">
        <ele>49.6</ele>
        <time>2011-05-28T11:57:38Z</time>
      </trkpt>
      <trkpt lat="59.3352917332" lon="18.1009313985">
        <ele>50.4</ele>
        <time>2011-05-28T11:57:43Z</time>
      </trkpt>
      <trkpt lat="59.3351981912" lon="18.1008376889">
        <ele>50.8</ele>
        <time>2011-05-28T11:57:47Z</time>
      </trkpt>
      <trkpt lat="59.3350944232" lon="18.1007453203">
        <ele>51.8</ele>
        <time>2011-05-28T11:57:52Z</time>
      </trkpt>
      <trkpt lat="59.3349036512" lon="18.1006345116">
        <ele>53</ele>
        <time>2011-05-28T11:58:00Z</time>
      </trkpt>
      <trkpt lat="59.3347529446" lon="18.1004863196">
        <ele>53.4</ele>
        <time>2011-05-28T11:58:09Z</time>
      </trkpt>
      <trkpt lat="59.3346225223" lon="18.100391688">
        <ele>52.8</ele>
        <time>2011-05-28T11:58:16Z</time>
      </trkpt>
      <trkpt lat="59.3344770963" lon="18.1002818012">
        <ele>52.2</ele>
        <time>2011-05-28T11:58:23Z</time>
      </trkpt>
      <trkpt lat="59.3343068599" lon="18.1001964735">
        <ele>51</ele>
        <time>2011-05-28T11:58:29Z</time>
      </trkpt>
      <trkpt lat="59.3341630265" lon="18.1001132412">
        <ele>50.4</ele>
        <time>2011-05-28T11:58:34Z</time>
      </trkpt>
      <trkpt lat="59.3339969811" lon="18.1000354572">
        <ele>50</ele>
        <time>2011-05-28T11:58:39Z</time>
      </trkpt>
      <trkpt lat="59.3339044449" lon="18.0999464414">
        <ele>49.8</ele>
        <time>2011-05-28T11:58:43Z</time>
      </trkpt>
      <trkpt lat="59.3338701629" lon="18.0999455194">
        <ele>49.8</ele>
        <time>2011-05-28T11:58:44Z</time>
      </trkpt>
      <trkpt lat="59.3337190373" lon="18.0998865947">
        <ele>49.6</ele>
        <time>2011-05-28T11:58:49Z</time>
      </trkpt>
      <trkpt lat="59.333564475" lon="18.0998463615">
        <ele>49.6</ele>
        <time>2011-05-28T11:58:54Z</time>
      </trkpt>
      <trkpt lat="59.3335017784" lon="18.0997249916">
        <ele>49.6</ele>
        <time>2011-05-28T11:58:59Z</time>
      </trkpt>
      <trkpt lat="59.3333775587" lon="18.0995935634">
        <ele>49.6</ele>
        <time>2011-05-28T11:59:04Z</time>
      </trkpt>
      <trkpt lat="59.3332624752" lon="18.0994931483">
        <ele>49.6</ele>
        <time>2011-05-28T11:59:09Z</time>
      </trkpt>
      <trkpt lat="59.333153259" lon="18.0993253426">
        <ele>48.8</ele>
        <time>2011-05-28T11:59:15Z</time>
      </trkpt>
      <trkpt lat="59.3330547717" lon="18.0992163779">
        <ele>47.6</ele>
        <time>2011-05-28T11:59:21Z</time>
      </trkpt>
      <trkpt lat="59.3330114373" lon="18.0991390968">
        <ele>47</ele>
        <time>2011-05-28T11:59:24Z</time>
      </trkpt>
      <trkpt lat="59.3330073301" lon="18.0988700378">
        <ele>45.2</ele>
        <time>2011-05-28T11:59:30Z</time>
      </trkpt>
      <trkpt lat="59.3330007084" lon="18.0985276372">
        <ele>43.4</ele>
        <time>2011-05-28T11:59:36Z</time>
      </trkpt>
      <trkpt lat="59.3329678514" lon="18.0982616795">
        <ele>41.2</ele>
        <time>2011-05-28T11:59:40Z</time>
      </trkpt>
      <trkpt lat="59.3329559491" lon="18.0982025871">
        <ele>40.8</ele>
        <time>2011-05-28T11:59:42Z</time>
      </trkpt>
      <trkpt lat="59.3329223377" lon="18.09789933">
        <ele>38</ele>
        <time>2011-05-28T11:59:48Z</time>
      </trkpt>
      <trkpt lat="59.3328596411" lon="18.0976329532">
        <ele>35.2</ele>
        <time>2011-05-28T11:59:53Z</time>
      </trkpt>
      <trkpt lat="59.3327612376" lon="18.0973747069">
        <ele>33</ele>
        <time>2011-05-28T12:00:00Z</time>
      </trkpt>
      <trkpt lat="59.3326301446" lon="18.0971934064">
        <ele>31.6</ele>
        <time>2011-05-28T12:00:06Z</time>
      </trkpt>
      <trkpt lat="59.3325173243" lon="18.0970502435">
        <ele>30.2</ele>
        <time>2011-05-28T12:00:11Z</time>
      </trkpt>
      <trkpt lat="59.332415568" lon="18.0968961842">
        <ele>29.4</ele>
        <time>2011-05-28T12:00:15Z</time>
      </trkpt>
      <trkpt lat="59.3323067709" lon="18.0967543624">
        <ele>28.8</ele>
        <time>2011-05-28T12:00:20Z</time>
      </trkpt>
      <trkpt lat="59.332173834" lon="18.0965968665">
        <ele>28.4</ele>
        <time>2011-05-28T12:00:25Z</time>
      </trkpt>
      <trkpt lat="59.3320629415" lon="18.0964095311">
        <ele>28.2</ele>
        <time>2011-05-28T12:00:30Z</time>
      </trkpt>
      <trkpt lat="59.3319310942" lon="18.0961530449">
        <ele>28</ele>
        <time>2011-05-28T12:00:37Z</time>
      </trkpt>
      <trkpt lat="59.3319193595" lon="18.0961025859">
        <ele>28</ele>
        <time>2011-05-28T12:00:38Z</time>
      </trkpt>
      <trkpt lat="59.3318489516" lon="18.0958949662">
        <ele>28</ele>
        <time>2011-05-28T12:00:43Z</time>
      </trkpt>
      <trkpt lat="59.3318202855" lon="18.0957736801">
        <ele>27.4</ele>
        <time>2011-05-28T12:00:46Z</time>
      </trkpt>
      <trkpt lat="59.331799666" lon="18.0956808925">
        <ele>27</ele>
        <time>2011-05-28T12:00:48Z</time>
      </trkpt>
      <trkpt lat="59.3317242289" lon="18.0953357259">
        <ele>25.2</ele>
        <time>2011-05-28T12:00:56Z</time>
      </trkpt>
      <trkpt lat="59.3317194512" lon="18.095221732">
        <ele>24.8</ele>
        <time>2011-05-28T12:00:58Z</time>
      </trkpt>
      <trkpt lat="59.3317022683" lon="18.0947880525">
        <ele>23</ele>
        <time>2011-05-28T12:01:06Z</time>
      </trkpt>
      <trkpt lat="59.3317156794" lon="18.0945175686">
        <ele>21.6</ele>
        <time>2011-05-28T12:01:11Z</time>
      </trkpt>
      <trkpt lat="59.3317326108" lon="18.0942523653">
        <ele>20.6</ele>
        <time>2011-05-28T12:01:16Z</time>
      </trkpt>
      <trkpt lat="59.3317471115" lon="18.0939216993">
        <ele>19.2</ele>
        <time>2011-05-28T12:01:22Z</time>
      </trkpt>
      <trkpt lat="59.3317586785" lon="18.0936443423">
        <ele>18.4</ele>
        <time>2011-05-28T12:01:27Z</time>
      </trkpt>
      <trkpt lat="59.3317843271" lon="18.0932882792">
        <ele>16.8</ele>
        <time>2011-05-28T12:01:34Z</time>
      </trkpt>
      <trkpt lat="59.3317761967" lon="18.0930286917">
        <ele>16</ele>
        <time>2011-05-28T12:01:39Z</time>
      </trkpt>
      <trkpt lat="59.3317833213" lon="18.0926862073">
        <ele>15.6</ele>
        <time>2011-05-28T12:01:45Z</time>
      </trkpt>
      <trkpt lat="59.3317726763" lon="18.092374233">
        <ele>15.4</ele>
        <time>2011-05-28T12:01:51Z</time>
      </trkpt>
      <trkpt lat="59.3317691559" lon="18.0920315809">
        <ele>15.2</ele>
        <time>2011-05-28T12:01:57Z</time>
      </trkpt>
      <trkpt lat="59.331753817" lon="18.0917826385">
        <ele>15.2</ele>
        <time>2011-05-28T12:02:02Z</time>
      </trkpt>
      <trkpt lat="59.3317278331" lon="18.091424899">
        <ele>14.4</ele>
        <time>2011-05-28T12:02:09Z</time>
      </trkpt>
      <trkpt lat="59.3317115722" lon="18.0910909641">
        <ele>13.6</ele>
        <time>2011-05-28T12:02:16Z</time>
      </trkpt>
      <trkpt lat="59.331694557" lon="18.0908540078">
        <ele>13.4</ele>
        <time>2011-05-28T12:02:20Z</time>
      </trkpt>
      <trkpt lat="59.3316698304" lon="18.0904781634">
        <ele>12.2</ele>
        <time>2011-05-28T12:02:27Z</time>
      </trkpt>
      <trkpt lat="59.331655162" lon="18.0901044983">
        <ele>11.4</ele>
        <time>2011-05-28T12:02:34Z</time>
      </trkpt>
      <trkpt lat="59.331638063" lon="18.0896993172">
        <ele>11.2</ele>
        <time>2011-05-28T12:02:42Z</time>
      </trkpt>
      <trkpt lat="59.3316184493" lon="18.089402095">
        <ele>11</ele>
        <time>2011-05-28T12:02:48Z</time>
      </trkpt>
      <trkpt lat="59.3315927169" lon="18.089006637">
        <ele>11</ele>
        <time>2011-05-28T12:02:56Z</time>
      </trkpt>
      <trkpt lat="59.3315826586" lon="18.088739422">
        <ele>11</ele>
        <time>2011-05-28T12:03:01Z</time>
      </trkpt>
      <trkpt lat="59.3316026913" lon="18.0884063253">
        <ele>11</ele>
        <time>2011-05-28T12:03:07Z</time>
      </trkpt>
      <trkpt lat="59.3316217183" lon="18.0880674451">
        <ele>11</ele>
        <time>2011-05-28T12:03:13Z</time>
      </trkpt>
      <trkpt lat="59.3316333691" lon="18.0880210094">
        <ele>11</ele>
        <time>2011-05-28T12:03:14Z</time>
      </trkpt>
      <trkpt lat="59.3316279209" lon="18.0877629307">
        <ele>11</ele>
        <time>2011-05-28T12:03:19Z</time>
      </trkpt>
      <trkpt lat="59.3316059603" lon="18.0874517946">
        <ele>11</ele>
        <time>2011-05-28T12:03:25Z</time>
      </trkpt>
      <trkpt lat="59.3315708401" lon="18.0870865952">
        <ele>11</ele>
        <time>2011-05-28T12:03:32Z</time>
      </trkpt>
      <trkpt lat="59.3315561718" lon="18.0867008601">
        <ele>11</ele>
        <time>2011-05-28T12:03:39Z</time>
      </trkpt>
      <trkpt lat="59.3315358038" lon="18.0863296258">
        <ele>9.8</ele>
        <time>2011-05-28T12:03:46Z</time>
      </trkpt>
      <trkpt lat="59.331544018" lon="18.0862798373">
        <ele>9.8</ele>
        <time>2011-05-28T12:03:47Z</time>
      </trkpt>
      <trkpt lat="59.3315283439" lon="18.0859599002">
        <ele>9.4</ele>
        <time>2011-05-28T12:03:53Z</time>
      </trkpt>
      <trkpt lat="59.3314949839" lon="18.0855830499">
        <ele>9.2</ele>
        <time>2011-05-28T12:04:00Z</time>
      </trkpt>
      <trkpt lat="59.3314673237" lon="18.0852155875">
        <ele>9</ele>
        <time>2011-05-28T12:04:07Z</time>
      </trkpt>
      <trkpt lat="59.3314433514" lon="18.0848449398">
        <ele>9</ele>
        <time>2011-05-28T12:04:14Z</time>
      </trkpt>
      <trkpt lat="59.331421307" lon="18.084482255">
        <ele>9</ele>
        <time>2011-05-28T12:04:21Z</time>
      </trkpt>
      <trkpt lat="59.3314037889" lon="18.0841173909">
        <ele>9</ele>
        <time>2011-05-28T12:04:28Z</time>
      </trkpt>
      <trkpt lat="59.3313988435" lon="18.0837625013">
        <ele>9</ele>
        <time>2011-05-28T12:04:35Z</time>
      </trkpt>
      <trkpt lat="59.3313753742" lon="18.0834839707">
        <ele>9</ele>
        <time>2011-05-28T12:04:41Z</time>
      </trkpt>
      <trkpt lat="59.3313828341" lon="18.0832512054">
        <ele>9</ele>
        <time>2011-05-28T12:04:46Z</time>
      </trkpt>
      <trkpt lat="59.3313710994" lon="18.0829175219">
        <ele>8.8</ele>
        <time>2011-05-28T12:04:52Z</time>
      </trkpt>
      <trkpt lat="59.331369004" lon="18.0826395781">
        <ele>8.8</ele>
        <time>2011-05-28T12:04:58Z</time>
      </trkpt>
      <trkpt lat="59.3313567664" lon="18.0823504026">
        <ele>8.8</ele>
        <time>2011-05-28T12:05:03Z</time>
      </trkpt>
      <trkpt lat="59.3313722729" lon="18.0820230056">
        <ele>8.8</ele>
        <time>2011-05-28T12:05:09Z</time>
      </trkpt>
      <trkpt lat="59.3313825826" lon="18.0816621648">
        <ele>9.2</ele>
        <time>2011-05-28T12:05:15Z</time>
      </trkpt>
      <trkpt lat="59.3314030345" lon="18.0813952013">
        <ele>10</ele>
        <time>2011-05-28T12:05:20Z</time>
      </trkpt>
      <trkpt lat="59.3314582712" lon="18.0811036788">
        <ele>10.4</ele>
        <time>2011-05-28T12:05:26Z</time>
      </trkpt>
      <trkpt lat="59.3315355523" lon="18.0807983262">
        <ele>10.6</ele>
        <time>2011-05-28T12:05:33Z</time>
      </trkpt>
      <trkpt lat="59.3315650566" lon="18.0806891938">
        <ele>10.8</ele>
        <time>2011-05-28T12:05:36Z</time>
      </trkpt>
      <trkpt lat="59.331595902" lon="18.080569165">
        <ele>10.8</ele>
        <time>2011-05-28T12:05:40Z</time>
      </trkpt>
      <trkpt lat="59.3315981651" lon="18.0805663152">
        <ele>10.8</ele>
        <time>2011-05-28T12:05:41Z</time>
      </trkpt>
      <trkpt lat="59.3316305192" lon="18.0804475436">
        <ele>10.8</ele>
        <time>2011-05-28T12:05:48Z</time>
      </trkpt>
      <trkpt lat="59.3316932997" lon="18.0802987649">
        <ele>10.8</ele>
        <time>2011-05-28T12:05:54Z</time>
      </trkpt>
      <trkpt lat="59.3317471115" lon="18.0801081605">
        <ele>10.8</ele>
        <time>2011-05-28T12:05:58Z</time>
      </trkpt>
      <trkpt lat="59.3318138314" lon="18.0798661751">
        <ele>10.8</ele>
        <time>2011-05-28T12:06:04Z</time>
      </trkpt>
      <trkpt lat="59.331899243" lon="18.0796448929">
        <ele>11</ele>
        <time>2011-05-28T12:06:09Z</time>
      </trkpt>
      <trkpt lat="59.3320154999" lon="18.0793324157">
        <ele>10</ele>
        <time>2011-05-28T12:06:16Z</time>
      </trkpt>
      <trkpt lat="59.3320701499" lon="18.0790890053">
        <ele>9.6</ele>
        <time>2011-05-28T12:06:21Z</time>
      </trkpt>
      <trkpt lat="59.3321235426" lon="18.0788613529">
        <ele>9.2</ele>
        <time>2011-05-28T12:06:25Z</time>
      </trkpt>
      <trkpt lat="59.3321930286" lon="18.0785745243">
        <ele>9.2</ele>
        <time>2011-05-28T12:06:31Z</time>
      </trkpt>
      <trkpt lat="59.3322796136" lon="18.0782454509">
        <ele>9</ele>
        <time>2011-05-28T12:06:38Z</time>
      </trkpt>
      <trkpt lat="59.3323321681" lon="18.0780399267">
        <ele>9</ele>
        <time>2011-05-28T12:06:42Z</time>
      </trkpt>
      <trkpt lat="59.3323716468" lon="18.0777719573">
        <ele>9</ele>
        <time>2011-05-28T12:06:47Z</time>
      </trkpt>
      <trkpt lat="59.3324793543" lon="18.0774272098">
        <ele>9</ele>
        <time>2011-05-28T12:06:54Z</time>
      </trkpt>
      <trkpt lat="59.3325464095" lon="18.0772262118">
        <ele>8.8</ele>
        <time>2011-05-28T12:06:58Z</time>
      </trkpt>
      <trkpt lat="59.3326303961" lon="18.0768973899">
        <ele>8.8</ele>
        <time>2011-05-28T12:07:04Z</time>
      </trkpt>
      <trkpt lat="59.3327007202" lon="18.0766698213">
        <ele>9.2</ele>
        <time>2011-05-28T12:07:09Z</time>
      </trkpt>
      <trkpt lat="59.3327719664" lon="18.0764011814">
        <ele>10</ele>
        <time>2011-05-28T12:07:15Z</time>
      </trkpt>
      <trkpt lat="59.3327845392" lon="18.0763606968">
        <ele>10.2</ele>
        <time>2011-05-28T12:07:16Z</time>
      </trkpt>
      <trkpt lat="59.332820749" lon="18.0762094874">
        <ele>10.8</ele>
        <time>2011-05-28T12:07:19Z</time>
      </trkpt>
      <trkpt lat="59.3329153807" lon="18.0759242513">
        <ele>11.8</ele>
        <time>2011-05-28T12:07:25Z</time>
      </trkpt>
      <trkpt lat="59.3329266963" lon="18.0758830124">
        <ele>12</ele>
        <time>2011-05-28T12:07:26Z</time>
      </trkpt>
      <trkpt lat="59.3329844476" lon="18.075545138">
        <ele>12.8</ele>
        <time>2011-05-28T12:07:33Z</time>
      </trkpt>
      <trkpt lat="59.333006911" lon="18.0752862211">
        <ele>13.8</ele>
        <time>2011-05-28T12:07:38Z</time>
      </trkpt>
      <trkpt lat="59.3330113535" lon="18.0750552997">
        <ele>14.2</ele>
        <time>2011-05-28T12:07:42Z</time>
      </trkpt>
      <trkpt lat="59.3330173884" lon="18.0748138172">
        <ele>14.6</ele>
        <time>2011-05-28T12:07:47Z</time>
      </trkpt>
      <trkpt lat="59.3330302965" lon="18.0745642042">
        <ele>14.8</ele>
        <time>2011-05-28T12:07:52Z</time>
      </trkpt>
      <trkpt lat="59.3330282011" lon="18.0742221389">
        <ele>15.4</ele>
        <time>2011-05-28T12:07:59Z</time>
      </trkpt>
      <trkpt lat="59.333041193" lon="18.0739291076">
        <ele>16.2</ele>
        <time>2011-05-28T12:08:05Z</time>
      </trkpt>
      <trkpt lat="59.333051838" lon="18.0736424467">
        <ele>16.6</ele>
        <time>2011-05-28T12:08:11Z</time>
      </trkpt>
      <trkpt lat="59.3330462222" lon="18.0734334859">
        <ele>17.2</ele>
        <time>2011-05-28T12:08:15Z</time>
      </trkpt>
      <trkpt lat="59.3330665064" lon="18.0732082642">
        <ele>18</ele>
        <time>2011-05-28T12:08:20Z</time>
      </trkpt>
      <trkpt lat="59.3330767323" lon="18.0729964536">
        <ele>18.4</ele>
        <time>2011-05-28T12:08:24Z</time>
      </trkpt>
      <trkpt lat="59.3330763132" lon="18.0726598365">
        <ele>18.8</ele>
        <time>2011-05-28T12:08:30Z</time>
      </trkpt>
      <trkpt lat="59.3330636565" lon="18.0724231317">
        <ele>19.6</ele>
        <time>2011-05-28T12:08:35Z</time>
      </trkpt>
      <trkpt lat="59.3330412768" lon="18.072125658">
        <ele>20.4</ele>
        <time>2011-05-28T12:08:42Z</time>
      </trkpt>
      <trkpt lat="59.3330437914" lon="18.0720871851">
        <ele>20.4</ele>
        <time>2011-05-28T12:08:43Z</time>
      </trkpt>
      <trkpt lat="59.3330398519" lon="18.0719034539">
        <ele>20.8</ele>
        <time>2011-05-28T12:08:48Z</time>
      </trkpt>
      <trkpt lat="59.3329586313" lon="18.0717705169">
        <ele>21.8</ele>
        <time>2011-05-28T12:08:53Z</time>
      </trkpt>
      <trkpt lat="59.3328570427" lon="18.0717110054">
        <ele>22.2</ele>
        <time>2011-05-28T12:08:57Z</time>
      </trkpt>
      <trkpt lat="59.3326557933" lon="18.0717724448">
        <ele>23.2</ele>
        <time>2011-05-28T12:09:04Z</time>
      </trkpt>
      <trkpt lat="59.3324473354" lon="18.07189876">
        <ele>24.2</ele>
        <time>2011-05-28T12:09:10Z</time>
      </trkpt>
      <trkpt lat="59.3322472594" lon="18.0719905418">
        <ele>24.8</ele>
        <time>2011-05-28T12:09:16Z</time>
      </trkpt>
      <trkpt lat="59.3321105507" lon="18.072063632">
        <ele>25</ele>
        <time>2011-05-28T12:09:20Z</time>
      </trkpt>
      <trkpt lat="59.3319952995" lon="18.0721430924">
        <ele>25.2</ele>
        <time>2011-05-28T12:09:24Z</time>
      </trkpt>
      <trkpt lat="59.3318414917" lon="18.072200257">
        <ele>25.2</ele>
        <time>2011-05-28T12:09:29Z</time>
      </trkpt>
      <trkpt lat="59.3317207085" lon="18.0722563319">
        <ele>25.2</ele>
        <time>2011-05-28T12:09:33Z</time>
      </trkpt>
      <trkpt lat="59.3316208801" lon="18.0723195314">
        <ele>25.4</ele>
        <time>2011-05-28T12:09:37Z</time>
      </trkpt>
      <trkpt lat="59.3314706764" lon="18.0723106466">
        <ele>25.4</ele>
        <time>2011-05-28T12:09:42Z</time>
      </trkpt>
      <trkpt lat="59.3313692554" lon="18.0723844073">
        <ele>25.4</ele>
        <time>2011-05-28T12:09:47Z</time>
      </trkpt>
      <trkpt lat="59.3313011106" lon="18.0724788713">
        <ele>25.4</ele>
        <time>2011-05-28T12:09:51Z</time>
      </trkpt>
      <trkpt lat="59.3312084068" lon="18.0725403106">
        <ele>25.4</ele>
        <time>2011-05-28T12:09:55Z</time>
      </trkpt>
      <trkpt lat="59.3310918984" lon="18.0725869978">
        <ele>24.6</ele>
        <time>2011-05-28T12:09:59Z</time>
      </trkpt>
      <trkpt lat="59.3309804191" lon="18.0726384627">
        <ele>24.2</ele>
        <time>2011-05-28T12:10:04Z</time>
      </trkpt>
      <trkpt lat="59.3308422854" lon="18.0727088706">
        <ele>23.8</ele>
        <time>2011-05-28T12:10:10Z</time>
      </trkpt>
      <trkpt lat="59.3307473184" lon="18.0727632692">
        <ele>23.6</ele>
        <time>2011-05-28T12:10:14Z</time>
      </trkpt>
      <trkpt lat="59.3306499208" lon="18.072793444">
        <ele>23.6</ele>
        <time>2011-05-28T12:10:18Z</time>
      </trkpt>
      <trkpt lat="59.3305136311" lon="18.0728793585">
        <ele>23.4</ele>
        <time>2011-05-28T12:10:23Z</time>
      </trkpt>
      <trkpt lat="59.3304077677" lon="18.0729583998">
        <ele>23.4</ele>
        <time>2011-05-28T12:10:27Z</time>
      </trkpt>
      <trkpt lat="59.3302361902" lon="18.0730174922">
        <ele>23.4</ele>
        <time>2011-05-28T12:10:33Z</time>
      </trkpt>
      <trkpt lat="59.3300842263" lon="18.0731342521">
        <ele>23.4</ele>
        <time>2011-05-28T12:10:38Z</time>
      </trkpt>
      <trkpt lat="59.3299419017" lon="18.0732678596">
        <ele>23.4</ele>
        <time>2011-05-28T12:10:44Z</time>
      </trkpt>
      <trkpt lat="59.3298281593" lon="18.0733606472">
        <ele>23.4</ele>
        <time>2011-05-28T12:10:49Z</time>
      </trkpt>
      <trkpt lat="59.3296910314" lon="18.0734440471">
        <ele>23.4</ele>
        <time>2011-05-28T12:10:55Z</time>
      </trkpt>
      <trkpt lat="59.3295663926" lon="18.0734217512">
        <ele>23.4</ele>
        <time>2011-05-28T12:11:00Z</time>
      </trkpt>
      <trkpt lat="59.3294246546" lon="18.0733751479">
        <ele>23.4</ele>
        <time>2011-05-28T12:11:05Z</time>
      </trkpt>
      <trkpt lat="59.3292353913" lon="18.0733474876">
        <ele>23.4</ele>
        <time>2011-05-28T12:11:12Z</time>
      </trkpt>
      <trkpt lat="59.3291824177" lon="18.0733323164">
        <ele>23.4</ele>
        <time>2011-05-28T12:11:14Z</time>
      </trkpt>
      <trkpt lat="59.3290386681" lon="18.0733256108">
        <ele>23.4</ele>
        <time>2011-05-28T12:11:20Z</time>
      </trkpt>
      <trkpt lat="59.3288824295" lon="18.0732737269">
        <ele>23.4</ele>
        <time>2011-05-28T12:11:26Z</time>
      </trkpt>
      <trkpt lat="59.3287554437" lon="18.073243552">
        <ele>23.4</ele>
        <time>2011-05-28T12:11:31Z</time>
      </trkpt>
      <trkpt lat="59.3285621571" lon="18.0731939312">
        <ele>23.4</ele>
        <time>2011-05-28T12:11:38Z</time>
      </trkpt>
      <trkpt lat="59.3284042421" lon="18.0731618285">
        <ele>23.4</ele>
        <time>2011-05-28T12:11:44Z</time>
      </trkpt>
      <trkpt lat="59.3282308206" lon="18.0730993834">
        <ele>23.4</ele>
        <time>2011-05-28T12:11:50Z</time>
      </trkpt>
      <trkpt lat="59.3281016555" lon="18.0730604075">
        <ele>23.4</ele>
        <time>2011-05-28T12:11:55Z</time>
      </trkpt>
      <trkpt lat="59.3279320897" lon="18.0730153967">
        <ele>23.4</ele>
        <time>2011-05-28T12:12:02Z</time>
      </trkpt>
      <trkpt lat="59.3277927825" lon="18.0730195877">
        <ele>23.4</ele>
        <time>2011-05-28T12:12:07Z</time>
      </trkpt>
      <trkpt lat="59.3277528847" lon="18.0730346751">
        <ele>23.4</ele>
        <time>2011-05-28T12:12:09Z</time>
      </trkpt>
      <trkpt lat="59.3276737595" lon="18.0731565479">
        <ele>23.4</ele>
        <time>2011-05-28T12:12:13Z</time>
      </trkpt>
      <trkpt lat="59.327531854" lon="18.0733196597">
        <ele>23.4</ele>
        <time>2011-05-28T12:12:19Z</time>
      </trkpt>
      <trkpt lat="59.3273948099" lon="18.0735304645">
        <ele>23.4</ele>
        <time>2011-05-28T12:12:25Z</time>
      </trkpt>
      <trkpt lat="59.3273716759" lon="18.0735514192">
        <ele>23.4</ele>
        <time>2011-05-28T12:12:26Z</time>
      </trkpt>
      <trkpt lat="59.3272601128" lon="18.0736982701">
        <ele>23.4</ele>
        <time>2011-05-28T12:12:31Z</time>
      </trkpt>
      <trkpt lat="59.3271696721" lon="18.0738239148">
        <ele>23.4</ele>
        <time>2011-05-28T12:12:35Z</time>
      </trkpt>
      <trkpt lat="59.327143772" lon="18.0738527485">
        <ele>23.4</ele>
        <time>2011-05-28T12:12:36Z</time>
      </trkpt>
      <trkpt lat="59.327002537" lon="18.0740246613">
        <ele>23.2</ele>
        <time>2011-05-28T12:12:42Z</time>
      </trkpt>
      <trkpt lat="59.3268644871" lon="18.0741281778">
        <ele>22.6</ele>
        <time>2011-05-28T12:12:46Z</time>
      </trkpt>
      <trkpt lat="59.3267540136" lon="18.0742398247">
        <ele>22.2</ele>
        <time>2011-05-28T12:12:50Z</time>
      </trkpt>
      <trkpt lat="59.3266167181" lon="18.0743820655">
        <ele>21.8</ele>
        <time>2011-05-28T12:12:56Z</time>
      </trkpt>
      <trkpt lat="59.3265120282" lon="18.0745060338">
        <ele>20.8</ele>
        <time>2011-05-28T12:13:02Z</time>
      </trkpt>
      <trkpt lat="59.3263855453" lon="18.0746718278">
        <ele>20</ele>
        <time>2011-05-28T12:13:08Z</time>
      </trkpt>
      <trkpt lat="59.3262829509" lon="18.0748480992">
        <ele>19</ele>
        <time>2011-05-28T12:13:13Z</time>
      </trkpt>
      <trkpt lat="59.3261606589" lon="18.0749662001">
        <ele>18.2</ele>
        <time>2011-05-28T12:13:18Z</time>
      </trkpt>
      <trkpt lat="59.3260598247" lon="18.0750613347">
        <ele>17.8</ele>
        <time>2011-05-28T12:13:22Z</time>
      </trkpt>
      <trkpt lat="59.3259500218" lon="18.0752007257">
        <ele>17.6</ele>
        <time>2011-05-28T12:13:27Z</time>
      </trkpt>
      <trkpt lat="59.3258081162" lon="18.0753415416">
        <ele>17.4</ele>
        <time>2011-05-28T12:13:33Z</time>
      </trkpt>
      <trkpt lat="59.3256561524" lon="18.0755174777">
        <ele>17.2</ele>
        <time>2011-05-28T12:13:38Z</time>
      </trkpt>
      <trkpt lat="59.3254786237" lon="18.0756097624">
        <ele>17.2</ele>
        <time>2011-05-28T12:13:43Z</time>
      </trkpt>
      <trkpt lat="59.3253691561" lon="18.0756217485">
        <ele>17.2</ele>
        <time>2011-05-28T12:13:47Z</time>
      </trkpt>
      <trkpt lat="59.3253533982" lon="18.0756321421">
        <ele>17.2</ele>
        <time>2011-05-28T12:13:48Z</time>
      </trkpt>
      <trkpt lat="59.3252257418" lon="18.0756514205">
        <ele>17.2</ele>
        <time>2011-05-28T12:13:53Z</time>
      </trkpt>
      <trkpt lat="59.3250462853" lon="18.0757072439">
        <ele>17.2</ele>
        <time>2011-05-28T12:13:59Z</time>
      </trkpt>
      <trkpt lat="59.3249263404" lon="18.0756881332">
        <ele>17</ele>
        <time>2011-05-28T12:14:03Z</time>
      </trkpt>
      <trkpt lat="59.3248106701" lon="18.0756629037">
        <ele>17</ele>
        <time>2011-05-28T12:14:07Z</time>
      </trkpt>
      <trkpt lat="59.3246054812" lon="18.0755996203">
        <ele>17</ele>
        <time>2011-05-28T12:14:14Z</time>
      </trkpt>
      <trkpt lat="59.3244691915" lon="18.0755274522">
        <ele>17</ele>
        <time>2011-05-28T12:14:19Z</time>
      </trkpt>
      <trkpt lat="59.3243461452" lon="18.0754592235">
        <ele>17</ele>
        <time>2011-05-28T12:14:24Z</time>
      </trkpt>
      <trkpt lat="59.3241698739" lon="18.075383954">
        <ele>17</ele>
        <time>2011-05-28T12:14:30Z</time>
      </trkpt>
      <trkpt lat="59.3239697141" lon="18.0753110315">
        <ele>17</ele>
        <time>2011-05-28T12:14:37Z</time>
      </trkpt>
      <trkpt lat="59.3237930237" lon="18.0752884004">
        <ele>17</ele>
        <time>2011-05-28T12:14:43Z</time>
      </trkpt>
      <trkpt lat="59.3236612602" lon="18.0752310682">
        <ele>17</ele>
        <time>2011-05-28T12:14:48Z</time>
      </trkpt>
      <trkpt lat="59.323475182" lon="18.0751512725">
        <ele>17</ele>
        <time>2011-05-28T12:14:55Z</time>
      </trkpt>
      <trkpt lat="59.3233424965" lon="18.0750977121">
        <ele>17</ele>
        <time>2011-05-28T12:15:00Z</time>
      </trkpt>
      <trkpt lat="59.3232120742" lon="18.0750098698">
        <ele>17</ele>
        <time>2011-05-28T12:15:05Z</time>
      </trkpt>
      <trkpt lat="59.3230860104" lon="18.0749647752">
        <ele>17</ele>
        <time>2011-05-28T12:15:09Z</time>
      </trkpt>
      <trkpt lat="59.322906973" lon="18.0749202673">
        <ele>17</ele>
        <time>2011-05-28T12:15:15Z</time>
      </trkpt>
      <trkpt lat="59.3227253372" lon="18.0748319221">
        <ele>17</ele>
        <time>2011-05-28T12:15:22Z</time>
      </trkpt>
      <trkpt lat="59.3225797436" lon="18.0746926149">
        <ele>17</ele>
        <time>2011-05-28T12:15:28Z</time>
      </trkpt>
      <trkpt lat="59.3224087529" lon="18.0745320177">
        <ele>17</ele>
        <time>2011-05-28T12:15:35Z</time>
      </trkpt>
      <trkpt lat="59.3222634107" lon="18.0743644635">
        <ele>17</ele>
        <time>2011-05-28T12:15:42Z</time>
      </trkpt>
      <trkpt lat="59.3221481596" lon="18.0742395732">
        <ele>17</ele>
        <time>2011-05-28T12:15:47Z</time>
      </trkpt>
      <trkpt lat="59.3219852993" lon="18.0740804009">
        <ele>17</ele>
        <time>2011-05-28T12:15:54Z</time>
      </trkpt>
      <trkpt lat="59.3219648474" lon="18.0740612064">
        <ele>17</ele>
        <time>2011-05-28T12:15:55Z</time>
      </trkpt>
      <trkpt lat="59.321874742" lon="18.0739475478">
        <ele>17</ele>
        <time>2011-05-28T12:15:59Z</time>
      </trkpt>
      <trkpt lat="59.321706182" lon="18.0737869506">
        <ele>17</ele>
        <time>2011-05-28T12:16:07Z</time>
      </trkpt>
      <trkpt lat="59.3216050963" lon="18.073673795">
        <ele>17</ele>
        <time>2011-05-28T12:16:12Z</time>
      </trkpt>
      <trkpt lat="59.3215118057" lon="18.0735952566">
        <ele>17</ele>
        <time>2011-05-28T12:16:17Z</time>
      </trkpt>
      <trkpt lat="59.321420443" lon="18.0734682708">
        <ele>17</ele>
        <time>2011-05-28T12:16:23Z</time>
      </trkpt>
      <trkpt lat="59.3213413179" lon="18.0732768282">
        <ele>17</ele>
        <time>2011-05-28T12:16:28Z</time>
      </trkpt>
      <trkpt lat="59.3212240551" lon="18.0731752396">
        <ele>17</ele>
        <time>2011-05-28T12:16:34Z</time>
      </trkpt>
      <trkpt lat="59.3211575867" lon="18.0730939351">
        <ele>17</ele>
        <time>2011-05-28T12:16:38Z</time>
      </trkpt>
      <trkpt lat="59.3210338698" lon="18.0730012313">
        <ele>17</ele>
        <time>2011-05-28T12:16:44Z</time>
      </trkpt>
      <trkpt lat="59.3209171938" lon="18.0729136405">
        <ele>17</ele>
        <time>2011-05-28T12:16:49Z</time>
      </trkpt>
      <trkpt lat="59.3207879449" lon="18.0728410532">
        <ele>17</ele>
        <time>2011-05-28T12:16:54Z</time>
      </trkpt>
      <trkpt lat="59.3206549241" lon="18.0729122994">
        <ele>17</ele>
        <time>2011-05-28T12:16:59Z</time>
      </trkpt>
      <trkpt lat="59.3212385558" lon="18.0713504999">
        <ele>16.8</ele>
        <time>2011-05-28T12:17:40Z</time>
      </trkpt>
      <trkpt lat="59.3212165114" lon="18.0712265316">
        <ele>16</ele>
        <time>2011-05-28T12:17:42Z</time>
      </trkpt>
      <trkpt lat="59.3212092192" lon="18.071101306">
        <ele>15.4</ele>
        <time>2011-05-28T12:17:44Z</time>
      </trkpt>
      <trkpt lat="59.3212313474" lon="18.0708438979">
        <ele>13.6</ele>
        <time>2011-05-28T12:17:49Z</time>
      </trkpt>
      <trkpt lat="59.3212450099" lon="18.0705489388">
        <ele>12.2</ele>
        <time>2011-05-28T12:17:55Z</time>
      </trkpt>
      <trkpt lat="59.3212377176" lon="18.0703129883">
        <ele>11.2</ele>
        <time>2011-05-28T12:18:00Z</time>
      </trkpt>
      <trkpt lat="59.3210869272" lon="18.0696467949">
        <ele>9.2</ele>
        <time>2011-05-28T12:18:12Z</time>
      </trkpt>
      <trkpt lat="59.3210846641" lon="18.0694183043">
        <ele>8.8</ele>
        <time>2011-05-28T12:18:19Z</time>
      </trkpt>
      <trkpt lat="59.3210449339" lon="18.0690817711">
        <ele>8.6</ele>
        <time>2011-05-28T12:18:26Z</time>
      </trkpt>
      <trkpt lat="59.321004617" lon="18.0687320782">
        <ele>8.6</ele>
        <time>2011-05-28T12:18:33Z</time>
      </trkpt>
      <trkpt lat="59.3210106519" lon="18.0680851631">
        <ele>8.6</ele>
        <time>2011-05-28T12:18:50Z</time>
      </trkpt>
      <trkpt lat="59.3210061257" lon="18.0680668068">
        <ele>8.6</ele>
        <time>2011-05-28T12:18:52Z</time>
      </trkpt>
      <trkpt lat="59.3209697483" lon="18.0677775474">
        <ele>8.6</ele>
        <time>2011-05-28T12:18:57Z</time>
      </trkpt>
      <trkpt lat="59.3209597738" lon="18.0677171139">
        <ele>8.6</ele>
        <time>2011-05-28T12:18:58Z</time>
      </trkpt>
      <trkpt lat="59.3209435967" lon="18.0673330553">
        <ele>8.6</ele>
        <time>2011-05-28T12:19:04Z</time>
      </trkpt>
      <trkpt lat="59.3209483744" lon="18.0669776627">
        <ele>9</ele>
        <time>2011-05-28T12:19:10Z</time>
      </trkpt>
      <trkpt lat="59.320979136" lon="18.0665957833">
        <ele>10</ele>
        <time>2011-05-28T12:19:18Z</time>
      </trkpt>
      <trkpt lat="59.3210509689" lon="18.0662910175">
        <ele>10.2</ele>
        <time>2011-05-28T12:19:25Z</time>
      </trkpt>
      <trkpt lat="59.321098159" lon="18.0659486168">
        <ele>10.4</ele>
        <time>2011-05-28T12:19:32Z</time>
      </trkpt>
      <trkpt lat="59.3211316866" lon="18.0656491315">
        <ele>10.6</ele>
        <time>2011-05-28T12:19:39Z</time>
      </trkpt>
      <trkpt lat="59.3211520546" lon="18.0653680026">
        <ele>11.2</ele>
        <time>2011-05-28T12:19:46Z</time>
      </trkpt>
      <trkpt lat="59.3211738475" lon="18.0650323075">
        <ele>12</ele>
        <time>2011-05-28T12:19:54Z</time>
      </trkpt>
      <trkpt lat="59.3211661362" lon="18.064731062">
        <ele>12.4</ele>
        <time>2011-05-28T12:20:00Z</time>
      </trkpt>
      <trkpt lat="59.3211461873" lon="18.0643516134">
        <ele>12.6</ele>
        <time>2011-05-28T12:20:08Z</time>
      </trkpt>
      <trkpt lat="59.3211424992" lon="18.064152208">
        <ele>12.6</ele>
        <time>2011-05-28T12:20:12Z</time>
      </trkpt>
      <trkpt lat="59.3211355423" lon="18.0640626893">
        <ele>12.6</ele>
        <time>2011-05-28T12:20:14Z</time>
      </trkpt>
      <trkpt lat="59.3211806369" lon="18.0638045268">
        <ele>12.6</ele>
        <time>2011-05-28T12:20:19Z</time>
      </trkpt>
      <trkpt lat="59.321225061" lon="18.0636559157">
        <ele>12.6</ele>
        <time>2011-05-28T12:20:22Z</time>
      </trkpt>
      <trkpt lat="59.3212068722" lon="18.0633724399">
        <ele>12.6</ele>
        <time>2011-05-28T12:20:27Z</time>
      </trkpt>
      <trkpt lat="59.3212343649" lon="18.0629848608">
        <ele>12.6</ele>
        <time>2011-05-28T12:20:33Z</time>
      </trkpt>
      <trkpt lat="59.3212584209" lon="18.0627380977">
        <ele>12.6</ele>
        <time>2011-05-28T12:20:38Z</time>
      </trkpt>
      <trkpt lat="59.3212752685" lon="18.0626978646">
        <ele>12.6</ele>
        <time>2011-05-28T12:20:39Z</time>
      </trkpt>
      <trkpt lat="59.3212950498" lon="18.0625030692">
        <ele>12.6</ele>
        <time>2011-05-28T12:20:43Z</time>
      </trkpt>
      <trkpt lat="59.3212847401" lon="18.062272567">
        <ele>12.6</ele>
        <time>2011-05-28T12:20:48Z</time>
      </trkpt>
      <trkpt lat="59.3212714129" lon="18.0619834752">
        <ele>12.6</ele>
        <time>2011-05-28T12:20:54Z</time>
      </trkpt>
      <trkpt lat="59.3212756038" lon="18.0616517196">
        <ele>12.6</ele>
        <time>2011-05-28T12:21:01Z</time>
      </trkpt>
      <trkpt lat="59.3212738436" lon="18.0614239834">
        <ele>12.6</ele>
        <time>2011-05-28T12:21:05Z</time>
      </trkpt>
      <trkpt lat="59.3212938763" lon="18.0610887912">
        <ele>12.2</ele>
        <time>2011-05-28T12:21:11Z</time>
      </trkpt>
      <trkpt lat="59.3212887634" lon="18.0607837739">
        <ele>11.6</ele>
        <time>2011-05-28T12:21:16Z</time>
      </trkpt>
      <trkpt lat="59.3212695688" lon="18.0604255315">
        <ele>11</ele>
        <time>2011-05-28T12:21:22Z</time>
      </trkpt>
      <trkpt lat="59.3212402322" lon="18.0600351864">
        <ele>10.8</ele>
        <time>2011-05-28T12:21:29Z</time>
      </trkpt>
      <trkpt lat="59.3212224626" lon="18.0597127347">
        <ele>10.8</ele>
        <time>2011-05-28T12:21:35Z</time>
      </trkpt>
      <trkpt lat="59.3211827324" lon="18.059409729">
        <ele>10.6</ele>
        <time>2011-05-28T12:21:41Z</time>
      </trkpt>
      <trkpt lat="59.3211562456" lon="18.0590930608">
        <ele>10.6</ele>
        <time>2011-05-28T12:21:47Z</time>
      </trkpt>
      <trkpt lat="59.3211404876" lon="18.0587323877">
        <ele>10.6</ele>
        <time>2011-05-28T12:21:54Z</time>
      </trkpt>
      <trkpt lat="59.3211371348" lon="18.0583638355">
        <ele>10.6</ele>
        <time>2011-05-28T12:22:01Z</time>
      </trkpt>
      <trkpt lat="59.3211296749" lon="18.0579985523">
        <ele>10.6</ele>
        <time>2011-05-28T12:22:08Z</time>
      </trkpt>
      <trkpt lat="59.3211271604" lon="18.0576520446">
        <ele>10.6</ele>
        <time>2011-05-28T12:22:15Z</time>
      </trkpt>
      <trkpt lat="59.3211342012" lon="18.0576066985">
        <ele>10.6</ele>
        <time>2011-05-28T12:22:16Z</time>
      </trkpt>
      <trkpt lat="59.3211074629" lon="18.057221634">
        <ele>10.6</ele>
        <time>2011-05-28T12:22:23Z</time>
      </trkpt>
      <trkpt lat="59.3210995839" lon="18.0568594521">
        <ele>10.6</ele>
        <time>2011-05-28T12:22:29Z</time>
      </trkpt>
      <trkpt lat="59.321093968" lon="18.0564696938">
        <ele>10.6</ele>
        <time>2011-05-28T12:22:36Z</time>
      </trkpt>
      <trkpt lat="59.321101847" lon="18.0560771694">
        <ele>10.6</ele>
        <time>2011-05-28T12:22:43Z</time>
      </trkpt>
      <trkpt lat="59.321088436" lon="18.0556870758">
        <ele>10.6</ele>
        <time>2011-05-28T12:22:50Z</time>
      </trkpt>
      <trkpt lat="59.3210822334" lon="18.0552843255">
        <ele>10.6</ele>
        <time>2011-05-28T12:22:58Z</time>
      </trkpt>
      <trkpt lat="59.3210799703" lon="18.0549197966">
        <ele>10.6</ele>
        <time>2011-05-28T12:23:05Z</time>
      </trkpt>
      <trkpt lat="59.3210834068" lon="18.0545493167">
        <ele>10.6</ele>
        <time>2011-05-28T12:23:12Z</time>
      </trkpt>
      <trkpt lat="59.3210956444" lon="18.0541672697">
        <ele>10.6</ele>
        <time>2011-05-28T12:23:19Z</time>
      </trkpt>
      <trkpt lat="59.3211206225" lon="18.0537896651">
        <ele>10.6</ele>
        <time>2011-05-28T12:23:26Z</time>
      </trkpt>
      <trkpt lat="59.3211383921" lon="18.0534536347">
        <ele>10.6</ele>
        <time>2011-05-28T12:23:32Z</time>
      </trkpt>
      <trkpt lat="59.3211513002" lon="18.0530767006">
        <ele>10.6</ele>
        <time>2011-05-28T12:23:39Z</time>
      </trkpt>
      <trkpt lat="59.3211564132" lon="18.052816275">
        <ele>10.6</ele>
        <time>2011-05-28T12:23:44Z</time>
      </trkpt>
      <trkpt lat="59.321145852" lon="18.0524497345">
        <ele>10.6</ele>
        <time>2011-05-28T12:23:51Z</time>
      </trkpt>
      <trkpt lat="59.3211419963" lon="18.0520762371">
        <ele>10.6</ele>
        <time>2011-05-28T12:23:58Z</time>
      </trkpt>
      <trkpt lat="59.3211386436" lon="18.0517056733">
        <ele>10.6</ele>
        <time>2011-05-28T12:24:05Z</time>
      </trkpt>
      <trkpt lat="59.3211442594" lon="18.0514087025">
        <ele>10.6</ele>
        <time>2011-05-28T12:24:11Z</time>
      </trkpt>
      <trkpt lat="59.3211468578" lon="18.0511555692">
        <ele>10.6</ele>
        <time>2011-05-28T12:24:17Z</time>
      </trkpt>
      <trkpt lat="59.3211386436" lon="18.0510268232">
        <ele>10.6</ele>
        <time>2011-05-28T12:24:20Z</time>
      </trkpt>
      <trkpt lat="59.3211584248" lon="18.0507534894">
        <ele>10.6</ele>
        <time>2011-05-28T12:24:26Z</time>
      </trkpt>
      <trkpt lat="59.3211482827" lon="18.050543439">
        <ele>10.6</ele>
        <time>2011-05-28T12:24:31Z</time>
      </trkpt>
      <trkpt lat="59.3211299264" lon="18.0503349812">
        <ele>10.6</ele>
        <time>2011-05-28T12:24:36Z</time>
      </trkpt>
      <trkpt lat="59.3211091393" lon="18.0501224162">
        <ele>10.6</ele>
        <time>2011-05-28T12:24:40Z</time>
      </trkpt>
      <trkpt lat="59.3211038587" lon="18.0500798361">
        <ele>10.6</ele>
        <time>2011-05-28T12:24:41Z</time>
      </trkpt>
      <trkpt lat="59.3210767851" lon="18.0498547821">
        <ele>10.6</ele>
        <time>2011-05-28T12:24:45Z</time>
      </trkpt>
      <trkpt lat="59.3210464427" lon="18.0495682888">
        <ele>10.6</ele>
        <time>2011-05-28T12:24:50Z</time>
      </trkpt>
      <trkpt lat="59.3210555789" lon="18.0493288179">
        <ele>10.6</ele>
        <time>2011-05-28T12:24:56Z</time>
      </trkpt>
      <trkpt lat="59.3210449339" lon="18.0489969785">
        <ele>10.6</ele>
        <time>2011-05-28T12:25:03Z</time>
      </trkpt>
      <trkpt lat="59.3210091432" lon="18.0487780432">
        <ele>10.6</ele>
        <time>2011-05-28T12:25:07Z</time>
      </trkpt>
      <trkpt lat="59.3209860092" lon="18.0484254167">
        <ele>10.6</ele>
        <time>2011-05-28T12:25:13Z</time>
      </trkpt>
      <trkpt lat="59.3209689101" lon="18.0483031248">
        <ele>10.6</ele>
        <time>2011-05-28T12:25:16Z</time>
      </trkpt>
      <trkpt lat="59.3209591871" lon="18.048059882">
        <ele>10.6</ele>
        <time>2011-05-28T12:25:21Z</time>
      </trkpt>
      <trkpt lat="59.3209476201" lon="18.0479439604">
        <ele>10.6</ele>
        <time>2011-05-28T12:25:23Z</time>
      </trkpt>
      <trkpt lat="59.3209122484" lon="18.0476424634">
        <ele>10.6</ele>
        <time>2011-05-28T12:25:29Z</time>
      </trkpt>
      <trkpt lat="59.3208690817" lon="18.0472813712">
        <ele>10.6</ele>
        <time>2011-05-28T12:25:36Z</time>
      </trkpt>
      <trkpt lat="59.320832788" lon="18.0469483583">
        <ele>10.6</ele>
        <time>2011-05-28T12:25:43Z</time>
      </trkpt>
      <trkpt lat="59.3208060498" lon="18.0466580931">
        <ele>10.6</ele>
        <time>2011-05-28T12:25:49Z</time>
      </trkpt>
      <trkpt lat="59.3207724384" lon="18.0463166145">
        <ele>10.6</ele>
        <time>2011-05-28T12:25:56Z</time>
      </trkpt>
      <trkpt lat="59.3207348874" lon="18.0460110942">
        <ele>10.6</ele>
        <time>2011-05-28T12:26:02Z</time>
      </trkpt>
      <trkpt lat="59.3207192133" lon="18.0456904865">
        <ele>10.6</ele>
        <time>2011-05-28T12:26:08Z</time>
      </trkpt>
      <trkpt lat="59.3207140165" lon="18.045385553">
        <ele>10.6</ele>
        <time>2011-05-28T12:26:14Z</time>
      </trkpt>
      <trkpt lat="59.3207104961" lon="18.0450355249">
        <ele>10.6</ele>
        <time>2011-05-28T12:26:21Z</time>
      </trkpt>
      <trkpt lat="59.3207017789" lon="18.0446766119">
        <ele>10.6</ele>
        <time>2011-05-28T12:26:28Z</time>
      </trkpt>
      <trkpt lat="59.3206527448" lon="18.0442871888">
        <ele>10.6</ele>
        <time>2011-05-28T12:26:35Z</time>
      </trkpt>
      <trkpt lat="59.3206024534" lon="18.0439322154">
        <ele>10.6</ele>
        <time>2011-05-28T12:26:41Z</time>
      </trkpt>
      <trkpt lat="59.3206085722" lon="18.0437079996">
        <ele>10.6</ele>
        <time>2011-05-28T12:26:45Z</time>
      </trkpt>
      <trkpt lat="59.3205843485" lon="18.0434888129">
        <ele>10.6</ele>
        <time>2011-05-28T12:26:49Z</time>
      </trkpt>
      <trkpt lat="59.3205773915" lon="18.0432899104">
        <ele>10.6</ele>
        <time>2011-05-28T12:26:53Z</time>
      </trkpt>
      <trkpt lat="59.3205751284" lon="18.0432204244">
        <ele>10.6</ele>
        <time>2011-05-28T12:26:54Z</time>
      </trkpt>
      <trkpt lat="59.3205632261" lon="18.0427618507">
        <ele>10.6</ele>
        <time>2011-05-28T12:27:03Z</time>
      </trkpt>
      <trkpt lat="59.320532716" lon="18.0425356232">
        <ele>10.6</ele>
        <time>2011-05-28T12:27:07Z</time>
      </trkpt>
      <trkpt lat="59.3204565245" lon="18.0422173625">
        <ele>10.6</ele>
        <time>2011-05-28T12:27:13Z</time>
      </trkpt>
      <trkpt lat="59.3204476397" lon="18.0420121735">
        <ele>10.6</ele>
        <time>2011-05-28T12:27:17Z</time>
      </trkpt>
      <trkpt lat="59.320432217" lon="18.041748479">
        <ele>10.6</ele>
        <time>2011-05-28T12:27:22Z</time>
      </trkpt>
      <trkpt lat="59.320439174" lon="18.0414756481">
        <ele>10.6</ele>
        <time>2011-05-28T12:27:27Z</time>
      </trkpt>
      <trkpt lat="59.3204600449" lon="18.0412771647">
        <ele>10.6</ele>
        <time>2011-05-28T12:27:30Z</time>
      </trkpt>
      <trkpt lat="59.3203858651" lon="18.0409052598">
        <ele>10.6</ele>
        <time>2011-05-28T12:27:37Z</time>
      </trkpt>
      <trkpt lat="59.3203551035" lon="18.0405968059">
        <ele>10.6</ele>
        <time>2011-05-28T12:27:43Z</time>
      </trkpt>
      <trkpt lat="59.3203274433" lon="18.0403359612">
        <ele>10.6</ele>
        <time>2011-05-28T12:27:48Z</time>
      </trkpt>
      <trkpt lat="59.3203398485" lon="18.0402066285">
        <ele>10.6</ele>
        <time>2011-05-28T12:27:50Z</time>
      </trkpt>
      <trkpt lat="59.3203558579" lon="18.0399135134">
        <ele>10.6</ele>
        <time>2011-05-28T12:27:56Z</time>
      </trkpt>
      <trkpt lat="59.3203443747" lon="18.0397966697">
        <ele>10.6</ele>
        <time>2011-05-28T12:27:58Z</time>
      </trkpt>
      <trkpt lat="59.3203174688" lon="18.0395413571">
        <ele>10.6</ele>
        <time>2011-05-28T12:28:02Z</time>
      </trkpt>
      <trkpt lat="59.3202780739" lon="18.0393074182">
        <ele>10.6</ele>
        <time>2011-05-28T12:28:06Z</time>
      </trkpt>
      <trkpt lat="59.3202515871" lon="18.0391990403">
        <ele>10.6</ele>
        <time>2011-05-28T12:28:08Z</time>
      </trkpt>
      <trkpt lat="59.3202450492" lon="18.0388601601">
        <ele>10.6</ele>
        <time>2011-05-28T12:28:14Z</time>
      </trkpt>
      <trkpt lat="59.3201926623" lon="18.0386243772">
        <ele>10.6</ele>
        <time>2011-05-28T12:28:18Z</time>
      </trkpt>
      <trkpt lat="59.320182604" lon="18.0384996545">
        <ele>10.6</ele>
        <time>2011-05-28T12:28:20Z</time>
      </trkpt>
      <trkpt lat="59.3200940074" lon="18.0381756941">
        <ele>10.6</ele>
        <time>2011-05-28T12:28:26Z</time>
      </trkpt>
      <trkpt lat="59.3200764054" lon="18.0380047033">
        <ele>10.6</ele>
        <time>2011-05-28T12:28:29Z</time>
      </trkpt>
      <trkpt lat="59.3200715439" lon="18.0376466286">
        <ele>10.6</ele>
        <time>2011-05-28T12:28:35Z</time>
      </trkpt>
      <trkpt lat="59.3200537742" lon="18.037415791">
        <ele>10.6</ele>
        <time>2011-05-28T12:28:39Z</time>
      </trkpt>
      <trkpt lat="59.319999711" lon="18.0371310579">
        <ele>10.6</ele>
        <time>2011-05-28T12:28:44Z</time>
      </trkpt>
      <trkpt lat="59.3199702905" lon="18.036788322">
        <ele>11.2</ele>
        <time>2011-05-28T12:28:50Z</time>
      </trkpt>
      <trkpt lat="59.3199764931" lon="18.0367074367">
        <ele>11.6</ele>
        <time>2011-05-28T12:28:52Z</time>
      </trkpt>
      <trkpt lat="59.3199330749" lon="18.0364376233">
        <ele>12</ele>
        <time>2011-05-28T12:28:57Z</time>
      </trkpt>
      <trkpt lat="59.319939026" lon="18.0362514613">
        <ele>12.2</ele>
        <time>2011-05-28T12:29:01Z</time>
      </trkpt>
      <trkpt lat="59.3198990444" lon="18.0360765311">
        <ele>12.4</ele>
        <time>2011-05-28T12:29:05Z</time>
      </trkpt>
      <trkpt lat="59.3198883155" lon="18.0357842542">
        <ele>12.4</ele>
        <time>2011-05-28T12:29:11Z</time>
      </trkpt>
      <trkpt lat="59.3198790954" lon="18.0356239085">
        <ele>12.4</ele>
        <time>2011-05-28T12:29:14Z</time>
      </trkpt>
      <trkpt lat="59.3198738987" lon="18.0353375828">
        <ele>12.6</ele>
        <time>2011-05-28T12:29:19Z</time>
      </trkpt>
      <trkpt lat="59.3198604038" lon="18.0349144644">
        <ele>12.6</ele>
        <time>2011-05-28T12:29:27Z</time>
      </trkpt>
      <trkpt lat="59.319836683" lon="18.0346060943">
        <ele>12.6</ele>
        <time>2011-05-28T12:29:34Z</time>
      </trkpt>
      <trkpt lat="59.3197754113" lon="18.0343123926">
        <ele>12.6</ele>
        <time>2011-05-28T12:29:41Z</time>
      </trkpt>
      <trkpt lat="59.3197032432" lon="18.0339365482">
        <ele>12.6</ele>
        <time>2011-05-28T12:29:49Z</time>
      </trkpt>
      <trkpt lat="59.3196956157" lon="18.0338843289">
        <ele>12.6</ele>
        <time>2011-05-28T12:29:50Z</time>
      </trkpt>
      <trkpt lat="59.3195797778" lon="18.0335409225">
        <ele>12.6</ele>
        <time>2011-05-28T12:29:58Z</time>
      </trkpt>
      <trkpt lat="59.3194833021" lon="18.0333343087">
        <ele>12.6</ele>
        <time>2011-05-28T12:30:04Z</time>
      </trkpt>
      <trkpt lat="59.3193390496" lon="18.0332249249">
        <ele>13.2</ele>
        <time>2011-05-28T12:30:11Z</time>
      </trkpt>
      <trkpt lat="59.3192217869" lon="18.0331790759">
        <ele>13.6</ele>
        <time>2011-05-28T12:30:15Z</time>
      </trkpt>
      <trkpt lat="59.3191222099" lon="18.0331192291">
        <ele>14</ele>
        <time>2011-05-28T12:30:19Z</time>
      </trkpt>
      <trkpt lat="59.3190295061" lon="18.0330261062">
        <ele>14.2</ele>
        <time>2011-05-28T12:30:24Z</time>
      </trkpt>
      <trkpt lat="59.3190148377" lon="18.0329999547">
        <ele>14.4</ele>
        <time>2011-05-28T12:30:25Z</time>
      </trkpt>
      <trkpt lat="59.3189649654" lon="18.0328792553">
        <ele>14.4</ele>
        <time>2011-05-28T12:30:29Z</time>
      </trkpt>
      <trkpt lat="59.3189690726" lon="18.0326599848">
        <ele>14.6</ele>
        <time>2011-05-28T12:30:34Z</time>
      </trkpt>
      <trkpt lat="59.3189616127" lon="18.0324713921">
        <ele>14.6</ele>
        <time>2011-05-28T12:30:38Z</time>
      </trkpt>
      <trkpt lat="59.318962367" lon="18.0324238667">
        <ele>14.6</ele>
        <time>2011-05-28T12:30:39Z</time>
      </trkpt>
      <trkpt lat="59.3189638758" lon="18.0322650297">
        <ele>14.6</ele>
        <time>2011-05-28T12:30:43Z</time>
      </trkpt>
      <trkpt lat="59.3189858364" lon="18.0321535504">
        <ele>14.6</ele>
        <time>2011-05-28T12:30:46Z</time>
      </trkpt>
      <trkpt lat="59.3190155083" lon="18.0320887583">
        <ele>14.6</ele>
        <time>2011-05-28T12:30:48Z</time>
      </trkpt>
      <trkpt lat="59.3191493672" lon="18.0320227089">
        <ele>14.6</ele>
        <time>2011-05-28T12:30:53Z</time>
      </trkpt>
      <trkpt lat="59.3193295781" lon="18.0319469366">
        <ele>15.6</ele>
        <time>2011-05-28T12:31:00Z</time>
      </trkpt>
      <trkpt lat="59.3195273071" lon="18.0318430848">
        <ele>16.2</ele>
        <time>2011-05-28T12:31:08Z</time>
      </trkpt>
      <trkpt lat="59.3197117927" lon="18.0317373891">
        <ele>17.2</ele>
        <time>2011-05-28T12:31:16Z</time>
      </trkpt>
      <trkpt lat="59.3198949372" lon="18.0316477027">
        <ele>18</ele>
        <time>2011-05-28T12:31:23Z</time>
      </trkpt>
      <trkpt lat="59.3200642516" lon="18.0315558371">
        <ele>18.4</ele>
        <time>2011-05-28T12:31:30Z</time>
      </trkpt>
      <trkpt lat="59.320246977" lon="18.0314272588">
        <ele>19.8</ele>
        <time>2011-05-28T12:31:38Z</time>
      </trkpt>
      <trkpt lat="59.3204241704" lon="18.0313337168">
        <ele>20.6</ele>
        <time>2011-05-28T12:31:45Z</time>
      </trkpt>
      <trkpt lat="59.3205997712" lon="18.0312422702">
        <ele>21.8</ele>
        <time>2011-05-28T12:31:52Z</time>
      </trkpt>
      <trkpt lat="59.3207729413" lon="18.031140514">
        <ele>22.4</ele>
        <time>2011-05-28T12:31:59Z</time>
      </trkpt>
      <trkpt lat="59.3208891144" lon="18.0310720339">
        <ele>23.6</ele>
        <time>2011-05-28T12:32:04Z</time>
      </trkpt>
      <trkpt lat="59.3210631226" lon="18.0309514183">
        <ele>24.4</ele>
        <time>2011-05-28T12:32:12Z</time>
      </trkpt>
      <trkpt lat="59.3212038547" lon="18.0308796692">
        <ele>24.6</ele>
        <time>2011-05-28T12:32:18Z</time>
      </trkpt>
      <trkpt lat="59.32134685" lon="18.030800125">
        <ele>24.8</ele>
        <time>2011-05-28T12:32:24Z</time>
      </trkpt>
      <trkpt lat="59.3214852351" lon="18.0307061639">
        <ele>25</ele>
        <time>2011-05-28T12:32:30Z</time>
      </trkpt>
      <trkpt lat="59.3215490214" lon="18.0306619075">
        <ele>25</ele>
        <time>2011-05-28T12:32:33Z</time>
      </trkpt>
      <trkpt lat="59.3216864007" lon="18.0305645936">
        <ele>24.8</ele>
        <time>2011-05-28T12:32:39Z</time>
      </trkpt>
      <trkpt lat="59.3218206788" lon="18.0304425532">
        <ele>23.8</ele>
        <time>2011-05-28T12:32:45Z</time>
      </trkpt>
      <trkpt lat="59.3219608241" lon="18.0303095324">
        <ele>23.4</ele>
        <time>2011-05-28T12:32:51Z</time>
      </trkpt>
      <trkpt lat="59.3220866365" lon="18.0301862347">
        <ele>23.2</ele>
        <time>2011-05-28T12:32:56Z</time>
      </trkpt>
      <trkpt lat="59.3222451382" lon="18.030020776">
        <ele>23</ele>
        <time>2011-05-28T12:33:03Z</time>
      </trkpt>
      <trkpt lat="59.3223981917" lon="18.0298380505">
        <ele>23</ele>
        <time>2011-05-28T12:33:10Z</time>
      </trkpt>
      <trkpt lat="59.3225588727" lon="18.0296474461">
        <ele>23</ele>
        <time>2011-05-28T12:33:18Z</time>
      </trkpt>
      <trkpt lat="59.3227005268" lon="18.0294910399">
        <ele>23.8</ele>
        <time>2011-05-28T12:33:25Z</time>
      </trkpt>
      <trkpt lat="59.3228672428" lon="18.0292918859">
        <ele>25.4</ele>
        <time>2011-05-28T12:33:33Z</time>
      </trkpt>
      <trkpt lat="59.3230244872" lon="18.0290838472">
        <ele>27.2</ele>
        <time>2011-05-28T12:33:41Z</time>
      </trkpt>
      <trkpt lat="59.3231955618" lon="18.0288888842">
        <ele>29</ele>
        <time>2011-05-28T12:33:49Z</time>
      </trkpt>
      <trkpt lat="59.323358506" lon="18.0286898979">
        <ele>30.2</ele>
        <time>2011-05-28T12:33:57Z</time>
      </trkpt>
      <trkpt lat="59.3235238808" lon="18.0284821106">
        <ele>32</ele>
        <time>2011-05-28T12:34:05Z</time>
      </trkpt>
      <trkpt lat="59.3236848133" lon="18.0282942722">
        <ele>33.6</ele>
        <time>2011-05-28T12:34:12Z</time>
      </trkpt>
      <trkpt lat="59.3238440694" lon="18.0281050927">
        <ele>35.2</ele>
        <time>2011-05-28T12:34:19Z</time>
      </trkpt>
      <trkpt lat="59.3239552972" lon="18.0279633548">
        <ele>36</ele>
        <time>2011-05-28T12:34:24Z</time>
      </trkpt>
      <trkpt lat="59.3240975381" lon="18.0277970579">
        <ele>36.8</ele>
        <time>2011-05-28T12:34:30Z</time>
      </trkpt>
      <trkpt lat="59.32425319" lon="18.0276078784">
        <ele>37.2</ele>
        <time>2011-05-28T12:34:37Z</time>
      </trkpt>
      <trkpt lat="59.3243983645" lon="18.0274029409">
        <ele>37.4</ele>
        <time>2011-05-28T12:34:44Z</time>
      </trkpt>
      <trkpt lat="59.324512023" lon="18.0272586884">
        <ele>37.4</ele>
        <time>2011-05-28T12:34:49Z</time>
      </trkpt>
      <trkpt lat="59.3246585386" lon="18.0270860213">
        <ele>37.4</ele>
        <time>2011-05-28T12:34:55Z</time>
      </trkpt>
      <trkpt lat="59.32477555" lon="18.0269421041">
        <ele>37.4</ele>
        <time>2011-05-28T12:35:00Z</time>
      </trkpt>
      <trkpt lat="59.3249446129" lon="18.0267204028">
        <ele>37.4</ele>
        <time>2011-05-28T12:35:07Z</time>
      </trkpt>
      <trkpt lat="59.3250546672" lon="18.0265603924">
        <ele>37.4</ele>
        <time>2011-05-28T12:35:12Z</time>
      </trkpt>
      <trkpt lat="59.3251644701" lon="18.026368363">
        <ele>37.4</ele>
        <time>2011-05-28T12:35:17Z</time>
      </trkpt>
      <trkpt lat="59.3252902825" lon="18.0262239429">
        <ele>37.4</ele>
        <time>2011-05-28T12:35:22Z</time>
      </trkpt>
      <trkpt lat="59.3254466887" lon="18.0260309916">
        <ele>37.4</ele>
        <time>2011-05-28T12:35:28Z</time>
      </trkpt>
      <trkpt lat="59.3256235468" lon="18.0258202706">
        <ele>36.6</ele>
        <time>2011-05-28T12:35:35Z</time>
      </trkpt>
      <trkpt lat="59.3257958787" lon="18.0256086276">
        <ele>36</ele>
        <time>2011-05-28T12:35:42Z</time>
      </trkpt>
      <trkpt lat="59.3259717309" lon="18.0254005889">
        <ele>34.8</ele>
        <time>2011-05-28T12:35:49Z</time>
      </trkpt>
      <trkpt lat="59.3261483376" lon="18.0251999262">
        <ele>34</ele>
        <time>2011-05-28T12:35:56Z</time>
      </trkpt>
      <trkpt lat="59.3263262853" lon="18.024992055">
        <ele>33.2</ele>
        <time>2011-05-28T12:36:03Z</time>
      </trkpt>
      <trkpt lat="59.3265033948" lon="18.0247763049">
        <ele>32.2</ele>
        <time>2011-05-28T12:36:10Z</time>
      </trkpt>
      <trkpt lat="59.3266813426" lon="18.0245620636">
        <ele>31.6</ele>
        <time>2011-05-28T12:36:17Z</time>
      </trkpt>
      <trkpt lat="59.3268617211" lon="18.0243640831">
        <ele>31.2</ele>
        <time>2011-05-28T12:36:24Z</time>
      </trkpt>
      <trkpt lat="59.3270270959" lon="18.0241772505">
        <ele>30.2</ele>
        <time>2011-05-28T12:36:31Z</time>
      </trkpt>
      <trkpt lat="59.3271213923" lon="18.0240833733">
        <ele>29.8</ele>
        <time>2011-05-28T12:36:36Z</time>
      </trkpt>
      <trkpt lat="59.327216024" lon="18.0239645179">
        <ele>29.6</ele>
        <time>2011-05-28T12:36:41Z</time>
      </trkpt>
      <trkpt lat="59.3272753678" lon="18.0238426451">
        <ele>29.4</ele>
        <time>2011-05-28T12:36:45Z</time>
      </trkpt>
      <trkpt lat="59.3273666467" lon="18.0236954589">
        <ele>29.4</ele>
        <time>2011-05-28T12:36:50Z</time>
      </trkpt>
      <trkpt lat="59.3274908665" lon="18.0234978976">
        <ele>29.2</ele>
        <time>2011-05-28T12:36:56Z</time>
      </trkpt>
      <trkpt lat="59.3276329397" lon="18.0232666409">
        <ele>29.2</ele>
        <time>2011-05-28T12:37:03Z</time>
      </trkpt>
      <trkpt lat="59.3277991528" lon="18.0230428442">
        <ele>28.6</ele>
        <time>2011-05-28T12:37:10Z</time>
      </trkpt>
      <trkpt lat="59.3279622645" lon="18.0228296925">
        <ele>27.8</ele>
        <time>2011-05-28T12:37:17Z</time>
      </trkpt>
      <trkpt lat="59.3280743305" lon="18.022665072">
        <ele>27.6</ele>
        <time>2011-05-28T12:37:22Z</time>
      </trkpt>
      <trkpt lat="59.3280967102" lon="18.0226294489">
        <ele>27.6</ele>
        <time>2011-05-28T12:37:23Z</time>
      </trkpt>
      <trkpt lat="59.3282226063" lon="18.0224704443">
        <ele>26.4</ele>
        <time>2011-05-28T12:37:29Z</time>
      </trkpt>
      <trkpt lat="59.3283688705" lon="18.0222474019">
        <ele>25.8</ele>
        <time>2011-05-28T12:37:36Z</time>
      </trkpt>
      <trkpt lat="59.3284887317" lon="18.0221076756">
        <ele>25</ele>
        <time>2011-05-28T12:37:41Z</time>
      </trkpt>
      <trkpt lat="59.3285134583" lon="18.0220825299">
        <ele>24.8</ele>
        <time>2011-05-28T12:37:42Z</time>
      </trkpt>
      <trkpt lat="59.3289852754" lon="18.0212261512">
        <ele>23.2</ele>
        <time>2011-05-28T12:38:04Z</time>
      </trkpt>
      <trkpt lat="59.3291421008" lon="18.0209657256">
        <ele>23</ele>
        <time>2011-05-28T12:38:11Z</time>
      </trkpt>
      <trkpt lat="59.329261459" lon="18.0207986743">
        <ele>22.2</ele>
        <time>2011-05-28T12:38:16Z</time>
      </trkpt>
      <trkpt lat="59.3294124171" lon="18.0205861931">
        <ele>21.6</ele>
        <time>2011-05-28T12:38:22Z</time>
      </trkpt>
      <trkpt lat="59.3295753612" lon="18.0203884641">
        <ele>21.4</ele>
        <time>2011-05-28T12:38:29Z</time>
      </trkpt>
      <trkpt lat="59.3297031013" lon="18.0203550203">
        <ele>21.2</ele>
        <time>2011-05-28T12:38:34Z</time>
      </trkpt>
      <trkpt lat="59.3298540594" lon="18.0204183037">
        <ele>21.2</ele>
        <time>2011-05-28T12:38:39Z</time>
      </trkpt>
      <trkpt lat="59.3300078672" lon="18.0205822536">
        <ele>21</ele>
        <time>2011-05-28T12:38:44Z</time>
      </trkpt>
      <trkpt lat="59.3301389601" lon="18.0207724389">
        <ele>21</ele>
        <time>2011-05-28T12:38:49Z</time>
      </trkpt>
      <trkpt lat="59.330421514" lon="18.0211951382">
        <ele>21</ele>
        <time>2011-05-28T12:39:00Z</time>
      </trkpt>
      <trkpt lat="59.3305685325" lon="18.0214098824">
        <ele>21</ele>
        <time>2011-05-28T12:39:06Z</time>
      </trkpt>
      <trkpt lat="59.3305842905" lon="18.0214654544">
        <ele>21</ele>
        <time>2011-05-28T12:39:07Z</time>
      </trkpt>
      <trkpt lat="59.330594684" lon="18.0218121298">
        <ele>21</ele>
        <time>2011-05-28T12:39:12Z</time>
      </trkpt>
      <trkpt lat="59.3305158942" lon="18.0221660136">
        <ele>20.4</ele>
        <time>2011-05-28T12:39:18Z</time>
      </trkpt>
      <trkpt lat="59.3304302312" lon="18.0224308817">
        <ele>19.8</ele>
        <time>2011-05-28T12:39:23Z</time>
      </trkpt>
      <trkpt lat="59.3303774252" lon="18.0226846018">
        <ele>19.4</ele>
        <time>2011-05-28T12:39:28Z</time>
      </trkpt>
      <trkpt lat="59.3303100347" lon="18.0229491346">
        <ele>19.2</ele>
        <time>2011-05-28T12:39:33Z</time>
      </trkpt>
      <trkpt lat="59.3302656107" lon="18.0231754459">
        <ele>18.6</ele>
        <time>2011-05-28T12:39:37Z</time>
      </trkpt>
      <trkpt lat="59.3301923528" lon="18.0234191077">
        <ele>17.8</ele>
        <time>2011-05-28T12:39:42Z</time>
      </trkpt>
      <trkpt lat="59.3301142335" lon="18.0236381267">
        <ele>17.6</ele>
        <time>2011-05-28T12:39:47Z</time>
      </trkpt>
      <trkpt lat="59.3300662891" lon="18.023854715">
        <ele>17.2</ele>
        <time>2011-05-28T12:39:52Z</time>
      </trkpt>
      <trkpt lat="59.3300715697" lon="18.0238847222">
        <ele>17</ele>
        <time>2011-05-28T12:39:53Z</time>
      </trkpt>
      <trkpt lat="59.32995657" lon="18.0241895719">
        <ele>16</ele>
        <time>2011-05-28T12:40:00Z</time>
      </trkpt>
      <trkpt lat="59.3298450907" lon="18.024474808">
        <ele>15.4</ele>
        <time>2011-05-28T12:40:06Z</time>
      </trkpt>
      <trkpt lat="59.3297743475" lon="18.0247038015">
        <ele>15.2</ele>
        <time>2011-05-28T12:40:11Z</time>
      </trkpt>
      <trkpt lat="59.3297107289" lon="18.0250251636">
        <ele>15.2</ele>
        <time>2011-05-28T12:40:17Z</time>
      </trkpt>
      <trkpt lat="59.3296519718" lon="18.0252062964">
        <ele>15</ele>
        <time>2011-05-28T12:40:22Z</time>
      </trkpt>
      <trkpt lat="59.3296404047" lon="18.0252425062">
        <ele>15</ele>
        <time>2011-05-28T12:40:23Z</time>
      </trkpt>
      <trkpt lat="59.3296041111" lon="18.0253660554">
        <ele>15</ele>
        <time>2011-05-28T12:40:27Z</time>
      </trkpt>
      <trkpt lat="59.3295173584" lon="18.0255288319">
        <ele>15</ele>
        <time>2011-05-28T12:40:33Z</time>
      </trkpt>
      <trkpt lat="59.3294172786" lon="18.0257523772">
        <ele>15</ele>
        <time>2011-05-28T12:40:38Z</time>
      </trkpt>
      <trkpt lat="59.3293445237" lon="18.0259869866">
        <ele>15</ele>
        <time>2011-05-28T12:40:43Z</time>
      </trkpt>
      <trkpt lat="59.3292981718" lon="18.026203072">
        <ele>15</ele>
        <time>2011-05-28T12:40:47Z</time>
      </trkpt>
      <trkpt lat="59.3292169511" lon="18.026442459">
        <ele>15</ele>
        <time>2011-05-28T12:40:52Z</time>
      </trkpt>
      <trkpt lat="59.3291043822" lon="18.0267474764">
        <ele>15</ele>
        <time>2011-05-28T12:40:58Z</time>
      </trkpt>
      <trkpt lat="59.3290140253" lon="18.0270576067">
        <ele>15</ele>
        <time>2011-05-28T12:41:04Z</time>
      </trkpt>
      <trkpt lat="59.328919729" lon="18.0273563376">
        <ele>15</ele>
        <time>2011-05-28T12:41:10Z</time>
      </trkpt>
      <trkpt lat="59.3288276957" lon="18.0276790407">
        <ele>15</ele>
        <time>2011-05-28T12:41:16Z</time>
      </trkpt>
      <trkpt lat="59.32872661" lon="18.0280064377">
        <ele>15</ele>
        <time>2011-05-28T12:41:22Z</time>
      </trkpt>
      <trkpt lat="59.3286680205" lon="18.0283289733">
        <ele>15</ele>
        <time>2011-05-28T12:41:28Z</time>
      </trkpt>
      <trkpt lat="59.3286385162" lon="18.028695849">
        <ele>15</ele>
        <time>2011-05-28T12:41:34Z</time>
      </trkpt>
      <trkpt lat="59.3286234288" lon="18.0289387565">
        <ele>15</ele>
        <time>2011-05-28T12:41:38Z</time>
      </trkpt>
      <trkpt lat="59.3285878057" lon="18.0293249944">
        <ele>15</ele>
        <time>2011-05-28T12:41:44Z</time>
      </trkpt>
      <trkpt lat="59.3285621571" lon="18.0296236415">
        <ele>15</ele>
        <time>2011-05-28T12:41:49Z</time>
      </trkpt>
      <trkpt lat="59.3285153861" lon="18.0300185967">
        <ele>15</ele>
        <time>2011-05-28T12:41:56Z</time>
      </trkpt>
      <trkpt lat="59.3284737281" lon="18.0302710595">
        <ele>15</ele>
        <time>2011-05-28T12:42:00Z</time>
      </trkpt>
      <trkpt lat="59.3284251969" lon="18.0306558725">
        <ele>15</ele>
        <time>2011-05-28T12:42:05Z</time>
      </trkpt>
      <trkpt lat="59.3283772524" lon="18.030985365">
        <ele>15</ele>
        <time>2011-05-28T12:42:10Z</time>
      </trkpt>
      <trkpt lat="59.3283281345" lon="18.0312527476">
        <ele>15</ele>
        <time>2011-05-28T12:42:15Z</time>
      </trkpt>
      <trkpt lat="59.3283095266" lon="18.0314490517">
        <ele>15</ele>
        <time>2011-05-28T12:42:21Z</time>
      </trkpt>
      <trkpt lat="59.3283233568" lon="18.0317093935">
        <ele>15</ele>
        <time>2011-05-28T12:42:25Z</time>
      </trkpt>
      <trkpt lat="59.3283217642" lon="18.0320637803">
        <ele>15</ele>
        <time>2011-05-28T12:42:31Z</time>
      </trkpt>
      <trkpt lat="59.3282845486" lon="18.032429734">
        <ele>15</ele>
        <time>2011-05-28T12:42:38Z</time>
      </trkpt>
      <trkpt lat="59.3282418847" lon="18.0326615774">
        <ele>14.8</ele>
        <time>2011-05-28T12:42:43Z</time>
      </trkpt>
      <trkpt lat="59.3281876538" lon="18.032978497">
        <ele>14</ele>
        <time>2011-05-28T12:42:49Z</time>
      </trkpt>
      <trkpt lat="59.3281045054" lon="18.0333229931">
        <ele>13.4</ele>
        <time>2011-05-28T12:42:56Z</time>
      </trkpt>
      <trkpt lat="59.3280486819" lon="18.033567996">
        <ele>13.2</ele>
        <time>2011-05-28T12:43:01Z</time>
      </trkpt>
      <trkpt lat="59.3280099575" lon="18.033827332">
        <ele>13.2</ele>
        <time>2011-05-28T12:43:06Z</time>
      </trkpt>
      <trkpt lat="59.3279796989" lon="18.0340943794">
        <ele>13</ele>
        <time>2011-05-28T12:43:11Z</time>
      </trkpt>
      <trkpt lat="59.3279404716" lon="18.0343768494">
        <ele>13</ele>
        <time>2011-05-28T12:43:16Z</time>
      </trkpt>
      <trkpt lat="59.3279299942" lon="18.0344314994">
        <ele>13</ele>
        <time>2011-05-28T12:43:17Z</time>
      </trkpt>
      <trkpt lat="59.327859251" lon="18.0347283863">
        <ele>13</ele>
        <time>2011-05-28T12:43:23Z</time>
      </trkpt>
      <trkpt lat="59.3278258072" lon="18.0350272848">
        <ele>13</ele>
        <time>2011-05-28T12:43:28Z</time>
      </trkpt>
      <trkpt lat="59.3277757673" lon="18.035291147">
        <ele>12.8</ele>
        <time>2011-05-28T12:43:33Z</time>
      </trkpt>
      <trkpt lat="59.3277284933" lon="18.0356027023">
        <ele>11.8</ele>
        <time>2011-05-28T12:43:39Z</time>
      </trkpt>
      <trkpt lat="59.3276891822" lon="18.0358659777">
        <ele>11.4</ele>
        <time>2011-05-28T12:43:44Z</time>
      </trkpt>
      <trkpt lat="59.3276770285" lon="18.0359720088">
        <ele>11.4</ele>
        <time>2011-05-28T12:43:46Z</time>
      </trkpt>
      <trkpt lat="59.327620283" lon="18.0362312609">
        <ele>10.4</ele>
        <time>2011-05-28T12:43:51Z</time>
      </trkpt>
      <trkpt lat="59.3275844085" lon="18.0365036727">
        <ele>9.8</ele>
        <time>2011-05-28T12:43:56Z</time>
      </trkpt>
      <trkpt lat="59.3275683152" lon="18.0367169082">
        <ele>9.4</ele>
        <time>2011-05-28T12:44:00Z</time>
      </trkpt>
      <trkpt lat="59.3274955603" lon="18.0370830296">
        <ele>9.2</ele>
        <time>2011-05-28T12:44:07Z</time>
      </trkpt>
      <trkpt lat="59.3274414133" lon="18.0373887175">
        <ele>9</ele>
        <time>2011-05-28T12:44:13Z</time>
      </trkpt>
      <trkpt lat="59.3273978274" lon="18.0377222333">
        <ele>9</ele>
        <time>2011-05-28T12:44:19Z</time>
      </trkpt>
      <trkpt lat="59.3273251563" lon="18.0379566751">
        <ele>8.8</ele>
        <time>2011-05-28T12:44:24Z</time>
      </trkpt>
      <trkpt lat="59.3273064647" lon="18.0379978302">
        <ele>8.8</ele>
        <time>2011-05-28T12:44:25Z</time>
      </trkpt>
      <trkpt lat="59.3272653934" lon="18.0383125705">
        <ele>9.6</ele>
        <time>2011-05-28T12:44:31Z</time>
      </trkpt>
      <trkpt lat="59.3272358053" lon="18.0385849823">
        <ele>10</ele>
        <time>2011-05-28T12:44:36Z</time>
      </trkpt>
      <trkpt lat="59.3272083126" lon="18.0388326674">
        <ele>10.4</ele>
        <time>2011-05-28T12:44:41Z</time>
      </trkpt>
      <trkpt lat="59.327176629" lon="18.0390837891">
        <ele>10.6</ele>
        <time>2011-05-28T12:44:46Z</time>
      </trkpt>
      <trkpt lat="59.3271565125" lon="18.03928529">
        <ele>10.6</ele>
        <time>2011-05-28T12:44:50Z</time>
      </trkpt>
      <trkpt lat="59.3271229849" lon="18.0395405189">
        <ele>10.8</ele>
        <time>2011-05-28T12:44:55Z</time>
      </trkpt>
      <trkpt lat="59.3270700113" lon="18.0398616295">
        <ele>10.8</ele>
        <time>2011-05-28T12:45:01Z</time>
      </trkpt>
      <trkpt lat="59.3270180435" lon="18.0400902039">
        <ele>10.8</ele>
        <time>2011-05-28T12:45:06Z</time>
      </trkpt>
      <trkpt lat="59.3269941551" lon="18.0403311835">
        <ele>10.8</ele>
        <time>2011-05-28T12:45:10Z</time>
      </trkpt>
      <trkpt lat="59.3269439475" lon="18.0406428225">
        <ele>10.8</ele>
        <time>2011-05-28T12:45:16Z</time>
      </trkpt>
      <trkpt lat="59.3268901357" lon="18.0410034119">
        <ele>10.8</ele>
        <time>2011-05-28T12:45:23Z</time>
      </trkpt>
      <trkpt lat="59.3268599609" lon="18.0412706269">
        <ele>10.8</ele>
        <time>2011-05-28T12:45:28Z</time>
      </trkpt>
      <trkpt lat="59.3268395928" lon="18.0414729659">
        <ele>10.8</ele>
        <time>2011-05-28T12:45:32Z</time>
      </trkpt>
      <trkpt lat="59.3268334741" lon="18.041728111">
        <ele>10.8</ele>
        <time>2011-05-28T12:45:37Z</time>
      </trkpt>
      <trkpt lat="59.3268306242" lon="18.0419970861">
        <ele>10.8</ele>
        <time>2011-05-28T12:45:42Z</time>
      </trkpt>
      <trkpt lat="59.3268260142" lon="18.0422655584">
        <ele>10.8</ele>
        <time>2011-05-28T12:45:47Z</time>
      </trkpt>
      <trkpt lat="59.3268119326" lon="18.0426124014">
        <ele>10.8</ele>
        <time>2011-05-28T12:45:53Z</time>
      </trkpt>
      <trkpt lat="59.3268084122" lon="18.0429494376">
        <ele>10.8</ele>
        <time>2011-05-28T12:45:59Z</time>
      </trkpt>
      <trkpt lat="59.3268390061" lon="18.0432659382">
        <ele>10.8</ele>
        <time>2011-05-28T12:46:04Z</time>
      </trkpt>
      <trkpt lat="59.3268660797" lon="18.043615631">
        <ele>10.8</ele>
        <time>2011-05-28T12:46:10Z</time>
      </trkpt>
      <trkpt lat="59.3268675046" lon="18.0439409326">
        <ele>10.8</ele>
        <time>2011-05-28T12:46:16Z</time>
      </trkpt>
      <trkpt lat="59.3268507408" lon="18.0442898711">
        <ele>10.8</ele>
        <time>2011-05-28T12:46:22Z</time>
      </trkpt>
      <trkpt lat="59.3268467175" lon="18.0446014263">
        <ele>10.8</ele>
        <time>2011-05-28T12:46:28Z</time>
      </trkpt>
      <trkpt lat="59.3268400958" lon="18.0448812979">
        <ele>10.8</ele>
        <time>2011-05-28T12:46:33Z</time>
      </trkpt>
      <trkpt lat="59.3268805803" lon="18.0450928571">
        <ele>10.8</ele>
        <time>2011-05-28T12:46:37Z</time>
      </trkpt>
      <trkpt lat="59.3268771438" lon="18.0453620837">
        <ele>10.8</ele>
        <time>2011-05-28T12:46:42Z</time>
      </trkpt>
      <trkpt lat="59.3268573625" lon="18.0457592181">
        <ele>10.8</ele>
        <time>2011-05-28T12:46:49Z</time>
      </trkpt>
      <trkpt lat="59.3268742101" lon="18.0460049754">
        <ele>10.8</ele>
        <time>2011-05-28T12:46:53Z</time>
      </trkpt>
      <trkpt lat="59.3268632298" lon="18.0462726095">
        <ele>10.8</ele>
        <time>2011-05-28T12:46:58Z</time>
      </trkpt>
      <trkpt lat="59.3268597932" lon="18.0465523973">
        <ele>10.8</ele>
        <time>2011-05-28T12:47:03Z</time>
      </trkpt>
      <trkpt lat="59.3268498188" lon="18.0469165071">
        <ele>10.8</ele>
        <time>2011-05-28T12:47:09Z</time>
      </trkpt>
      <trkpt lat="59.3268458793" lon="18.0473130547">
        <ele>10.8</ele>
        <time>2011-05-28T12:47:16Z</time>
      </trkpt>
      <trkpt lat="59.3268426941" lon="18.0476883962">
        <ele>10.8</ele>
        <time>2011-05-28T12:47:23Z</time>
      </trkpt>
      <trkpt lat="59.3268465498" lon="18.0480720358">
        <ele>11.6</ele>
        <time>2011-05-28T12:47:30Z</time>
      </trkpt>
      <trkpt lat="59.3268564405" lon="18.0484495566">
        <ele>12.2</ele>
        <time>2011-05-28T12:47:37Z</time>
      </trkpt>
      <trkpt lat="59.3268712764" lon="18.0487937174">
        <ele>12.6</ele>
        <time>2011-05-28T12:47:43Z</time>
      </trkpt>
      <trkpt lat="59.3268852742" lon="18.0491327652">
        <ele>12.8</ele>
        <time>2011-05-28T12:47:49Z</time>
      </trkpt>
      <trkpt lat="59.3268999425" lon="18.0494076916">
        <ele>13.2</ele>
        <time>2011-05-28T12:47:54Z</time>
      </trkpt>
      <trkpt lat="59.3269102523" lon="18.0497259523">
        <ele>14</ele>
        <time>2011-05-28T12:48:00Z</time>
      </trkpt>
      <trkpt lat="59.3269287763" lon="18.0500077518">
        <ele>14.4</ele>
        <time>2011-05-28T12:48:05Z</time>
      </trkpt>
      <trkpt lat="59.3269426064" lon="18.0502830134">
        <ele>14.6</ele>
        <time>2011-05-28T12:48:10Z</time>
      </trkpt>
      <trkpt lat="59.3269706019" lon="18.0505457021">
        <ele>14.8</ele>
        <time>2011-05-28T12:48:15Z</time>
      </trkpt>
      <trkpt lat="59.3269889583" lon="18.0508146773">
        <ele>14.8</ele>
        <time>2011-05-28T12:48:20Z</time>
      </trkpt>
      <trkpt lat="59.3270242461" lon="18.0510327743">
        <ele>14.8</ele>
        <time>2011-05-28T12:48:24Z</time>
      </trkpt>
      <trkpt lat="59.3270472963" lon="18.0514138155">
        <ele>15</ele>
        <time>2011-05-28T12:48:31Z</time>
      </trkpt>
      <trkpt lat="59.3270791475" lon="18.0517972874">
        <ele>15</ele>
        <time>2011-05-28T12:48:38Z</time>
      </trkpt>
      <trkpt lat="59.3271183748" lon="18.0521570386">
        <ele>15</ele>
        <time>2011-05-28T12:48:44Z</time>
      </trkpt>
      <trkpt lat="59.3271515672" lon="18.0525188852">
        <ele>15</ele>
        <time>2011-05-28T12:48:50Z</time>
      </trkpt>
      <trkpt lat="59.3271702588" lon="18.0528751998">
        <ele>15.6</ele>
        <time>2011-05-28T12:48:56Z</time>
      </trkpt>
      <trkpt lat="59.3271932252" lon="18.0530388983">
        <ele>16</ele>
        <time>2011-05-28T12:48:59Z</time>
      </trkpt>
      <trkpt lat="59.3273042016" lon="18.0531213762">
        <ele>16.4</ele>
        <time>2011-05-28T12:49:04Z</time>
      </trkpt>
      <trkpt lat="59.3273330353" lon="18.053116347">
        <ele>16.4</ele>
        <time>2011-05-28T12:49:05Z</time>
      </trkpt>
      <trkpt lat="59.3274699117" lon="18.0531137486">
        <ele>16.6</ele>
        <time>2011-05-28T12:49:10Z</time>
      </trkpt>
      <trkpt lat="59.3276455125" lon="18.0530796343">
        <ele>16.8</ele>
        <time>2011-05-28T12:49:16Z</time>
      </trkpt>
      <trkpt lat="59.3277741747" lon="18.0531103959">
        <ele>16.8</ele>
        <time>2011-05-28T12:49:21Z</time>
      </trkpt>
      <trkpt lat="59.3278486898" lon="18.0532959711">
        <ele>17</ele>
        <time>2011-05-28T12:49:26Z</time>
      </trkpt>
      <trkpt lat="59.3278914375" lon="18.0536242064">
        <ele>17</ele>
        <time>2011-05-28T12:49:32Z</time>
      </trkpt>
      <trkpt lat="59.3279268091" lon="18.053872562">
        <ele>17</ele>
        <time>2011-05-28T12:49:37Z</time>
      </trkpt>
      <trkpt lat="59.3279807885" lon="18.0541665991">
        <ele>17</ele>
        <time>2011-05-28T12:49:43Z</time>
      </trkpt>
      <trkpt lat="59.3280243744" lon="18.0544356581">
        <ele>17</ele>
        <time>2011-05-28T12:49:48Z</time>
      </trkpt>
      <trkpt lat="59.3280605004" lon="18.0547567687">
        <ele>17.6</ele>
        <time>2011-05-28T12:49:54Z</time>
      </trkpt>
      <trkpt lat="59.3280832992" lon="18.0549681602">
        <ele>18.6</ele>
        <time>2011-05-28T12:49:58Z</time>
      </trkpt>
      <trkpt lat="59.3281385359" lon="18.0552632869">
        <ele>20.6</ele>
        <time>2011-05-28T12:50:04Z</time>
      </trkpt>
      <trkpt lat="59.3281776794" lon="18.0554408994">
        <ele>22.4</ele>
        <time>2011-05-28T12:50:08Z</time>
      </trkpt>
      <trkpt lat="59.3282221034" lon="18.0556760117">
        <ele>25.2</ele>
        <time>2011-05-28T12:50:13Z</time>
      </trkpt>
      <trkpt lat="59.3282120452" lon="18.0559619183">
        <ele>27.8</ele>
        <time>2011-05-28T12:50:18Z</time>
      </trkpt>
      <trkpt lat="59.3282142244" lon="18.0561920852">
        <ele>29.2</ele>
        <time>2011-05-28T12:50:22Z</time>
      </trkpt>
      <trkpt lat="59.3282371909" lon="18.0564826019">
        <ele>30.2</ele>
        <time>2011-05-28T12:50:27Z</time>
      </trkpt>
      <trkpt lat="59.3282514401" lon="18.0567666645">
        <ele>30.8</ele>
        <time>2011-05-28T12:50:32Z</time>
      </trkpt>
      <trkpt lat="59.3282625042" lon="18.057019714">
        <ele>31.2</ele>
        <time>2011-05-28T12:50:37Z</time>
      </trkpt>
      <trkpt lat="59.3282831237" lon="18.0572797206">
        <ele>30.8</ele>
        <time>2011-05-28T12:50:42Z</time>
      </trkpt>
      <trkpt lat="59.3282934334" lon="18.0576822194">
        <ele>29.6</ele>
        <time>2011-05-28T12:50:49Z</time>
      </trkpt>
      <trkpt lat="59.3282811958" lon="18.0580964529">
        <ele>28.2</ele>
        <time>2011-05-28T12:50:55Z</time>
      </trkpt>
      <trkpt lat="59.3282133863" lon="18.0584265321">
        <ele>27</ele>
        <time>2011-05-28T12:51:00Z</time>
      </trkpt>
      <trkpt lat="59.328163514" lon="18.0587315495">
        <ele>25.6</ele>
        <time>2011-05-28T12:51:05Z</time>
      </trkpt>
      <trkpt lat="59.328114396" lon="18.0591249959">
        <ele>23.6</ele>
        <time>2011-05-28T12:51:12Z</time>
      </trkpt>
      <trkpt lat="59.3281184193" lon="18.0593920432">
        <ele>22.2</ele>
        <time>2011-05-28T12:51:17Z</time>
      </trkpt>
      <trkpt lat="59.3281687945" lon="18.0596173487">
        <ele>21.2</ele>
        <time>2011-05-28T12:51:21Z</time>
      </trkpt>
      <trkpt lat="59.3282972053" lon="18.0607007931">
        <ele>17.8</ele>
        <time>2011-05-28T12:51:42Z</time>
      </trkpt>
      <trkpt lat="59.3283662721" lon="18.060873544">
        <ele>16.6</ele>
        <time>2011-05-28T12:51:47Z</time>
      </trkpt>
      <trkpt lat="59.3283880651" lon="18.060889302">
        <ele>16.4</ele>
        <time>2011-05-28T12:51:48Z</time>
      </trkpt>
      <trkpt lat="59.3284412901" lon="18.060931463">
        <ele>16.2</ele>
        <time>2011-05-28T12:51:50Z</time>
      </trkpt>
      <trkpt lat="59.32857934" lon="18.0609720313">
        <ele>15.6</ele>
        <time>2011-05-28T12:51:56Z</time>
      </trkpt>
      <trkpt lat="59.3287169708" lon="18.0607968496">
        <ele>15.2</ele>
        <time>2011-05-28T12:52:02Z</time>
      </trkpt>
      <trkpt lat="59.3288887159" lon="18.0606449696">
        <ele>15.2</ele>
        <time>2011-05-28T12:52:09Z</time>
      </trkpt>
      <trkpt lat="59.3290678371" lon="18.0605147149">
        <ele>15</ele>
        <time>2011-05-28T12:52:16Z</time>
      </trkpt>
      <trkpt lat="59.3291219004" lon="18.0605036508">
        <ele>15</ele>
        <time>2011-05-28T12:52:18Z</time>
      </trkpt>
      <trkpt lat="59.3292314518" lon="18.0603987094">
        <ele>15</ele>
        <time>2011-05-28T12:52:23Z</time>
      </trkpt>
      <trkpt lat="59.3294058792" lon="18.0602573906">
        <ele>15</ele>
        <time>2011-05-28T12:52:31Z</time>
      </trkpt>
      <trkpt lat="59.3294233135" lon="18.0602510203">
        <ele>15</ele>
        <time>2011-05-28T12:52:32Z</time>
      </trkpt>
      <trkpt lat="59.3295239801" lon="18.0601915926">
        <ele>15</ele>
        <time>2011-05-28T12:52:37Z</time>
      </trkpt>
      <trkpt lat="59.3295458569" lon="18.0601900001">
        <ele>15</ele>
        <time>2011-05-28T12:52:39Z</time>
      </trkpt>
      <trkpt lat="59.3296160972" lon="18.0601953645">
        <ele>15</ele>
        <time>2011-05-28T12:52:44Z</time>
      </trkpt>
      <trkpt lat="59.3296624491" lon="18.0601434805">
        <ele>15</ele>
        <time>2011-05-28T12:52:47Z</time>
      </trkpt>
      <trkpt lat="59.3298218729" lon="18.059985817">
        <ele>15</ele>
        <time>2011-05-28T12:52:53Z</time>
      </trkpt>
      <trkpt lat="59.3299731662" lon="18.059851036">
        <ele>15</ele>
        <time>2011-05-28T12:52:59Z</time>
      </trkpt>
      <trkpt lat="59.3300496091" lon="18.059722793">
        <ele>15</ele>
        <time>2011-05-28T12:53:02Z</time>
      </trkpt>
      <trkpt lat="59.3301491022" lon="18.0596080448">
        <ele>15</ele>
        <time>2011-05-28T12:53:06Z</time>
      </trkpt>
      <trkpt lat="59.3302940253" lon="18.0594210446">
        <ele>15.4</ele>
        <time>2011-05-28T12:53:13Z</time>
      </trkpt>
      <trkpt lat="59.3304281357" lon="18.0592735231">
        <ele>16.2</ele>
        <time>2011-05-28T12:53:19Z</time>
      </trkpt>
      <trkpt lat="59.3305815245" lon="18.0591328749">
        <ele>16.6</ele>
        <time>2011-05-28T12:53:25Z</time>
      </trkpt>
      <trkpt lat="59.3307455582" lon="18.0589367384">
        <ele>16.8</ele>
        <time>2011-05-28T12:53:32Z</time>
      </trkpt>
      <trkpt lat="59.3309095082" lon="18.0587679269">
        <ele>17.4</ele>
        <time>2011-05-28T12:53:38Z</time>
      </trkpt>
      <trkpt lat="59.3310759727" lon="18.0586328107">
        <ele>18.2</ele>
        <time>2011-05-28T12:53:44Z</time>
      </trkpt>
      <trkpt lat="59.3312948242" lon="18.0584170606">
        <ele>18.8</ele>
        <time>2011-05-28T12:53:53Z</time>
      </trkpt>
      <trkpt lat="59.3313719376" lon="18.0585337366">
        <ele>18.8</ele>
        <time>2011-05-28T12:53:56Z</time>
      </trkpt>
      <trkpt lat="59.3316068823" lon="18.0585995346">
        <ele>19.8</ele>
        <time>2011-05-28T12:54:02Z</time>
      </trkpt>
      <trkpt lat="59.331669998" lon="18.0584157195">
        <ele>20.2</ele>
        <time>2011-05-28T12:54:05Z</time>
      </trkpt>
      <trkpt lat="59.3318283321" lon="18.0581106183">
        <ele>20.6</ele>
        <time>2011-05-28T12:54:12Z</time>
      </trkpt>
      <trkpt lat="59.3319268194" lon="18.0580143941">
        <ele>20.8</ele>
        <time>2011-05-28T12:54:16Z</time>
      </trkpt>
      <trkpt lat="59.3320786156" lon="18.057895455">
        <ele>21</ele>
        <time>2011-05-28T12:54:21Z</time>
      </trkpt>
      <trkpt lat="59.3321677152" lon="18.0578317525">
        <ele>21</ele>
        <time>2011-05-28T12:54:24Z</time>
      </trkpt>
      <trkpt lat="59.3323048431" lon="18.0577477659">
        <ele>21</ele>
        <time>2011-05-28T12:54:29Z</time>
      </trkpt>
      <trkpt lat="59.3323833815" lon="18.0576846502">
        <ele>21.4</ele>
        <time>2011-05-28T12:54:32Z</time>
      </trkpt>
      <trkpt lat="59.3323956191" lon="18.0574562434">
        <ele>22.4</ele>
        <time>2011-05-28T12:54:37Z</time>
      </trkpt>
      <trkpt lat="59.3323282286" lon="18.05714385">
        <ele>24.6</ele>
        <time>2011-05-28T12:54:42Z</time>
      </trkpt>
      <trkpt lat="59.3322795298" lon="18.0568918062">
        <ele>27.4</ele>
        <time>2011-05-28T12:54:46Z</time>
      </trkpt>
      <trkpt lat="59.3322493549" lon="18.0565628167">
        <ele>31.6</ele>
        <time>2011-05-28T12:54:51Z</time>
      </trkpt>
      <trkpt lat="59.3322615087" lon="18.0563567896">
        <ele>35.2</ele>
        <time>2011-05-28T12:54:56Z</time>
      </trkpt>
      <trkpt lat="59.3322622631" lon="18.0563457255">
        <ele>36.2</ele>
        <time>2011-05-28T12:54:57Z</time>
      </trkpt>
      <trkpt lat="59.3323283962" lon="18.0561982878">
        <ele>40.8</ele>
        <time>2011-05-28T12:55:02Z</time>
      </trkpt>
      <trkpt lat="59.3324227764" lon="18.0560847131">
        <ele>45</ele>
        <time>2011-05-28T12:55:07Z</time>
      </trkpt>
      <trkpt lat="59.3324822041" lon="18.0560210945">
        <ele>47.6</ele>
        <time>2011-05-28T12:55:10Z</time>
      </trkpt>
      <trkpt lat="59.3325702979" lon="18.0560564661">
        <ele>51.2</ele>
        <time>2011-05-28T12:55:15Z</time>
      </trkpt>
      <trkpt lat="59.3326686176" lon="18.0559557995">
        <ele>53.4</ele>
        <time>2011-05-28T12:55:18Z</time>
      </trkpt>
      <trkpt lat="59.3327019775" lon="18.0559261275">
        <ele>53.8</ele>
        <time>2011-05-28T12:55:19Z</time>
      </trkpt>
      <trkpt lat="59.3328034823" lon="18.0558147321">
        <ele>55.4</ele>
        <time>2011-05-28T12:55:22Z</time>
      </trkpt>
      <trkpt lat="59.3329960984" lon="18.0555861577">
        <ele>58.2</ele>
        <time>2011-05-28T12:55:28Z</time>
      </trkpt>
      <trkpt lat="59.3330540173" lon="18.0554946273">
        <ele>58.8</ele>
        <time>2011-05-28T12:55:30Z</time>
      </trkpt>
      <trkpt lat="59.333158372" lon="18.0553656299">
        <ele>60.4</ele>
        <time>2011-05-28T12:55:34Z</time>
      </trkpt>
      <trkpt lat="59.3331977669" lon="18.0553063699">
        <ele>61.2</ele>
        <time>2011-05-28T12:55:36Z</time>
      </trkpt>
      <trkpt lat="59.3333307877" lon="18.0551058748">
        <ele>63</ele>
        <time>2011-05-28T12:55:41Z</time>
      </trkpt>
      <trkpt lat="59.3335317018" lon="18.0547463751">
        <ele>64.2</ele>
        <time>2011-05-28T12:55:47Z</time>
      </trkpt>
      <trkpt lat="59.3336518144" lon="18.0544265218">
        <ele>65</ele>
        <time>2011-05-28T12:55:50Z</time>
      </trkpt>
      <trkpt lat="59.3336704223" lon="18.05431806">
        <ele>65.4</ele>
        <time>2011-05-28T12:55:52Z</time>
      </trkpt>
      <trkpt lat="59.333746949" lon="18.0542339896">
        <ele>66.4</ele>
        <time>2011-05-28T12:55:57Z</time>
      </trkpt>
      <trkpt lat="59.3337903672" lon="18.0542540223">
        <ele>66.6</ele>
        <time>2011-05-28T12:55:59Z</time>
      </trkpt>
      <trkpt lat="59.3339419958" lon="18.0542844486">
        <ele>66.6</ele>
        <time>2011-05-28T12:56:04Z</time>
      </trkpt>
      <trkpt lat="59.334101671" lon="18.0542010487">
        <ele>66</ele>
        <time>2011-05-28T12:56:10Z</time>
      </trkpt>
      <trkpt lat="59.3342071991" lon="18.0541234323">
        <ele>65.4</ele>
        <time>2011-05-28T12:56:13Z</time>
      </trkpt>
      <trkpt lat="59.3343347716" lon="18.0539882323">
        <ele>64.6</ele>
        <time>2011-05-28T12:56:17Z</time>
      </trkpt>
      <trkpt lat="59.3344651102" lon="18.0538588157">
        <ele>62.8</ele>
        <time>2011-05-28T12:56:22Z</time>
      </trkpt>
      <trkpt lat="59.3345428942" lon="18.0537666987">
        <ele>61</ele>
        <time>2011-05-28T12:56:26Z</time>
      </trkpt>
      <trkpt lat="59.3346480032" lon="18.0536777667">
        <ele>58.4</ele>
        <time>2011-05-28T12:56:31Z</time>
      </trkpt>
      <trkpt lat="59.3347959438" lon="18.053556313">
        <ele>55.8</ele>
        <time>2011-05-28T12:56:37Z</time>
      </trkpt>
      <trkpt lat="59.3348183235" lon="18.0535465061">
        <ele>55.4</ele>
        <time>2011-05-28T12:56:38Z</time>
      </trkpt>
      <trkpt lat="59.3348909107" lon="18.0535600848">
        <ele>54.2</ele>
        <time>2011-05-28T12:56:42Z</time>
      </trkpt>
      <trkpt lat="59.334927372" lon="18.0535592466">
        <ele>53.8</ele>
        <time>2011-05-28T12:56:44Z</time>
      </trkpt>
      <trkpt lat="59.3349533559" lon="18.0535532955">
        <ele>53.4</ele>
        <time>2011-05-28T12:56:45Z</time>
      </trkpt>
      <trkpt lat="59.3351106841" lon="18.0534718234">
        <ele>52.8</ele>
        <time>2011-05-28T12:56:50Z</time>
      </trkpt>
      <trkpt lat="59.335141781" lon="18.0534481026">
        <ele>52.8</ele>
        <time>2011-05-28T12:56:51Z</time>
      </trkpt>
      <trkpt lat="59.335259379" lon="18.0533439156">
        <ele>53</ele>
        <time>2011-05-28T12:56:55Z</time>
      </trkpt>
      <trkpt lat="59.3354042183" lon="18.0529151814">
        <ele>53.4</ele>
        <time>2011-05-28T12:57:02Z</time>
      </trkpt>
      <trkpt lat="59.3354817508" lon="18.0526815779">
        <ele>53.6</ele>
        <time>2011-05-28T12:57:06Z</time>
      </trkpt>
      <trkpt lat="59.3354899651" lon="18.0526197195">
        <ele>53.6</ele>
        <time>2011-05-28T12:57:07Z</time>
      </trkpt>
      <trkpt lat="59.3355146079" lon="18.0523071584">
        <ele>53.8</ele>
        <time>2011-05-28T12:57:12Z</time>
      </trkpt>
      <trkpt lat="59.3354943237" lon="18.0518997142">
        <ele>53.4</ele>
        <time>2011-05-28T12:57:20Z</time>
      </trkpt>
      <trkpt lat="59.3354782304" lon="18.0516797732">
        <ele>52.4</ele>
        <time>2011-05-28T12:57:25Z</time>
      </trkpt>
      <trkpt lat="59.3354953295" lon="18.0516402106">
        <ele>52.2</ele>
        <time>2011-05-28T12:57:26Z</time>
      </trkpt>
      <trkpt lat="59.3355648155" lon="18.0515235346">
        <ele>51.4</ele>
        <time>2011-05-28T12:57:29Z</time>
      </trkpt>
      <trkpt lat="59.3355809925" lon="18.051476093">
        <ele>51</ele>
        <time>2011-05-28T12:57:30Z</time>
      </trkpt>
      <trkpt lat="59.3355956609" lon="18.0514321719">
        <ele>50.6</ele>
        <time>2011-05-28T12:57:31Z</time>
      </trkpt>
      <trkpt lat="59.3356816592" lon="18.0512577445">
        <ele>49.4</ele>
        <time>2011-05-28T12:57:35Z</time>
      </trkpt>
      <trkpt lat="59.3357348842" lon="18.0511773621">
        <ele>49</ele>
        <time>2011-05-28T12:57:37Z</time>
      </trkpt>
      <trkpt lat="59.3358492133" lon="18.050844433">
        <ele>47.4</ele>
        <time>2011-05-28T12:57:44Z</time>
      </trkpt>
      <trkpt lat="59.3358710901" lon="18.0507464486">
        <ele>47</ele>
        <time>2011-05-28T12:57:46Z</time>
      </trkpt>
      <trkpt lat="59.3359306854" lon="18.0504839275">
        <ele>45.8</ele>
        <time>2011-05-28T12:57:51Z</time>
      </trkpt>
      <trkpt lat="59.3360163484" lon="18.0501169679">
        <ele>43.8</ele>
        <time>2011-05-28T12:57:57Z</time>
      </trkpt>
      <trkpt lat="59.3360242274" lon="18.0500653354">
        <ele>43.4</ele>
        <time>2011-05-28T12:57:58Z</time>
      </trkpt>
      <trkpt lat="59.336022551" lon="18.0498968592">
        <ele>42</ele>
        <time>2011-05-28T12:58:01Z</time>
      </trkpt>
      <trkpt lat="59.3360398177" lon="18.0495736532">
        <ele>38.8</ele>
        <time>2011-05-28T12:58:07Z</time>
      </trkpt>
      <trkpt lat="59.3360528097" lon="18.0495231103">
        <ele>38.4</ele>
        <time>2011-05-28T12:58:08Z</time>
      </trkpt>
      <trkpt lat="59.3360963956" lon="18.0493203522">
        <ele>36.2</ele>
        <time>2011-05-28T12:58:12Z</time>
      </trkpt>
      <trkpt lat="59.3361075435" lon="18.049264864">
        <ele>35.6</ele>
        <time>2011-05-28T12:58:13Z</time>
      </trkpt>
      <trkpt lat="59.33613973" lon="18.0490911072">
        <ele>34.2</ele>
        <time>2011-05-28T12:58:16Z</time>
      </trkpt>
      <trkpt lat="59.3362030133" lon="18.0488901092">
        <ele>32.2</ele>
        <time>2011-05-28T12:58:20Z</time>
      </trkpt>
      <trkpt lat="59.3362018399" lon="18.0488379738">
        <ele>31.8</ele>
        <time>2011-05-28T12:58:21Z</time>
      </trkpt>
      <trkpt lat="59.3361928712" lon="18.0487320266">
        <ele>31.2</ele>
        <time>2011-05-28T12:58:23Z</time>
      </trkpt>
      <trkpt lat="59.3361960564" lon="18.048511415">
        <ele>30.4</ele>
        <time>2011-05-28T12:58:27Z</time>
      </trkpt>
      <trkpt lat="59.3362371277" lon="18.0480963433">
        <ele>28.4</ele>
        <time>2011-05-28T12:58:35Z</time>
      </trkpt>
      <trkpt lat="59.3362886764" lon="18.0478268652">
        <ele>27</ele>
        <time>2011-05-28T12:58:41Z</time>
      </trkpt>
      <trkpt lat="59.3363099664" lon="18.0475553755">
        <ele>26</ele>
        <time>2011-05-28T12:58:46Z</time>
      </trkpt>
      <trkpt lat="59.3363483555" lon="18.0471794473">
        <ele>24.4</ele>
        <time>2011-05-28T12:58:53Z</time>
      </trkpt>
      <trkpt lat="59.3363978087" lon="18.0468159243">
        <ele>23.4</ele>
        <time>2011-05-28T12:59:00Z</time>
      </trkpt>
      <trkpt lat="59.3364587451" lon="18.0464675725">
        <ele>22.4</ele>
        <time>2011-05-28T12:59:07Z</time>
      </trkpt>
      <trkpt lat="59.3365136466" lon="18.0461142754">
        <ele>21.4</ele>
        <time>2011-05-28T12:59:14Z</time>
      </trkpt>
      <trkpt lat="59.3365784386" lon="18.045779167">
        <ele>20.8</ele>
        <time>2011-05-28T12:59:21Z</time>
      </trkpt>
      <trkpt lat="59.3366249582" lon="18.0454859682">
        <ele>20.6</ele>
        <time>2011-05-28T12:59:27Z</time>
      </trkpt>
      <trkpt lat="59.3366873195" lon="18.0451536259">
        <ele>20.4</ele>
        <time>2011-05-28T12:59:34Z</time>
      </trkpt>
      <trkpt lat="59.3367578951" lon="18.0448231275">
        <ele>20.4</ele>
        <time>2011-05-28T12:59:41Z</time>
      </trkpt>
      <trkpt lat="59.3368195021" lon="18.044471423">
        <ele>20.4</ele>
        <time>2011-05-28T12:59:48Z</time>
      </trkpt>
      <trkpt lat="59.3368602381" lon="18.044188953">
        <ele>20.4</ele>
        <time>2011-05-28T12:59:54Z</time>
      </trkpt>
      <trkpt lat="59.3369209231" lon="18.0438229154">
        <ele>20.4</ele>
        <time>2011-05-28T13:00:02Z</time>
      </trkpt>
      <trkpt lat="59.3369800155" lon="18.0435666807">
        <ele>20.4</ele>
        <time>2011-05-28T13:00:08Z</time>
      </trkpt>
      <trkpt lat="59.3370337434" lon="18.0432878149">
        <ele>20.4</ele>
        <time>2011-05-28T13:00:14Z</time>
      </trkpt>
      <trkpt lat="59.3370987032" lon="18.0430620903">
        <ele>20.4</ele>
        <time>2011-05-28T13:00:19Z</time>
      </trkpt>
      <trkpt lat="59.3371489946" lon="18.0428289897">
        <ele>21</ele>
        <time>2011-05-28T13:00:24Z</time>
      </trkpt>
      <trkpt lat="59.337197861" lon="18.0426103059">
        <ele>21.6</ele>
        <time>2011-05-28T13:00:29Z</time>
      </trkpt>
      <trkpt lat="59.3372399382" lon="18.0423916222">
        <ele>22.6</ele>
        <time>2011-05-28T13:00:34Z</time>
      </trkpt>
      <trkpt lat="59.3373269423" lon="18.0422016883">
        <ele>23.8</ele>
        <time>2011-05-28T13:00:39Z</time>
      </trkpt>
      <trkpt lat="59.3373922373" lon="18.042046707">
        <ele>24.8</ele>
        <time>2011-05-28T13:00:43Z</time>
      </trkpt>
      <trkpt lat="59.3375056444" lon="18.0417477246">
        <ele>26.4</ele>
        <time>2011-05-28T13:00:50Z</time>
      </trkpt>
      <trkpt lat="59.3376074845" lon="18.0415214971">
        <ele>27.4</ele>
        <time>2011-05-28T13:00:55Z</time>
      </trkpt>
      <trkpt lat="59.3377315366" lon="18.0412748178">
        <ele>28</ele>
        <time>2011-05-28T13:01:01Z</time>
      </trkpt>
      <trkpt lat="59.3378868532" lon="18.0410227741">
        <ele>28.4</ele>
        <time>2011-05-28T13:01:08Z</time>
      </trkpt>
      <trkpt lat="59.3380315248" lon="18.0407980553">
        <ele>29</ele>
        <time>2011-05-28T13:01:14Z</time>
      </trkpt>
      <trkpt lat="59.3381331134" lon="18.040660676">
        <ele>29.6</ele>
        <time>2011-05-28T13:01:18Z</time>
      </trkpt>
      <trkpt lat="59.3382653798" lon="18.0405334388">
        <ele>30.8</ele>
        <time>2011-05-28T13:01:23Z</time>
      </trkpt>
      <trkpt lat="59.3383532221" lon="18.0404464346">
        <ele>31.6</ele>
        <time>2011-05-28T13:01:27Z</time>
      </trkpt>
      <trkpt lat="59.3384237977" lon="18.0404246417">
        <ele>32</ele>
        <time>2011-05-28T13:01:30Z</time>
      </trkpt>
      <trkpt lat="59.3384757655" lon="18.0403295909">
        <ele>32.4</ele>
        <time>2011-05-28T13:01:34Z</time>
      </trkpt>
      <trkpt lat="59.3385675473" lon="18.0402226379">
        <ele>32.6</ele>
        <time>2011-05-28T13:01:38Z</time>
      </trkpt>
      <trkpt lat="59.3386723211" lon="18.0400686624">
        <ele>32.8</ele>
        <time>2011-05-28T13:01:43Z</time>
      </trkpt>
      <trkpt lat="59.3388170765" lon="18.0398866075">
        <ele>33</ele>
        <time>2011-05-28T13:01:50Z</time>
      </trkpt>
      <trkpt lat="59.3389593173" lon="18.0396952488">
        <ele>33</ele>
        <time>2011-05-28T13:01:57Z</time>
      </trkpt>
      <trkpt lat="59.3391191602" lon="18.0395323046">
        <ele>33</ele>
        <time>2011-05-28T13:02:04Z</time>
      </trkpt>
      <trkpt lat="59.339212786" lon="18.0394799177">
        <ele>33</ele>
        <time>2011-05-28T13:02:09Z</time>
      </trkpt>
      <trkpt lat="59.3392696153" lon="18.0394240943">
        <ele>33</ele>
        <time>2011-05-28T13:02:14Z</time>
      </trkpt>
      <trkpt lat="59.3392990357" lon="18.0393846155">
        <ele>33</ele>
        <time>2011-05-28T13:02:16Z</time>
      </trkpt>
      <trkpt lat="59.339400792" lon="18.0393160516">
        <ele>33</ele>
        <time>2011-05-28T13:02:21Z</time>
      </trkpt>
      <trkpt lat="59.3395595452" lon="18.0391408699">
        <ele>33</ele>
        <time>2011-05-28T13:02:28Z</time>
      </trkpt>
      <trkpt lat="59.3397060608" lon="18.0390099446">
        <ele>33</ele>
        <time>2011-05-28T13:02:34Z</time>
      </trkpt>
      <trkpt lat="59.3397265965" lon="18.0390101122">
        <ele>33</ele>
        <time>2011-05-28T13:02:35Z</time>
      </trkpt>
      <trkpt lat="59.3398202223" lon="18.0391965257">
        <ele>33</ele>
        <time>2011-05-28T13:02:40Z</time>
      </trkpt>
      <trkpt lat="59.3398640596" lon="18.0393328154">
        <ele>33</ele>
        <time>2011-05-28T13:02:43Z</time>
      </trkpt>
      <trkpt lat="59.3399342161" lon="18.0395958394">
        <ele>33</ele>
        <time>2011-05-28T13:02:48Z</time>
      </trkpt>
      <trkpt lat="59.3400322005" lon="18.039905383">
        <ele>33</ele>
        <time>2011-05-28T13:02:54Z</time>
      </trkpt>
      <trkpt lat="59.3401011836" lon="18.0401491286">
        <ele>33</ele>
        <time>2011-05-28T13:02:59Z</time>
      </trkpt>
      <trkpt lat="59.3401952285" lon="18.0404683114">
        <ele>33</ele>
        <time>2011-05-28T13:03:05Z</time>
      </trkpt>
      <trkpt lat="59.3402863397" lon="18.0407436568">
        <ele>33</ele>
        <time>2011-05-28T13:03:11Z</time>
      </trkpt>
      <trkpt lat="59.340300589" lon="18.040792188">
        <ele>33</ele>
        <time>2011-05-28T13:03:12Z</time>
      </trkpt>
      <trkpt lat="59.3403582564" lon="18.0410244505">
        <ele>33</ele>
        <time>2011-05-28T13:03:17Z</time>
      </trkpt>
      <trkpt lat="59.34042791" lon="18.0412612391">
        <ele>33</ele>
        <time>2011-05-28T13:03:22Z</time>
      </trkpt>
      <trkpt lat="59.3405219549" lon="18.0414986145">
        <ele>33</ele>
        <time>2011-05-28T13:03:27Z</time>
      </trkpt>
      <trkpt lat="59.3405674687" lon="18.0416473933">
        <ele>33</ele>
        <time>2011-05-28T13:03:30Z</time>
      </trkpt>
      <trkpt lat="59.3406320093" lon="18.0418395902">
        <ele>33</ele>
        <time>2011-05-28T13:03:34Z</time>
      </trkpt>
      <trkpt lat="59.3406786965" lon="18.0420690867">
        <ele>33</ele>
        <time>2011-05-28T13:03:39Z</time>
      </trkpt>
      <trkpt lat="59.3407289879" lon="18.0422655584">
        <ele>33</ele>
        <time>2011-05-28T13:03:43Z</time>
      </trkpt>
      <trkpt lat="59.3407805366" lon="18.0424892713">
        <ele>33</ele>
        <time>2011-05-28T13:03:48Z</time>
      </trkpt>
      <trkpt lat="59.3408621763" lon="18.0427630242">
        <ele>33</ele>
        <time>2011-05-28T13:03:54Z</time>
      </trkpt>
      <trkpt lat="59.3409358532" lon="18.0431172432">
        <ele>32.6</ele>
        <time>2011-05-28T13:04:02Z</time>
      </trkpt>
      <trkpt lat="59.341005842" lon="18.0433625815">
        <ele>31.8</ele>
        <time>2011-05-28T13:04:08Z</time>
      </trkpt>
      <trkpt lat="59.3410613302" lon="18.0435059958">
        <ele>31.6</ele>
        <time>2011-05-28T13:04:12Z</time>
      </trkpt>
      <trkpt lat="59.3410744898" lon="18.043558215">
        <ele>31.4</ele>
        <time>2011-05-28T13:04:13Z</time>
      </trkpt>
      <trkpt lat="59.3411428861" lon="18.0437681816">
        <ele>31.2</ele>
        <time>2011-05-28T13:04:18Z</time>
      </trkpt>
      <trkpt lat="59.3411547884" lon="18.043789304">
        <ele>31</ele>
        <time>2011-05-28T13:04:19Z</time>
      </trkpt>
      <trkpt lat="59.3411835383" lon="18.0438575327">
        <ele>30.6</ele>
        <time>2011-05-28T13:04:21Z</time>
      </trkpt>
      <trkpt lat="59.3411831192" lon="18.0440314571">
        <ele>29.8</ele>
        <time>2011-05-28T13:04:26Z</time>
      </trkpt>
      <trkpt lat="59.3411967817" lon="18.0441502286">
        <ele>29.4</ele>
        <time>2011-05-28T13:04:31Z</time>
      </trkpt>
      <trkpt lat="59.3412210054" lon="18.044334798">
        <ele>29.2</ele>
        <time>2011-05-28T13:04:36Z</time>
      </trkpt>
      <trkpt lat="59.3412956881" lon="18.0445342034">
        <ele>29</ele>
        <time>2011-05-28T13:04:41Z</time>
      </trkpt>
      <trkpt lat="59.3413369271" lon="18.0447195272">
        <ele>29</ele>
        <time>2011-05-28T13:04:45Z</time>
      </trkpt>
      <trkpt lat="59.3413578818" lon="18.044922034">
        <ele>29</ele>
        <time>2011-05-28T13:04:49Z</time>
      </trkpt>
      <trkpt lat="59.3414134538" lon="18.0451604152">
        <ele>29.2</ele>
        <time>2011-05-28T13:04:54Z</time>
      </trkpt>
      <trkpt lat="59.3414225901" lon="18.0452039172">
        <ele>29.2</ele>
        <time>2011-05-28T13:04:55Z</time>
      </trkpt>
      <trkpt lat="59.3415841093" lon="18.0457056578">
        <ele>30.4</ele>
        <time>2011-05-28T13:05:06Z</time>
      </trkpt>
      <trkpt lat="59.3416846921" lon="18.0460596254">
        <ele>30.6</ele>
        <time>2011-05-28T13:05:13Z</time>
      </trkpt>
      <trkpt lat="59.3417397612" lon="18.0462937319">
        <ele>30.8</ele>
        <time>2011-05-28T13:05:18Z</time>
      </trkpt>
      <trkpt lat="59.3418490612" lon="18.0466414969">
        <ele>30.8</ele>
        <time>2011-05-28T13:05:25Z</time>
      </trkpt>
      <trkpt lat="59.3419334669" lon="18.0469233802">
        <ele>31.8</ele>
        <time>2011-05-28T13:05:31Z</time>
      </trkpt>
      <trkpt lat="59.3419933137" lon="18.0471652819">
        <ele>33</ele>
        <time>2011-05-28T13:05:36Z</time>
      </trkpt>
      <trkpt lat="59.3420546692" lon="18.0475107838">
        <ele>35</ele>
        <time>2011-05-28T13:05:43Z</time>
      </trkpt>
      <trkpt lat="59.3421466186" lon="18.0478605605">
        <ele>36.4</ele>
        <time>2011-05-28T13:05:50Z</time>
      </trkpt>
      <trkpt lat="59.3421928867" lon="18.0480989417">
        <ele>37.8</ele>
        <time>2011-05-28T13:05:55Z</time>
      </trkpt>
      <trkpt lat="59.3422767895" lon="18.0483964991">
        <ele>39.4</ele>
        <time>2011-05-28T13:06:01Z</time>
      </trkpt>
      <trkpt lat="59.3423730137" lon="18.0487394865">
        <ele>41.2</ele>
        <time>2011-05-28T13:06:08Z</time>
      </trkpt>
      <trkpt lat="59.3424548211" lon="18.0490855751">
        <ele>43.2</ele>
        <time>2011-05-28T13:06:15Z</time>
      </trkpt>
      <trkpt lat="59.3425347006" lon="18.0493660335">
        <ele>44.4</ele>
        <time>2011-05-28T13:06:21Z</time>
      </trkpt>
      <trkpt lat="59.3426186872" lon="18.049693682">
        <ele>46.4</ele>
        <time>2011-05-28T13:06:28Z</time>
      </trkpt>
      <trkpt lat="59.3427128998" lon="18.0500139544">
        <ele>47.2</ele>
        <time>2011-05-28T13:06:35Z</time>
      </trkpt>
      <trkpt lat="59.34281189" lon="18.050346632">
        <ele>47.6</ele>
        <time>2011-05-28T13:06:42Z</time>
      </trkpt>
      <trkpt lat="59.3428820465" lon="18.0506340473">
        <ele>47.8</ele>
        <time>2011-05-28T13:06:48Z</time>
      </trkpt>
      <trkpt lat="59.3429169991" lon="18.0508851691">
        <ele>47.8</ele>
        <time>2011-05-28T13:06:53Z</time>
      </trkpt>
      <trkpt lat="59.3429595791" lon="18.0511304235">
        <ele>47.8</ele>
        <time>2011-05-28T13:06:58Z</time>
      </trkpt>
      <trkpt lat="59.3430308253" lon="18.051430244">
        <ele>48</ele>
        <time>2011-05-28T13:07:04Z</time>
      </trkpt>
      <trkpt lat="59.3431252055" lon="18.0517322439">
        <ele>47</ele>
        <time>2011-05-28T13:07:10Z</time>
      </trkpt>
      <trkpt lat="59.3431984633" lon="18.052085541">
        <ele>46.4</ele>
        <time>2011-05-28T13:07:17Z</time>
      </trkpt>
      <trkpt lat="59.343260154" lon="18.0523938273">
        <ele>46.2</ele>
        <time>2011-05-28T13:07:23Z</time>
      </trkpt>
      <trkpt lat="59.3433407041" lon="18.0527443583">
        <ele>45.8</ele>
        <time>2011-05-28T13:07:30Z</time>
      </trkpt>
      <trkpt lat="59.3434168956" lon="18.0530983259">
        <ele>44.8</ele>
        <time>2011-05-28T13:07:37Z</time>
      </trkpt>
      <trkpt lat="59.3434968589" lon="18.0534649503">
        <ele>44.2</ele>
        <time>2011-05-28T13:07:44Z</time>
      </trkpt>
      <trkpt lat="59.3435706196" lon="18.0537709734">
        <ele>43.2</ele>
        <time>2011-05-28T13:07:50Z</time>
      </trkpt>
      <trkpt lat="59.343655193" lon="18.0541380168">
        <ele>42.4</ele>
        <time>2011-05-28T13:07:57Z</time>
      </trkpt>
      <trkpt lat="59.3437157941" lon="18.0544499911">
        <ele>42</ele>
        <time>2011-05-28T13:08:03Z</time>
      </trkpt>
      <trkpt lat="59.3438009542" lon="18.054812173">
        <ele>41.8</ele>
        <time>2011-05-28T13:08:10Z</time>
      </trkpt>
      <trkpt lat="59.343874212" lon="18.055134038">
        <ele>41.8</ele>
        <time>2011-05-28T13:08:16Z</time>
      </trkpt>
      <trkpt lat="59.3439538401" lon="18.0554478563">
        <ele>41.8</ele>
        <time>2011-05-28T13:08:22Z</time>
      </trkpt>
      <trkpt lat="59.3440244157" lon="18.0557824618">
        <ele>41.6</ele>
        <time>2011-05-28T13:08:29Z</time>
      </trkpt>
      <trkpt lat="59.3440380782" lon="18.0558813682">
        <ele>41.6</ele>
        <time>2011-05-28T13:08:31Z</time>
      </trkpt>
      <trkpt lat="59.3441158622" lon="18.0561785904">
        <ele>41.6</ele>
        <time>2011-05-28T13:08:37Z</time>
      </trkpt>
      <trkpt lat="59.3441869407" lon="18.0564138703">
        <ele>41</ele>
        <time>2011-05-28T13:08:42Z</time>
      </trkpt>
      <trkpt lat="59.3442778005" lon="18.0567618868">
        <ele>40.2</ele>
        <time>2011-05-28T13:08:49Z</time>
      </trkpt>
      <trkpt lat="59.3443628768" lon="18.057128092">
        <ele>40</ele>
        <time>2011-05-28T13:08:56Z</time>
      </trkpt>
      <trkpt lat="59.3444294291" lon="18.0574336961">
        <ele>39.8</ele>
        <time>2011-05-28T13:09:02Z</time>
      </trkpt>
      <trkpt lat="59.3444926286" lon="18.0577571536">
        <ele>39.8</ele>
        <time>2011-05-28T13:09:08Z</time>
      </trkpt>
      <trkpt lat="59.3445974862" lon="18.0580976264">
        <ele>39.8</ele>
        <time>2011-05-28T13:09:15Z</time>
      </trkpt>
      <trkpt lat="59.3446797126" lon="18.0583553698">
        <ele>39.6</ele>
        <time>2011-05-28T13:09:20Z</time>
      </trkpt>
      <trkpt lat="59.3447434151" lon="18.058667847">
        <ele>40.4</ele>
        <time>2011-05-28T13:09:26Z</time>
      </trkpt>
      <trkpt lat="59.3448030942" lon="18.0589181306">
        <ele>41</ele>
        <time>2011-05-28T13:09:31Z</time>
      </trkpt>
      <trkpt lat="59.3448678025" lon="18.0591252473">
        <ele>41.2</ele>
        <time>2011-05-28T13:09:35Z</time>
      </trkpt>
      <trkpt lat="59.3449330136" lon="18.0593346272">
        <ele>41.4</ele>
        <time>2011-05-28T13:09:39Z</time>
      </trkpt>
      <trkpt lat="59.3449633561" lon="18.0594890218">
        <ele>41.4</ele>
        <time>2011-05-28T13:09:42Z</time>
      </trkpt>
      <trkpt lat="59.3450601671" lon="18.059761685">
        <ele>41.6</ele>
        <time>2011-05-28T13:09:48Z</time>
      </trkpt>
      <trkpt lat="59.3451453272" lon="18.0599775189">
        <ele>41.6</ele>
        <time>2011-05-28T13:09:52Z</time>
      </trkpt>
      <trkpt lat="59.3452171601" lon="18.0602371902">
        <ele>42.4</ele>
        <time>2011-05-28T13:09:57Z</time>
      </trkpt>
      <trkpt lat="59.3452739055" lon="18.0605075903">
        <ele>42.8</ele>
        <time>2011-05-28T13:10:02Z</time>
      </trkpt>
      <trkpt lat="59.3453154797" lon="18.0607203229">
        <ele>43.4</ele>
        <time>2011-05-28T13:10:06Z</time>
      </trkpt>
      <trkpt lat="59.3453542041" lon="18.0609490649">
        <ele>44.4</ele>
        <time>2011-05-28T13:10:11Z</time>
      </trkpt>
      <trkpt lat="59.3454189962" lon="18.0611462911">
        <ele>44.8</ele>
        <time>2011-05-28T13:10:15Z</time>
      </trkpt>
      <trkpt lat="59.3454516856" lon="18.0613495521">
        <ele>45.2</ele>
        <time>2011-05-28T13:10:19Z</time>
      </trkpt>
      <trkpt lat="59.3455146337" lon="18.0616127438">
        <ele>45.4</ele>
        <time>2011-05-28T13:10:24Z</time>
      </trkpt>
      <trkpt lat="59.3455935912" lon="18.0619806254">
        <ele>45.6</ele>
        <time>2011-05-28T13:10:31Z</time>
      </trkpt>
      <trkpt lat="59.3456528512" lon="18.0623056755">
        <ele>45.8</ele>
        <time>2011-05-28T13:10:37Z</time>
      </trkpt>
      <trkpt lat="59.3456749794" lon="18.0625913306">
        <ele>45.8</ele>
        <time>2011-05-28T13:10:42Z</time>
      </trkpt>
      <trkpt lat="59.3456066669" lon="18.0627707033">
        <ele>45.8</ele>
        <time>2011-05-28T13:10:46Z</time>
      </trkpt>
      <trkpt lat="59.3454907453" lon="18.062924092">
        <ele>45.8</ele>
        <time>2011-05-28T13:10:51Z</time>
      </trkpt>
      <trkpt lat="59.3453388652" lon="18.0631358188">
        <ele>45.8</ele>
        <time>2011-05-28T13:10:57Z</time>
      </trkpt>
      <trkpt lat="59.3452203452" lon="18.0632851005">
        <ele>45.8</ele>
        <time>2011-05-28T13:11:02Z</time>
      </trkpt>
      <trkpt lat="59.3450758412" lon="18.0634762078">
        <ele>45</ele>
        <time>2011-05-28T13:11:08Z</time>
      </trkpt>
      <trkpt lat="59.3449346062" lon="18.0637737652">
        <ele>44.4</ele>
        <time>2011-05-28T13:11:15Z</time>
      </trkpt>
      <trkpt lat="59.3448283237" lon="18.0640227915">
        <ele>44</ele>
        <time>2011-05-28T13:11:21Z</time>
      </trkpt>
      <trkpt lat="59.3447274895" lon="18.0642102946">
        <ele>43.8</ele>
        <time>2011-05-28T13:11:26Z</time>
      </trkpt>
      <trkpt lat="59.3445986597" lon="18.0644598238">
        <ele>43.8</ele>
        <time>2011-05-28T13:11:32Z</time>
      </trkpt>
      <trkpt lat="59.3444611127" lon="18.0646877276">
        <ele>43.8</ele>
        <time>2011-05-28T13:11:38Z</time>
      </trkpt>
      <trkpt lat="59.3443674869" lon="18.0648953473">
        <ele>43.8</ele>
        <time>2011-05-28T13:11:43Z</time>
      </trkpt>
      <trkpt lat="59.3442892837" lon="18.0650706966">
        <ele>44.4</ele>
        <time>2011-05-28T13:11:47Z</time>
      </trkpt>
      <trkpt lat="59.3442036207" lon="18.0652555175">
        <ele>45</ele>
        <time>2011-05-28T13:11:52Z</time>
      </trkpt>
      <trkpt lat="59.3441138506" lon="18.0654687531">
        <ele>45.4</ele>
        <time>2011-05-28T13:11:57Z</time>
      </trkpt>
      <trkpt lat="59.3440006949" lon="18.0657501334">
        <ele>45.6</ele>
        <time>2011-05-28T13:12:03Z</time>
      </trkpt>
      <trkpt lat="59.3438966755" lon="18.0660530553">
        <ele>45.6</ele>
        <time>2011-05-28T13:12:09Z</time>
      </trkpt>
      <trkpt lat="59.3437831008" lon="18.0663269758">
        <ele>45.8</ele>
        <time>2011-05-28T13:12:15Z</time>
      </trkpt>
      <trkpt lat="59.3436717892" lon="18.0666234436">
        <ele>45.8</ele>
        <time>2011-05-28T13:12:21Z</time>
      </trkpt>
      <trkpt lat="59.3435414506" lon="18.0668952686">
        <ele>45.8</ele>
        <time>2011-05-28T13:12:27Z</time>
      </trkpt>
      <trkpt lat="59.3434527701" lon="18.0670992841">
        <ele>45.8</ele>
        <time>2011-05-28T13:12:32Z</time>
      </trkpt>
      <trkpt lat="59.3433524388" lon="18.0672560256">
        <ele>45.8</ele>
        <time>2011-05-28T13:12:38Z</time>
      </trkpt>
      <trkpt lat="59.3432446475" lon="18.0674169581">
        <ele>45.8</ele>
        <time>2011-05-28T13:12:44Z</time>
      </trkpt>
      <trkpt lat="59.3431843817" lon="18.0675406749">
        <ele>45.8</ele>
        <time>2011-05-28T13:12:48Z</time>
      </trkpt>
      <trkpt lat="59.3430810328" lon="18.067755503">
        <ele>45.8</ele>
        <time>2011-05-28T13:12:54Z</time>
      </trkpt>
      <trkpt lat="59.3429517839" lon="18.0680394818">
        <ele>45.8</ele>
        <time>2011-05-28T13:13:01Z</time>
      </trkpt>
      <trkpt lat="59.3428166677" lon="18.0683335188">
        <ele>45.8</ele>
        <time>2011-05-28T13:13:08Z</time>
      </trkpt>
      <trkpt lat="59.3427604252" lon="18.0684668749">
        <ele>45.6</ele>
        <time>2011-05-28T13:13:11Z</time>
      </trkpt>
      <trkpt lat="59.3426212018" lon="18.0687470818">
        <ele>44.6</ele>
        <time>2011-05-28T13:13:18Z</time>
      </trkpt>
      <trkpt lat="59.3424962277" lon="18.0689635863">
        <ele>44</ele>
        <time>2011-05-28T13:13:24Z</time>
      </trkpt>
      <trkpt lat="59.3423746901" lon="18.0691973575">
        <ele>42.8</ele>
        <time>2011-05-28T13:13:30Z</time>
      </trkpt>
      <trkpt lat="59.3422508895" lon="18.0693992774">
        <ele>42.2</ele>
        <time>2011-05-28T13:13:36Z</time>
      </trkpt>
      <trkpt lat="59.3421441041" lon="18.0695702682">
        <ele>42</ele>
        <time>2011-05-28T13:13:41Z</time>
      </trkpt>
      <trkpt lat="59.3420011927" lon="18.0698406683">
        <ele>41.8</ele>
        <time>2011-05-28T13:13:48Z</time>
      </trkpt>
      <trkpt lat="59.3418609635" lon="18.070120037">
        <ele>41.8</ele>
        <time>2011-05-28T13:13:55Z</time>
      </trkpt>
      <trkpt lat="59.3417053116" lon="18.0703619386">
        <ele>41.6</ele>
        <time>2011-05-28T13:14:02Z</time>
      </trkpt>
      <trkpt lat="59.3415673455" lon="18.0706346857">
        <ele>40.6</ele>
        <time>2011-05-28T13:14:09Z</time>
      </trkpt>
      <trkpt lat="59.3414683553" lon="18.07090869">
        <ele>40</ele>
        <time>2011-05-28T13:14:15Z</time>
      </trkpt>
      <trkpt lat="59.3413747295" lon="18.0712461453">
        <ele>38.6</ele>
        <time>2011-05-28T13:14:22Z</time>
      </trkpt>
      <trkpt lat="59.3413122005" lon="18.0715882106">
        <ele>38</ele>
        <time>2011-05-28T13:14:29Z</time>
      </trkpt>
      <trkpt lat="59.3412664353" lon="18.0718894561">
        <ele>37.8</ele>
        <time>2011-05-28T13:14:35Z</time>
      </trkpt>
      <trkpt lat="59.3412221789" lon="18.072186343">
        <ele>37.6</ele>
        <time>2011-05-28T13:14:41Z</time>
      </trkpt>
      <trkpt lat="59.3411798503" lon="18.0723911128">
        <ele>37.6</ele>
        <time>2011-05-28T13:14:45Z</time>
      </trkpt>
      <trkpt lat="59.3411246136" lon="18.0726334335">
        <ele>37.6</ele>
        <time>2011-05-28T13:14:50Z</time>
      </trkpt>
      <trkpt lat="59.3410837937" lon="18.0727753391">
        <ele>37.4</ele>
        <time>2011-05-28T13:14:53Z</time>
      </trkpt>
      <trkpt lat="59.3409902517" lon="18.0731474955">
        <ele>36.2</ele>
        <time>2011-05-28T13:15:02Z</time>
      </trkpt>
      <trkpt lat="59.3409549639" lon="18.073322761">
        <ele>35.6</ele>
        <time>2011-05-28T13:15:06Z</time>
      </trkpt>
      <trkpt lat="59.3409006492" lon="18.0736083323">
        <ele>34.4</ele>
        <time>2011-05-28T13:15:13Z</time>
      </trkpt>
      <trkpt lat="59.3408718993" lon="18.0738224899">
        <ele>34</ele>
        <time>2011-05-28T13:15:18Z</time>
      </trkpt>
      <trkpt lat="59.3408323367" lon="18.0739982583">
        <ele>33.8</ele>
        <time>2011-05-28T13:15:22Z</time>
      </trkpt>
      <trkpt lat="59.340797468" lon="18.074176709">
        <ele>33.6</ele>
        <time>2011-05-28T13:15:26Z</time>
      </trkpt>
      <trkpt lat="59.3407777705" lon="18.0742580134">
        <ele>33.6</ele>
        <time>2011-05-28T13:15:28Z</time>
      </trkpt>
      <trkpt lat="59.3407421475" lon="18.0745120688">
        <ele>33.4</ele>
        <time>2011-05-28T13:15:34Z</time>
      </trkpt>
      <trkpt lat="59.3407035907" lon="18.0747237956">
        <ele>33.4</ele>
        <time>2011-05-28T13:15:39Z</time>
      </trkpt>
      <trkpt lat="59.3406461747" lon="18.074925967">
        <ele>33.4</ele>
        <time>2011-05-28T13:15:43Z</time>
      </trkpt>
      <trkpt lat="59.3406128986" lon="18.0751345925">
        <ele>33.4</ele>
        <time>2011-05-28T13:15:48Z</time>
      </trkpt>
      <trkpt lat="59.3405722463" lon="18.0753527734">
        <ele>33.4</ele>
        <time>2011-05-28T13:15:52Z</time>
      </trkpt>
      <trkpt lat="59.3405290796" lon="18.0755591357">
        <ele>33.4</ele>
        <time>2011-05-28T13:15:56Z</time>
      </trkpt>
      <trkpt lat="59.3404842364" lon="18.0758111795">
        <ele>33.4</ele>
        <time>2011-05-28T13:16:01Z</time>
      </trkpt>
      <trkpt lat="59.340453391" lon="18.076000778">
        <ele>33.4</ele>
        <time>2011-05-28T13:16:05Z</time>
      </trkpt>
      <trkpt lat="59.3404419078" lon="18.0760503989">
        <ele>33.4</ele>
        <time>2011-05-28T13:16:06Z</time>
      </trkpt>
      <trkpt lat="59.3404657124" lon="18.0763150155">
        <ele>33.4</ele>
        <time>2011-05-28T13:16:11Z</time>
      </trkpt>
      <trkpt lat="59.3405726654" lon="18.0764809771">
        <ele>33.4</ele>
        <time>2011-05-28T13:16:16Z</time>
      </trkpt>
      <trkpt lat="59.3407448297" lon="18.0766341144">
        <ele>33.4</ele>
        <time>2011-05-28T13:16:23Z</time>
      </trkpt>
      <trkpt lat="59.3408850589" lon="18.0767325179">
        <ele>33.4</ele>
        <time>2011-05-28T13:16:29Z</time>
      </trkpt>
      <trkpt lat="59.3410592347" lon="18.076864449">
        <ele>34.2</ele>
        <time>2011-05-28T13:16:35Z</time>
      </trkpt>
      <trkpt lat="59.3412386074" lon="18.0769819633">
        <ele>34.8</ele>
        <time>2011-05-28T13:16:41Z</time>
      </trkpt>
      <trkpt lat="59.3414097658" lon="18.0770873237">
        <ele>35</ele>
        <time>2011-05-28T13:16:47Z</time>
      </trkpt>
      <trkpt lat="59.3415369192" lon="18.0771734059">
        <ele>35.2</ele>
        <time>2011-05-28T13:16:52Z</time>
      </trkpt>
      <trkpt lat="59.3417073232" lon="18.0773513536">
        <ele>35.2</ele>
        <time>2011-05-28T13:16:59Z</time>
      </trkpt>
      <trkpt lat="59.3418305372" lon="18.0774947679">
        <ele>35.4</ele>
        <time>2011-05-28T13:17:04Z</time>
      </trkpt>
      <trkpt lat="59.342012592" lon="18.0775815206">
        <ele>35.4</ele>
        <time>2011-05-28T13:17:11Z</time>
      </trkpt>
      <trkpt lat="59.342198754" lon="18.0776950115">
        <ele>35.4</ele>
        <time>2011-05-28T13:17:19Z</time>
      </trkpt>
      <trkpt lat="59.3423393185" lon="18.0778057364">
        <ele>35.4</ele>
        <time>2011-05-28T13:17:25Z</time>
      </trkpt>
      <trkpt lat="59.3425094711" lon="18.0779472229">
        <ele>35.4</ele>
        <time>2011-05-28T13:17:32Z</time>
      </trkpt>
      <trkpt lat="59.3425332757" lon="18.0779623941">
        <ele>35.4</ele>
        <time>2011-05-28T13:17:33Z</time>
      </trkpt>
      <trkpt lat="59.3426920289" lon="18.0780483086">
        <ele>35.4</ele>
        <time>2011-05-28T13:17:39Z</time>
      </trkpt>
      <trkpt lat="59.3428569008" lon="18.0781707681">
        <ele>35.4</ele>
        <time>2011-05-28T13:17:45Z</time>
      </trkpt>
      <trkpt lat="59.3429878261" lon="18.0782656512">
        <ele>34.6</ele>
        <time>2011-05-28T13:17:50Z</time>
      </trkpt>
      <trkpt lat="59.3431557994" lon="18.0783701735">
        <ele>34</ele>
        <time>2011-05-28T13:17:56Z</time>
      </trkpt>
      <trkpt lat="59.3432759958" lon="18.0784944771">
        <ele>33.6</ele>
        <time>2011-05-28T13:18:01Z</time>
      </trkpt>
      <trkpt lat="59.343399545" lon="18.0787663021">
        <ele>33.4</ele>
        <time>2011-05-28T13:18:08Z</time>
      </trkpt>
      <trkpt lat="59.3433900735" lon="18.0791171685">
        <ele>33.4</ele>
        <time>2011-05-28T13:18:14Z</time>
      </trkpt>
      <trkpt lat="59.3433291371" lon="18.0794536179">
        <ele>33.4</ele>
        <time>2011-05-28T13:18:20Z</time>
      </trkpt>
      <trkpt lat="59.3432877305" lon="18.0797607308">
        <ele>33.4</ele>
        <time>2011-05-28T13:18:26Z</time>
      </trkpt>
      <trkpt lat="59.3432070128" lon="18.0801020417">
        <ele>33.4</ele>
        <time>2011-05-28T13:18:33Z</time>
      </trkpt>
      <trkpt lat="59.3431596551" lon="18.0803170375">
        <ele>33.4</ele>
        <time>2011-05-28T13:18:37Z</time>
      </trkpt>
      <trkpt lat="59.3431019876" lon="18.0805311112">
        <ele>33.4</ele>
        <time>2011-05-28T13:18:41Z</time>
      </trkpt>
      <trkpt lat="59.3430154864" lon="18.0808704105">
        <ele>33.4</ele>
        <time>2011-05-28T13:18:48Z</time>
      </trkpt>
      <trkpt lat="59.3429618422" lon="18.0811234601">
        <ele>33.4</ele>
        <time>2011-05-28T13:18:53Z</time>
      </trkpt>
      <trkpt lat="59.3428774365" lon="18.0814929342">
        <ele>33.4</ele>
        <time>2011-05-28T13:19:00Z</time>
      </trkpt>
      <trkpt lat="59.3428066094" lon="18.0818567087">
        <ele>33.4</ele>
        <time>2011-05-28T13:19:07Z</time>
      </trkpt>
      <trkpt lat="59.342740141" lon="18.0821653302">
        <ele>33.4</ele>
        <time>2011-05-28T13:19:13Z</time>
      </trkpt>
      <trkpt lat="59.3426913583" lon="18.082466911">
        <ele>33.4</ele>
        <time>2011-05-28T13:19:19Z</time>
      </trkpt>
      <trkpt lat="59.3426352834" lon="18.0827670668">
        <ele>33.4</ele>
        <time>2011-05-28T13:19:25Z</time>
      </trkpt>
      <trkpt lat="59.3425447589" lon="18.0831160891">
        <ele>33.4</ele>
        <time>2011-05-28T13:19:32Z</time>
      </trkpt>
      <trkpt lat="59.3424387278" lon="18.0834543826">
        <ele>33.4</ele>
        <time>2011-05-28T13:19:39Z</time>
      </trkpt>
      <trkpt lat="59.3423647157" lon="18.0837568016">
        <ele>33.4</ele>
        <time>2011-05-28T13:19:45Z</time>
      </trkpt>
      <trkpt lat="59.3423125802" lon="18.0839998767">
        <ele>33.4</ele>
        <time>2011-05-28T13:19:50Z</time>
      </trkpt>
      <trkpt lat="59.3422754484" lon="18.0842422812">
        <ele>33.4</ele>
        <time>2011-05-28T13:19:55Z</time>
      </trkpt>
      <trkpt lat="59.3421929705" lon="18.084595243">
        <ele>33.4</ele>
        <time>2011-05-28T13:20:02Z</time>
      </trkpt>
      <trkpt lat="59.3420754563" lon="18.084932866">
        <ele>33.4</ele>
        <time>2011-05-28T13:20:09Z</time>
      </trkpt>
      <trkpt lat="59.3420091555" lon="18.0852293338">
        <ele>33.4</ele>
        <time>2011-05-28T13:20:15Z</time>
      </trkpt>
      <trkpt lat="59.3419206426" lon="18.0855606703">
        <ele>32.4</ele>
        <time>2011-05-28T13:20:22Z</time>
      </trkpt>
      <trkpt lat="59.3418508214" lon="18.0857748278">
        <ele>32</ele>
        <time>2011-05-28T13:20:27Z</time>
      </trkpt>
      <trkpt lat="59.3417923995" lon="18.0860373489">
        <ele>31.8</ele>
        <time>2011-05-28T13:20:32Z</time>
      </trkpt>
      <trkpt lat="59.3417385039" lon="18.0862676835">
        <ele>31.6</ele>
        <time>2011-05-28T13:20:37Z</time>
      </trkpt>
      <trkpt lat="59.3417019588" lon="18.0864184739">
        <ele>31.4</ele>
        <time>2011-05-28T13:20:40Z</time>
      </trkpt>
      <trkpt lat="59.3416292039" lon="18.0866645665">
        <ele>31.4</ele>
        <time>2011-05-28T13:20:45Z</time>
      </trkpt>
      <trkpt lat="59.3415568681" lon="18.0868735273">
        <ele>31.4</ele>
        <time>2011-05-28T13:20:49Z</time>
      </trkpt>
      <trkpt lat="59.3415028887" lon="18.0870497148">
        <ele>31.4</ele>
        <time>2011-05-28T13:20:53Z</time>
      </trkpt>
      <trkpt lat="59.341456453" lon="18.0872280816">
        <ele>31.4</ele>
        <time>2011-05-28T13:20:57Z</time>
      </trkpt>
      <trkpt lat="59.341444886" lon="18.0872762776">
        <ele>31.6</ele>
        <time>2011-05-28T13:20:58Z</time>
      </trkpt>
      <trkpt lat="59.341350841" lon="18.0876223662">
        <ele>32.4</ele>
        <time>2011-05-28T13:21:04Z</time>
      </trkpt>
      <trkpt lat="59.3412676088" lon="18.0879184149">
        <ele>32.8</ele>
        <time>2011-05-28T13:21:09Z</time>
      </trkpt>
      <trkpt lat="59.3411785092" lon="18.0881799302">
        <ele>33</ele>
        <time>2011-05-28T13:21:14Z</time>
      </trkpt>
      <trkpt lat="59.3411246136" lon="18.0884202393">
        <ele>33.2</ele>
        <time>2011-05-28T13:21:19Z</time>
      </trkpt>
      <trkpt lat="59.3410642639" lon="18.0885992767">
        <ele>33.2</ele>
        <time>2011-05-28T13:21:22Z</time>
      </trkpt>
      <trkpt lat="59.3409862284" lon="18.0889153581">
        <ele>33.2</ele>
        <time>2011-05-28T13:21:28Z</time>
      </trkpt>
      <trkpt lat="59.3409647707" lon="18.0891375623">
        <ele>33.4</ele>
        <time>2011-05-28T13:21:32Z</time>
      </trkpt>
      <trkpt lat="59.340937781" lon="18.089233535">
        <ele>33.4</ele>
        <time>2011-05-28T13:21:34Z</time>
      </trkpt>
      <trkpt lat="59.3408650261" lon="18.089461858">
        <ele>33.4</ele>
        <time>2011-05-28T13:21:39Z</time>
      </trkpt>
      <trkpt lat="59.3408190095" lon="18.089616085">
        <ele>33.4</ele>
        <time>2011-05-28T13:21:42Z</time>
      </trkpt>
      <trkpt lat="59.3407242102" lon="18.0899884928">
        <ele>33.4</ele>
        <time>2011-05-28T13:21:49Z</time>
      </trkpt>
      <trkpt lat="59.3406481025" lon="18.0903649239">
        <ele>32.8</ele>
        <time>2011-05-28T13:21:56Z</time>
      </trkpt>
      <trkpt lat="59.3405903513" lon="18.0907233339">
        <ele>32</ele>
        <time>2011-05-28T13:22:03Z</time>
      </trkpt>
      <trkpt lat="59.340527487" lon="18.0909505673">
        <ele>31.8</ele>
        <time>2011-05-28T13:22:08Z</time>
      </trkpt>
      <trkpt lat="59.3404637846" lon="18.0912410001">
        <ele>31.6</ele>
        <time>2011-05-28T13:22:14Z</time>
      </trkpt>
      <trkpt lat="59.3404213721" lon="18.0915515495">
        <ele>31.4</ele>
        <time>2011-05-28T13:22:20Z</time>
      </trkpt>
      <trkpt lat="59.3403794626" lon="18.0918554772">
        <ele>31.4</ele>
        <time>2011-05-28T13:22:26Z</time>
      </trkpt>
      <trkpt lat="59.3403463541" lon="18.0920645218">
        <ele>31.6</ele>
        <time>2011-05-28T13:22:30Z</time>
      </trkpt>
      <trkpt lat="59.3402931291" lon="18.0923361791">
        <ele>32.4</ele>
        <time>2011-05-28T13:22:35Z</time>
      </trkpt>
      <trkpt lat="59.3402378924" lon="18.0926587147">
        <ele>33</ele>
        <time>2011-05-28T13:22:41Z</time>
      </trkpt>
      <trkpt lat="59.3401558336" lon="18.0929824236">
        <ele>34.2</ele>
        <time>2011-05-28T13:22:47Z</time>
      </trkpt>
      <trkpt lat="59.3400573462" lon="18.0935716712">
        <ele>36.2</ele>
        <time>2011-05-28T13:22:59Z</time>
      </trkpt>
      <trkpt lat="59.3399459508" lon="18.0938631937">
        <ele>37</ele>
        <time>2011-05-28T13:23:04Z</time>
      </trkpt>
      <trkpt lat="59.3398570188" lon="18.0942049237">
        <ele>37.4</ele>
        <time>2011-05-28T13:23:10Z</time>
      </trkpt>
      <trkpt lat="59.3397972559" lon="18.0945224301">
        <ele>37.6</ele>
        <time>2011-05-28T13:23:16Z</time>
      </trkpt>
      <trkpt lat="59.3397474674" lon="18.0948326442">
        <ele>38.6</ele>
        <time>2011-05-28T13:23:22Z</time>
      </trkpt>
      <trkpt lat="59.3396788196" lon="18.0951400085">
        <ele>39.2</ele>
        <time>2011-05-28T13:23:28Z</time>
      </trkpt>
      <trkpt lat="59.3396384189" lon="18.0953896215">
        <ele>39.4</ele>
        <time>2011-05-28T13:23:33Z</time>
      </trkpt>
      <trkpt lat="59.3395800808" lon="18.0956819822">
        <ele>39.6</ele>
        <time>2011-05-28T13:23:39Z</time>
      </trkpt>
      <trkpt lat="59.3395687653" lon="18.0957575869">
        <ele>39.6</ele>
        <time>2011-05-28T13:23:41Z</time>
      </trkpt>
      <trkpt lat="59.3395064039" lon="18.0960371233">
        <ele>39.8</ele>
        <time>2011-05-28T13:23:46Z</time>
      </trkpt>
      <trkpt lat="59.3393712039" lon="18.0964661927">
        <ele>39.8</ele>
        <time>2011-05-28T13:23:54Z</time>
      </trkpt>
      <trkpt lat="59.339277159" lon="18.0968236808">
        <ele>39.8</ele>
        <time>2011-05-28T13:24:00Z</time>
      </trkpt>
      <trkpt lat="59.3392231795" lon="18.0970832682">
        <ele>39.8</ele>
        <time>2011-05-28T13:24:05Z</time>
      </trkpt>
      <trkpt lat="59.3391640033" lon="18.0973656544">
        <ele>39</ele>
        <time>2011-05-28T13:24:11Z</time>
      </trkpt>
      <trkpt lat="59.3390863869" lon="18.0976130881">
        <ele>38.4</ele>
        <time>2011-05-28T13:24:16Z</time>
      </trkpt>
      <trkpt lat="59.3389905818" lon="18.0979201171">
        <ele>38</ele>
        <time>2011-05-28T13:24:22Z</time>
      </trkpt>
      <trkpt lat="59.3389030748" lon="18.0982147409">
        <ele>36.8</ele>
        <time>2011-05-28T13:24:28Z</time>
      </trkpt>
      <trkpt lat="59.3388309904" lon="18.0985243683">
        <ele>36</ele>
        <time>2011-05-28T13:24:34Z</time>
      </trkpt>
      <trkpt lat="59.338757565" lon="18.0988099396">
        <ele>34.8</ele>
        <time>2011-05-28T13:24:40Z</time>
      </trkpt>
      <trkpt lat="59.338702915" lon="18.0989964369">
        <ele>34.4</ele>
        <time>2011-05-28T13:24:44Z</time>
      </trkpt>
      <trkpt lat="59.3386126419" lon="18.0993158711">
        <ele>32.8</ele>
        <time>2011-05-28T13:24:50Z</time>
      </trkpt>
      <trkpt lat="59.3385310861" lon="18.0996317011">
        <ele>31.4</ele>
        <time>2011-05-28T13:24:56Z</time>
      </trkpt>
      <trkpt lat="59.3384816329" lon="18.0999763648">
        <ele>30.2</ele>
        <time>2011-05-28T13:25:03Z</time>
      </trkpt>
      <trkpt lat="59.3384290783" lon="18.1002413167">
        <ele>29.6</ele>
        <time>2011-05-28T13:25:08Z</time>
      </trkpt>
      <trkpt lat="59.3383425771" lon="18.1005610862">
        <ele>29.4</ele>
        <time>2011-05-28T13:25:14Z</time>
      </trkpt>
      <trkpt lat="59.3382656313" lon="18.1009093541">
        <ele>29.2</ele>
        <time>2011-05-28T13:25:20Z</time>
      </trkpt>
      <trkpt lat="59.3382047787" lon="18.1011643315">
        <ele>29.2</ele>
        <time>2011-05-28T13:25:25Z</time>
      </trkpt>
      <trkpt lat="59.3381693233" lon="18.101395169">
        <ele>29</ele>
        <time>2011-05-28T13:25:30Z</time>
      </trkpt>
      <trkpt lat="59.338112494" lon="18.1016218994">
        <ele>29</ele>
        <time>2011-05-28T13:25:34Z</time>
      </trkpt>
      <trkpt lat="59.3380793855" lon="18.1018446065">
        <ele>29</ele>
        <time>2011-05-28T13:25:38Z</time>
      </trkpt>
      <trkpt lat="59.3380397391" lon="18.1019876017">
        <ele>29</ele>
        <time>2011-05-28T13:25:41Z</time>
      </trkpt>
      <trkpt lat="59.337936055" lon="18.1022923676">
        <ele>29</ele>
        <time>2011-05-28T13:25:47Z</time>
      </trkpt>
      <trkpt lat="59.3378115838" lon="18.1025134821">
        <ele>29</ele>
        <time>2011-05-28T13:25:52Z</time>
      </trkpt>
      <trkpt lat="59.3376778086" lon="18.1025626001">
        <ele>29</ele>
        <time>2011-05-28T13:25:56Z</time>
      </trkpt>
      <trkpt lat="59.3375444526" lon="18.1025113028">
        <ele>29</ele>
        <time>2011-05-28T13:26:01Z</time>
      </trkpt>
      <trkpt lat="59.337447474" lon="18.1024372906">
        <ele>28.6</ele>
        <time>2011-05-28T13:26:05Z</time>
      </trkpt>
      <trkpt lat="59.3372899781" lon="18.1023607639">
        <ele>27.8</ele>
        <time>2011-05-28T13:26:11Z</time>
      </trkpt>
      <trkpt lat="59.3371261958" lon="18.1022799624">
        <ele>27.4</ele>
        <time>2011-05-28T13:26:17Z</time>
      </trkpt>
      <trkpt lat="59.3369756569" lon="18.1022529727">
        <ele>27.2</ele>
        <time>2011-05-28T13:26:22Z</time>
      </trkpt>
      <trkpt lat="59.3368362659" lon="18.1022106441">
        <ele>27</ele>
        <time>2011-05-28T13:26:27Z</time>
      </trkpt>
      <trkpt lat="59.3367053406" lon="18.1020818981">
        <ele>27</ele>
        <time>2011-05-28T13:26:32Z</time>
      </trkpt>
      <trkpt lat="59.3365274767" lon="18.101887438">
        <ele>27</ele>
        <time>2011-05-28T13:26:39Z</time>
      </trkpt>
      <trkpt lat="59.3363611798" lon="18.1017151061">
        <ele>26.4</ele>
        <time>2011-05-28T13:26:46Z</time>
      </trkpt>
      <trkpt lat="59.3361751016" lon="18.101573452">
        <ele>25.4</ele>
        <time>2011-05-28T13:26:54Z</time>
      </trkpt>
      <trkpt lat="59.3359979082" lon="18.1014670019">
        <ele>25.2</ele>
        <time>2011-05-28T13:27:01Z</time>
      </trkpt>
      <trkpt lat="59.335836389" lon="18.1013400999">
        <ele>25</ele>
        <time>2011-05-28T13:27:08Z</time>
      </trkpt>
      <trkpt lat="59.3356998479" lon="18.1012386789">
        <ele>25</ele>
        <time>2011-05-28T13:27:14Z</time>
      </trkpt>
      <trkpt lat="59.3355263425" lon="18.1011470648">
        <ele>25</ele>
        <time>2011-05-28T13:27:21Z</time>
      </trkpt>
      <trkpt lat="59.3353519152" lon="18.1010065003">
        <ele>26</ele>
        <time>2011-05-28T13:27:28Z</time>
      </trkpt>
      <trkpt lat="59.3351548567" lon="18.1009076777">
        <ele>26.4</ele>
        <time>2011-05-28T13:27:36Z</time>
      </trkpt>
      <trkpt lat="59.3349692815" lon="18.1008547041">
        <ele>26.6</ele>
        <time>2011-05-28T13:27:43Z</time>
      </trkpt>
      <trkpt lat="59.3348182396" lon="18.1007813625">
        <ele>26.8</ele>
        <time>2011-05-28T13:27:49Z</time>
      </trkpt>
      <trkpt lat="59.3346437285" lon="18.1007035785">
        <ele>26.8</ele>
        <time>2011-05-28T13:27:56Z</time>
      </trkpt>
      <trkpt lat="59.3346252883" lon="18.1006870661">
        <ele>26.8</ele>
        <time>2011-05-28T13:27:57Z</time>
      </trkpt>
      <trkpt lat="59.334599472" lon="18.1006761696">
        <ele>26.8</ele>
        <time>2011-05-28T13:28:01Z</time>
      </trkpt>
      <trkpt lat="59.3344765096" lon="18.1005864833">
        <ele>26.8</ele>
        <time>2011-05-28T13:28:06Z</time>
      </trkpt>
      <trkpt lat="59.3344271402" lon="18.1005389579">
        <ele>26.8</ele>
        <time>2011-05-28T13:28:08Z</time>
      </trkpt>
      <trkpt lat="59.3343207739" lon="18.1004155764">
        <ele>26.8</ele>
        <time>2011-05-28T13:28:13Z</time>
      </trkpt>
      <trkpt lat="59.3342714883" lon="18.1003710685">
        <ele>26.8</ele>
        <time>2011-05-28T13:28:15Z</time>
      </trkpt>
      <trkpt lat="59.3341373779" lon="18.1003028398">
        <ele>26.8</ele>
        <time>2011-05-28T13:28:20Z</time>
      </trkpt>
      <trkpt lat="59.3340134096" lon="18.1001981499">
        <ele>26.8</ele>
        <time>2011-05-28T13:28:25Z</time>
      </trkpt>
      <trkpt lat="59.3339129106" lon="18.1001153367">
        <ele>26.8</ele>
        <time>2011-05-28T13:28:29Z</time>
      </trkpt>
      <trkpt lat="59.3337606953" lon="18.1000046956">
        <ele>26</ele>
        <time>2011-05-28T13:28:35Z</time>
      </trkpt>
      <trkpt lat="59.3335752877" lon="18.0998513907">
        <ele>25.4</ele>
        <time>2011-05-28T13:28:42Z</time>
      </trkpt>
      <trkpt lat="59.3334083202" lon="18.0996861834">
        <ele>24</ele>
        <time>2011-05-28T13:28:49Z</time>
      </trkpt>
      <trkpt lat="59.3332699351" lon="18.0995878637">
        <ele>23.4</ele>
        <time>2011-05-28T13:28:55Z</time>
      </trkpt>
      <trkpt lat="59.3331160434" lon="18.0995010273">
        <ele>22.4</ele>
        <time>2011-05-28T13:29:01Z</time>
      </trkpt>
      <trkpt lat="59.3330059052" lon="18.0994498139">
        <ele>21.6</ele>
        <time>2011-05-28T13:29:06Z</time>
      </trkpt>
      <trkpt lat="59.3329477348" lon="18.0996115007">
        <ele>20.8</ele>
        <time>2011-05-28T13:29:12Z</time>
      </trkpt>
      <trkpt lat="59.3329189849" lon="18.0997823238">
        <ele>20</ele>
        <time>2011-05-28T13:29:16Z</time>
      </trkpt>
      <trkpt lat="59.3328740579" lon="18.0999528117">
        <ele>19.4</ele>
        <time>2011-05-28T13:29:20Z</time>
      </trkpt>
      <trkpt lat="59.3328536061" lon="18.1000556576">
        <ele>19.4</ele>
        <time>2011-05-28T13:29:22Z</time>
      </trkpt>
      <trkpt lat="59.3328037338" lon="18.1002982298">
        <ele>19</ele>
        <time>2011-05-28T13:29:27Z</time>
      </trkpt>
      <trkpt lat="59.3327639198" lon="18.1005458311">
        <ele>18.8</ele>
        <time>2011-05-28T13:29:32Z</time>
      </trkpt>
      <trkpt lat="59.3327588906" lon="18.1005838011">
        <ele>18.8</ele>
        <time>2011-05-28T13:29:33Z</time>
      </trkpt>
      <trkpt lat="59.3327600641" lon="18.1006720625">
        <ele>18.8</ele>
        <time>2011-05-28T13:29:35Z</time>
      </trkpt>
      <trkpt lat="59.3328096011" lon="18.1009911614">
        <ele>18.2</ele>
        <time>2011-05-28T13:29:41Z</time>
      </trkpt>
      <trkpt lat="59.3328484931" lon="18.101211354">
        <ele>17.6</ele>
        <time>2011-05-28T13:29:45Z</time>
      </trkpt>
      <trkpt lat="59.3329174762" lon="18.10147991">
        <ele>17.2</ele>
        <time>2011-05-28T13:29:50Z</time>
      </trkpt>
      <trkpt lat="59.3329712042" lon="18.1017423473">
        <ele>17</ele>
        <time>2011-05-28T13:29:55Z</time>
      </trkpt>
      <trkpt lat="59.3330021334" lon="18.1020015157">
        <ele>16.2</ele>
        <time>2011-05-28T13:30:00Z</time>
      </trkpt>
      <trkpt lat="59.3330600523" lon="18.1022662161">
        <ele>15.4</ele>
        <time>2011-05-28T13:30:05Z</time>
      </trkpt>
      <trkpt lat="59.3331707772" lon="18.1025808726">
        <ele>14.6</ele>
        <time>2011-05-28T13:30:11Z</time>
      </trkpt>
      <trkpt lat="59.3332747966" lon="18.1029232732">
        <ele>13.4</ele>
        <time>2011-05-28T13:30:18Z</time>
      </trkpt>
      <trkpt lat="59.3333212323" lon="18.1031886442">
        <ele>13</ele>
        <time>2011-05-28T13:30:23Z</time>
      </trkpt>
      <trkpt lat="59.3333481382" lon="18.1035069887">
        <ele>12.6</ele>
        <time>2011-05-28T13:30:29Z</time>
      </trkpt>
      <trkpt lat="59.3333580288" lon="18.1037872795">
        <ele>12.6</ele>
        <time>2011-05-28T13:30:34Z</time>
      </trkpt>
      <trkpt lat="59.3333672489" lon="18.1041925443">
        <ele>12.4</ele>
        <time>2011-05-28T13:30:41Z</time>
      </trkpt>
      <trkpt lat="59.3333565201" lon="18.1045874995">
        <ele>12.4</ele>
        <time>2011-05-28T13:30:48Z</time>
      </trkpt>
      <trkpt lat="59.333334811" lon="18.1049420538">
        <ele>12.4</ele>
        <time>2011-05-28T13:30:54Z</time>
      </trkpt>
      <trkpt lat="59.3333095815" lon="18.1053329856">
        <ele>12.4</ele>
        <time>2011-05-28T13:31:01Z</time>
      </trkpt>
      <trkpt lat="59.3332835976" lon="18.1057250071">
        <ele>12.4</ele>
        <time>2011-05-28T13:31:08Z</time>
      </trkpt>
      <trkpt lat="59.3332639001" lon="18.1061189564">
        <ele>12.4</ele>
        <time>2011-05-28T13:31:15Z</time>
      </trkpt>
      <trkpt lat="59.3332507405" lon="18.1065015901">
        <ele>12.4</ele>
        <time>2011-05-28T13:31:22Z</time>
      </trkpt>
      <trkpt lat="59.3332405984" lon="18.1068826313">
        <ele>12.4</ele>
        <time>2011-05-28T13:31:29Z</time>
      </trkpt>
      <trkpt lat="59.3332286961" lon="18.1072209248">
        <ele>12.4</ele>
        <time>2011-05-28T13:31:35Z</time>
      </trkpt>
      <trkpt lat="59.3332410175" lon="18.1074907382">
        <ele>12.4</ele>
        <time>2011-05-28T13:31:40Z</time>
      </trkpt>
      <trkpt lat="59.3332721144" lon="18.107819141">
        <ele>12.4</ele>
        <time>2011-05-28T13:31:46Z</time>
      </trkpt>
      <trkpt lat="59.3332804124" lon="18.1079947418">
        <ele>12.4</ele>
        <time>2011-05-28T13:31:49Z</time>
      </trkpt>
      <trkpt lat="59.3333332184" lon="18.1084443469">
        <ele>12.4</ele>
        <time>2011-05-28T13:31:56Z</time>
      </trkpt>
      <trkpt lat="59.3333799056" lon="18.1087901003">
        <ele>12.4</ele>
        <time>2011-05-28T13:32:02Z</time>
      </trkpt>
      <trkpt lat="59.3334386627" lon="18.1089335146">
        <ele>12.4</ele>
        <time>2011-05-28T13:32:06Z</time>
      </trkpt>
      <trkpt lat="59.3334627188" lon="18.108941226">
        <ele>12.4</ele>
        <time>2011-05-28T13:32:12Z</time>
      </trkpt>
      <trkpt lat="59.333491804" lon="18.1089473447">
        <ele>12.4</ele>
        <time>2011-05-28T13:32:26Z</time>
      </trkpt>
      <trkpt lat="59.333486691" lon="18.1092005619">
        <ele>12.4</ele>
        <time>2011-05-28T13:32:31Z</time>
      </trkpt>
      <trkpt lat="59.3335074781" lon="18.1095537752">
        <ele>12.4</ele>
        <time>2011-05-28T13:32:37Z</time>
      </trkpt>
      <trkpt lat="59.3335359766" lon="18.1098670068">
        <ele>12.4</ele>
        <time>2011-05-28T13:32:42Z</time>
      </trkpt>
      <trkpt lat="59.3335698395" lon="18.110263806">
        <ele>12.4</ele>
        <time>2011-05-28T13:32:48Z</time>
      </trkpt>
      <trkpt lat="59.3335928059" lon="18.1106475293">
        <ele>12.4</ele>
        <time>2011-05-28T13:32:54Z</time>
      </trkpt>
      <trkpt lat="59.3336113299" lon="18.1110274809">
        <ele>11.8</ele>
        <time>2011-05-28T13:32:59Z</time>
      </trkpt>
      <trkpt lat="59.3336292671" lon="18.1114107852">
        <ele>11.2</ele>
        <time>2011-05-28T13:33:04Z</time>
      </trkpt>
      <trkpt lat="59.3336259982" lon="18.1117531019">
        <ele>10.8</ele>
        <time>2011-05-28T13:33:09Z</time>
      </trkpt>
      <trkpt lat="59.333636727" lon="18.1121654076">
        <ele>10.6</ele>
        <time>2011-05-28T13:33:15Z</time>
      </trkpt>
      <trkpt lat="59.3336392416" lon="18.1125632964">
        <ele>10.4</ele>
        <time>2011-05-28T13:33:21Z</time>
      </trkpt>
      <trkpt lat="59.3336316141" lon="18.1129583353">
        <ele>10.4</ele>
        <time>2011-05-28T13:33:27Z</time>
      </trkpt>
      <trkpt lat="59.3336215558" lon="18.1133778494">
        <ele>10.4</ele>
        <time>2011-05-28T13:33:33Z</time>
      </trkpt>
      <trkpt lat="59.3336059654" lon="18.113727207">
        <ele>10.4</ele>
        <time>2011-05-28T13:33:38Z</time>
      </trkpt>
      <trkpt lat="59.3335901236" lon="18.1140659196">
        <ele>10.4</ele>
        <time>2011-05-28T13:33:43Z</time>
      </trkpt>
      <trkpt lat="59.3335876091" lon="18.1143971723">
        <ele>10.4</ele>
        <time>2011-05-28T13:33:48Z</time>
      </trkpt>
      <trkpt lat="59.3335465378" lon="18.1147853381">
        <ele>10.8</ele>
        <time>2011-05-28T13:33:54Z</time>
      </trkpt>
      <trkpt lat="59.333514016" lon="18.1150994079">
        <ele>11.4</ele>
        <time>2011-05-28T13:33:59Z</time>
      </trkpt>
      <trkpt lat="59.3334866072" lon="18.115388332">
        <ele>11.8</ele>
        <time>2011-05-28T13:34:04Z</time>
      </trkpt>
      <trkpt lat="59.3334695919" lon="18.1156034954">
        <ele>12</ele>
        <time>2011-05-28T13:34:08Z</time>
      </trkpt>
      <trkpt lat="59.333444111" lon="18.1158887314">
        <ele>12.4</ele>
        <time>2011-05-28T13:34:14Z</time>
      </trkpt>
      <trkpt lat="59.3334361481" lon="18.1160618176">
        <ele>13</ele>
        <time>2011-05-28T13:34:18Z</time>
      </trkpt>
      <trkpt lat="59.333431119" lon="18.1162164637">
        <ele>13.6</ele>
        <time>2011-05-28T13:34:22Z</time>
      </trkpt>
      <trkpt lat="59.3334287721" lon="18.1163933218">
        <ele>13.8</ele>
        <time>2011-05-28T13:34:27Z</time>
      </trkpt>
      <trkpt lat="59.3334156125" lon="18.1165996842">
        <ele>14</ele>
        <time>2011-05-28T13:34:32Z</time>
      </trkpt>
      <trkpt lat="59.3333828393" lon="18.1168120815">
        <ele>14.2</ele>
        <time>2011-05-28T13:34:37Z</time>
      </trkpt>
      <trkpt lat="59.3333629742" lon="18.117053564">
        <ele>14.2</ele>
        <time>2011-05-28T13:34:42Z</time>
      </trkpt>
      <trkpt lat="59.3333174604" lon="18.1174061906">
        <ele>14.4</ele>
        <time>2011-05-28T13:34:49Z</time>
      </trkpt>
      <trkpt lat="59.3332777302" lon="18.1177673667">
        <ele>13.2</ele>
        <time>2011-05-28T13:34:56Z</time>
      </trkpt>
      <trkpt lat="59.3332357369" lon="18.1181318955">
        <ele>12.8</ele>
        <time>2011-05-28T13:35:03Z</time>
      </trkpt>
      <trkpt lat="59.333215788" lon="18.1183498249">
        <ele>12.2</ele>
        <time>2011-05-28T13:35:07Z</time>
      </trkpt>
      <trkpt lat="59.3332093339" lon="18.1186338037">
        <ele>11.4</ele>
        <time>2011-05-28T13:35:12Z</time>
      </trkpt>
      <trkpt lat="59.3332083281" lon="18.1189195426">
        <ele>11</ele>
        <time>2011-05-28T13:35:17Z</time>
      </trkpt>
      <trkpt lat="59.3332338929" lon="18.1191353766">
        <ele>10.8</ele>
        <time>2011-05-28T13:35:21Z</time>
      </trkpt>
      <trkpt lat="59.3332238346" lon="18.1193399787">
        <ele>10.6</ele>
        <time>2011-05-28T13:35:24Z</time>
      </trkpt>
      <trkpt lat="59.3332201466" lon="18.1197181701">
        <ele>10.4</ele>
        <time>2011-05-28T13:35:31Z</time>
      </trkpt>
      <trkpt lat="59.3331989404" lon="18.1199869776">
        <ele>10.4</ele>
        <time>2011-05-28T13:35:36Z</time>
      </trkpt>
      <trkpt lat="59.3331775665" lon="18.1203065794">
        <ele>10.4</ele>
        <time>2011-05-28T13:35:42Z</time>
      </trkpt>
      <trkpt lat="59.3331590425" lon="18.120688375">
        <ele>10.4</ele>
        <time>2011-05-28T13:35:49Z</time>
      </trkpt>
      <trkpt lat="59.3331516665" lon="18.121076457">
        <ele>10.4</ele>
        <time>2011-05-28T13:35:56Z</time>
      </trkpt>
      <trkpt lat="59.3331308793" lon="18.1214462664">
        <ele>10.4</ele>
        <time>2011-05-28T13:36:03Z</time>
      </trkpt>
      <trkpt lat="59.3331230004" lon="18.1217714841">
        <ele>10.4</ele>
        <time>2011-05-28T13:36:09Z</time>
      </trkpt>
      <trkpt lat="59.3331406862" lon="18.1221487534">
        <ele>10.4</ele>
        <time>2011-05-28T13:36:16Z</time>
      </trkpt>
      <trkpt lat="59.3331488166" lon="18.1224132862">
        <ele>10.4</ele>
        <time>2011-05-28T13:36:21Z</time>
      </trkpt>
      <trkpt lat="59.3331789076" lon="18.1227857778">
        <ele>10.4</ele>
        <time>2011-05-28T13:36:28Z</time>
      </trkpt>
      <trkpt lat="59.3332250919" lon="18.123139494">
        <ele>11.2</ele>
        <time>2011-05-28T13:36:35Z</time>
      </trkpt>
      <trkpt lat="59.3332820888" lon="18.1235051125">
        <ele>11.8</ele>
        <time>2011-05-28T13:36:42Z</time>
      </trkpt>
      <trkpt lat="59.3333283569" lon="18.1238177574">
        <ele>12</ele>
        <time>2011-05-28T13:36:48Z</time>
      </trkpt>
      <trkpt lat="59.3334211445" lon="18.1240542946">
        <ele>12.2</ele>
        <time>2011-05-28T13:36:54Z</time>
      </trkpt>
      <trkpt lat="59.3335525727" lon="18.1240366088">
        <ele>12.2</ele>
        <time>2011-05-28T13:36:59Z</time>
      </trkpt>
      <trkpt lat="59.333714092" lon="18.1238190985">
        <ele>12.4</ele>
        <time>2011-05-28T13:37:06Z</time>
      </trkpt>
      <trkpt lat="59.3338323606" lon="18.1235725868">
        <ele>12.4</ele>
        <time>2011-05-28T13:37:12Z</time>
      </trkpt>
      <trkpt lat="59.3339637888" lon="18.123277963">
        <ele>11.6</ele>
        <time>2011-05-28T13:37:19Z</time>
      </trkpt>
      <trkpt lat="59.3340674729" lon="18.1230253325">
        <ele>11</ele>
        <time>2011-05-28T13:37:25Z</time>
      </trkpt>
      <trkpt lat="59.3341408145" lon="18.1228441997">
        <ele>10.8</ele>
        <time>2011-05-28T13:37:29Z</time>
      </trkpt>
      <trkpt lat="59.3342588316" lon="18.1225690219">
        <ele>10.6</ele>
        <time>2011-05-28T13:37:36Z</time>
      </trkpt>
      <trkpt lat="59.3342766013" lon="18.1225325606">
        <ele>10.6</ele>
        <time>2011-05-28T13:37:37Z</time>
      </trkpt>
      <trkpt lat="59.3343924391" lon="18.1222479951">
        <ele>10.4</ele>
        <time>2011-05-28T13:37:44Z</time>
      </trkpt>
      <trkpt lat="59.3344909264" lon="18.1219751643">
        <ele>10.4</ele>
        <time>2011-05-28T13:37:50Z</time>
      </trkpt>
      <trkpt lat="59.3346130507" lon="18.1216921913">
        <ele>10.4</ele>
        <time>2011-05-28T13:37:57Z</time>
      </trkpt>
      <trkpt lat="59.3347346721" lon="18.1214195281">
        <ele>10.4</ele>
        <time>2011-05-28T13:38:04Z</time>
      </trkpt>
      <trkpt lat="59.3348573831" lon="18.1211389021">
        <ele>10.4</ele>
        <time>2011-05-28T13:38:11Z</time>
      </trkpt>
      <trkpt lat="59.3349804294" lon="18.120856935">
        <ele>10.4</ele>
        <time>2011-05-28T13:38:18Z</time>
      </trkpt>
      <trkpt lat="59.3351017993" lon="18.1205815058">
        <ele>10.4</ele>
        <time>2011-05-28T13:38:25Z</time>
      </trkpt>
      <trkpt lat="59.3352247618" lon="18.1203025561">
        <ele>10.4</ele>
        <time>2011-05-28T13:38:32Z</time>
      </trkpt>
      <trkpt lat="59.3353515799" lon="18.1200277974">
        <ele>10.4</ele>
        <time>2011-05-28T13:38:39Z</time>
      </trkpt>
      <trkpt lat="59.3354764702" lon="18.1197428128">
        <ele>10.4</ele>
        <time>2011-05-28T13:38:46Z</time>
      </trkpt>
      <trkpt lat="59.3355970858" lon="18.1194570739">
        <ele>10.4</ele>
        <time>2011-05-28T13:38:53Z</time>
      </trkpt>
      <trkpt lat="59.3357232334" lon="18.119190278">
        <ele>10.4</ele>
        <time>2011-05-28T13:39:00Z</time>
      </trkpt>
      <trkpt lat="59.3358425078" lon="18.1189150164">
        <ele>10.4</ele>
        <time>2011-05-28T13:39:07Z</time>
      </trkpt>
      <trkpt lat="59.3359619499" lon="18.1186269305">
        <ele>10.4</ele>
        <time>2011-05-28T13:39:14Z</time>
      </trkpt>
      <trkpt lat="59.3360827331" lon="18.1183500763">
        <ele>10.4</ele>
        <time>2011-05-28T13:39:21Z</time>
      </trkpt>
      <trkpt lat="59.3362034324" lon="18.1180847054">
        <ele>10.4</ele>
        <time>2011-05-28T13:39:28Z</time>
      </trkpt>
      <trkpt lat="59.3363107208" lon="18.1178609087">
        <ele>10.4</ele>
        <time>2011-05-28T13:39:34Z</time>
      </trkpt>
      <trkpt lat="59.336393953" lon="18.1176734894">
        <ele>10.4</ele>
        <time>2011-05-28T13:39:39Z</time>
      </trkpt>
      <trkpt lat="59.3364762633" lon="18.1174676299">
        <ele>10.4</ele>
        <time>2011-05-28T13:39:44Z</time>
      </trkpt>
      <trkpt lat="59.3365762593" lon="18.1172380497">
        <ele>10.6</ele>
        <time>2011-05-28T13:39:50Z</time>
      </trkpt>
      <trkpt lat="59.3366869004" lon="18.1169854192">
        <ele>11.4</ele>
        <time>2011-05-28T13:39:57Z</time>
      </trkpt>
      <trkpt lat="59.3368024868" lon="18.1167182042">
        <ele>12</ele>
        <time>2011-05-28T13:40:04Z</time>
      </trkpt>
      <trkpt lat="59.3369230185" lon="18.1164655738">
        <ele>12.2</ele>
        <time>2011-05-28T13:40:11Z</time>
      </trkpt>
      <trkpt lat="59.3370394431" lon="18.1162096744">
        <ele>13.4</ele>
        <time>2011-05-28T13:40:18Z</time>
      </trkpt>
      <trkpt lat="59.3371678538" lon="18.1159015557">
        <ele>14</ele>
        <time>2011-05-28T13:40:26Z</time>
      </trkpt>
      <trkpt lat="59.3373072448" lon="18.1156109552">
        <ele>14.2</ele>
        <time>2011-05-28T13:40:34Z</time>
      </trkpt>
      <trkpt lat="59.3374260164" lon="18.1153463387">
        <ele>14.2</ele>
        <time>2011-05-28T13:40:41Z</time>
      </trkpt>
      <trkpt lat="59.3375449555" lon="18.1150582528">
        <ele>14.4</ele>
        <time>2011-05-28T13:40:48Z</time>
      </trkpt>
      <trkpt lat="59.3376286907" lon="18.1147971566">
        <ele>14.4</ele>
        <time>2011-05-28T13:40:54Z</time>
      </trkpt>
      <trkpt lat="59.3376891242" lon="18.1145439394">
        <ele>14.4</ele>
        <time>2011-05-28T13:41:00Z</time>
      </trkpt>
      <trkpt lat="59.3377234062" lon="18.1143650696">
        <ele>14.4</ele>
        <time>2011-05-28T13:41:04Z</time>
      </trkpt>
      <trkpt lat="59.3377520723" lon="18.1142040533">
        <ele>14.4</ele>
        <time>2011-05-28T13:41:07Z</time>
      </trkpt>
      <trkpt lat="59.3378053812" lon="18.1139034784">
        <ele>14.4</ele>
        <time>2011-05-28T13:41:12Z</time>
      </trkpt>
      <trkpt lat="59.3378536609" lon="18.1136383589">
        <ele>14.4</ele>
        <time>2011-05-28T13:41:17Z</time>
      </trkpt>
      <trkpt lat="59.337882327" lon="18.1134186693">
        <ele>14.4</ele>
        <time>2011-05-28T13:41:21Z</time>
      </trkpt>
      <trkpt lat="59.3379168604" lon="18.1132107982">
        <ele>14.4</ele>
        <time>2011-05-28T13:41:25Z</time>
      </trkpt>
      <trkpt lat="59.3379650564" lon="18.112931178">
        <ele>14.4</ele>
        <time>2011-05-28T13:41:30Z</time>
      </trkpt>
      <trkpt lat="59.3380259089" lon="18.1126644659">
        <ele>14.4</ele>
        <time>2011-05-28T13:41:35Z</time>
      </trkpt>
      <trkpt lat="59.3380592689" lon="18.1124471233">
        <ele>14.4</ele>
        <time>2011-05-28T13:41:39Z</time>
      </trkpt>
      <trkpt lat="59.3381060399" lon="18.1121862785">
        <ele>14.4</ele>
        <time>2011-05-28T13:41:44Z</time>
      </trkpt>
      <trkpt lat="59.3381514698" lon="18.1119284513">
        <ele>14.2</ele>
        <time>2011-05-28T13:41:49Z</time>
      </trkpt>
      <trkpt lat="59.3382362108" lon="18.1115362622">
        <ele>13.2</ele>
        <time>2011-05-28T13:41:58Z</time>
      </trkpt>
      <trkpt lat="59.3382691517" lon="18.1113381979">
        <ele>12.8</ele>
        <time>2011-05-28T13:42:01Z</time>
      </trkpt>
      <trkpt lat="59.3383018411" lon="18.1109878345">
        <ele>12.6</ele>
        <time>2011-05-28T13:42:07Z</time>
      </trkpt>
      <trkpt lat="59.3383497017" lon="18.1107562426">
        <ele>12.4</ele>
        <time>2011-05-28T13:42:12Z</time>
      </trkpt>
      <trkpt lat="59.338401921" lon="18.1105442643">
        <ele>12.4</ele>
        <time>2011-05-28T13:42:17Z</time>
      </trkpt>
      <trkpt lat="59.3384823872" lon="18.1101802384">
        <ele>12.4</ele>
        <time>2011-05-28T13:42:25Z</time>
      </trkpt>
      <trkpt lat="59.338566793" lon="18.1098133626">
        <ele>12.4</ele>
        <time>2011-05-28T13:42:33Z</time>
      </trkpt>
      <trkpt lat="59.3386390449" lon="18.1094433856">
        <ele>12.4</ele>
        <time>2011-05-28T13:42:41Z</time>
      </trkpt>
      <trkpt lat="59.3386907613" lon="18.1091560541">
        <ele>12.4</ele>
        <time>2011-05-28T13:42:47Z</time>
      </trkpt>
      <trkpt lat="59.338758487" lon="18.1088688902">
        <ele>12.4</ele>
        <time>2011-05-28T13:42:53Z</time>
      </trkpt>
      <trkpt lat="59.3387915117" lon="18.1087247215">
        <ele>12.4</ele>
        <time>2011-05-28T13:42:56Z</time>
      </trkpt>
      <trkpt lat="59.3388770909" lon="18.108374861">
        <ele>12.4</ele>
        <time>2011-05-28T13:43:03Z</time>
      </trkpt>
      <trkpt lat="59.3389199224" lon="18.1081213923">
        <ele>12.4</ele>
        <time>2011-05-28T13:43:08Z</time>
      </trkpt>
      <trkpt lat="59.3389713034" lon="18.1078329711">
        <ele>12.4</ele>
        <time>2011-05-28T13:43:14Z</time>
      </trkpt>
      <trkpt lat="59.3390157275" lon="18.1076271117">
        <ele>12.4</ele>
        <time>2011-05-28T13:43:19Z</time>
      </trkpt>
      <trkpt lat="59.3390526917" lon="18.1074256108">
        <ele>12.4</ele>
        <time>2011-05-28T13:43:23Z</time>
      </trkpt>
      <trkpt lat="59.3390818607" lon="18.1072318213">
        <ele>12.4</ele>
        <time>2011-05-28T13:43:27Z</time>
      </trkpt>
      <trkpt lat="59.3391826111" lon="18.1070233634">
        <ele>12.6</ele>
        <time>2011-05-28T13:43:32Z</time>
      </trkpt>
      <trkpt lat="59.3393044002" lon="18.1069814539">
        <ele>13.2</ele>
        <time>2011-05-28T13:43:36Z</time>
      </trkpt>
      <trkpt lat="59.3393323119" lon="18.1069935239">
        <ele>13.4</ele>
        <time>2011-05-28T13:43:37Z</time>
      </trkpt>
      <trkpt lat="59.3394137001" lon="18.1071384469">
        <ele>13.6</ele>
        <time>2011-05-28T13:43:41Z</time>
      </trkpt>
      <trkpt lat="59.3394541009" lon="18.1073723857">
        <ele>14</ele>
        <time>2011-05-28T13:43:46Z</time>
      </trkpt>
      <trkpt lat="59.3394547714" lon="18.1074233477">
        <ele>14</ele>
        <time>2011-05-28T13:43:47Z</time>
      </trkpt>
      <trkpt lat="59.3394382591" lon="18.1076293748">
        <ele>14.2</ele>
        <time>2011-05-28T13:43:51Z</time>
      </trkpt>
      <trkpt lat="59.3394337329" lon="18.1078528362">
        <ele>14.2</ele>
        <time>2011-05-28T13:43:56Z</time>
      </trkpt>
      <trkpt lat="59.3394365827" lon="18.1080430215">
        <ele>14.4</ele>
        <time>2011-05-28T13:44:01Z</time>
      </trkpt>
      <trkpt lat="59.3394462219" lon="18.1082047922">
        <ele>14.4</ele>
        <time>2011-05-28T13:44:05Z</time>
      </trkpt>
      <trkpt lat="59.3394539333" lon="18.1084691573">
        <ele>14.4</ele>
        <time>2011-05-28T13:44:10Z</time>
      </trkpt>
      <trkpt lat="59.3394524245" lon="18.1086815547">
        <ele>14.4</ele>
        <time>2011-05-28T13:44:14Z</time>
      </trkpt>
      <trkpt lat="59.339458208" lon="18.1089529606">
        <ele>14.4</ele>
        <time>2011-05-28T13:44:19Z</time>
      </trkpt>
      <trkpt lat="59.3394720382" lon="18.1091691298">
        <ele>14.4</ele>
        <time>2011-05-28T13:44:23Z</time>
      </trkpt>
      <trkpt lat="59.3394833537" lon="18.109543214">
        <ele>14.4</ele>
        <time>2011-05-28T13:44:30Z</time>
      </trkpt>
      <trkpt lat="59.3394815097" lon="18.109854434">
        <ele>14.4</ele>
        <time>2011-05-28T13:44:36Z</time>
      </trkpt>
      <trkpt lat="59.3394851139" lon="18.1101948229">
        <ele>14.4</ele>
        <time>2011-05-28T13:44:43Z</time>
      </trkpt>
      <trkpt lat="59.3394789113" lon="18.1103358065">
        <ele>14.4</ele>
        <time>2011-05-28T13:44:48Z</time>
      </trkpt>
      <trkpt lat="59.3394722058" lon="18.110386517">
        <ele>14.4</ele>
        <time>2011-05-28T13:44:51Z</time>
      </trkpt>
      <trkpt lat="59.3394857007" lon="18.1104946435">
        <ele>14.4</ele>
        <time>2011-05-28T13:44:55Z</time>
      </trkpt>
      <trkpt lat="59.3394751395" lon="18.1107657979">
        <ele>14.4</ele>
        <time>2011-05-28T13:45:01Z</time>
      </trkpt>
      <trkpt lat="59.3394763129" lon="18.111089004">
        <ele>14.4</ele>
        <time>2011-05-28T13:45:08Z</time>
      </trkpt>
      <trkpt lat="59.339479498" lon="18.1113744077">
        <ele>14.4</ele>
        <time>2011-05-28T13:45:14Z</time>
      </trkpt>
      <trkpt lat="59.3394779055" lon="18.1117732185">
        <ele>14.4</ele>
        <time>2011-05-28T13:45:22Z</time>
      </trkpt>
      <trkpt lat="59.3394607226" lon="18.1121703529">
        <ele>14.4</ele>
        <time>2011-05-28T13:45:30Z</time>
      </trkpt>
      <trkpt lat="59.3394506643" lon="18.1125224765">
        <ele>13.6</ele>
        <time>2011-05-28T13:45:37Z</time>
      </trkpt>
      <trkpt lat="59.3394382591" lon="18.11287745">
        <ele>13</ele>
        <time>2011-05-28T13:45:44Z</time>
      </trkpt>
      <trkpt lat="59.3394136163" lon="18.1132518695">
        <ele>12.6</ele>
        <time>2011-05-28T13:45:51Z</time>
      </trkpt>
      <trkpt lat="59.339404983" lon="18.1135088585">
        <ele>12.6</ele>
        <time>2011-05-28T13:45:56Z</time>
      </trkpt>
      <trkpt lat="59.339412359" lon="18.1137702062">
        <ele>12.4</ele>
        <time>2011-05-28T13:46:01Z</time>
      </trkpt>
      <trkpt lat="59.339423004" lon="18.1140340684">
        <ele>12.4</ele>
        <time>2011-05-28T13:46:06Z</time>
      </trkpt>
      <trkpt lat="59.3394198189" lon="18.1144277662">
        <ele>12.4</ele>
        <time>2011-05-28T13:46:14Z</time>
      </trkpt>
      <trkpt lat="59.3394196513" lon="18.1147935524">
        <ele>12.4</ele>
        <time>2011-05-28T13:46:21Z</time>
      </trkpt>
      <trkpt lat="59.3394116047" lon="18.115149364">
        <ele>12.4</ele>
        <time>2011-05-28T13:46:28Z</time>
      </trkpt>
      <trkpt lat="59.3394030551" lon="18.1154655293">
        <ele>12.4</ele>
        <time>2011-05-28T13:46:34Z</time>
      </trkpt>
      <trkpt lat="59.3394121076" lon="18.1157890706">
        <ele>12.4</ele>
        <time>2011-05-28T13:46:40Z</time>
      </trkpt>
      <trkpt lat="59.33941655" lon="18.1161165514">
        <ele>12.4</ele>
        <time>2011-05-28T13:46:46Z</time>
      </trkpt>
      <trkpt lat="59.3394161309" lon="18.1164575271">
        <ele>12.8</ele>
        <time>2011-05-28T13:46:52Z</time>
      </trkpt>
      <trkpt lat="59.3394168014" lon="18.1168136741">
        <ele>13.6</ele>
        <time>2011-05-28T13:46:59Z</time>
      </trkpt>
      <trkpt lat="59.3394048153" lon="18.1171784544">
        <ele>14</ele>
        <time>2011-05-28T13:47:06Z</time>
      </trkpt>
      <trkpt lat="59.3394063241" lon="18.1174793646">
        <ele>14.2</ele>
        <time>2011-05-28T13:47:12Z</time>
      </trkpt>
      <trkpt lat="59.3393979422" lon="18.1177438135">
        <ele>14.4</ele>
        <time>2011-05-28T13:47:17Z</time>
      </trkpt>
      <trkpt lat="59.3393809269" lon="18.1179838711">
        <ele>14.4</ele>
        <time>2011-05-28T13:47:22Z</time>
      </trkpt>
      <trkpt lat="59.3393732994" lon="18.1183119387">
        <ele>14.4</ele>
        <time>2011-05-28T13:47:28Z</time>
      </trkpt>
      <trkpt lat="59.3393671806" lon="18.1186332169">
        <ele>14.4</ele>
        <time>2011-05-28T13:47:34Z</time>
      </trkpt>
      <trkpt lat="59.3393551945" lon="18.1189270863">
        <ele>14.4</ele>
        <time>2011-05-28T13:47:40Z</time>
      </trkpt>
      <trkpt lat="59.3393619838" lon="18.1192217101">
        <ele>14.4</ele>
        <time>2011-05-28T13:47:46Z</time>
      </trkpt>
      <trkpt lat="59.3393624029" lon="18.1195865742">
        <ele>14.8</ele>
        <time>2011-05-28T13:47:53Z</time>
      </trkpt>
      <trkpt lat="59.3393665939" lon="18.1199498458">
        <ele>15.8</ele>
        <time>2011-05-28T13:48:00Z</time>
      </trkpt>
      <trkpt lat="59.3393593016" lon="18.1203122791">
        <ele>16.2</ele>
        <time>2011-05-28T13:48:07Z</time>
      </trkpt>
      <trkpt lat="59.3393475669" lon="18.1205727886">
        <ele>16.8</ele>
        <time>2011-05-28T13:48:12Z</time>
      </trkpt>
      <trkpt lat="59.3393356646" lon="18.1208804043">
        <ele>17.6</ele>
        <time>2011-05-28T13:48:18Z</time>
      </trkpt>
      <trkpt lat="59.3393474831" lon="18.1212295943">
        <ele>18.2</ele>
        <time>2011-05-28T13:48:25Z</time>
      </trkpt>
      <trkpt lat="59.3393499139" lon="18.1215862441">
        <ele>19</ele>
        <time>2011-05-28T13:48:32Z</time>
      </trkpt>
      <trkpt lat="59.3393412805" lon="18.1219731526">
        <ele>20</ele>
        <time>2011-05-28T13:48:40Z</time>
      </trkpt>
      <trkpt lat="59.339326696" lon="18.1223291319">
        <ele>20.4</ele>
        <time>2011-05-28T13:48:47Z</time>
      </trkpt>
      <trkpt lat="59.3393112733" lon="18.1227184712">
        <ele>20.6</ele>
        <time>2011-05-28T13:48:55Z</time>
      </trkpt>
      <trkpt lat="59.3393032267" lon="18.1230642245">
        <ele>20.6</ele>
        <time>2011-05-28T13:49:02Z</time>
      </trkpt>
      <trkpt lat="59.3392806794" lon="18.1234130792">
        <ele>20.6</ele>
        <time>2011-05-28T13:49:09Z</time>
      </trkpt>
      <trkpt lat="59.339267436" lon="18.1236619378">
        <ele>20.8</ele>
        <time>2011-05-28T13:49:14Z</time>
      </trkpt>
      <trkpt lat="59.3392500854" lon="18.123940636">
        <ele>20.8</ele>
        <time>2011-05-28T13:49:20Z</time>
      </trkpt>
      <trkpt lat="59.3392370935" lon="18.1242031571">
        <ele>20.8</ele>
        <time>2011-05-28T13:49:25Z</time>
      </trkpt>
      <trkpt lat="59.3392335731" lon="18.1245057437">
        <ele>20.8</ele>
        <time>2011-05-28T13:49:31Z</time>
      </trkpt>
      <trkpt lat="59.339226197" lon="18.1247059035">
        <ele>20.8</ele>
        <time>2011-05-28T13:49:35Z</time>
      </trkpt>
      <trkpt lat="59.3392230119" lon="18.1250032095">
        <ele>20.8</ele>
        <time>2011-05-28T13:49:41Z</time>
      </trkpt>
      <trkpt lat="59.3392111096" lon="18.1252217256">
        <ele>20.8</ele>
        <time>2011-05-28T13:49:45Z</time>
      </trkpt>
      <trkpt lat="59.3391990397" lon="18.1254759486">
        <ele>20.8</ele>
        <time>2011-05-28T13:49:50Z</time>
      </trkpt>
      <trkpt lat="59.3391744807" lon="18.1257952152">
        <ele>20.8</ele>
        <time>2011-05-28T13:49:56Z</time>
      </trkpt>
      <trkpt lat="59.3391407016" lon="18.126008786">
        <ele>20.8</ele>
        <time>2011-05-28T13:50:00Z</time>
      </trkpt>
      <trkpt lat="59.3391039889" lon="18.1263257056">
        <ele>20.8</ele>
        <time>2011-05-28T13:50:06Z</time>
      </trkpt>
      <trkpt lat="59.3390762448" lon="18.1266007158">
        <ele>20.8</ele>
        <time>2011-05-28T13:50:11Z</time>
      </trkpt>
      <trkpt lat="59.3390402027" lon="18.1268665058">
        <ele>20.8</ele>
        <time>2011-05-28T13:50:16Z</time>
      </trkpt>
      <trkpt lat="59.3389731475" lon="18.1272251673">
        <ele>20.6</ele>
        <time>2011-05-28T13:50:23Z</time>
      </trkpt>
      <trkpt lat="59.3388922621" lon="18.1275588508">
        <ele>19.6</ele>
        <time>2011-05-28T13:50:30Z</time>
      </trkpt>
      <trkpt lat="59.3388143943" lon="18.1279038498">
        <ele>19</ele>
        <time>2011-05-28T13:50:37Z</time>
      </trkpt>
      <trkpt lat="59.3387608339" lon="18.1282591585">
        <ele>17.8</ele>
        <time>2011-05-28T13:50:44Z</time>
      </trkpt>
      <trkpt lat="59.3387213552" lon="18.1286234359">
        <ele>17.2</ele>
        <time>2011-05-28T13:50:51Z</time>
      </trkpt>
      <trkpt lat="59.3386961257" lon="18.1289833547">
        <ele>16.8</ele>
        <time>2011-05-28T13:50:58Z</time>
      </trkpt>
      <trkpt lat="59.3386752547" lon="18.1293418485">
        <ele>16.8</ele>
        <time>2011-05-28T13:51:05Z</time>
      </trkpt>
      <trkpt lat="59.3386568984" lon="18.1297035275">
        <ele>16.6</ele>
        <time>2011-05-28T13:51:12Z</time>
      </trkpt>
      <trkpt lat="59.3386386258" lon="18.1300671344">
        <ele>16.6</ele>
        <time>2011-05-28T13:51:19Z</time>
      </trkpt>
      <trkpt lat="59.3386160785" lon="18.1304300706">
        <ele>16.6</ele>
        <time>2011-05-28T13:51:26Z</time>
      </trkpt>
      <trkpt lat="59.3385925254" lon="18.1308043225">
        <ele>16.6</ele>
        <time>2011-05-28T13:51:33Z</time>
      </trkpt>
      <trkpt lat="59.3385508673" lon="18.1311717011">
        <ele>16.6</ele>
        <time>2011-05-28T13:51:40Z</time>
      </trkpt>
      <trkpt lat="59.3385061918" lon="18.1315361461">
        <ele>16.6</ele>
        <time>2011-05-28T13:51:47Z</time>
      </trkpt>
      <trkpt lat="59.3384336884" lon="18.1319155109">
        <ele>16.6</ele>
        <time>2011-05-28T13:51:55Z</time>
      </trkpt>
      <trkpt lat="59.3383286632" lon="18.1322162535">
        <ele>16.6</ele>
        <time>2011-05-28T13:52:02Z</time>
      </trkpt>
      <trkpt lat="59.3382278289" lon="18.1324719015">
        <ele>16.6</ele>
        <time>2011-05-28T13:52:08Z</time>
      </trkpt>
      <trkpt lat="59.3381429203" lon="18.1326626735">
        <ele>16.6</ele>
        <time>2011-05-28T13:52:13Z</time>
      </trkpt>
      <trkpt lat="59.3380588498" lon="18.1328192474">
        <ele>16.6</ele>
        <time>2011-05-28T13:52:18Z</time>
      </trkpt>
      <trkpt lat="59.3379841671" lon="18.1329744802">
        <ele>16.6</ele>
        <time>2011-05-28T13:52:23Z</time>
      </trkpt>
      <trkpt lat="59.3378819917" lon="18.1331665095">
        <ele>16.8</ele>
        <time>2011-05-28T13:52:29Z</time>
      </trkpt>
      <trkpt lat="59.3378008549" lon="18.1333233349">
        <ele>17.6</ele>
        <time>2011-05-28T13:52:34Z</time>
      </trkpt>
      <trkpt lat="59.3377065586" lon="18.1334986004">
        <ele>18</ele>
        <time>2011-05-28T13:52:39Z</time>
      </trkpt>
      <trkpt lat="59.3376393357" lon="18.1336451998">
        <ele>18.2</ele>
        <time>2011-05-28T13:52:43Z</time>
      </trkpt>
      <trkpt lat="59.3375510743" lon="18.13381091">
        <ele>18.4</ele>
        <time>2011-05-28T13:52:48Z</time>
      </trkpt>
      <trkpt lat="59.3374225798" lon="18.1340080523">
        <ele>18.6</ele>
        <time>2011-05-28T13:52:54Z</time>
      </trkpt>
      <trkpt lat="59.337345131" lon="18.134149874">
        <ele>19</ele>
        <time>2011-05-28T13:52:58Z</time>
      </trkpt>
      <trkpt lat="59.3372642457" lon="18.1343001615">
        <ele>19.6</ele>
        <time>2011-05-28T13:53:02Z</time>
      </trkpt>
      <trkpt lat="59.3371925805" lon="18.1344382114">
        <ele>20</ele>
        <time>2011-05-28T13:53:06Z</time>
      </trkpt>
      <trkpt lat="59.3370970268" lon="18.134600485">
        <ele>20.2</ele>
        <time>2011-05-28T13:53:11Z</time>
      </trkpt>
      <trkpt lat="59.3370141298" lon="18.1347642673">
        <ele>21</ele>
        <time>2011-05-28T13:53:16Z</time>
      </trkpt>
      <trkpt lat="59.3369191629" lon="18.1349395328">
        <ele>21.8</ele>
        <time>2011-05-28T13:53:21Z</time>
      </trkpt>
      <trkpt lat="59.3368257047" lon="18.1350770798">
        <ele>22.2</ele>
        <time>2011-05-28T13:53:26Z</time>
      </trkpt>
      <trkpt lat="59.3366899179" lon="18.1353158801">
        <ele>22.4</ele>
        <time>2011-05-28T13:53:33Z</time>
      </trkpt>
      <trkpt lat="59.3365920173" lon="18.1355167943">
        <ele>22.6</ele>
        <time>2011-05-28T13:53:38Z</time>
      </trkpt>
      <trkpt lat="59.3364785264" lon="18.1357048841">
        <ele>22.6</ele>
        <time>2011-05-28T13:53:44Z</time>
      </trkpt>
      <trkpt lat="59.3363951265" lon="18.1358349712">
        <ele>22.8</ele>
        <time>2011-05-28T13:53:48Z</time>
      </trkpt>
      <trkpt lat="59.3362968906" lon="18.1358824966">
        <ele>22.8</ele>
        <time>2011-05-28T13:53:52Z</time>
      </trkpt>
      <trkpt lat="59.3361802984" lon="18.1357483024">
        <ele>22.8</ele>
        <time>2011-05-28T13:53:58Z</time>
      </trkpt>
      <trkpt lat="59.3360277478" lon="18.1354834343">
        <ele>22.8</ele>
        <time>2011-05-28T13:54:06Z</time>
      </trkpt>
      <trkpt lat="59.3358962358" lon="18.1352195721">
        <ele>22</ele>
        <time>2011-05-28T13:54:13Z</time>
      </trkpt>
      <trkpt lat="59.3357429308" lon="18.1349911653">
        <ele>20.6</ele>
        <time>2011-05-28T13:54:20Z</time>
      </trkpt>
      <trkpt lat="59.3355949903" lon="18.1347805282">
        <ele>19</ele>
        <time>2011-05-28T13:54:27Z</time>
      </trkpt>
      <trkpt lat="59.3354525818" lon="18.1346123034">
        <ele>17.8</ele>
        <time>2011-05-28T13:54:33Z</time>
      </trkpt>
      <trkpt lat="59.3353090837" lon="18.1344474315">
        <ele>16.2</ele>
        <time>2011-05-28T13:54:39Z</time>
      </trkpt>
      <trkpt lat="59.3351531804" lon="18.1342927854">
        <ele>15.4</ele>
        <time>2011-05-28T13:54:45Z</time>
      </trkpt>
      <trkpt lat="59.3350585487" lon="18.1342414044">
        <ele>15</ele>
        <time>2011-05-28T13:54:49Z</time>
      </trkpt>
      <trkpt lat="59.3349327364" lon="18.1341652967">
        <ele>14.6</ele>
        <time>2011-05-28T13:54:54Z</time>
      </trkpt>
      <trkpt lat="59.3347775036" lon="18.1340656359">
        <ele>13.6</ele>
        <time>2011-05-28T13:55:00Z</time>
      </trkpt>
      <trkpt lat="59.3345926827" lon="18.133955833">
        <ele>13</ele>
        <time>2011-05-28T13:55:07Z</time>
      </trkpt>
      <trkpt lat="59.3344035032" lon="18.1338767079">
        <ele>12.6</ele>
        <time>2011-05-28T13:55:14Z</time>
      </trkpt>
      <trkpt lat="59.3342346918" lon="18.1337717665">
        <ele>12.4</ele>
        <time>2011-05-28T13:55:21Z</time>
      </trkpt>
      <trkpt lat="59.3341379646" lon="18.1337154401">
        <ele>12.4</ele>
        <time>2011-05-28T13:55:25Z</time>
      </trkpt>
      <trkpt lat="59.3340041057" lon="18.1335493109">
        <ele>12.4</ele>
        <time>2011-05-28T13:55:31Z</time>
      </trkpt>
      <trkpt lat="59.3339115695" lon="18.133280671">
        <ele>12.8</ele>
        <time>2011-05-28T13:55:38Z</time>
      </trkpt>
      <trkpt lat="59.3338484538" lon="18.1329907411">
        <ele>13.6</ele>
        <time>2011-05-28T13:55:45Z</time>
      </trkpt>
      <trkpt lat="59.3337855896" lon="18.1326480052">
        <ele>14</ele>
        <time>2011-05-28T13:55:52Z</time>
      </trkpt>
      <trkpt lat="59.3337762856" lon="18.1324372004">
        <ele>14.4</ele>
        <time>2011-05-28T13:55:56Z</time>
      </trkpt>
      <trkpt lat="59.3337671494" lon="18.132039144">
        <ele>15.4</ele>
        <time>2011-05-28T13:56:03Z</time>
      </trkpt>
      <trkpt lat="59.3337521458" lon="18.1317688277">
        <ele>15.8</ele>
        <time>2011-05-28T13:56:08Z</time>
      </trkpt>
      <trkpt lat="59.3337577616" lon="18.1317232302">
        <ele>15.8</ele>
        <time>2011-05-28T13:56:09Z</time>
      </trkpt>
      <trkpt lat="59.3337491283" lon="18.1315545863">
        <ele>16</ele>
        <time>2011-05-28T13:56:12Z</time>
      </trkpt>
      <trkpt lat="59.3337058777" lon="18.131140269">
        <ele>16.2</ele>
        <time>2011-05-28T13:56:20Z</time>
      </trkpt>
      <trkpt lat="59.3336783851" lon="18.1308178173">
        <ele>16.2</ele>
        <time>2011-05-28T13:56:26Z</time>
      </trkpt>
      <trkpt lat="59.3336374814" lon="18.1305752451">
        <ele>16.2</ele>
        <time>2011-05-28T13:56:31Z</time>
      </trkpt>
      <trkpt lat="59.3335643074" lon="18.1302554756">
        <ele>16.2</ele>
        <time>2011-05-28T13:56:38Z</time>
      </trkpt>
      <trkpt lat="59.3334747887" lon="18.130008042">
        <ele>16.2</ele>
        <time>2011-05-28T13:56:44Z</time>
      </trkpt>
      <trkpt lat="59.3333787321" lon="18.129840404">
        <ele>15.8</ele>
        <time>2011-05-28T13:56:49Z</time>
      </trkpt>
      <trkpt lat="59.3332758024" lon="18.1296099017">
        <ele>15.2</ele>
        <time>2011-05-28T13:56:55Z</time>
      </trkpt>
      <trkpt lat="59.3331789915" lon="18.1293853506">
        <ele>14.8</ele>
        <time>2011-05-28T13:57:01Z</time>
      </trkpt>
      <trkpt lat="59.3330860362" lon="18.1291486457">
        <ele>14.4</ele>
        <time>2011-05-28T13:57:07Z</time>
      </trkpt>
      <trkpt lat="59.3330133651" lon="18.1288837777">
        <ele>14.4</ele>
        <time>2011-05-28T13:57:13Z</time>
      </trkpt>
      <trkpt lat="59.3329486568" lon="18.128657215">
        <ele>14.4</ele>
        <time>2011-05-28T13:57:18Z</time>
      </trkpt>
      <trkpt lat="59.3328859602" lon="18.1284372739">
        <ele>14.2</ele>
        <time>2011-05-28T13:57:23Z</time>
      </trkpt>
      <trkpt lat="59.3327921668" lon="18.1283081088">
        <ele>14.2</ele>
        <time>2011-05-28T13:57:28Z</time>
      </trkpt>
      <trkpt lat="59.3327706253" lon="18.1283179156">
        <ele>14.2</ele>
        <time>2011-05-28T13:57:29Z</time>
      </trkpt>
      <trkpt lat="59.3326782567" lon="18.1284856375">
        <ele>14.2</ele>
        <time>2011-05-28T13:57:34Z</time>
      </trkpt>
      <trkpt lat="59.3326612415" lon="18.1285200871">
        <ele>14.2</ele>
        <time>2011-05-28T13:57:35Z</time>
      </trkpt>
      <trkpt lat="59.3325912526" lon="18.1287396928">
        <ele>14.2</ele>
        <time>2011-05-28T13:57:40Z</time>
      </trkpt>
      <trkpt lat="59.3325231916" lon="18.1289567841">
        <ele>14.2</ele>
        <time>2011-05-28T13:57:45Z</time>
      </trkpt>
      <trkpt lat="59.3324727326" lon="18.1291822572">
        <ele>14.2</ele>
        <time>2011-05-28T13:57:50Z</time>
      </trkpt>
      <trkpt lat="59.3322519533" lon="18.1299497039">
        <ele>14.2</ele>
        <time>2011-05-28T13:58:08Z</time>
      </trkpt>
      <trkpt lat="59.3321673799" lon="18.1302408073">
        <ele>14.2</ele>
        <time>2011-05-28T13:58:15Z</time>
      </trkpt>
      <trkpt lat="59.3320838962" lon="18.1304357703">
        <ele>14.2</ele>
        <time>2011-05-28T13:58:20Z</time>
      </trkpt>
      <trkpt lat="59.3319972274" lon="18.1306246983">
        <ele>14.2</ele>
        <time>2011-05-28T13:58:25Z</time>
      </trkpt>
      <trkpt lat="59.3318657992" lon="18.1309024745">
        <ele>14.2</ele>
        <time>2011-05-28T13:58:32Z</time>
      </trkpt>
      <trkpt lat="59.3317636238" lon="18.1310764828">
        <ele>14.2</ele>
        <time>2011-05-28T13:58:37Z</time>
      </trkpt>
      <trkpt lat="59.3316358837" lon="18.131248647">
        <ele>14.2</ele>
        <time>2011-05-28T13:58:43Z</time>
      </trkpt>
      <trkpt lat="59.3315548307" lon="18.1313690949">
        <ele>14.2</ele>
        <time>2011-05-28T13:58:48Z</time>
      </trkpt>
      <trkpt lat="59.3315215545" lon="18.1314618825">
        <ele>14.2</ele>
        <time>2011-05-28T13:58:52Z</time>
      </trkpt>
      <trkpt lat="59.3315125021" lon="18.131493147">
        <ele>14.2</ele>
        <time>2011-05-28T13:58:54Z</time>
      </trkpt>
      <trkpt lat="59.3314817405" lon="18.1315301112">
        <ele>14.2</ele>
        <time>2011-05-28T13:58:59Z</time>
      </trkpt>
      <trkpt lat="59.3314757894" lon="18.1315344698">
        <ele>14.2</ele>
        <time>2011-05-28T13:59:00Z</time>
      </trkpt>
      <trkpt lat="59.331461121" lon="18.1315462044">
        <ele>14.2</ele>
        <time>2011-05-28T13:59:02Z</time>
      </trkpt>
      <trkpt lat="59.3314049623" lon="18.131658941">
        <ele>14.2</ele>
        <time>2011-05-28T13:59:08Z</time>
      </trkpt>
      <trkpt lat="59.3313411761" lon="18.1317511419">
        <ele>14.2</ele>
        <time>2011-05-28T13:59:13Z</time>
      </trkpt>
      <trkpt lat="59.3313267592" lon="18.1317654749">
        <ele>14.2</ele>
        <time>2011-05-28T13:59:14Z</time>
      </trkpt>
      <trkpt lat="59.3312523279" lon="18.1318848332">
        <ele>14.2</ele>
        <time>2011-05-28T13:59:20Z</time>
      </trkpt>
      <trkpt lat="59.3311528348" lon="18.1320102264">
        <ele>14.2</ele>
        <time>2011-05-28T13:59:25Z</time>
      </trkpt>
      <trkpt lat="59.330994836" lon="18.1322092127">
        <ele>14.2</ele>
        <time>2011-05-28T13:59:32Z</time>
      </trkpt>
      <trkpt lat="59.330816972" lon="18.1323977216">
        <ele>13.6</ele>
        <time>2011-05-28T13:59:40Z</time>
      </trkpt>
      <trkpt lat="59.3306675228" lon="18.1325389567">
        <ele>12.8</ele>
        <time>2011-05-28T13:59:46Z</time>
      </trkpt>
      <trkpt lat="59.3304803549" lon="18.1326097837">
        <ele>12.6</ele>
        <time>2011-05-28T13:59:53Z</time>
      </trkpt>
      <trkpt lat="59.3302976295" lon="18.1326037487">
        <ele>12.4</ele>
        <time>2011-05-28T14:00:00Z</time>
      </trkpt>
      <trkpt lat="59.3301062707" lon="18.1325470033">
        <ele>12.2</ele>
        <time>2011-05-28T14:00:07Z</time>
      </trkpt>
      <trkpt lat="59.3299256408" lon="18.1324584904">
        <ele>12.2</ele>
        <time>2011-05-28T14:00:14Z</time>
      </trkpt>
      <trkpt lat="59.3297876747" lon="18.132364697">
        <ele>12.2</ele>
        <time>2011-05-28T14:00:19Z</time>
      </trkpt>
      <trkpt lat="59.3296688194" lon="18.1322801236">
        <ele>12.2</ele>
        <time>2011-05-28T14:00:24Z</time>
      </trkpt>
      <trkpt lat="59.3294970742" lon="18.1321375475">
        <ele>12.2</ele>
        <time>2011-05-28T14:00:30Z</time>
      </trkpt>
      <trkpt lat="59.32936288" lon="18.1320570812">
        <ele>12.2</ele>
        <time>2011-05-28T14:00:36Z</time>
      </trkpt>
      <trkpt lat="59.3292558432" lon="18.132087759">
        <ele>11.4</ele>
        <time>2011-05-28T14:00:40Z</time>
      </trkpt>
      <trkpt lat="59.3291516561" lon="18.1321456779">
        <ele>11</ele>
        <time>2011-05-28T14:00:44Z</time>
      </trkpt>
      <trkpt lat="59.3289856107" lon="18.1322518766">
        <ele>10.4</ele>
        <time>2011-05-28T14:00:51Z</time>
      </trkpt>
      <trkpt lat="59.3287922403" lon="18.1323733303">
        <ele>9.4</ele>
        <time>2011-05-28T14:00:59Z</time>
      </trkpt>
      <trkpt lat="59.3286213333" lon="18.1324781879">
        <ele>8.6</ele>
        <time>2011-05-28T14:01:06Z</time>
      </trkpt>
      <trkpt lat="59.3284484986" lon="18.1325827102">
        <ele>8.4</ele>
        <time>2011-05-28T14:01:13Z</time>
      </trkpt>
      <trkpt lat="59.328254709" lon="18.1326932674">
        <ele>8.2</ele>
        <time>2011-05-28T14:01:21Z</time>
      </trkpt>
      <trkpt lat="59.3280817904" lon="18.1327998852">
        <ele>8</ele>
        <time>2011-05-28T14:01:28Z</time>
      </trkpt>
      <trkpt lat="59.3279196007" lon="18.1328927567">
        <ele>8</ele>
        <time>2011-05-28T14:01:35Z</time>
      </trkpt>
      <trkpt lat="59.3278160842" lon="18.1329757375">
        <ele>8</ele>
        <time>2011-05-28T14:01:40Z</time>
      </trkpt>
      <trkpt lat="59.3276831473" lon="18.1330541082">
        <ele>8</ele>
        <time>2011-05-28T14:01:46Z</time>
      </trkpt>
      <trkpt lat="59.3275061215" lon="18.133128791">
        <ele>8</ele>
        <time>2011-05-28T14:01:54Z</time>
      </trkpt>
      <trkpt lat="59.327391038" lon="18.1331857879">
        <ele>8</ele>
        <time>2011-05-28T14:01:59Z</time>
      </trkpt>
      <trkpt lat="59.3272518147" lon="18.1332751389">
        <ele>8</ele>
        <time>2011-05-28T14:02:05Z</time>
      </trkpt>
      <trkpt lat="59.3270862722" lon="18.1333284478">
        <ele>8.6</ele>
        <time>2011-05-28T14:02:12Z</time>
      </trkpt>
      <trkpt lat="59.3269063966" lon="18.1333847742">
        <ele>9.4</ele>
        <time>2011-05-28T14:02:20Z</time>
      </trkpt>
      <trkpt lat="59.3267099249" lon="18.1334508236">
        <ele>10.4</ele>
        <time>2011-05-28T14:02:28Z</time>
      </trkpt>
      <trkpt lat="59.3265186499" lon="18.1335034619">
        <ele>11.4</ele>
        <time>2011-05-28T14:02:36Z</time>
      </trkpt>
      <trkpt lat="59.3263217591" lon="18.1335678349">
        <ele>11.8</ele>
        <time>2011-05-28T14:02:44Z</time>
      </trkpt>
      <trkpt lat="59.3261382793" lon="18.1336231554">
        <ele>12</ele>
        <time>2011-05-28T14:02:52Z</time>
      </trkpt>
      <trkpt lat="59.3260127184" lon="18.1336594491">
        <ele>12</ele>
        <time>2011-05-28T14:02:58Z</time>
      </trkpt>
      <trkpt lat="59.3258322561" lon="18.1337089861">
        <ele>12</ele>
        <time>2011-05-28T14:03:06Z</time>
      </trkpt>
      <trkpt lat="59.3257196872" lon="18.1337488001">
        <ele>12</ele>
        <time>2011-05-28T14:03:11Z</time>
      </trkpt>
      <trkpt lat="59.3255973953" lon="18.1337838365">
        <ele>12.8</ele>
        <time>2011-05-28T14:03:17Z</time>
      </trkpt>
      <trkpt lat="59.3254026837" lon="18.1338338764">
        <ele>13.6</ele>
        <time>2011-05-28T14:03:25Z</time>
      </trkpt>
      <trkpt lat="59.3252179467" lon="18.1338735228">
        <ele>14.4</ele>
        <time>2011-05-28T14:03:33Z</time>
      </trkpt>
      <trkpt lat="59.325081154" lon="18.1339400751">
        <ele>15.2</ele>
        <time>2011-05-28T14:03:39Z</time>
      </trkpt>
      <trkpt lat="59.3249671602" lon="18.1339783803">
        <ele>15.6</ele>
        <time>2011-05-28T14:03:44Z</time>
      </trkpt>
      <trkpt lat="59.3248369893" lon="18.1340414122">
        <ele>15.8</ele>
        <time>2011-05-28T14:03:50Z</time>
      </trkpt>
      <trkpt lat="59.3247317126" lon="18.1341186095">
        <ele>16</ele>
        <time>2011-05-28T14:03:54Z</time>
      </trkpt>
      <trkpt lat="59.3246405176" lon="18.1341820605">
        <ele>16</ele>
        <time>2011-05-28T14:03:58Z</time>
      </trkpt>
      <trkpt lat="59.3245005398" lon="18.134261018">
        <ele>16</ele>
        <time>2011-05-28T14:04:03Z</time>
      </trkpt>
      <trkpt lat="59.3244105182" lon="18.1343202781">
        <ele>16.2</ele>
        <time>2011-05-28T14:04:07Z</time>
      </trkpt>
      <trkpt lat="59.3242796768" lon="18.1343881714">
        <ele>16.2</ele>
        <time>2011-05-28T14:04:12Z</time>
      </trkpt>
      <trkpt lat="59.3241110329" lon="18.1344797856">
        <ele>16.2</ele>
        <time>2011-05-28T14:04:19Z</time>
      </trkpt>
      <trkpt lat="59.323987819" lon="18.1345431528">
        <ele>16.2</ele>
        <time>2011-05-28T14:04:24Z</time>
      </trkpt>
      <trkpt lat="59.3238884097" lon="18.134608783">
        <ele>16.2</ele>
        <time>2011-05-28T14:04:28Z</time>
      </trkpt>
      <trkpt lat="59.3237634355" lon="18.1346989723">
        <ele>16.2</ele>
        <time>2011-05-28T14:04:33Z</time>
      </trkpt>
      <trkpt lat="59.3236707317" lon="18.1347765049">
        <ele>16.2</ele>
        <time>2011-05-28T14:04:37Z</time>
      </trkpt>
      <trkpt lat="59.3234642017" lon="18.1348853019">
        <ele>16.2</ele>
        <time>2011-05-28T14:04:45Z</time>
      </trkpt>
      <trkpt lat="59.3233165965" lon="18.1349360124">
        <ele>16.2</ele>
        <time>2011-05-28T14:04:50Z</time>
      </trkpt>
      <trkpt lat="59.3232595995" lon="18.1349019819">
        <ele>16.2</ele>
        <time>2011-05-28T14:04:52Z</time>
      </trkpt>
      <trkpt lat="59.3232188635" lon="18.1346543806">
        <ele>16.2</ele>
        <time>2011-05-28T14:04:57Z</time>
      </trkpt>
      <trkpt lat="59.3232163489" lon="18.1345299932">
        <ele>16.2</ele>
        <time>2011-05-28T14:04:59Z</time>
      </trkpt>
      <trkpt lat="59.3232065421" lon="18.1341838207">
        <ele>16.2</ele>
        <time>2011-05-28T14:05:05Z</time>
      </trkpt>
      <trkpt lat="59.3231958133" lon="18.1339550787">
        <ele>16.2</ele>
        <time>2011-05-28T14:05:09Z</time>
      </trkpt>
      <trkpt lat="59.3231918738" lon="18.1336322917">
        <ele>16.2</ele>
        <time>2011-05-28T14:05:15Z</time>
      </trkpt>
      <trkpt lat="59.323190868" lon="18.1333864506">
        <ele>16.2</ele>
        <time>2011-05-28T14:05:20Z</time>
      </trkpt>
      <trkpt lat="59.3231834081" lon="18.1330576286">
        <ele>16.2</ele>
        <time>2011-05-28T14:05:26Z</time>
      </trkpt>
      <trkpt lat="59.3231818993" lon="18.1330082592">
        <ele>16.2</ele>
        <time>2011-05-28T14:05:27Z</time>
      </trkpt>
      <trkpt lat="59.3232311849" lon="18.1326387013">
        <ele>16.2</ele>
        <time>2011-05-28T14:05:34Z</time>
      </trkpt>
      <trkpt lat="59.3232771177" lon="18.1323725759">
        <ele>16.2</ele>
        <time>2011-05-28T14:05:39Z</time>
      </trkpt>
      <trkpt lat="59.3233237211" lon="18.1321222924">
        <ele>16.6</ele>
        <time>2011-05-28T14:05:44Z</time>
      </trkpt>
      <trkpt lat="59.3234006669" lon="18.1317900339">
        <ele>17.4</ele>
        <time>2011-05-28T14:05:51Z</time>
      </trkpt>
      <trkpt lat="59.323469147" lon="18.1314674984">
        <ele>17.8</ele>
        <time>2011-05-28T14:05:58Z</time>
      </trkpt>
      <trkpt lat="59.3235296644" lon="18.1310990301">
        <ele>18</ele>
        <time>2011-05-28T14:06:06Z</time>
      </trkpt>
      <trkpt lat="59.3235239647" lon="18.1307820266">
        <ele>18</ele>
        <time>2011-05-28T14:06:12Z</time>
      </trkpt>
      <trkpt lat="59.3234849888" lon="18.1304322499">
        <ele>17.2</ele>
        <time>2011-05-28T14:06:19Z</time>
      </trkpt>
      <trkpt lat="59.3234312608" lon="18.1300909389">
        <ele>16.6</ele>
        <time>2011-05-28T14:06:26Z</time>
      </trkpt>
      <trkpt lat="59.3234040197" lon="18.1297626199">
        <ele>15.6</ele>
        <time>2011-05-28T14:06:33Z</time>
      </trkpt>
      <trkpt lat="59.3233951349" lon="18.1293918885">
        <ele>14.8</ele>
        <time>2011-05-28T14:06:40Z</time>
      </trkpt>
      <trkpt lat="59.3233917821" lon="18.1290962589">
        <ele>14.4</ele>
        <time>2011-05-28T14:06:46Z</time>
      </trkpt>
      <trkpt lat="59.3234184365" lon="18.1287147986">
        <ele>14.2</ele>
        <time>2011-05-28T14:06:54Z</time>
      </trkpt>
      <trkpt lat="59.32343629" lon="18.1285769164">
        <ele>14.2</ele>
        <time>2011-05-28T14:06:57Z</time>
      </trkpt>
      <trkpt lat="59.3234819713" lon="18.1283993877">
        <ele>14.2</ele>
        <time>2011-05-28T14:07:01Z</time>
      </trkpt>
      <trkpt lat="59.3234864138" lon="18.1283603281">
        <ele>13.8</ele>
        <time>2011-05-28T14:07:02Z</time>
      </trkpt>
      <trkpt lat="59.323498316" lon="18.1282159917">
        <ele>13.2</ele>
        <time>2011-05-28T14:07:06Z</time>
      </trkpt>
      <trkpt lat="59.3234714102" lon="18.1278916122">
        <ele>12.6</ele>
        <time>2011-05-28T14:07:13Z</time>
      </trkpt>
      <trkpt lat="59.3234019242" lon="18.1276891055">
        <ele>12.4</ele>
        <time>2011-05-28T14:07:18Z</time>
      </trkpt>
      <trkpt lat="59.3233918659" lon="18.1276658876">
        <ele>12.4</ele>
        <time>2011-05-28T14:07:19Z</time>
      </trkpt>
      <trkpt lat="59.3233502917" lon="18.1275533187">
        <ele>12.4</ele>
        <time>2011-05-28T14:07:23Z</time>
      </trkpt>
      <trkpt lat="59.3232896906" lon="18.1274297695">
        <ele>12.8</ele>
        <time>2011-05-28T14:07:26Z</time>
      </trkpt>
      <trkpt lat="59.3232703284" lon="18.1273876086">
        <ele>13</ele>
        <time>2011-05-28T14:07:27Z</time>
      </trkpt>
      <trkpt lat="59.3231478688" lon="18.1272238262">
        <ele>13.4</ele>
        <time>2011-05-28T14:07:32Z</time>
      </trkpt>
      <trkpt lat="59.3230501359" lon="18.127046549">
        <ele>13.6</ele>
        <time>2011-05-28T14:07:37Z</time>
      </trkpt>
      <trkpt lat="59.3229570129" lon="18.126771036">
        <ele>13.8</ele>
        <time>2011-05-28T14:07:43Z</time>
      </trkpt>
      <trkpt lat="59.3228830846" lon="18.1265458982">
        <ele>14</ele>
        <time>2011-05-28T14:07:48Z</time>
      </trkpt>
      <trkpt lat="59.3228563463" lon="18.1263939343">
        <ele>14</ele>
        <time>2011-05-28T14:07:51Z</time>
      </trkpt>
      <trkpt lat="59.3227890397" lon="18.1259984763">
        <ele>14</ele>
        <time>2011-05-28T14:07:58Z</time>
      </trkpt>
      <trkpt lat="59.3227441965" lon="18.1256377193">
        <ele>14</ele>
        <time>2011-05-28T14:08:05Z</time>
      </trkpt>
      <trkpt lat="59.3227300311" lon="18.1253193747">
        <ele>14</ele>
        <time>2011-05-28T14:08:11Z</time>
      </trkpt>
      <trkpt lat="59.322729612" lon="18.1249373277">
        <ele>14</ele>
        <time>2011-05-28T14:08:18Z</time>
      </trkpt>
      <trkpt lat="59.3227621338" lon="18.124563495">
        <ele>14</ele>
        <time>2011-05-28T14:08:25Z</time>
      </trkpt>
      <trkpt lat="59.3227989303" lon="18.124210617">
        <ele>14</ele>
        <time>2011-05-28T14:08:32Z</time>
      </trkpt>
      <trkpt lat="59.3228410075" lon="18.1239220282">
        <ele>14</ele>
        <time>2011-05-28T14:08:38Z</time>
      </trkpt>
      <trkpt lat="59.3228776364" lon="18.1235579185">
        <ele>14.6</ele>
        <time>2011-05-28T14:08:45Z</time>
      </trkpt>
      <trkpt lat="59.3229383213" lon="18.1232085609">
        <ele>15.4</ele>
        <time>2011-05-28T14:08:52Z</time>
      </trkpt>
      <trkpt lat="59.3229948153" lon="18.1228751289">
        <ele>15.8</ele>
        <time>2011-05-28T14:08:59Z</time>
      </trkpt>
      <trkpt lat="59.3230395747" lon="18.1225665073">
        <ele>16</ele>
        <time>2011-05-28T14:09:05Z</time>
      </trkpt>
      <trkpt lat="59.3230990023" lon="18.1222310637">
        <ele>16</ele>
        <time>2011-05-28T14:09:12Z</time>
      </trkpt>
      <trkpt lat="59.3231634591" lon="18.1218947819">
        <ele>16.2</ele>
        <time>2011-05-28T14:09:19Z</time>
      </trkpt>
      <trkpt lat="59.3232399021" lon="18.1215673848">
        <ele>16.2</ele>
        <time>2011-05-28T14:09:26Z</time>
      </trkpt>
      <trkpt lat="59.323307544" lon="18.1212960627">
        <ele>16.2</ele>
        <time>2011-05-28T14:09:32Z</time>
      </trkpt>
      <trkpt lat="59.3233781196" lon="18.1209508123">
        <ele>16.2</ele>
        <time>2011-05-28T14:09:40Z</time>
      </trkpt>
      <trkpt lat="59.3234349489" lon="18.1206761374">
        <ele>16.2</ele>
        <time>2011-05-28T14:09:46Z</time>
      </trkpt>
      <trkpt lat="59.323488174" lon="18.1204073299">
        <ele>16.2</ele>
        <time>2011-05-28T14:09:52Z</time>
      </trkpt>
      <trkpt lat="59.3235177621" lon="18.1201655959">
        <ele>16.6</ele>
        <time>2011-05-28T14:09:57Z</time>
      </trkpt>
      <trkpt lat="59.3235976416" lon="18.1197753346">
        <ele>17.6</ele>
        <time>2011-05-28T14:10:06Z</time>
      </trkpt>
      <trkpt lat="59.3236422333" lon="18.1196019131">
        <ele>17.8</ele>
        <time>2011-05-28T14:10:10Z</time>
      </trkpt>
      <trkpt lat="59.3236822988" lon="18.1194149129">
        <ele>17.8</ele>
        <time>2011-05-28T14:10:14Z</time>
      </trkpt>
      <trkpt lat="59.3237403015" lon="18.1191888531">
        <ele>18</ele>
        <time>2011-05-28T14:10:19Z</time>
      </trkpt>
      <trkpt lat="59.323784977" lon="18.1189367255">
        <ele>18</ele>
        <time>2011-05-28T14:10:24Z</time>
      </trkpt>
      <trkpt lat="59.3238205163" lon="18.1187448638">
        <ele>18.2</ele>
        <time>2011-05-28T14:10:28Z</time>
      </trkpt>
      <trkpt lat="59.3238604141" lon="18.1185191393">
        <ele>18.2</ele>
        <time>2011-05-28T14:10:33Z</time>
      </trkpt>
      <trkpt lat="59.3238920977" lon="18.1183836878">
        <ele>18.2</ele>
        <time>2011-05-28T14:10:36Z</time>
      </trkpt>
      <trkpt lat="59.3239381982" lon="18.118195095">
        <ele>18.2</ele>
        <time>2011-05-28T14:10:40Z</time>
      </trkpt>
      <trkpt lat="59.3239738212" lon="18.117970041">
        <ele>18.2</ele>
        <time>2011-05-28T14:10:44Z</time>
      </trkpt>
      <trkpt lat="59.3239810297" lon="18.117657899">
        <ele>18.2</ele>
        <time>2011-05-28T14:10:50Z</time>
      </trkpt>
      <trkpt lat="59.3239687921" lon="18.1174518719">
        <ele>18.2</ele>
        <time>2011-05-28T14:10:54Z</time>
      </trkpt>
      <trkpt lat="59.3239662775" lon="18.1174030893">
        <ele>18.2</ele>
        <time>2011-05-28T14:10:55Z</time>
      </trkpt>
      <trkpt lat="59.3239552134" lon="18.1171654624">
        <ele>18.2</ele>
        <time>2011-05-28T14:11:00Z</time>
      </trkpt>
      <trkpt lat="59.3239469153" lon="18.1169461081">
        <ele>18.2</ele>
        <time>2011-05-28T14:11:05Z</time>
      </trkpt>
      <trkpt lat="59.3239020722" lon="18.1166890352">
        <ele>18.2</ele>
        <time>2011-05-28T14:11:10Z</time>
      </trkpt>
      <trkpt lat="59.3238336759" lon="18.1163893823">
        <ele>17.4</ele>
        <time>2011-05-28T14:11:16Z</time>
      </trkpt>
      <trkpt lat="59.3237750864" lon="18.1161043139">
        <ele>16.8</ele>
        <time>2011-05-28T14:11:22Z</time>
      </trkpt>
      <trkpt lat="59.3237175027" lon="18.1158380209">
        <ele>16.4</ele>
        <time>2011-05-28T14:11:28Z</time>
      </trkpt>
      <trkpt lat="59.323653465" lon="18.115591174">
        <ele>16.2</ele>
        <time>2011-05-28T14:11:34Z</time>
      </trkpt>
      <trkpt lat="59.3236040118" lon="18.1153018308">
        <ele>16.2</ele>
        <time>2011-05-28T14:11:40Z</time>
      </trkpt>
      <trkpt lat="59.3235610965" lon="18.1149486175">
        <ele>16.2</ele>
        <time>2011-05-28T14:11:47Z</time>
      </trkpt>
      <trkpt lat="59.3234802111" lon="18.1142927338">
        <ele>14.8</ele>
        <time>2011-05-28T14:12:00Z</time>
      </trkpt>
      <trkpt lat="59.3234308418" lon="18.113930971">
        <ele>14.4</ele>
        <time>2011-05-28T14:12:07Z</time>
      </trkpt>
      <trkpt lat="59.3233817238" lon="18.1135808591">
        <ele>13.2</ele>
        <time>2011-05-28T14:12:14Z</time>
      </trkpt>
      <trkpt lat="59.3232867569" lon="18.1132333455">
        <ele>12.6</ele>
        <time>2011-05-28T14:12:22Z</time>
      </trkpt>
      <trkpt lat="59.3231567536" lon="18.1130476026">
        <ele>12.4</ele>
        <time>2011-05-28T14:12:28Z</time>
      </trkpt>
      <trkpt lat="59.3230175303" lon="18.112891364">
        <ele>12.2</ele>
        <time>2011-05-28T14:12:34Z</time>
      </trkpt>
      <trkpt lat="59.3229298556" lon="18.1127843271">
        <ele>12.2</ele>
        <time>2011-05-28T14:12:38Z</time>
      </trkpt>
      <trkpt lat="59.3228024507" lon="18.1125567585">
        <ele>11</ele>
        <time>2011-05-28T14:12:45Z</time>
      </trkpt>
      <trkpt lat="59.3226912229" lon="18.1122770545">
        <ele>10.4</ele>
        <time>2011-05-28T14:12:52Z</time>
      </trkpt>
      <trkpt lat="59.3226100861" lon="18.1119561116">
        <ele>9.2</ele>
        <time>2011-05-28T14:12:59Z</time>
      </trkpt>
      <trkpt lat="59.3225562743" lon="18.1116351686">
        <ele>8.6</ele>
        <time>2011-05-28T14:13:06Z</time>
      </trkpt>
      <trkpt lat="59.3225545141" lon="18.1113324144">
        <ele>8.2</ele>
        <time>2011-05-28T14:13:12Z</time>
      </trkpt>
      <trkpt lat="59.3226017042" lon="18.1110056041">
        <ele>8.2</ele>
        <time>2011-05-28T14:13:18Z</time>
      </trkpt>
      <trkpt lat="59.3226519118" lon="18.1108393072">
        <ele>8</ele>
        <time>2011-05-28T14:13:22Z</time>
      </trkpt>
      <trkpt lat="59.3226595393" lon="18.110794464">
        <ele>8</ele>
        <time>2011-05-28T14:13:23Z</time>
      </trkpt>
      <trkpt lat="59.3227651513" lon="18.1105850842">
        <ele>8</ele>
        <time>2011-05-28T14:13:29Z</time>
      </trkpt>
      <trkpt lat="59.3228571845" lon="18.1104937215">
        <ele>8</ele>
        <time>2011-05-28T14:13:34Z</time>
      </trkpt>
      <trkpt lat="59.3229364773" lon="18.1104559191">
        <ele>8</ele>
        <time>2011-05-28T14:13:38Z</time>
      </trkpt>
      <trkpt lat="59.3230559194" lon="18.1104058792">
        <ele>8</ele>
        <time>2011-05-28T14:13:43Z</time>
      </trkpt>
      <trkpt lat="59.3231591006" lon="18.1102710982">
        <ele>8</ele>
        <time>2011-05-28T14:13:48Z</time>
      </trkpt>
      <trkpt lat="59.3232315202" lon="18.1100370756">
        <ele>8</ele>
        <time>2011-05-28T14:13:53Z</time>
      </trkpt>
      <trkpt lat="59.3232260719" lon="18.1098112672">
        <ele>8</ele>
        <time>2011-05-28T14:13:58Z</time>
      </trkpt>
      <trkpt lat="59.3231855874" lon="18.10948672">
        <ele>8.4</ele>
        <time>2011-05-28T14:14:05Z</time>
      </trkpt>
      <trkpt lat="59.3231748585" lon="18.1093961117">
        <ele>8.6</ele>
        <time>2011-05-28T14:14:07Z</time>
      </trkpt>
      <trkpt lat="59.3231747747" lon="18.1091569761">
        <ele>9.2</ele>
        <time>2011-05-28T14:14:12Z</time>
      </trkpt>
      <trkpt lat="59.3231736012" lon="18.1089063572">
        <ele>9.6</ele>
        <time>2011-05-28T14:14:17Z</time>
      </trkpt>
      <trkpt lat="59.3231930473" lon="18.1086628631">
        <ele>9.8</ele>
        <time>2011-05-28T14:14:22Z</time>
      </trkpt>
      <trkpt lat="59.3231952265" lon="18.1084113222">
        <ele>9.8</ele>
        <time>2011-05-28T14:14:27Z</time>
      </trkpt>
      <trkpt lat="59.3231594358" lon="18.1080411775">
        <ele>10</ele>
        <time>2011-05-28T14:14:35Z</time>
      </trkpt>
      <trkpt lat="59.323125573" lon="18.1076893892">
        <ele>10</ele>
        <time>2011-05-28T14:14:42Z</time>
      </trkpt>
      <trkpt lat="59.323125573" lon="18.1074393571">
        <ele>10</ele>
        <time>2011-05-28T14:14:47Z</time>
      </trkpt>
      <trkpt lat="59.3231169396" lon="18.107261577">
        <ele>10</ele>
        <time>2011-05-28T14:14:51Z</time>
      </trkpt>
      <trkpt lat="59.3230909557" lon="18.1069768439">
        <ele>10</ele>
        <time>2011-05-28T14:14:57Z</time>
      </trkpt>
      <trkpt lat="59.3230707553" lon="18.1067019176">
        <ele>10</ele>
        <time>2011-05-28T14:15:03Z</time>
      </trkpt>
      <trkpt lat="59.3230677378" lon="18.1065134086">
        <ele>10</ele>
        <time>2011-05-28T14:15:07Z</time>
      </trkpt>
      <trkpt lat="59.3231206276" lon="18.1062059605">
        <ele>10</ele>
        <time>2011-05-28T14:15:13Z</time>
      </trkpt>
      <trkpt lat="59.3231218011" lon="18.1061606144">
        <ele>10</ele>
        <time>2011-05-28T14:15:14Z</time>
      </trkpt>
      <trkpt lat="59.3231391516" lon="18.105918629">
        <ele>10</ele>
        <time>2011-05-28T14:15:19Z</time>
      </trkpt>
      <trkpt lat="59.3231409957" lon="18.1058749593">
        <ele>10</ele>
        <time>2011-05-28T14:15:20Z</time>
      </trkpt>
      <trkpt lat="59.3231639621" lon="18.1055263561">
        <ele>10.8</ele>
        <time>2011-05-28T14:15:27Z</time>
      </trkpt>
      <trkpt lat="59.3231981602" lon="18.1052459815">
        <ele>11.4</ele>
        <time>2011-05-28T14:15:33Z</time>
      </trkpt>
      <trkpt lat="59.323224647" lon="18.104956806">
        <ele>12.4</ele>
        <time>2011-05-28T14:15:39Z</time>
      </trkpt>
      <trkpt lat="59.3232493736" lon="18.1047274772">
        <ele>13.2</ele>
        <time>2011-05-28T14:15:44Z</time>
      </trkpt>
      <trkpt lat="59.3232807219" lon="18.1045051892">
        <ele>13.6</ele>
        <time>2011-05-28T14:15:49Z</time>
      </trkpt>
      <trkpt lat="59.3233015929" lon="18.1043192787">
        <ele>13.8</ele>
        <time>2011-05-28T14:15:53Z</time>
      </trkpt>
      <trkpt lat="59.3233283311" lon="18.1040770417">
        <ele>13.8</ele>
        <time>2011-05-28T14:15:58Z</time>
      </trkpt>
      <trkpt lat="59.3233361263" lon="18.1040423407">
        <ele>14</ele>
        <time>2011-05-28T14:15:59Z</time>
      </trkpt>
      <trkpt lat="59.3233642056" lon="18.1038780554">
        <ele>14</ele>
        <time>2011-05-28T14:16:05Z</time>
      </trkpt>
      <trkpt lat="59.3233687319" lon="18.1037260916">
        <ele>14</ele>
        <time>2011-05-28T14:16:09Z</time>
      </trkpt>
      <trkpt lat="59.3233897704" lon="18.1036210664">
        <ele>14</ele>
        <time>2011-05-28T14:16:12Z</time>
      </trkpt>
      <trkpt lat="59.323397398" lon="18.1034154584">
        <ele>14</ele>
        <time>2011-05-28T14:16:17Z</time>
      </trkpt>
      <trkpt lat="59.3234036006" lon="18.103376734">
        <ele>14</ele>
        <time>2011-05-28T14:16:18Z</time>
      </trkpt>
      <trkpt lat="59.323462693" lon="18.1031552842">
        <ele>14</ele>
        <time>2011-05-28T14:16:24Z</time>
      </trkpt>
      <trkpt lat="59.3235055245" lon="18.102944228">
        <ele>14</ele>
        <time>2011-05-28T14:16:29Z</time>
      </trkpt>
      <trkpt lat="59.3235740046" lon="18.1026754204">
        <ele>15</ele>
        <time>2011-05-28T14:16:35Z</time>
      </trkpt>
      <trkpt lat="59.3236285708" lon="18.1023999074">
        <ele>15.6</ele>
        <time>2011-05-28T14:16:41Z</time>
      </trkpt>
      <trkpt lat="59.3236578236" lon="18.1021792119">
        <ele>15.8</ele>
        <time>2011-05-28T14:16:45Z</time>
      </trkpt>
      <trkpt lat="59.3236973024" lon="18.1018643878">
        <ele>16</ele>
        <time>2011-05-28T14:16:51Z</time>
      </trkpt>
      <trkpt lat="59.3237206879" lon="18.1015948259">
        <ele>16.8</ele>
        <time>2011-05-28T14:16:56Z</time>
      </trkpt>
      <trkpt lat="59.323769722" lon="18.1013300417">
        <ele>17.4</ele>
        <time>2011-05-28T14:17:02Z</time>
      </trkpt>
      <trkpt lat="59.3238351846" lon="18.1010322328">
        <ele>17.8</ele>
        <time>2011-05-28T14:17:09Z</time>
      </trkpt>
      <trkpt lat="59.3238765912" lon="18.1008236911">
        <ele>18</ele>
        <time>2011-05-28T14:17:14Z</time>
      </trkpt>
      <trkpt lat="59.3238918463" lon="18.1005868186">
        <ele>18</ele>
        <time>2011-05-28T14:17:19Z</time>
      </trkpt>
      <trkpt lat="59.3239345101" lon="18.1002631096">
        <ele>18</ele>
        <time>2011-05-28T14:17:26Z</time>
      </trkpt>
      <trkpt lat="59.3239844662" lon="18.0999233912">
        <ele>18.2</ele>
        <time>2011-05-28T14:17:33Z</time>
      </trkpt>
      <trkpt lat="59.3240422175" lon="18.0996264205">
        <ele>18.2</ele>
        <time>2011-05-28T14:17:39Z</time>
      </trkpt>
      <trkpt lat="59.3240951911" lon="18.0993565233">
        <ele>18.2</ele>
        <time>2011-05-28T14:17:45Z</time>
      </trkpt>
      <trkpt lat="59.3241537806" lon="18.0990789148">
        <ele>18.2</ele>
        <time>2011-05-28T14:17:51Z</time>
      </trkpt>
      <trkpt lat="59.3242173993" lon="18.0987586424">
        <ele>18.2</ele>
        <time>2011-05-28T14:17:58Z</time>
      </trkpt>
      <trkpt lat="59.3242940936" lon="18.098436023">
        <ele>17.6</ele>
        <time>2011-05-28T14:18:05Z</time>
      </trkpt>
      <trkpt lat="59.3243603945" lon="18.0982548064">
        <ele>17</ele>
        <time>2011-05-28T14:18:09Z</time>
      </trkpt>
      <trkpt lat="59.3244161341" lon="18.09808457">
        <ele>16.8</ele>
        <time>2011-05-28T14:18:13Z</time>
      </trkpt>
      <trkpt lat="59.3244700297" lon="18.0979587577">
        <ele>16.4</ele>
        <time>2011-05-28T14:18:16Z</time>
      </trkpt>
      <trkpt lat="59.3245827663" lon="18.0977917064">
        <ele>15.4</ele>
        <time>2011-05-28T14:18:21Z</time>
      </trkpt>
      <trkpt lat="59.3246485642" lon="18.0976943087">
        <ele>15</ele>
        <time>2011-05-28T14:18:24Z</time>
      </trkpt>
      <trkpt lat="59.3247338919" lon="18.0974824981">
        <ele>14.6</ele>
        <time>2011-05-28T14:18:30Z</time>
      </trkpt>
      <trkpt lat="59.3248489754" lon="18.0972994374">
        <ele>14.2</ele>
        <time>2011-05-28T14:18:36Z</time>
      </trkpt>
      <trkpt lat="59.3249402543" lon="18.0971991899">
        <ele>14.2</ele>
        <time>2011-05-28T14:18:40Z</time>
      </trkpt>
      <trkpt lat="59.3250597802" lon="18.0970603856">
        <ele>13.2</ele>
        <time>2011-05-28T14:18:46Z</time>
      </trkpt>
      <trkpt lat="59.3251994227" lon="18.0969252694">
        <ele>12.6</ele>
        <time>2011-05-28T14:18:52Z</time>
      </trkpt>
      <trkpt lat="59.3253217146" lon="18.0968220044">
        <ele>12.4</ele>
        <time>2011-05-28T14:18:57Z</time>
      </trkpt>
      <trkpt lat="59.3254125744" lon="18.0967460644">
        <ele>12.2</ele>
        <time>2011-05-28T14:19:01Z</time>
      </trkpt>
      <trkpt lat="59.3255407336" lon="18.0966533606">
        <ele>12.2</ele>
        <time>2011-05-28T14:19:07Z</time>
      </trkpt>
      <trkpt lat="59.3256318449" lon="18.0965302304">
        <ele>12</ele>
        <time>2011-05-28T14:19:12Z</time>
      </trkpt>
      <trkpt lat="59.3257847307" lon="18.0964152308">
        <ele>11.2</ele>
        <time>2011-05-28T14:19:18Z</time>
      </trkpt>
      <trkpt lat="59.3259154884" lon="18.0963231137">
        <ele>10.8</ele>
        <time>2011-05-28T14:19:23Z</time>
      </trkpt>
      <trkpt lat="59.3260335893" lon="18.0962413902">
        <ele>10.4</ele>
        <time>2011-05-28T14:19:29Z</time>
      </trkpt>
      <trkpt lat="59.3261827872" lon="18.0961322578">
        <ele>10.2</ele>
        <time>2011-05-28T14:19:35Z</time>
      </trkpt>
      <trkpt lat="59.3263007205" lon="18.0960703994">
        <ele>10</ele>
        <time>2011-05-28T14:19:40Z</time>
      </trkpt>
      <trkpt lat="59.3264121998" lon="18.0960273164">
        <ele>10</ele>
        <time>2011-05-28T14:19:44Z</time>
      </trkpt>
      <trkpt lat="59.3267648263" lon="18.0959736723">
        <ele>11.2</ele>
        <time>2011-05-28T14:19:57Z</time>
      </trkpt>
      <trkpt lat="59.3269538381" lon="18.0960160009">
        <ele>11.6</ele>
        <time>2011-05-28T14:20:04Z</time>
      </trkpt>
      <trkpt lat="59.3271401678" lon="18.0961042623">
        <ele>11.8</ele>
        <time>2011-05-28T14:20:11Z</time>
      </trkpt>
      <trkpt lat="59.3273208815" lon="18.0962009894">
        <ele>12</ele>
        <time>2011-05-28T14:20:18Z</time>
      </trkpt>
      <trkpt lat="59.3274263258" lon="18.0962464193">
        <ele>12</ele>
        <time>2011-05-28T14:20:22Z</time>
      </trkpt>
      <trkpt lat="59.3276071234" lon="18.0963501872">
        <ele>12</ele>
        <time>2011-05-28T14:20:29Z</time>
      </trkpt>
      <trkpt lat="59.3277792877" lon="18.0964475011">
        <ele>12</ele>
        <time>2011-05-28T14:20:36Z</time>
      </trkpt>
      <trkpt lat="59.3279257194" lon="18.0964819507">
        <ele>12</ele>
        <time>2011-05-28T14:20:42Z</time>
      </trkpt>
      <trkpt lat="59.3280511127" lon="18.0964547933">
        <ele>12</ele>
        <time>2011-05-28T14:20:48Z</time>
      </trkpt>
      <trkpt lat="59.3281685431" lon="18.0963747462">
        <ele>12</ele>
        <time>2011-05-28T14:20:54Z</time>
      </trkpt>
      <trkpt lat="59.3282927628" lon="18.0962817909">
        <ele>12</ele>
        <time>2011-05-28T14:20:59Z</time>
      </trkpt>
      <trkpt lat="59.3284310642" lon="18.096126642">
        <ele>12</ele>
        <time>2011-05-28T14:21:06Z</time>
      </trkpt>
      <trkpt lat="59.3285184036" lon="18.0959922801">
        <ele>12</ele>
        <time>2011-05-28T14:21:11Z</time>
      </trkpt>
      <trkpt lat="59.3286179806" lon="18.0958687309">
        <ele>12</ele>
        <time>2011-05-28T14:21:16Z</time>
      </trkpt>
      <trkpt lat="59.3287245983" lon="18.0957304295">
        <ele>12</ele>
        <time>2011-05-28T14:21:21Z</time>
      </trkpt>
      <trkpt lat="59.3288551883" lon="18.0955689103">
        <ele>12</ele>
        <time>2011-05-28T14:21:27Z</time>
      </trkpt>
      <trkpt lat="59.3289937411" lon="18.095377803">
        <ele>12.4</ele>
        <time>2011-05-28T14:21:34Z</time>
      </trkpt>
      <trkpt lat="59.3291522429" lon="18.0952147751">
        <ele>13.4</ele>
        <time>2011-05-28T14:21:41Z</time>
      </trkpt>
      <trkpt lat="59.3292628001" lon="18.095083263">
        <ele>14.2</ele>
        <time>2011-05-28T14:21:46Z</time>
      </trkpt>
      <trkpt lat="59.3292719364" lon="18.0950405154">
        <ele>14.4</ele>
        <time>2011-05-28T14:21:47Z</time>
      </trkpt>
      <trkpt lat="59.3293508939" lon="18.0949166309">
        <ele>15</ele>
        <time>2011-05-28T14:21:51Z</time>
      </trkpt>
      <trkpt lat="59.3293967429" lon="18.0948628191">
        <ele>15.4</ele>
        <time>2011-05-28T14:21:53Z</time>
      </trkpt>
      <trkpt lat="59.3296165163" lon="18.0946515952">
        <ele>17</ele>
        <time>2011-05-28T14:22:02Z</time>
      </trkpt>
      <trkpt lat="59.3297798795" lon="18.0944609908">
        <ele>17.8</ele>
        <time>2011-05-28T14:22:09Z</time>
      </trkpt>
      <trkpt lat="59.3299118107" lon="18.0943109548">
        <ele>18</ele>
        <time>2011-05-28T14:22:15Z</time>
      </trkpt>
      <trkpt lat="59.3300409757" lon="18.0941713961">
        <ele>18.2</ele>
        <time>2011-05-28T14:22:21Z</time>
      </trkpt>
      <trkpt lat="59.3301971305" lon="18.0940597492">
        <ele>18.2</ele>
        <time>2011-05-28T14:22:27Z</time>
      </trkpt>
      <trkpt lat="59.3303660258" lon="18.0940064404">
        <ele>18.4</ele>
        <time>2011-05-28T14:22:33Z</time>
      </trkpt>
      <trkpt lat="59.3305702089" lon="18.0939581606">
        <ele>18.4</ele>
        <time>2011-05-28T14:22:40Z</time>
      </trkpt>
      <trkpt lat="59.3307652557" lon="18.0939194362">
        <ele>18.4</ele>
        <time>2011-05-28T14:22:47Z</time>
      </trkpt>
      <trkpt lat="59.3309540161" lon="18.0938219547">
        <ele>18.4</ele>
        <time>2011-05-28T14:22:55Z</time>
      </trkpt>
      <trkpt lat="59.3311073211" lon="18.093752385">
        <ele>18.4</ele>
        <time>2011-05-28T14:23:01Z</time>
      </trkpt>
      <trkpt lat="59.3312459577" lon="18.0936751877">
        <ele>17.8</ele>
        <time>2011-05-28T14:23:07Z</time>
      </trkpt>
      <trkpt lat="59.3313831694" lon="18.0935999182">
        <ele>17.2</ele>
        <time>2011-05-28T14:23:12Z</time>
      </trkpt>
      <trkpt lat="59.331521806" lon="18.0934942224">
        <ele>16.4</ele>
        <time>2011-05-28T14:23:18Z</time>
      </trkpt>
      <trkpt lat="59.3316255739" lon="18.0933444379">
        <ele>15.4</ele>
        <time>2011-05-28T14:23:23Z</time>
      </trkpt>
      <trkpt lat="59.3316620352" lon="18.0932117524">
        <ele>14.8</ele>
        <time>2011-05-28T14:23:26Z</time>
      </trkpt>
      <trkpt lat="59.3316501329" lon="18.092955853">
        <ele>13.6</ele>
        <time>2011-05-28T14:23:31Z</time>
      </trkpt>
      <trkpt lat="59.3316513902" lon="18.0929089144">
        <ele>13.4</ele>
        <time>2011-05-28T14:23:32Z</time>
      </trkpt>
      <trkpt lat="59.3316351293" lon="18.0926070821">
        <ele>12</ele>
        <time>2011-05-28T14:23:38Z</time>
      </trkpt>
      <trkpt lat="59.3316491271" lon="18.0922552938">
        <ele>10.6</ele>
        <time>2011-05-28T14:23:45Z</time>
      </trkpt>
      <trkpt lat="59.3316604426" lon="18.0922081875">
        <ele>10.2</ele>
        <time>2011-05-28T14:23:46Z</time>
      </trkpt>
      <trkpt lat="59.3316437627" lon="18.0918843947">
        <ele>9.2</ele>
        <time>2011-05-28T14:23:52Z</time>
      </trkpt>
      <trkpt lat="59.3316150127" lon="18.0915493702">
        <ele>8.4</ele>
        <time>2011-05-28T14:23:59Z</time>
      </trkpt>
      <trkpt lat="59.3316014341" lon="18.0911591927">
        <ele>7</ele>
        <time>2011-05-28T14:24:07Z</time>
      </trkpt>
      <trkpt lat="59.3315907052" lon="18.0907796603">
        <ele>6.4</ele>
        <time>2011-05-28T14:24:15Z</time>
      </trkpt>
      <trkpt lat="59.3315802278" lon="18.0903818553">
        <ele>6</ele>
        <time>2011-05-28T14:24:23Z</time>
      </trkpt>
      <trkpt lat="59.3315655595" lon="18.0899951983">
        <ele>5.8</ele>
        <time>2011-05-28T14:24:31Z</time>
      </trkpt>
      <trkpt lat="59.3315556689" lon="18.0896113073">
        <ele>5.8</ele>
        <time>2011-05-28T14:24:39Z</time>
      </trkpt>
      <trkpt lat="59.3315433475" lon="18.0892170227">
        <ele>5.8</ele>
        <time>2011-05-28T14:24:47Z</time>
      </trkpt>
      <trkpt lat="59.3315268351" lon="18.0888424356">
        <ele>5.8</ele>
        <time>2011-05-28T14:24:55Z</time>
      </trkpt>
      <trkpt lat="59.3315171121" lon="18.0885059023">
        <ele>5.8</ele>
        <time>2011-05-28T14:25:02Z</time>
      </trkpt>
      <trkpt lat="59.3315057128" lon="18.0881240229">
        <ele>5.8</ele>
        <time>2011-05-28T14:25:10Z</time>
      </trkpt>
      <trkpt lat="59.3314953192" lon="18.0877384555">
        <ele>5.8</ele>
        <time>2011-05-28T14:25:18Z</time>
      </trkpt>
      <trkpt lat="59.3314892842" lon="18.0873567438">
        <ele>5.8</ele>
        <time>2011-05-28T14:25:26Z</time>
      </trkpt>
      <trkpt lat="59.3314805671" lon="18.0869663987">
        <ele>5.8</ele>
        <time>2011-05-28T14:25:34Z</time>
      </trkpt>
      <trkpt lat="59.3314767952" lon="18.0865681747">
        <ele>5.8</ele>
        <time>2011-05-28T14:25:42Z</time>
      </trkpt>
      <trkpt lat="59.3314540803" lon="18.0861951801">
        <ele>5.8</ele>
        <time>2011-05-28T14:25:50Z</time>
      </trkpt>
      <trkpt lat="59.3314325388" lon="18.085851606">
        <ele>5.8</ele>
        <time>2011-05-28T14:25:57Z</time>
      </trkpt>
      <trkpt lat="59.3314124222" lon="18.0855170844">
        <ele>5.8</ele>
        <time>2011-05-28T14:26:04Z</time>
      </trkpt>
      <trkpt lat="59.331403705" lon="18.0852631128">
        <ele>5.8</ele>
        <time>2011-05-28T14:26:09Z</time>
      </trkpt>
      <trkpt lat="59.3313914675" lon="18.0850035254">
        <ele>5.8</ele>
        <time>2011-05-28T14:26:14Z</time>
      </trkpt>
      <trkpt lat="59.3313797328" lon="18.0847544991">
        <ele>5.8</ele>
        <time>2011-05-28T14:26:19Z</time>
      </trkpt>
      <trkpt lat="59.3313724405" lon="18.0844999408">
        <ele>5.8</ele>
        <time>2011-05-28T14:26:24Z</time>
      </trkpt>
      <trkpt lat="59.3313685011" lon="18.0842013776">
        <ele>5.8</ele>
        <time>2011-05-28T14:26:30Z</time>
      </trkpt>
      <trkpt lat="59.3313433554" lon="18.083934917">
        <ele>5.8</ele>
        <time>2011-05-28T14:26:35Z</time>
      </trkpt>
      <trkpt lat="59.3313400026" lon="18.083613052">
        <ele>6.4</ele>
        <time>2011-05-28T14:26:41Z</time>
      </trkpt>
      <trkpt lat="59.3313374042" lon="18.0833635228">
        <ele>7</ele>
        <time>2011-05-28T14:26:46Z</time>
      </trkpt>
      <trkpt lat="59.3313411761" lon="18.083137463">
        <ele>7.4</ele>
        <time>2011-05-28T14:26:51Z</time>
      </trkpt>
      <trkpt lat="59.3313306149" lon="18.0828938012">
        <ele>7.6</ele>
        <time>2011-05-28T14:26:57Z</time>
      </trkpt>
      <trkpt lat="59.3313451156" lon="18.0827066333">
        <ele>7.8</ele>
        <time>2011-05-28T14:27:02Z</time>
      </trkpt>
      <trkpt lat="59.3313432715" lon="18.0826691662">
        <ele>7.8</ele>
        <time>2011-05-28T14:27:03Z</time>
      </trkpt>
      <trkpt lat="59.3313361469" lon="18.082486357">
        <ele>7.8</ele>
        <time>2011-05-28T14:27:08Z</time>
      </trkpt>
      <trkpt lat="59.3313255019" lon="18.0822706907">
        <ele>7.8</ele>
        <time>2011-05-28T14:27:13Z</time>
      </trkpt>
      <trkpt lat="59.3313093248" lon="18.0820261907">
        <ele>7.8</ele>
        <time>2011-05-28T14:27:18Z</time>
      </trkpt>
      <trkpt lat="59.3313137672" lon="18.0816909985">
        <ele>7.8</ele>
        <time>2011-05-28T14:27:25Z</time>
      </trkpt>
      <trkpt lat="59.3313285194" lon="18.0814757513">
        <ele>7.8</ele>
        <time>2011-05-28T14:27:29Z</time>
      </trkpt>
      <trkpt lat="59.3313497256" lon="18.0812442432">
        <ele>8.6</ele>
        <time>2011-05-28T14:27:34Z</time>
      </trkpt>
      <trkpt lat="59.331382415" lon="18.0811140723">
        <ele>9</ele>
        <time>2011-05-28T14:27:37Z</time>
      </trkpt>
      <trkpt lat="59.3314607858" lon="18.0807865915">
        <ele>9.6</ele>
        <time>2011-05-28T14:27:45Z</time>
      </trkpt>
      <trkpt lat="59.3315247397" lon="18.0805529041">
        <ele>9.6</ele>
        <time>2011-05-28T14:27:51Z</time>
      </trkpt>
      <trkpt lat="59.331528763" lon="18.0805177001">
        <ele>9.8</ele>
        <time>2011-05-28T14:27:52Z</time>
      </trkpt>
      <trkpt lat="59.3315828262" lon="18.0804287682">
        <ele>9.8</ele>
        <time>2011-05-28T14:27:56Z</time>
      </trkpt>
      <trkpt lat="59.3315979137" lon="18.0803326278">
        <ele>9.8</ele>
        <time>2011-05-28T14:28:00Z</time>
      </trkpt>
      <trkpt lat="59.3315932198" lon="18.0803007766">
        <ele>9.8</ele>
        <time>2011-05-28T14:28:01Z</time>
      </trkpt>
      <trkpt lat="59.3316457743" lon="18.0801732041">
        <ele>9.8</ele>
        <time>2011-05-28T14:28:07Z</time>
      </trkpt>
      <trkpt lat="59.3316820679" lon="18.0800367467">
        <ele>9.8</ele>
        <time>2011-05-28T14:28:10Z</time>
      </trkpt>
      <trkpt lat="59.3317697426" lon="18.0797548634">
        <ele>9.8</ele>
        <time>2011-05-28T14:28:17Z</time>
      </trkpt>
      <trkpt lat="59.331826991" lon="18.0795154764">
        <ele>9.8</ele>
        <time>2011-05-28T14:28:23Z</time>
      </trkpt>
      <trkpt lat="59.3318668888" lon="18.0793583157">
        <ele>9.8</ele>
        <time>2011-05-28T14:28:27Z</time>
      </trkpt>
      <trkpt lat="59.3318994944" lon="18.0791514504">
        <ele>9.8</ele>
        <time>2011-05-28T14:28:32Z</time>
      </trkpt>
      <trkpt lat="59.3319380512" lon="18.0790327627">
        <ele>9.8</ele>
        <time>2011-05-28T14:28:35Z</time>
      </trkpt>
      <trkpt lat="59.3320096326" lon="18.0787756899">
        <ele>10</ele>
        <time>2011-05-28T14:28:41Z</time>
      </trkpt>
      <trkpt lat="59.3320781127" lon="18.0785420025">
        <ele>10</ele>
        <time>2011-05-28T14:28:46Z</time>
      </trkpt>
      <trkpt lat="59.3321506161" lon="18.0783281802">
        <ele>10</ele>
        <time>2011-05-28T14:28:51Z</time>
      </trkpt>
      <trkpt lat="59.3322425656" lon="18.0780045551">
        <ele>10</ele>
        <time>2011-05-28T14:28:58Z</time>
      </trkpt>
      <trkpt lat="59.3323392927" lon="18.0776797564">
        <ele>10</ele>
        <time>2011-05-28T14:29:06Z</time>
      </trkpt>
      <trkpt lat="59.3323655281" lon="18.0772860586">
        <ele>10</ele>
        <time>2011-05-28T14:29:14Z</time>
      </trkpt>
      <trkpt lat="59.3324078567" lon="18.0769358628">
        <ele>10</ele>
        <time>2011-05-28T14:29:21Z</time>
      </trkpt>
      <trkpt lat="59.3324962019" lon="18.0765955577">
        <ele>10</ele>
        <time>2011-05-28T14:29:29Z</time>
      </trkpt>
      <trkpt lat="59.3325822002" lon="18.0762793924">
        <ele>10</ele>
        <time>2011-05-28T14:29:36Z</time>
      </trkpt>
      <trkpt lat="59.3326701263" lon="18.0760303662">
        <ele>10.6</ele>
        <time>2011-05-28T14:29:42Z</time>
      </trkpt>
      <trkpt lat="59.3327663505" lon="18.0757466388">
        <ele>11.4</ele>
        <time>2011-05-28T14:29:49Z</time>
      </trkpt>
      <trkpt lat="59.3328235151" lon="18.0755940044">
        <ele>11.6</ele>
        <time>2011-05-28T14:29:53Z</time>
      </trkpt>
      <trkpt lat="59.332876824" lon="18.0754147156">
        <ele>11.6</ele>
        <time>2011-05-28T14:29:57Z</time>
      </trkpt>
      <trkpt lat="59.3328877204" lon="18.0750696328">
        <ele>12.6</ele>
        <time>2011-05-28T14:30:04Z</time>
      </trkpt>
      <trkpt lat="59.3328811825" lon="18.0747895097">
        <ele>13.2</ele>
        <time>2011-05-28T14:30:10Z</time>
      </trkpt>
      <trkpt lat="59.3328673524" lon="18.0743952251">
        <ele>13.6</ele>
        <time>2011-05-28T14:30:18Z</time>
      </trkpt>
      <trkpt lat="59.3328514268" lon="18.073989625">
        <ele>13.8</ele>
        <time>2011-05-28T14:30:26Z</time>
      </trkpt>
      <trkpt lat="59.3328691126" lon="18.0736955879">
        <ele>14</ele>
        <time>2011-05-28T14:30:32Z</time>
      </trkpt>
      <trkpt lat="59.3328572103" lon="18.0733902353">
        <ele>14</ele>
        <time>2011-05-28T14:30:38Z</time>
      </trkpt>
      <trkpt lat="59.3328417038" lon="18.0730409615">
        <ele>14</ele>
        <time>2011-05-28T14:30:45Z</time>
      </trkpt>
      <trkpt lat="59.3328536899" lon="18.0727517022">
        <ele>14</ele>
        <time>2011-05-28T14:30:51Z</time>
      </trkpt>
      <trkpt lat="59.3328651731" lon="18.07266562">
        <ele>14</ele>
        <time>2011-05-28T14:30:53Z</time>
      </trkpt>
      <trkpt lat="59.3328544443" lon="18.0722925417">
        <ele>14</ele>
        <time>2011-05-28T14:31:01Z</time>
      </trkpt>
      <trkpt lat="59.332851343" lon="18.07219791">
        <ele>14</ele>
        <time>2011-05-28T14:31:04Z</time>
      </trkpt>
      <trkpt lat="59.3328514268" lon="18.0719477941">
        <ele>14</ele>
        <time>2011-05-28T14:31:09Z</time>
      </trkpt>
      <trkpt lat="59.3327400314" lon="18.0717930642">
        <ele>14</ele>
        <time>2011-05-28T14:31:14Z</time>
      </trkpt>
      <trkpt lat="59.3327127064" lon="18.0717761328">
        <ele>14</ele>
        <time>2011-05-28T14:31:15Z</time>
      </trkpt>
      <trkpt lat="59.3325741536" lon="18.0717790665">
        <ele>14.4</ele>
        <time>2011-05-28T14:31:20Z</time>
      </trkpt>
      <trkpt lat="59.3324652727" lon="18.0718211436">
        <ele>15</ele>
        <time>2011-05-28T14:31:25Z</time>
      </trkpt>
      <trkpt lat="59.3322927732" lon="18.0718949882">
        <ele>16.2</ele>
        <time>2011-05-28T14:31:31Z</time>
      </trkpt>
      <trkpt lat="59.3321363669" lon="18.0719612052">
        <ele>18</ele>
        <time>2011-05-28T14:31:38Z</time>
      </trkpt>
      <trkpt lat="59.3320318446" lon="18.0720088982">
        <ele>18.8</ele>
        <time>2011-05-28T14:31:42Z</time>
      </trkpt>
      <trkpt lat="59.3319350337" lon="18.07208861">
        <ele>20.2</ele>
        <time>2011-05-28T14:31:48Z</time>
      </trkpt>
      <trkpt lat="59.3317932119" lon="18.0722041964">
        <ele>21.4</ele>
        <time>2011-05-28T14:31:54Z</time>
      </trkpt>
      <trkpt lat="59.3316751948" lon="18.0722591817">
        <ele>21.8</ele>
        <time>2011-05-28T14:32:00Z</time>
      </trkpt>
      <trkpt lat="59.3315635479" lon="18.0723402347">
        <ele>22.8</ele>
        <time>2011-05-28T14:32:04Z</time>
      </trkpt>
      <trkpt lat="59.3314527391" lon="18.0724001653">
        <ele>23.6</ele>
        <time>2011-05-28T14:32:09Z</time>
      </trkpt>
      <trkpt lat="59.3313291061" lon="18.0725028435">
        <ele>24</ele>
        <time>2011-05-28T14:32:15Z</time>
      </trkpt>
      <trkpt lat="59.3312186327" lon="18.0725574097">
        <ele>24.2</ele>
        <time>2011-05-28T14:32:19Z</time>
      </trkpt>
      <trkpt lat="59.3311126855" lon="18.0726286559">
        <ele>24.2</ele>
        <time>2011-05-28T14:32:24Z</time>
      </trkpt>
      <trkpt lat="59.3309844424" lon="18.0727439908">
        <ele>24.4</ele>
        <time>2011-05-28T14:32:30Z</time>
      </trkpt>
      <trkpt lat="59.3309030541" lon="18.0728090343">
        <ele>24.4</ele>
        <time>2011-05-28T14:32:34Z</time>
      </trkpt>
      <trkpt lat="59.330777158" lon="18.0728887462">
        <ele>24.4</ele>
        <time>2011-05-28T14:32:39Z</time>
      </trkpt>
      <trkpt lat="59.3306212547" lon="18.072918502">
        <ele>24.4</ele>
        <time>2011-05-28T14:32:44Z</time>
      </trkpt>
      <trkpt lat="59.3305692031" lon="18.0729444859">
        <ele>24.4</ele>
        <time>2011-05-28T14:32:46Z</time>
      </trkpt>
      <trkpt lat="59.3304246991" lon="18.0729905025">
        <ele>24.4</ele>
        <time>2011-05-28T14:32:52Z</time>
      </trkpt>
      <trkpt lat="59.3303274691" lon="18.0730488405">
        <ele>24.4</ele>
        <time>2011-05-28T14:32:55Z</time>
      </trkpt>
      <trkpt lat="59.3301792771" lon="18.0731153928">
        <ele>24.6</ele>
        <time>2011-05-28T14:33:00Z</time>
      </trkpt>
      <trkpt lat="59.3300619305" lon="18.0732129581">
        <ele>25.4</ele>
        <time>2011-05-28T14:33:05Z</time>
      </trkpt>
      <trkpt lat="59.3299502836" lon="18.0732969447">
        <ele>25.8</ele>
        <time>2011-05-28T14:33:10Z</time>
      </trkpt>
      <trkpt lat="59.3298196098" lon="18.07333064">
        <ele>26.2</ele>
        <time>2011-05-28T14:33:15Z</time>
      </trkpt>
      <trkpt lat="59.3296712501" lon="18.0733199112">
        <ele>26.2</ele>
        <time>2011-05-28T14:33:19Z</time>
      </trkpt>
      <trkpt lat="59.329527752" lon="18.0733103558">
        <ele>26.4</ele>
        <time>2011-05-28T14:33:24Z</time>
      </trkpt>
      <trkpt lat="59.3294004309" lon="18.0733037341">
        <ele>26.4</ele>
        <time>2011-05-28T14:33:29Z</time>
      </trkpt>
      <trkpt lat="59.3293041229" lon="18.0732836175">
        <ele>25.6</ele>
        <time>2011-05-28T14:33:34Z</time>
      </trkpt>
      <trkpt lat="59.3291638937" lon="18.0732645068">
        <ele>24.6</ele>
        <time>2011-05-28T14:33:40Z</time>
      </trkpt>
      <trkpt lat="59.3291400053" lon="18.0732419595">
        <ele>24.4</ele>
        <time>2011-05-28T14:33:41Z</time>
      </trkpt>
      <trkpt lat="59.3290488102" lon="18.0732059173">
        <ele>23</ele>
        <time>2011-05-28T14:33:46Z</time>
      </trkpt>
      <trkpt lat="59.329002123" lon="18.0731803525">
        <ele>22</ele>
        <time>2011-05-28T14:33:49Z</time>
      </trkpt>
      <trkpt lat="59.3289476407" lon="18.0731669415">
        <ele>21.6</ele>
        <time>2011-05-28T14:33:51Z</time>
      </trkpt>
      <trkpt lat="59.3288047293" lon="18.0731493395">
        <ele>19.4</ele>
        <time>2011-05-28T14:33:58Z</time>
      </trkpt>
      <trkpt lat="59.3287845289" lon="18.0731350903">
        <ele>19.2</ele>
        <time>2011-05-28T14:33:59Z</time>
      </trkpt>
      <trkpt lat="59.3287010452" lon="18.0731090225">
        <ele>17.8</ele>
        <time>2011-05-28T14:34:03Z</time>
      </trkpt>
      <trkpt lat="59.3286345767" lon="18.0731085196">
        <ele>17.2</ele>
        <time>2011-05-28T14:34:06Z</time>
      </trkpt>
      <trkpt lat="59.3284688666" lon="18.0730796021">
        <ele>15.8</ele>
        <time>2011-05-28T14:34:12Z</time>
      </trkpt>
      <trkpt lat="59.3283273801" lon="18.0730456554">
        <ele>14.6</ele>
        <time>2011-05-28T14:34:18Z</time>
      </trkpt>
      <trkpt lat="59.3281823732" lon="18.0730221861">
        <ele>13.8</ele>
        <time>2011-05-28T14:34:24Z</time>
      </trkpt>
      <trkpt lat="59.3280325887" lon="18.0730190009">
        <ele>12.6</ele>
        <time>2011-05-28T14:34:30Z</time>
      </trkpt>
      <trkpt lat="59.3278688063" lon="18.0730100323">
        <ele>11.8</ele>
        <time>2011-05-28T14:34:37Z</time>
      </trkpt>
      <trkpt lat="59.3277455924" lon="18.0731317375">
        <ele>11.6</ele>
        <time>2011-05-28T14:34:43Z</time>
      </trkpt>
      <trkpt lat="59.3275875098" lon="18.0733113616">
        <ele>11.4</ele>
        <time>2011-05-28T14:34:51Z</time>
      </trkpt>
      <trkpt lat="59.3274490408" lon="18.0734510041">
        <ele>11.2</ele>
        <time>2011-05-28T14:34:58Z</time>
      </trkpt>
      <trkpt lat="59.3272815704" lon="18.0736397645">
        <ele>11.2</ele>
        <time>2011-05-28T14:35:06Z</time>
      </trkpt>
      <trkpt lat="59.327119213" lon="18.0738592864">
        <ele>11.2</ele>
        <time>2011-05-28T14:35:14Z</time>
      </trkpt>
      <trkpt lat="59.3269822528" lon="18.0740431853">
        <ele>11.2</ele>
        <time>2011-05-28T14:35:21Z</time>
      </trkpt>
      <trkpt lat="59.3268610505" lon="18.0742277547">
        <ele>11.2</ele>
        <time>2011-05-28T14:35:27Z</time>
      </trkpt>
      <trkpt lat="59.3267593781" lon="18.074366559">
        <ele>11.2</ele>
        <time>2011-05-28T14:35:32Z</time>
      </trkpt>
      <trkpt lat="59.3265988647" lon="18.0745455126">
        <ele>11.2</ele>
        <time>2011-05-28T14:35:40Z</time>
      </trkpt>
      <trkpt lat="59.3264471523" lon="18.0746895974">
        <ele>11.2</ele>
        <time>2011-05-28T14:35:47Z</time>
      </trkpt>
      <trkpt lat="59.326296781" lon="18.0748698083">
        <ele>11.2</ele>
        <time>2011-05-28T14:35:54Z</time>
      </trkpt>
      <trkpt lat="59.3259703898" lon="18.0751974568">
        <ele>11.2</ele>
        <time>2011-05-28T14:36:10Z</time>
      </trkpt>
      <trkpt lat="59.3258491875" lon="18.0753218441">
        <ele>11.2</ele>
        <time>2011-05-28T14:36:15Z</time>
      </trkpt>
      <trkpt lat="59.3257366186" lon="18.0754432979">
        <ele>11.2</ele>
        <time>2011-05-28T14:36:20Z</time>
      </trkpt>
      <trkpt lat="59.32555909" lon="18.0756060744">
        <ele>11.2</ele>
        <time>2011-05-28T14:36:27Z</time>
      </trkpt>
      <trkpt lat="59.3253656357" lon="18.0757083336">
        <ele>11.2</ele>
        <time>2011-05-28T14:36:35Z</time>
      </trkpt>
      <trkpt lat="59.3251684934" lon="18.0757887998">
        <ele>11.2</ele>
        <time>2011-05-28T14:36:43Z</time>
      </trkpt>
      <trkpt lat="59.3249720217" lon="18.0758046416">
        <ele>12.2</ele>
        <time>2011-05-28T14:36:51Z</time>
      </trkpt>
      <trkpt lat="59.3248376599" lon="18.0758253449">
        <ele>12.6</ele>
        <time>2011-05-28T14:36:56Z</time>
      </trkpt>
      <trkpt lat="59.3247174634" lon="18.0758145322">
        <ele>12.8</ele>
        <time>2011-05-28T14:37:00Z</time>
      </trkpt>
      <trkpt lat="59.3245916511" lon="18.0757778195">
        <ele>13.6</ele>
        <time>2011-05-28T14:37:05Z</time>
      </trkpt>
      <trkpt lat="59.3244660902" lon="18.0757306294">
        <ele>14.4</ele>
        <time>2011-05-28T14:37:10Z</time>
      </trkpt>
      <trkpt lat="59.3243182335" lon="18.0756418651">
        <ele>14.8</ele>
        <time>2011-05-28T14:37:16Z</time>
      </trkpt>
      <trkpt lat="59.324167946" lon="18.0755845329">
        <ele>15</ele>
        <time>2011-05-28T14:37:22Z</time>
      </trkpt>
      <trkpt lat="59.3240156469" lon="18.0755225068">
        <ele>15.2</ele>
        <time>2011-05-28T14:37:28Z</time>
      </trkpt>
      <trkpt lat="59.3238466678" lon="18.0754520989">
        <ele>15.2</ele>
        <time>2011-05-28T14:37:35Z</time>
      </trkpt>
      <trkpt lat="59.3237478452" lon="18.0753956887">
        <ele>15.2</ele>
        <time>2011-05-28T14:37:40Z</time>
      </trkpt>
      <trkpt lat="59.3236522916" lon="18.0753752369">
        <ele>15.4</ele>
        <time>2011-05-28T14:37:44Z</time>
      </trkpt>
      <trkpt lat="59.3235322627" lon="18.0753440562">
        <ele>15.4</ele>
        <time>2011-05-28T14:37:49Z</time>
      </trkpt>
      <trkpt lat="59.3233483639" lon="18.0752488378">
        <ele>15.4</ele>
        <time>2011-05-28T14:37:57Z</time>
      </trkpt>
      <trkpt lat="59.3231551611" lon="18.0751502667">
        <ele>15.4</ele>
        <time>2011-05-28T14:38:04Z</time>
      </trkpt>
      <trkpt lat="59.3229593599" lon="18.0750329201">
        <ele>15.4</ele>
        <time>2011-05-28T14:38:13Z</time>
      </trkpt>
      <trkpt lat="59.3227933144" lon="18.0748910145">
        <ele>15.4</ele>
        <time>2011-05-28T14:38:20Z</time>
      </trkpt>
      <trkpt lat="59.3226696814" lon="18.0747711533">
        <ele>14.6</ele>
        <time>2011-05-28T14:38:25Z</time>
      </trkpt>
      <trkpt lat="59.3225131913" lon="18.0745849075">
        <ele>14</ele>
        <time>2011-05-28T14:38:33Z</time>
      </trkpt>
      <trkpt lat="59.3223398536" lon="18.0743964824">
        <ele>12.8</ele>
        <time>2011-05-28T14:38:40Z</time>
      </trkpt>
      <trkpt lat="59.32218504" lon="18.0742219712">
        <ele>12</ele>
        <time>2011-05-28T14:38:48Z</time>
      </trkpt>
      <trkpt lat="59.3220268735" lon="18.0740537465">
        <ele>11.4</ele>
        <time>2011-05-28T14:38:55Z</time>
      </trkpt>
      <trkpt lat="59.3219040787" lon="18.0739378248">
        <ele>10.2</ele>
        <time>2011-05-28T14:39:01Z</time>
      </trkpt>
      <trkpt lat="59.3217692139" lon="18.0737978471">
        <ele>9.6</ele>
        <time>2011-05-28T14:39:08Z</time>
      </trkpt>
      <trkpt lat="59.3216501071" lon="18.0736614736">
        <ele>9.4</ele>
        <time>2011-05-28T14:39:15Z</time>
      </trkpt>
      <trkpt lat="59.3215002387" lon="18.0735367509">
        <ele>9.2</ele>
        <time>2011-05-28T14:39:22Z</time>
      </trkpt>
      <trkpt lat="59.321399153" lon="18.0733764052">
        <ele>9.2</ele>
        <time>2011-05-28T14:39:28Z</time>
      </trkpt>
      <trkpt lat="59.3213032641" lon="18.0732619922">
        <ele>9.2</ele>
        <time>2011-05-28T14:39:33Z</time>
      </trkpt>
      <trkpt lat="59.3211689022" lon="18.0731174883">
        <ele>9.4</ele>
        <time>2011-05-28T14:39:40Z</time>
      </trkpt>
      <trkpt lat="59.3209952293" lon="18.0729259619">
        <ele>10.4</ele>
        <time>2011-05-28T14:39:48Z</time>
      </trkpt>
      <trkpt lat="59.3208311117" lon="18.0728268878">
        <ele>10.8</ele>
        <time>2011-05-28T14:39:56Z</time>
      </trkpt>
      <trkpt lat="59.3206941514" lon="18.0727621795">
        <ele>11</ele>
        <time>2011-05-28T14:40:01Z</time>
      </trkpt>
      <trkpt lat="59.3211723388" lon="18.0715371648">
        <ele>10.8</ele>
        <time>2011-05-28T14:40:27Z</time>
      </trkpt>
      <trkpt lat="59.3211724226" lon="18.0714929084">
        <ele>10.6</ele>
        <time>2011-05-28T14:40:28Z</time>
      </trkpt>
      <trkpt lat="59.3211660524" lon="18.0713209118">
        <ele>10</ele>
        <time>2011-05-28T14:40:32Z</time>
      </trkpt>
      <trkpt lat="59.3211988256" lon="18.0711043235">
        <ele>9.8</ele>
        <time>2011-05-28T14:40:35Z</time>
      </trkpt>
      <trkpt lat="59.3212118175" lon="18.0710117035">
        <ele>9.6</ele>
        <time>2011-05-28T14:40:37Z</time>
      </trkpt>
      <trkpt lat="59.3212554872" lon="18.070777178">
        <ele>10.2</ele>
        <time>2011-05-28T14:40:42Z</time>
      </trkpt>
      <trkpt lat="59.3212640368" lon="18.0706806185">
        <ele>10.4</ele>
        <time>2011-05-28T14:40:44Z</time>
      </trkpt>
      <trkpt lat="59.3212650426" lon="18.0703416544">
        <ele>11.8</ele>
        <time>2011-05-28T14:40:51Z</time>
      </trkpt>
      <trkpt lat="59.3212595944" lon="18.0700641297">
        <ele>12.8</ele>
        <time>2011-05-28T14:40:57Z</time>
      </trkpt>
      <trkpt lat="59.3212744303" lon="18.0698402492">
        <ele>13.2</ele>
        <time>2011-05-28T14:41:01Z</time>
      </trkpt>
      <trkpt lat="59.3212842372" lon="18.0698002675">
        <ele>13.2</ele>
        <time>2011-05-28T14:41:02Z</time>
      </trkpt>
      <trkpt lat="59.3212002505" lon="18.0695994372">
        <ele>13.4</ele>
        <time>2011-05-28T14:41:06Z</time>
      </trkpt>
      <trkpt lat="59.3211470255" lon="18.0693431187">
        <ele>13.6</ele>
        <time>2011-05-28T14:41:12Z</time>
      </trkpt>
      <trkpt lat="59.3210582611" lon="18.0690326531">
        <ele>13.6</ele>
        <time>2011-05-28T14:41:19Z</time>
      </trkpt>
      <trkpt lat="59.3209896972" lon="18.0687487582">
        <ele>13.8</ele>
        <time>2011-05-28T14:41:26Z</time>
      </trkpt>
      <trkpt lat="59.3209636295" lon="18.068610373">
        <ele>13.8</ele>
        <time>2011-05-28T14:41:28Z</time>
      </trkpt>
      <trkpt lat="59.3209172776" lon="18.0683788649">
        <ele>13.8</ele>
        <time>2011-05-28T14:41:34Z</time>
      </trkpt>
      <trkpt lat="59.3209099015" lon="18.0682586685">
        <ele>13.8</ele>
        <time>2011-05-28T14:41:38Z</time>
      </trkpt>
      <trkpt lat="59.3208940597" lon="18.0680906952">
        <ele>13.8</ele>
        <time>2011-05-28T14:41:42Z</time>
      </trkpt>
      <trkpt lat="59.3208480431" lon="18.0678081414">
        <ele>13.8</ele>
        <time>2011-05-28T14:41:48Z</time>
      </trkpt>
      <trkpt lat="59.3208389906" lon="18.0674280222">
        <ele>13.4</ele>
        <time>2011-05-28T14:41:53Z</time>
      </trkpt>
      <trkpt lat="59.3208435169" lon="18.0670898963">
        <ele>12.6</ele>
        <time>2011-05-28T14:42:00Z</time>
      </trkpt>
      <trkpt lat="59.3208526531" lon="18.0667111183">
        <ele>12.2</ele>
        <time>2011-05-28T14:42:07Z</time>
      </trkpt>
      <trkpt lat="59.3209145116" lon="18.0663926899">
        <ele>12.8</ele>
        <time>2011-05-28T14:42:13Z</time>
      </trkpt>
      <trkpt lat="59.3210016833" lon="18.0661825557">
        <ele>13.2</ele>
        <time>2011-05-28T14:42:18Z</time>
      </trkpt>
      <trkpt lat="59.3210558304" lon="18.0660025125">
        <ele>13.4</ele>
        <time>2011-05-28T14:42:22Z</time>
      </trkpt>
      <trkpt lat="59.3211048645" lon="18.0657826552">
        <ele>14.2</ele>
        <time>2011-05-28T14:42:27Z</time>
      </trkpt>
      <trkpt lat="59.321112492" lon="18.065650305">
        <ele>14.6</ele>
        <time>2011-05-28T14:42:31Z</time>
      </trkpt>
      <trkpt lat="59.3211348717" lon="18.0653963334">
        <ele>15.2</ele>
        <time>2011-05-28T14:42:36Z</time>
      </trkpt>
      <trkpt lat="59.3211499591" lon="18.0652244207">
        <ele>15.4</ele>
        <time>2011-05-28T14:42:40Z</time>
      </trkpt>
      <trkpt lat="59.3211517193" lon="18.0650365823">
        <ele>15.6</ele>
        <time>2011-05-28T14:42:44Z</time>
      </trkpt>
      <trkpt lat="59.3211496239" lon="18.0647960218">
        <ele>15.8</ele>
        <time>2011-05-28T14:42:50Z</time>
      </trkpt>
      <trkpt lat="59.3211523899" lon="18.064551857">
        <ele>15.8</ele>
        <time>2011-05-28T14:42:55Z</time>
      </trkpt>
      <trkpt lat="59.3211424992" lon="18.0642708957">
        <ele>15.8</ele>
        <time>2011-05-28T14:43:01Z</time>
      </trkpt>
      <trkpt lat="59.3211478637" lon="18.0641733304">
        <ele>15.8</ele>
        <time>2011-05-28T14:43:03Z</time>
      </trkpt>
      <trkpt lat="59.3211129111" lon="18.0639777807">
        <ele>15.8</ele>
        <time>2011-05-28T14:43:07Z</time>
      </trkpt>
      <trkpt lat="59.3211251487" lon="18.0636417503">
        <ele>15.8</ele>
        <time>2011-05-28T14:43:13Z</time>
      </trkpt>
      <trkpt lat="59.3211268251" lon="18.0635529022">
        <ele>15.8</ele>
        <time>2011-05-28T14:43:16Z</time>
      </trkpt>
      <trkpt lat="59.3211386436" lon="18.0634068895">
        <ele>15.4</ele>
        <time>2011-05-28T14:43:20Z</time>
      </trkpt>
      <trkpt lat="59.3211485342" lon="18.0630392593">
        <ele>14.6</ele>
        <time>2011-05-28T14:43:28Z</time>
      </trkpt>
      <trkpt lat="59.3211600174" lon="18.0627722958">
        <ele>14.2</ele>
        <time>2011-05-28T14:43:33Z</time>
      </trkpt>
      <trkpt lat="59.3211777032" lon="18.062555959">
        <ele>14</ele>
        <time>2011-05-28T14:43:38Z</time>
      </trkpt>
      <trkpt lat="59.3211811398" lon="18.0622848045">
        <ele>14</ele>
        <time>2011-05-28T14:43:45Z</time>
      </trkpt>
      <trkpt lat="59.3211751048" lon="18.0620067769">
        <ele>13</ele>
        <time>2011-05-28T14:43:51Z</time>
      </trkpt>
      <trkpt lat="59.3211619452" lon="18.0617318506">
        <ele>12.4</ele>
        <time>2011-05-28T14:43:57Z</time>
      </trkpt>
      <trkpt lat="59.3211539824" lon="18.061399173">
        <ele>12.2</ele>
        <time>2011-05-28T14:44:03Z</time>
      </trkpt>
      <trkpt lat="59.3211410743" lon="18.0610123483">
        <ele>12</ele>
        <time>2011-05-28T14:44:12Z</time>
      </trkpt>
      <trkpt lat="59.3211336144" lon="18.0607152938">
        <ele>12</ele>
        <time>2011-05-28T14:44:18Z</time>
      </trkpt>
      <trkpt lat="59.3211274956" lon="18.0604016431">
        <ele>11.8</ele>
        <time>2011-05-28T14:44:25Z</time>
      </trkpt>
      <trkpt lat="59.3211145875" lon="18.0601760861">
        <ele>11.8</ele>
        <time>2011-05-28T14:44:30Z</time>
      </trkpt>
      <trkpt lat="59.321096315" lon="18.0600258825">
        <ele>11.8</ele>
        <time>2011-05-28T14:44:33Z</time>
      </trkpt>
      <trkpt lat="59.3211061218" lon="18.0598558137">
        <ele>11.8</ele>
        <time>2011-05-28T14:44:37Z</time>
      </trkpt>
      <trkpt lat="59.3211049483" lon="18.0598060252">
        <ele>11.8</ele>
        <time>2011-05-28T14:44:38Z</time>
      </trkpt>
      <trkpt lat="59.3210826525" lon="18.0595567475">
        <ele>11.8</ele>
        <time>2011-05-28T14:44:43Z</time>
      </trkpt>
      <trkpt lat="59.3210798026" lon="18.059324066">
        <ele>11.8</ele>
        <time>2011-05-28T14:44:48Z</time>
      </trkpt>
      <trkpt lat="59.3210719236" lon="18.0589442821">
        <ele>11.8</ele>
        <time>2011-05-28T14:44:56Z</time>
      </trkpt>
      <trkpt lat="59.3210642961" lon="18.058594254">
        <ele>11.8</ele>
        <time>2011-05-28T14:45:03Z</time>
      </trkpt>
      <trkpt lat="59.3210609433" lon="18.0582972832">
        <ele>11.8</ele>
        <time>2011-05-28T14:45:08Z</time>
      </trkpt>
      <trkpt lat="59.3210636256" lon="18.0580109575">
        <ele>11.8</ele>
        <time>2011-05-28T14:45:15Z</time>
      </trkpt>
      <trkpt lat="59.3210656372" lon="18.05772086">
        <ele>11.8</ele>
        <time>2011-05-28T14:45:21Z</time>
      </trkpt>
      <trkpt lat="59.3210663916" lon="18.0576714906">
        <ele>11.8</ele>
        <time>2011-05-28T14:45:22Z</time>
      </trkpt>
      <trkpt lat="59.3210882683" lon="18.0574884299">
        <ele>11.8</ele>
        <time>2011-05-28T14:45:26Z</time>
      </trkpt>
      <trkpt lat="59.3210867596" lon="18.0571076402">
        <ele>11.8</ele>
        <time>2011-05-28T14:45:33Z</time>
      </trkpt>
      <trkpt lat="59.32109489" lon="18.0568557641">
        <ele>11.8</ele>
        <time>2011-05-28T14:45:38Z</time>
      </trkpt>
      <trkpt lat="59.3210954768" lon="18.0567067339">
        <ele>11.4</ele>
        <time>2011-05-28T14:45:42Z</time>
      </trkpt>
      <trkpt lat="59.3210968179" lon="18.056479752">
        <ele>10.8</ele>
        <time>2011-05-28T14:45:46Z</time>
      </trkpt>
      <trkpt lat="59.321104194" lon="18.056295015">
        <ele>10.4</ele>
        <time>2011-05-28T14:45:51Z</time>
      </trkpt>
      <trkpt lat="59.3210837421" lon="18.0560480842">
        <ele>9.4</ele>
        <time>2011-05-28T14:45:56Z</time>
      </trkpt>
      <trkpt lat="59.3210613624" lon="18.0557306616">
        <ele>8.6</ele>
        <time>2011-05-28T14:46:02Z</time>
      </trkpt>
      <trkpt lat="59.3210523938" lon="18.0553445075">
        <ele>7.2</ele>
        <time>2011-05-28T14:46:11Z</time>
      </trkpt>
      <trkpt lat="59.3210429223" lon="18.0551052043">
        <ele>6.4</ele>
        <time>2011-05-28T14:46:16Z</time>
      </trkpt>
      <trkpt lat="59.3210288407" lon="18.0550842495">
        <ele>6.2</ele>
        <time>2011-05-28T14:46:18Z</time>
      </trkpt>
      <trkpt lat="59.3210279187" lon="18.0548517356">
        <ele>5.8</ele>
        <time>2011-05-28T14:46:28Z</time>
      </trkpt>
      <trkpt lat="59.3210373064" lon="18.0546014521">
        <ele>5.8</ele>
        <time>2011-05-28T14:46:33Z</time>
      </trkpt>
      <trkpt lat="59.3210418326" lon="18.0542705347">
        <ele>5.6</ele>
        <time>2011-05-28T14:46:38Z</time>
      </trkpt>
      <trkpt lat="59.321049544" lon="18.0539189978">
        <ele>5.6</ele>
        <time>2011-05-28T14:46:45Z</time>
      </trkpt>
      <trkpt lat="59.3210482867" lon="18.0535544689">
        <ele>5.6</ele>
        <time>2011-05-28T14:46:52Z</time>
      </trkpt>
      <trkpt lat="59.3210279187" lon="18.0531643753">
        <ele>6.2</ele>
        <time>2011-05-28T14:47:00Z</time>
      </trkpt>
      <trkpt lat="59.3210021862" lon="18.0528434324">
        <ele>7</ele>
        <time>2011-05-28T14:47:07Z</time>
      </trkpt>
      <trkpt lat="59.3209875179" lon="18.0526439431">
        <ele>7.2</ele>
        <time>2011-05-28T14:47:11Z</time>
      </trkpt>
      <trkpt lat="59.3209848357" lon="18.0524562724">
        <ele>7.4</ele>
        <time>2011-05-28T14:47:15Z</time>
      </trkpt>
      <trkpt lat="59.3210050361" lon="18.0522218307">
        <ele>7.4</ele>
        <time>2011-05-28T14:47:20Z</time>
      </trkpt>
      <trkpt lat="59.3210181957" lon="18.0519707928">
        <ele>8.2</ele>
        <time>2011-05-28T14:47:26Z</time>
      </trkpt>
      <trkpt lat="59.321018028" lon="18.0517569705">
        <ele>8.8</ele>
        <time>2011-05-28T14:47:32Z</time>
      </trkpt>
      <trkpt lat="59.3210391504" lon="18.0515879076">
        <ele>9.4</ele>
        <time>2011-05-28T14:47:39Z</time>
      </trkpt>
      <trkpt lat="59.3210394019" lon="18.0515700541">
        <ele>9.4</ele>
        <time>2011-05-28T14:47:41Z</time>
      </trkpt>
      <trkpt lat="59.3210351271" lon="18.0514525399">
        <ele>9.6</ele>
        <time>2011-05-28T14:47:48Z</time>
      </trkpt>
      <trkpt lat="59.3210430061" lon="18.0513777733">
        <ele>9.6</ele>
        <time>2011-05-28T14:47:51Z</time>
      </trkpt>
      <trkpt lat="59.3210606919" lon="18.0511269869">
        <ele>9.6</ele>
        <time>2011-05-28T14:48:01Z</time>
      </trkpt>
      <trkpt lat="59.3210746897" lon="18.0508316087">
        <ele>9.6</ele>
        <time>2011-05-28T14:48:11Z</time>
      </trkpt>
      <trkpt lat="59.3210636256" lon="18.0505819957">
        <ele>9.6</ele>
        <time>2011-05-28T14:48:16Z</time>
      </trkpt>
      <trkpt lat="59.3210427546" lon="18.0502628968">
        <ele>9.6</ele>
        <time>2011-05-28T14:48:22Z</time>
      </trkpt>
      <trkpt lat="59.3210450177" lon="18.0500732982">
        <ele>9.6</ele>
        <time>2011-05-28T14:48:27Z</time>
      </trkpt>
      <trkpt lat="59.3210026891" lon="18.0497119545">
        <ele>9.6</ele>
        <time>2011-05-28T14:48:33Z</time>
      </trkpt>
      <trkpt lat="59.320943932" lon="18.0493886646">
        <ele>9.6</ele>
        <time>2011-05-28T14:48:40Z</time>
      </trkpt>
      <trkpt lat="59.3209141763" lon="18.0490936218">
        <ele>9.6</ele>
        <time>2011-05-28T14:48:46Z</time>
      </trkpt>
      <trkpt lat="59.3208951494" lon="18.0487368043">
        <ele>9.6</ele>
        <time>2011-05-28T14:48:53Z</time>
      </trkpt>
      <trkpt lat="59.320875871" lon="18.0483839263">
        <ele>10</ele>
        <time>2011-05-28T14:49:01Z</time>
      </trkpt>
      <trkpt lat="59.3208514797" lon="18.0479934974">
        <ele>11</ele>
        <time>2011-05-28T14:49:08Z</time>
      </trkpt>
      <trkpt lat="59.3208246576" lon="18.0476459">
        <ele>11.8</ele>
        <time>2011-05-28T14:49:16Z</time>
      </trkpt>
      <trkpt lat="59.3207965782" lon="18.0473497675">
        <ele>12.8</ele>
        <time>2011-05-28T14:49:22Z</time>
      </trkpt>
      <trkpt lat="59.3207772999" lon="18.047093449">
        <ele>13.2</ele>
        <time>2011-05-28T14:49:27Z</time>
      </trkpt>
      <trkpt lat="59.3207745338" lon="18.0469926147">
        <ele>13.2</ele>
        <time>2011-05-28T14:49:28Z</time>
      </trkpt>
      <trkpt lat="59.3207534114" lon="18.0467381402">
        <ele>13.6</ele>
        <time>2011-05-28T14:49:33Z</time>
      </trkpt>
      <trkpt lat="59.3207347198" lon="18.0465368908">
        <ele>13.6</ele>
        <time>2011-05-28T14:49:38Z</time>
      </trkpt>
      <trkpt lat="59.3207296068" lon="18.0463462026">
        <ele>13.8</ele>
        <time>2011-05-28T14:49:42Z</time>
      </trkpt>
      <trkpt lat="59.3207024495" lon="18.0461951607">
        <ele>14.4</ele>
        <time>2011-05-28T14:49:45Z</time>
      </trkpt>
      <trkpt lat="59.3206822491" lon="18.045913026">
        <ele>15</ele>
        <time>2011-05-28T14:49:51Z</time>
      </trkpt>
      <trkpt lat="59.3206545888" lon="18.0456708729">
        <ele>15.4</ele>
        <time>2011-05-28T14:49:56Z</time>
      </trkpt>
      <trkpt lat="59.3206303651" lon="18.0452838806">
        <ele>15.6</ele>
        <time>2011-05-28T14:50:03Z</time>
      </trkpt>
      <trkpt lat="59.3206103324" lon="18.0449366185">
        <ele>15.8</ele>
        <time>2011-05-28T14:50:11Z</time>
      </trkpt>
      <trkpt lat="59.3205685067" lon="18.0445592653">
        <ele>15.8</ele>
        <time>2011-05-28T14:50:18Z</time>
      </trkpt>
      <trkpt lat="59.3205346438" lon="18.0441776374">
        <ele>15.8</ele>
        <time>2011-05-28T14:50:27Z</time>
      </trkpt>
      <trkpt lat="59.3204951651" lon="18.0437942493">
        <ele>15.8</ele>
        <time>2011-05-28T14:50:34Z</time>
      </trkpt>
      <trkpt lat="59.3204544291" lon="18.0435106896">
        <ele>15.8</ele>
        <time>2011-05-28T14:50:40Z</time>
      </trkpt>
      <trkpt lat="59.3204383358" lon="18.0433684488">
        <ele>15.8</ele>
        <time>2011-05-28T14:50:43Z</time>
      </trkpt>
      <trkpt lat="59.3204190574" lon="18.0431816162">
        <ele>15.8</ele>
        <time>2011-05-28T14:50:48Z</time>
      </trkpt>
      <trkpt lat="59.3203955043" lon="18.0426417381">
        <ele>15.8</ele>
        <time>2011-05-28T14:50:58Z</time>
      </trkpt>
      <trkpt lat="59.3203844402" lon="18.0424341184">
        <ele>15.8</ele>
        <time>2011-05-28T14:51:03Z</time>
      </trkpt>
      <trkpt lat="59.3203829315" lon="18.0422298515">
        <ele>15.8</ele>
        <time>2011-05-28T14:51:07Z</time>
      </trkpt>
      <trkpt lat="59.3203862004" lon="18.0420349723">
        <ele>15.8</ele>
        <time>2011-05-28T14:51:11Z</time>
      </trkpt>
      <trkpt lat="59.3203576181" lon="18.0418136902">
        <ele>15.8</ele>
        <time>2011-05-28T14:51:15Z</time>
      </trkpt>
      <trkpt lat="59.3203550197" lon="18.0415865407">
        <ele>15.8</ele>
        <time>2011-05-28T14:51:20Z</time>
      </trkpt>
      <trkpt lat="59.3203556065" lon="18.0414163881">
        <ele>15.8</ele>
        <time>2011-05-28T14:51:23Z</time>
      </trkpt>
      <trkpt lat="59.3203579534" lon="18.0411472453">
        <ele>15.8</ele>
        <time>2011-05-28T14:51:28Z</time>
      </trkpt>
      <trkpt lat="59.3203421954" lon="18.0408479276">
        <ele>15.8</ele>
        <time>2011-05-28T14:51:36Z</time>
      </trkpt>
      <trkpt lat="59.3203136131" lon="18.0405293316">
        <ele>15.8</ele>
        <time>2011-05-28T14:51:43Z</time>
      </trkpt>
      <trkpt lat="59.3202894733" lon="18.0402523936">
        <ele>15.8</ele>
        <time>2011-05-28T14:51:48Z</time>
      </trkpt>
      <trkpt lat="59.3202447977" lon="18.0398908823">
        <ele>15.8</ele>
        <time>2011-05-28T14:51:57Z</time>
      </trkpt>
      <trkpt lat="59.3202147067" lon="18.0396219909">
        <ele>15.8</ele>
        <time>2011-05-28T14:52:03Z</time>
      </trkpt>
      <trkpt lat="59.3201784131" lon="18.0393101843">
        <ele>15.8</ele>
        <time>2011-05-28T14:52:10Z</time>
      </trkpt>
      <trkpt lat="59.3201434606" lon="18.0389896604">
        <ele>15.8</ele>
        <time>2011-05-28T14:52:17Z</time>
      </trkpt>
      <trkpt lat="59.3200711248" lon="18.0386577372">
        <ele>15.8</ele>
        <time>2011-05-28T14:52:24Z</time>
      </trkpt>
      <trkpt lat="59.3200508406" lon="18.0384116446">
        <ele>15.8</ele>
        <time>2011-05-28T14:52:28Z</time>
      </trkpt>
      <trkpt lat="59.3200076738" lon="18.0382050307">
        <ele>15.8</ele>
        <time>2011-05-28T14:52:33Z</time>
      </trkpt>
      <trkpt lat="59.3199926702" lon="18.0381242292">
        <ele>15.8</ele>
        <time>2011-05-28T14:52:35Z</time>
      </trkpt>
      <trkpt lat="59.3200018065" lon="18.037900684">
        <ele>15.8</ele>
        <time>2011-05-28T14:52:40Z</time>
      </trkpt>
      <trkpt lat="59.3199993757" lon="18.0377105825">
        <ele>15.8</ele>
        <time>2011-05-28T14:52:44Z</time>
      </trkpt>
      <trkpt lat="59.3199659319" lon="18.0374118516">
        <ele>15.8</ele>
        <time>2011-05-28T14:52:50Z</time>
      </trkpt>
      <trkpt lat="59.3199622439" lon="18.0370151362">
        <ele>15.8</ele>
        <time>2011-05-28T14:52:58Z</time>
      </trkpt>
      <trkpt lat="59.3199513474" lon="18.0368024874">
        <ele>15.8</ele>
        <time>2011-05-28T14:53:03Z</time>
      </trkpt>
      <trkpt lat="59.3199386069" lon="18.0367659423">
        <ele>15.8</ele>
        <time>2011-05-28T14:53:04Z</time>
      </trkpt>
      <trkpt lat="59.3199454801" lon="18.0365750865">
        <ele>15.8</ele>
        <time>2011-05-28T14:53:08Z</time>
      </trkpt>
      <trkpt lat="59.3199266208" lon="18.0363527147">
        <ele>15.8</ele>
        <time>2011-05-28T14:53:13Z</time>
      </trkpt>
      <trkpt lat="59.3199179036" lon="18.0361569135">
        <ele>15.8</ele>
        <time>2011-05-28T14:53:17Z</time>
      </trkpt>
      <trkpt lat="59.3199108628" lon="18.0360636229">
        <ele>15.8</ele>
        <time>2011-05-28T14:53:19Z</time>
      </trkpt>
      <trkpt lat="59.3198662711" lon="18.0357442725">
        <ele>15.8</ele>
        <time>2011-05-28T14:53:26Z</time>
      </trkpt>
      <trkpt lat="59.3198293908" lon="18.0354654067">
        <ele>15.8</ele>
        <time>2011-05-28T14:53:32Z</time>
      </trkpt>
      <trkpt lat="59.3198309833" lon="18.0353102578">
        <ele>15.8</ele>
        <time>2011-05-28T14:53:35Z</time>
      </trkpt>
      <trkpt lat="59.3198346714" lon="18.0352581223">
        <ele>15.8</ele>
        <time>2011-05-28T14:53:36Z</time>
      </trkpt>
      <trkpt lat="59.3197900797" lon="18.0349421247">
        <ele>15.8</ele>
        <time>2011-05-28T14:53:43Z</time>
      </trkpt>
      <trkpt lat="59.3197933486" lon="18.0349073398">
        <ele>15.8</ele>
        <time>2011-05-28T14:53:44Z</time>
      </trkpt>
      <trkpt lat="59.3197924266" lon="18.0347872272">
        <ele>15.8</ele>
        <time>2011-05-28T14:53:48Z</time>
      </trkpt>
      <trkpt lat="59.3197603239" lon="18.0345398773">
        <ele>15.8</ele>
        <time>2011-05-28T14:53:54Z</time>
      </trkpt>
      <trkpt lat="59.3197345077" lon="18.0344950342">
        <ele>15.8</ele>
        <time>2011-05-28T14:53:55Z</time>
      </trkpt>
      <trkpt lat="59.3197077694" lon="18.0342874983">
        <ele>15.8</ele>
        <time>2011-05-28T14:54:01Z</time>
      </trkpt>
      <trkpt lat="59.3196723978" lon="18.0340103089">
        <ele>15.6</ele>
        <time>2011-05-28T14:54:08Z</time>
      </trkpt>
      <trkpt lat="59.3196560531" lon="18.033874103">
        <ele>14.8</ele>
        <time>2011-05-28T14:54:13Z</time>
      </trkpt>
      <trkpt lat="59.3196391217" lon="18.0337389868">
        <ele>14.4</ele>
        <time>2011-05-28T14:54:18Z</time>
      </trkpt>
      <trkpt lat="59.3196071866" lon="18.0336279266">
        <ele>14.2</ele>
        <time>2011-05-28T14:54:22Z</time>
      </trkpt>
      <trkpt lat="59.3194903429" lon="18.0334272639">
        <ele>13</ele>
        <time>2011-05-28T14:54:28Z</time>
      </trkpt>
      <trkpt lat="59.3193946216" lon="18.0333388349">
        <ele>12.6</ele>
        <time>2011-05-28T14:54:34Z</time>
      </trkpt>
      <trkpt lat="59.3193025045" lon="18.0332523337">
        <ele>12.2</ele>
        <time>2011-05-28T14:54:39Z</time>
      </trkpt>
      <trkpt lat="59.3192410652" lon="18.0332043892">
        <ele>12.2</ele>
        <time>2011-05-28T14:54:42Z</time>
      </trkpt>
      <trkpt lat="59.319111984" lon="18.0331732085">
        <ele>12</ele>
        <time>2011-05-28T14:54:47Z</time>
      </trkpt>
      <trkpt lat="59.3190772829" lon="18.0331418602">
        <ele>12</ele>
        <time>2011-05-28T14:54:49Z</time>
      </trkpt>
      <trkpt lat="59.3190192801" lon="18.0329815145">
        <ele>12</ele>
        <time>2011-05-28T14:54:54Z</time>
      </trkpt>
      <trkpt lat="59.318964714" lon="18.0328584682">
        <ele>12.6</ele>
        <time>2011-05-28T14:54:57Z</time>
      </trkpt>
      <trkpt lat="59.31894619" lon="18.0327458993">
        <ele>13.2</ele>
        <time>2011-05-28T14:55:03Z</time>
      </trkpt>
      <trkpt lat="59.3189400712" lon="18.0325899959">
        <ele>14.2</ele>
        <time>2011-05-28T14:55:10Z</time>
      </trkpt>
      <trkpt lat="59.3189455194" lon="18.0322383752">
        <ele>15</ele>
        <time>2011-05-28T14:55:16Z</time>
      </trkpt>
      <trkpt lat="59.319024896" lon="18.0320182665">
        <ele>16.2</ele>
        <time>2011-05-28T14:55:21Z</time>
      </trkpt>
      <trkpt lat="59.3191455116" lon="18.0319156721">
        <ele>17</ele>
        <time>2011-05-28T14:55:26Z</time>
      </trkpt>
      <trkpt lat="59.3192774427" lon="18.0318706613">
        <ele>17.6</ele>
        <time>2011-05-28T14:55:31Z</time>
      </trkpt>
      <trkpt lat="59.3194110502" lon="18.0318349544">
        <ele>18.6</ele>
        <time>2011-05-28T14:55:37Z</time>
      </trkpt>
      <trkpt lat="59.3195036701" lon="18.0317932963">
        <ele>19.2</ele>
        <time>2011-05-28T14:55:41Z</time>
      </trkpt>
      <trkpt lat="59.3196302368" lon="18.0317375567">
        <ele>19.6</ele>
        <time>2011-05-28T14:55:46Z</time>
      </trkpt>
      <trkpt lat="59.3196552987" lon="18.031736048">
        <ele>19.6</ele>
        <time>2011-05-28T14:55:48Z</time>
      </trkpt>
      <trkpt lat="59.3197625032" lon="18.0316694119">
        <ele>20.4</ele>
        <time>2011-05-28T14:55:53Z</time>
      </trkpt>
      <trkpt lat="59.3198854657" lon="18.0316113253">
        <ele>21.2</ele>
        <time>2011-05-28T14:55:59Z</time>
      </trkpt>
      <trkpt lat="59.3200243538" lon="18.0315567591">
        <ele>21.6</ele>
        <time>2011-05-28T14:56:07Z</time>
      </trkpt>
      <trkpt lat="59.3201500823" lon="18.0314792266">
        <ele>21.8</ele>
        <time>2011-05-28T14:56:13Z</time>
      </trkpt>
      <trkpt lat="59.3203420278" lon="18.0313711839">
        <ele>22.4</ele>
        <time>2011-05-28T14:56:22Z</time>
      </trkpt>
      <trkpt lat="59.3204610508" lon="18.0313182103">
        <ele>23.2</ele>
        <time>2011-05-28T14:56:28Z</time>
      </trkpt>
      <trkpt lat="59.3205817501" lon="18.031246545">
        <ele>23.6</ele>
        <time>2011-05-28T14:56:33Z</time>
      </trkpt>
      <trkpt lat="59.3207120049" lon="18.0311953316">
        <ele>23.8</ele>
        <time>2011-05-28T14:56:38Z</time>
      </trkpt>
      <trkpt lat="59.3208472887" lon="18.0311224929">
        <ele>24</ele>
        <time>2011-05-28T14:56:45Z</time>
      </trkpt>
      <trkpt lat="59.3209530683" lon="18.0310601316">
        <ele>24</ele>
        <time>2011-05-28T14:56:50Z</time>
      </trkpt>
      <trkpt lat="59.321055998" lon="18.0310038052">
        <ele>24</ele>
        <time>2011-05-28T14:56:55Z</time>
      </trkpt>
      <trkpt lat="59.3211630349" lon="18.0309670086">
        <ele>24</ele>
        <time>2011-05-28T14:57:00Z</time>
      </trkpt>
      <trkpt lat="59.3212715805" lon="18.0309301283">
        <ele>24</ele>
        <time>2011-05-28T14:57:04Z</time>
      </trkpt>
      <trkpt lat="59.3213907711" lon="18.0308701977">
        <ele>24</ele>
        <time>2011-05-28T14:57:11Z</time>
      </trkpt>
      <trkpt lat="59.3214338541" lon="18.030852931">
        <ele>24</ele>
        <time>2011-05-28T14:57:13Z</time>
      </trkpt>
      <trkpt lat="59.3215629353" lon="18.0307330698">
        <ele>24.8</ele>
        <time>2011-05-28T14:57:20Z</time>
      </trkpt>
      <trkpt lat="59.3215813755" lon="18.0307139591">
        <ele>24.8</ele>
        <time>2011-05-28T14:57:21Z</time>
      </trkpt>
      <trkpt lat="59.3216931062" lon="18.0306188245">
        <ele>25.4</ele>
        <time>2011-05-28T14:57:27Z</time>
      </trkpt>
      <trkpt lat="59.3218091956" lon="18.0305546192">
        <ele>25.8</ele>
        <time>2011-05-28T14:57:32Z</time>
      </trkpt>
      <trkpt lat="59.3219419649" lon="18.0304433914">
        <ele>26</ele>
        <time>2011-05-28T14:57:38Z</time>
      </trkpt>
      <trkpt lat="59.3220931743" lon="18.0303031622">
        <ele>26</ele>
        <time>2011-05-28T14:57:46Z</time>
      </trkpt>
      <trkpt lat="59.3222059947" lon="18.0301859832">
        <ele>26</ele>
        <time>2011-05-28T14:57:52Z</time>
      </trkpt>
      <trkpt lat="59.3223344892" lon="18.0300140704">
        <ele>26</ele>
        <time>2011-05-28T14:58:00Z</time>
      </trkpt>
      <trkpt lat="59.3224774844" lon="18.0298330214">
        <ele>26.6</ele>
        <time>2011-05-28T14:58:08Z</time>
      </trkpt>
      <trkpt lat="59.3226400095" lon="18.0296213784">
        <ele>27.6</ele>
        <time>2011-05-28T14:58:16Z</time>
      </trkpt>
      <trkpt lat="59.3227616309" lon="18.0294652236">
        <ele>29</ele>
        <time>2011-05-28T14:58:23Z</time>
      </trkpt>
      <trkpt lat="59.3228987587" lon="18.0292792293">
        <ele>30.4</ele>
        <time>2011-05-28T14:58:32Z</time>
      </trkpt>
      <trkpt lat="59.3230068853" lon="18.0291212304">
        <ele>31.4</ele>
        <time>2011-05-28T14:58:38Z</time>
      </trkpt>
      <trkpt lat="59.3231420015" lon="18.0289128564">
        <ele>32.6</ele>
        <time>2011-05-28T14:58:46Z</time>
      </trkpt>
      <trkpt lat="59.3232611083" lon="18.0287707832">
        <ele>33.6</ele>
        <time>2011-05-28T14:58:52Z</time>
      </trkpt>
      <trkpt lat="59.3233692348" lon="18.0286370081">
        <ele>34</ele>
        <time>2011-05-28T14:58:58Z</time>
      </trkpt>
      <trkpt lat="59.3235151637" lon="18.0284608205">
        <ele>35.4</ele>
        <time>2011-05-28T14:59:06Z</time>
      </trkpt>
      <trkpt lat="59.3236435744" lon="18.0283074318">
        <ele>36</ele>
        <time>2011-05-28T14:59:13Z</time>
      </trkpt>
      <trkpt lat="59.3237463365" lon="18.0281769256">
        <ele>36.2</ele>
        <time>2011-05-28T14:59:19Z</time>
      </trkpt>
      <trkpt lat="59.3238505235" lon="18.0280478443">
        <ele>36.8</ele>
        <time>2011-05-28T14:59:25Z</time>
      </trkpt>
      <trkpt lat="59.3239335881" lon="18.0279457528">
        <ele>37.4</ele>
        <time>2011-05-28T14:59:29Z</time>
      </trkpt>
      <trkpt lat="59.3240988792" lon="18.0277620215">
        <ele>38.2</ele>
        <time>2011-05-28T14:59:38Z</time>
      </trkpt>
      <trkpt lat="59.3242158067" lon="18.0276359578">
        <ele>38.4</ele>
        <time>2011-05-28T14:59:45Z</time>
      </trkpt>
      <trkpt lat="59.3243761524" lon="18.0274629553">
        <ele>38.4</ele>
        <time>2011-05-28T14:59:52Z</time>
      </trkpt>
      <trkpt lat="59.324522668" lon="18.0273065491">
        <ele>38.6</ele>
        <time>2011-05-28T15:00:00Z</time>
      </trkpt>
      <trkpt lat="59.324693575" lon="18.0270918048">
        <ele>38.6</ele>
        <time>2011-05-28T15:00:08Z</time>
      </trkpt>
      <trkpt lat="59.3248286912" lon="18.0268835146">
        <ele>38.6</ele>
        <time>2011-05-28T15:00:16Z</time>
      </trkpt>
      <trkpt lat="59.3249497259" lon="18.026716631">
        <ele>38.6</ele>
        <time>2011-05-28T15:00:22Z</time>
      </trkpt>
      <trkpt lat="59.3250776336" lon="18.0265798384">
        <ele>38.6</ele>
        <time>2011-05-28T15:00:28Z</time>
      </trkpt>
      <trkpt lat="59.3252099838" lon="18.0264038185">
        <ele>38.6</ele>
        <time>2011-05-28T15:00:34Z</time>
      </trkpt>
      <trkpt lat="59.3253163502" lon="18.0262770003">
        <ele>38.6</ele>
        <time>2011-05-28T15:00:40Z</time>
      </trkpt>
      <trkpt lat="59.3254776179" lon="18.0260475877">
        <ele>38.6</ele>
        <time>2011-05-28T15:00:48Z</time>
      </trkpt>
      <trkpt lat="59.3257070305" lon="18.0257637766">
        <ele>37.4</ele>
        <time>2011-05-28T15:01:00Z</time>
      </trkpt>
      <trkpt lat="59.3258325914" lon="18.0256248047">
        <ele>37</ele>
        <time>2011-05-28T15:01:04Z</time>
      </trkpt>
      <trkpt lat="59.3259599124" lon="18.0254933765">
        <ele>36.8</ele>
        <time>2011-05-28T15:01:10Z</time>
      </trkpt>
      <trkpt lat="59.3259740779" lon="18.0254553227">
        <ele>36.6</ele>
        <time>2011-05-28T15:01:11Z</time>
      </trkpt>
      <trkpt lat="59.3261024886" lon="18.0252850025">
        <ele>36.4</ele>
        <time>2011-05-28T15:01:16Z</time>
      </trkpt>
      <trkpt lat="59.3262545362" lon="18.0250968288">
        <ele>35.4</ele>
        <time>2011-05-28T15:01:23Z</time>
      </trkpt>
      <trkpt lat="59.3264039017" lon="18.0249283526">
        <ele>34.8</ele>
        <time>2011-05-28T15:01:30Z</time>
      </trkpt>
      <trkpt lat="59.3265300493" lon="18.024803127">
        <ele>34.6</ele>
        <time>2011-05-28T15:01:34Z</time>
      </trkpt>
      <trkpt lat="59.3266710328" lon="18.0246643228">
        <ele>34.6</ele>
        <time>2011-05-28T15:01:40Z</time>
      </trkpt>
      <trkpt lat="59.3267952526" lon="18.0245434558">
        <ele>34.4</ele>
        <time>2011-05-28T15:01:47Z</time>
      </trkpt>
      <trkpt lat="59.3270964981" lon="18.0241965289">
        <ele>34.4</ele>
        <time>2011-05-28T15:02:01Z</time>
      </trkpt>
      <trkpt lat="59.3272182871" lon="18.0240476664">
        <ele>34.4</ele>
        <time>2011-05-28T15:02:06Z</time>
      </trkpt>
      <trkpt lat="59.3273625396" lon="18.0238225285">
        <ele>34.4</ele>
        <time>2011-05-28T15:02:14Z</time>
      </trkpt>
      <trkpt lat="59.3274792156" lon="18.0236385458">
        <ele>34.4</ele>
        <time>2011-05-28T15:02:20Z</time>
      </trkpt>
      <trkpt lat="59.3275982386" lon="18.023458335">
        <ele>34.4</ele>
        <time>2011-05-28T15:02:26Z</time>
      </trkpt>
      <trkpt lat="59.3277403956" lon="18.0232414952">
        <ele>33.4</ele>
        <time>2011-05-28T15:02:33Z</time>
      </trkpt>
      <trkpt lat="59.3278493603" lon="18.0230948958">
        <ele>33</ele>
        <time>2011-05-28T15:02:38Z</time>
      </trkpt>
      <trkpt lat="59.327998642" lon="18.022890126">
        <ele>32.6</ele>
        <time>2011-05-28T15:02:45Z</time>
      </trkpt>
      <trkpt lat="59.3281372786" lon="18.0227187999">
        <ele>31.6</ele>
        <time>2011-05-28T15:02:51Z</time>
      </trkpt>
      <trkpt lat="59.3282858897" lon="18.0225100068">
        <ele>30.2</ele>
        <time>2011-05-28T15:02:58Z</time>
      </trkpt>
      <trkpt lat="59.3284005541" lon="18.022319151">
        <ele>29.2</ele>
        <time>2011-05-28T15:03:05Z</time>
      </trkpt>
      <trkpt lat="59.3285271208" lon="18.0221386048">
        <ele>28.2</ele>
        <time>2011-05-28T15:03:11Z</time>
      </trkpt>
      <trkpt lat="59.3286087605" lon="18.0220614914">
        <ele>27.4</ele>
        <time>2011-05-28T15:03:15Z</time>
      </trkpt>
      <trkpt lat="59.3286947588" lon="18.0220480803">
        <ele>26.8</ele>
        <time>2011-05-28T15:03:20Z</time>
      </trkpt>
      <trkpt lat="59.3288932422" lon="18.0220638383">
        <ele>26.4</ele>
        <time>2011-05-28T15:03:26Z</time>
      </trkpt>
      <trkpt lat="59.3289084972" lon="18.0216731579">
        <ele>26.4</ele>
        <time>2011-05-28T15:03:30Z</time>
      </trkpt>
      <trkpt lat="59.3289333915" lon="18.0215134827">
        <ele>26.2</ele>
        <time>2011-05-28T15:03:32Z</time>
      </trkpt>
      <trkpt lat="59.3289620576" lon="18.0213935377">
        <ele>26.2</ele>
        <time>2011-05-28T15:03:34Z</time>
      </trkpt>
      <trkpt lat="59.3290510733" lon="18.021158174">
        <ele>26.2</ele>
        <time>2011-05-28T15:03:39Z</time>
      </trkpt>
      <trkpt lat="59.329151237" lon="18.0209479559">
        <ele>26</ele>
        <time>2011-05-28T15:03:45Z</time>
      </trkpt>
      <trkpt lat="59.3292232376" lon="18.020824742">
        <ele>26</ele>
        <time>2011-05-28T15:03:49Z</time>
      </trkpt>
      <trkpt lat="59.3292973336" lon="18.0206173738">
        <ele>26</ele>
        <time>2011-05-28T15:03:55Z</time>
      </trkpt>
      <trkpt lat="59.3293073918" lon="18.0205878695">
        <ele>26</ele>
        <time>2011-05-28T15:03:56Z</time>
      </trkpt>
      <trkpt lat="59.3294067174" lon="18.0203780706">
        <ele>26</ele>
        <time>2011-05-28T15:04:02Z</time>
      </trkpt>
      <trkpt lat="59.3295187834" lon="18.0203305452">
        <ele>26</ele>
        <time>2011-05-28T15:04:06Z</time>
      </trkpt>
      <trkpt lat="59.3296963958" lon="18.0203494045">
        <ele>26</ele>
        <time>2011-05-28T15:04:11Z</time>
      </trkpt>
      <trkpt lat="59.329817179" lon="18.0204415215">
        <ele>26</ele>
        <time>2011-05-28T15:04:16Z</time>
      </trkpt>
      <trkpt lat="59.3299555642" lon="18.0206069802">
        <ele>26</ele>
        <time>2011-05-28T15:04:22Z</time>
      </trkpt>
      <trkpt lat="59.3301050973" lon="18.0208191261">
        <ele>26</ele>
        <time>2011-05-28T15:04:28Z</time>
      </trkpt>
      <trkpt lat="59.3302765071" lon="18.0210326131">
        <ele>26</ele>
        <time>2011-05-28T15:04:36Z</time>
      </trkpt>
      <trkpt lat="59.3304159819" lon="18.0211860019">
        <ele>26</ele>
        <time>2011-05-28T15:04:41Z</time>
      </trkpt>
      <trkpt lat="59.3305693707" lon="18.0213839824">
        <ele>26</ele>
        <time>2011-05-28T15:04:47Z</time>
      </trkpt>
      <trkpt lat="59.3306047423" lon="18.0215000717">
        <ele>26</ele>
        <time>2011-05-28T15:04:49Z</time>
      </trkpt>
      <trkpt lat="59.3305945164" lon="18.021925034">
        <ele>26</ele>
        <time>2011-05-28T15:04:56Z</time>
      </trkpt>
      <trkpt lat="59.3305094401" lon="18.0222222562">
        <ele>25.2</ele>
        <time>2011-05-28T15:05:02Z</time>
      </trkpt>
      <trkpt lat="59.3304676983" lon="18.0224220807">
        <ele>24.8</ele>
        <time>2011-05-28T15:05:06Z</time>
      </trkpt>
      <trkpt lat="59.330425202" lon="18.0226499007">
        <ele>24.4</ele>
        <time>2011-05-28T15:05:11Z</time>
      </trkpt>
      <trkpt lat="59.3303568895" lon="18.0228907127">
        <ele>24.2</ele>
        <time>2011-05-28T15:05:17Z</time>
      </trkpt>
      <trkpt lat="59.3303026587" lon="18.0230277568">
        <ele>24</ele>
        <time>2011-05-28T15:05:20Z</time>
      </trkpt>
      <trkpt lat="59.3302708912" lon="18.0231126654">
        <ele>23.6</ele>
        <time>2011-05-28T15:05:22Z</time>
      </trkpt>
      <trkpt lat="59.3302178338" lon="18.0232825665">
        <ele>23</ele>
        <time>2011-05-28T15:05:26Z</time>
      </trkpt>
      <trkpt lat="59.3301388763" lon="18.0235258931">
        <ele>22.6</ele>
        <time>2011-05-28T15:05:31Z</time>
      </trkpt>
      <trkpt lat="59.3300584101" lon="18.0237955388">
        <ele>21.4</ele>
        <time>2011-05-28T15:05:37Z</time>
      </trkpt>
      <trkpt lat="59.3299833083" lon="18.0240082714">
        <ele>20.6</ele>
        <time>2011-05-28T15:05:42Z</time>
      </trkpt>
      <trkpt lat="59.3299087932" lon="18.0242592255">
        <ele>20</ele>
        <time>2011-05-28T15:05:48Z</time>
      </trkpt>
      <trkpt lat="59.3298352001" lon="18.0244974391">
        <ele>18.8</ele>
        <time>2011-05-28T15:05:54Z</time>
      </trkpt>
      <trkpt lat="59.3297767782" lon="18.0246393447">
        <ele>18.2</ele>
        <time>2011-05-28T15:05:59Z</time>
      </trkpt>
      <trkpt lat="59.3297803825" lon="18.0246794102">
        <ele>18.2</ele>
        <time>2011-05-28T15:06:00Z</time>
      </trkpt>
      <trkpt lat="59.3297823941" lon="18.0246997782">
        <ele>18</ele>
        <time>2011-05-28T15:06:01Z</time>
      </trkpt>
      <trkpt lat="59.3297507944" lon="18.0247765564">
        <ele>16.6</ele>
        <time>2011-05-28T15:06:07Z</time>
      </trkpt>
      <trkpt lat="59.3297325218" lon="18.0248255067">
        <ele>16.4</ele>
        <time>2011-05-28T15:06:10Z</time>
      </trkpt>
      <trkpt lat="59.3296798835" lon="18.0250482976">
        <ele>15.8</ele>
        <time>2011-05-28T15:06:16Z</time>
      </trkpt>
      <trkpt lat="59.3296175221" lon="18.0252698312">
        <ele>15.2</ele>
        <time>2011-05-28T15:06:21Z</time>
      </trkpt>
      <trkpt lat="59.3295704997" lon="18.0254498744">
        <ele>14.4</ele>
        <time>2011-05-28T15:06:26Z</time>
      </trkpt>
      <trkpt lat="59.3294890276" lon="18.0257237111">
        <ele>13.8</ele>
        <time>2011-05-28T15:06:33Z</time>
      </trkpt>
      <trkpt lat="59.3293987546" lon="18.0259883277">
        <ele>13.4</ele>
        <time>2011-05-28T15:06:40Z</time>
      </trkpt>
      <trkpt lat="59.3293235689" lon="18.0262547883">
        <ele>13.4</ele>
        <time>2011-05-28T15:06:47Z</time>
      </trkpt>
      <trkpt lat="59.3292208906" lon="18.0265641642">
        <ele>13.2</ele>
        <time>2011-05-28T15:06:55Z</time>
      </trkpt>
      <trkpt lat="59.3291568529" lon="18.0267567803">
        <ele>13.2</ele>
        <time>2011-05-28T15:07:00Z</time>
      </trkpt>
      <trkpt lat="59.3291112554" lon="18.026947217">
        <ele>13.2</ele>
        <time>2011-05-28T15:07:05Z</time>
      </trkpt>
      <trkpt lat="59.3290443678" lon="18.0271239075">
        <ele>13.2</ele>
        <time>2011-05-28T15:07:10Z</time>
      </trkpt>
      <trkpt lat="59.3289670029" lon="18.0273778791">
        <ele>13.2</ele>
        <time>2011-05-28T15:07:17Z</time>
      </trkpt>
      <trkpt lat="59.3288873748" lon="18.0276721676">
        <ele>13.2</ele>
        <time>2011-05-28T15:07:24Z</time>
      </trkpt>
      <trkpt lat="59.3288081659" lon="18.0279550567">
        <ele>13.2</ele>
        <time>2011-05-28T15:07:31Z</time>
      </trkpt>
      <trkpt lat="59.3287254365" lon="18.0282260435">
        <ele>13.2</ele>
        <time>2011-05-28T15:07:38Z</time>
      </trkpt>
      <trkpt lat="59.3286792523" lon="18.0284820268">
        <ele>14</ele>
        <time>2011-05-28T15:07:44Z</time>
      </trkpt>
      <trkpt lat="59.3286408632" lon="18.0287186478">
        <ele>14.6</ele>
        <time>2011-05-28T15:07:49Z</time>
      </trkpt>
      <trkpt lat="59.3285989537" lon="18.0290878705">
        <ele>15</ele>
        <time>2011-05-28T15:07:57Z</time>
      </trkpt>
      <trkpt lat="59.3285829442" lon="18.0292863539">
        <ele>15</ele>
        <time>2011-05-28T15:08:02Z</time>
      </trkpt>
      <trkpt lat="59.3285675215" lon="18.0295369727">
        <ele>15.2</ele>
        <time>2011-05-28T15:08:07Z</time>
      </trkpt>
      <trkpt lat="59.328514967" lon="18.0298840672">
        <ele>15.2</ele>
        <time>2011-05-28T15:08:14Z</time>
      </trkpt>
      <trkpt lat="59.3285157214" lon="18.0301311656">
        <ele>15.2</ele>
        <time>2011-05-28T15:08:19Z</time>
      </trkpt>
      <trkpt lat="59.3285107761" lon="18.0301813732">
        <ele>15.2</ele>
        <time>2011-05-28T15:08:20Z</time>
      </trkpt>
      <trkpt lat="59.3284826967" lon="18.0304548746">
        <ele>15.8</ele>
        <time>2011-05-28T15:08:26Z</time>
      </trkpt>
      <trkpt lat="59.3284492529" lon="18.0306341634">
        <ele>16.2</ele>
        <time>2011-05-28T15:08:30Z</time>
      </trkpt>
      <trkpt lat="59.328436261" lon="18.0307013862">
        <ele>16.4</ele>
        <time>2011-05-28T15:08:31Z</time>
      </trkpt>
      <trkpt lat="59.3284163959" lon="18.0309806711">
        <ele>16.8</ele>
        <time>2011-05-28T15:08:37Z</time>
      </trkpt>
      <trkpt lat="59.3283847123" lon="18.0311841837">
        <ele>17</ele>
        <time>2011-05-28T15:08:42Z</time>
      </trkpt>
      <trkpt lat="59.3283350914" lon="18.031410495">
        <ele>17.2</ele>
        <time>2011-05-28T15:08:47Z</time>
      </trkpt>
      <trkpt lat="59.3283152263" lon="18.0316951443">
        <ele>17.2</ele>
        <time>2011-05-28T15:08:53Z</time>
      </trkpt>
      <trkpt lat="59.3282615822" lon="18.0320042688">
        <ele>17.2</ele>
        <time>2011-05-28T15:09:00Z</time>
      </trkpt>
      <trkpt lat="59.3282104526" lon="18.0323534587">
        <ele>17.2</ele>
        <time>2011-05-28T15:09:08Z</time>
      </trkpt>
      <trkpt lat="59.328145409" lon="18.0326883994">
        <ele>18.2</ele>
        <time>2011-05-28T15:09:16Z</time>
      </trkpt>
      <trkpt lat="59.3280687985" lon="18.0330161317">
        <ele>19.2</ele>
        <time>2011-05-28T15:09:24Z</time>
      </trkpt>
      <trkpt lat="59.3280351871" lon="18.0332691813">
        <ele>20.2</ele>
        <time>2011-05-28T15:09:30Z</time>
      </trkpt>
      <trkpt lat="59.3279551399" lon="18.0335958239">
        <ele>21.6</ele>
        <time>2011-05-28T15:09:38Z</time>
      </trkpt>
      <trkpt lat="59.3279147392" lon="18.0338100653">
        <ele>22.6</ele>
        <time>2011-05-28T15:09:43Z</time>
      </trkpt>
      <trkpt lat="59.3278543057" lon="18.034090859">
        <ele>24.2</ele>
        <time>2011-05-28T15:09:50Z</time>
      </trkpt>
      <trkpt lat="59.3278202751" lon="18.0343962116">
        <ele>26.4</ele>
        <time>2011-05-28T15:09:57Z</time>
      </trkpt>
      <trkpt lat="59.3277900165" lon="18.0346692101">
        <ele>27.2</ele>
        <time>2011-05-28T15:10:03Z</time>
      </trkpt>
      <trkpt lat="59.3277626077" lon="18.0349453098">
        <ele>27.6</ele>
        <time>2011-05-28T15:10:09Z</time>
      </trkpt>
      <trkpt lat="59.3277375458" lon="18.0351694418">
        <ele>27.8</ele>
        <time>2011-05-28T15:10:14Z</time>
      </trkpt>
      <trkpt lat="59.327700414" lon="18.0354562705">
        <ele>28</ele>
        <time>2011-05-28T15:10:20Z</time>
      </trkpt>
      <trkpt lat="59.3276696524" lon="18.035667662">
        <ele>28.2</ele>
        <time>2011-05-28T15:10:24Z</time>
      </trkpt>
      <trkpt lat="59.3276217918" lon="18.0358898662">
        <ele>28.2</ele>
        <time>2011-05-28T15:10:29Z</time>
      </trkpt>
      <trkpt lat="59.3275915331" lon="18.0361024311">
        <ele>28.2</ele>
        <time>2011-05-28T15:10:34Z</time>
      </trkpt>
      <trkpt lat="59.3275498751" lon="18.0363189356">
        <ele>28.2</ele>
        <time>2011-05-28T15:10:39Z</time>
      </trkpt>
      <trkpt lat="59.3274968176" lon="18.0366302394">
        <ele>28.2</ele>
        <time>2011-05-28T15:10:46Z</time>
      </trkpt>
      <trkpt lat="59.3274601887" lon="18.0368738174">
        <ele>28.2</ele>
        <time>2011-05-28T15:10:51Z</time>
      </trkpt>
      <trkpt lat="59.327443844" lon="18.0371081753">
        <ele>28.2</ele>
        <time>2011-05-28T15:10:56Z</time>
      </trkpt>
      <trkpt lat="59.3274117413" lon="18.0373401025">
        <ele>28.2</ele>
        <time>2011-05-28T15:11:01Z</time>
      </trkpt>
      <trkpt lat="59.3274015154" lon="18.0373841075">
        <ele>28.2</ele>
        <time>2011-05-28T15:11:02Z</time>
      </trkpt>
      <trkpt lat="59.3273852545" lon="18.0376756299">
        <ele>28.2</ele>
        <time>2011-05-28T15:11:09Z</time>
      </trkpt>
      <trkpt lat="59.3273704186" lon="18.0379829942">
        <ele>28.2</ele>
        <time>2011-05-28T15:11:16Z</time>
      </trkpt>
      <trkpt lat="59.3273699157" lon="18.0382043602">
        <ele>28.2</ele>
        <time>2011-05-28T15:11:21Z</time>
      </trkpt>
      <trkpt lat="59.3273636292" lon="18.0384696473">
        <ele>27.4</ele>
        <time>2011-05-28T15:11:27Z</time>
      </trkpt>
      <trkpt lat="59.3273222226" lon="18.0387621756">
        <ele>26.8</ele>
        <time>2011-05-28T15:11:33Z</time>
      </trkpt>
      <trkpt lat="59.3272728533" lon="18.0390117048">
        <ele>26.6</ele>
        <time>2011-05-28T15:11:39Z</time>
      </trkpt>
      <trkpt lat="59.3272538263" lon="18.0390801849">
        <ele>26.4</ele>
        <time>2011-05-28T15:11:41Z</time>
      </trkpt>
      <trkpt lat="59.3272273395" lon="18.0393800893">
        <ele>25.8</ele>
        <time>2011-05-28T15:11:48Z</time>
      </trkpt>
      <trkpt lat="59.3271634695" lon="18.0396975957">
        <ele>25</ele>
        <time>2011-05-28T15:11:54Z</time>
      </trkpt>
      <trkpt lat="59.3271070593" lon="18.0400540779">
        <ele>24.6</ele>
        <time>2011-05-28T15:12:00Z</time>
      </trkpt>
      <trkpt lat="59.3270716877" lon="18.0403231369">
        <ele>24.4</ele>
        <time>2011-05-28T15:12:05Z</time>
      </trkpt>
      <trkpt lat="59.3270472125" lon="18.0405937884">
        <ele>23.4</ele>
        <time>2011-05-28T15:12:10Z</time>
      </trkpt>
      <trkpt lat="59.3269755473" lon="18.0408569801">
        <ele>22.8</ele>
        <time>2011-05-28T15:12:15Z</time>
      </trkpt>
      <trkpt lat="59.3269111743" lon="18.0411280507">
        <ele>22.4</ele>
        <time>2011-05-28T15:12:21Z</time>
      </trkpt>
      <trkpt lat="59.326907151" lon="18.0411594829">
        <ele>22.4</ele>
        <time>2011-05-28T15:12:22Z</time>
      </trkpt>
      <trkpt lat="59.3268416883" lon="18.0413709582">
        <ele>21.4</ele>
        <time>2011-05-28T15:12:26Z</time>
      </trkpt>
      <trkpt lat="59.3268343122" lon="18.0414344092">
        <ele>21.4</ele>
        <time>2011-05-28T15:12:27Z</time>
      </trkpt>
      <trkpt lat="59.3268384194" lon="18.0417071562">
        <ele>20.8</ele>
        <time>2011-05-28T15:12:32Z</time>
      </trkpt>
      <trkpt lat="59.3268650738" lon="18.0420163645">
        <ele>19.6</ele>
        <time>2011-05-28T15:12:38Z</time>
      </trkpt>
      <trkpt lat="59.326871025" lon="18.042067075">
        <ele>19.2</ele>
        <time>2011-05-28T15:12:40Z</time>
      </trkpt>
      <trkpt lat="59.3268269362" lon="18.042051317">
        <ele>17.6</ele>
        <time>2011-05-28T15:12:55Z</time>
      </trkpt>
      <trkpt lat="59.3268381679" lon="18.0421663167">
        <ele>17</ele>
        <time>2011-05-28T15:12:58Z</time>
      </trkpt>
      <trkpt lat="59.3268403472" lon="18.0426279079">
        <ele>16.2</ele>
        <time>2011-05-28T15:13:06Z</time>
      </trkpt>
      <trkpt lat="59.3268538421" lon="18.0427298318">
        <ele>16.2</ele>
        <time>2011-05-28T15:13:08Z</time>
      </trkpt>
      <trkpt lat="59.3268354857" lon="18.0429985555">
        <ele>16</ele>
        <time>2011-05-28T15:13:14Z</time>
      </trkpt>
      <trkpt lat="59.3268266009" lon="18.0432324944">
        <ele>15.8</ele>
        <time>2011-05-28T15:13:19Z</time>
      </trkpt>
      <trkpt lat="59.3268266009" lon="18.0435899824">
        <ele>15.8</ele>
        <time>2011-05-28T15:13:27Z</time>
      </trkpt>
      <trkpt lat="59.3268348152" lon="18.0438588738">
        <ele>15.6</ele>
        <time>2011-05-28T15:13:33Z</time>
      </trkpt>
      <trkpt lat="59.3268198954" lon="18.0441781403">
        <ele>15.6</ele>
        <time>2011-05-28T15:13:40Z</time>
      </trkpt>
      <trkpt lat="59.3267976833" lon="18.0442777173">
        <ele>15.6</ele>
        <time>2011-05-28T15:13:42Z</time>
      </trkpt>
      <trkpt lat="59.3267713642" lon="18.0445184455">
        <ele>15.6</ele>
        <time>2011-05-28T15:13:47Z</time>
      </trkpt>
      <trkpt lat="59.3267596295" lon="18.0446511309">
        <ele>15.6</ele>
        <time>2011-05-28T15:13:50Z</time>
      </trkpt>
      <trkpt lat="59.3267767286" lon="18.0447854928">
        <ele>15.6</ele>
        <time>2011-05-28T15:13:55Z</time>
      </trkpt>
      <trkpt lat="59.3267767286" lon="18.0448025919">
        <ele>15.6</ele>
        <time>2011-05-28T15:13:56Z</time>
      </trkpt>
      <trkpt lat="59.3267877927" lon="18.0450340161">
        <ele>15.6</ele>
        <time>2011-05-28T15:14:04Z</time>
      </trkpt>
      <trkpt lat="59.3267977672" lon="18.045325371">
        <ele>15.6</ele>
        <time>2011-05-28T15:14:09Z</time>
      </trkpt>
      <trkpt lat="59.3268245892" lon="18.0456609823">
        <ele>15.6</ele>
        <time>2011-05-28T15:14:15Z</time>
      </trkpt>
      <trkpt lat="59.3268412692" lon="18.0459270238">
        <ele>15.6</ele>
        <time>2011-05-28T15:14:21Z</time>
      </trkpt>
      <trkpt lat="59.326854345" lon="18.0462964979">
        <ele>14.6</ele>
        <time>2011-05-28T15:14:29Z</time>
      </trkpt>
      <trkpt lat="59.3268621402" lon="18.0466628708">
        <ele>14</ele>
        <time>2011-05-28T15:14:37Z</time>
      </trkpt>
      <trkpt lat="59.3268706897" lon="18.0469685587">
        <ele>13.8</ele>
        <time>2011-05-28T15:14:44Z</time>
      </trkpt>
      <trkpt lat="59.3268909739" lon="18.0472793595">
        <ele>13.6</ele>
        <time>2011-05-28T15:14:51Z</time>
      </trkpt>
      <trkpt lat="59.3269141918" lon="18.0476354226">
        <ele>13.6</ele>
        <time>2011-05-28T15:14:59Z</time>
      </trkpt>
      <trkpt lat="59.3269260102" lon="18.0478194053">
        <ele>13.6</ele>
        <time>2011-05-28T15:15:03Z</time>
      </trkpt>
      <trkpt lat="59.3269229089" lon="18.0480970139">
        <ele>13.6</ele>
        <time>2011-05-28T15:15:09Z</time>
      </trkpt>
      <trkpt lat="59.3269300335" lon="18.0484074794">
        <ele>13.6</ele>
        <time>2011-05-28T15:15:16Z</time>
      </trkpt>
      <trkpt lat="59.3269411815" lon="18.0487226389">
        <ele>13.6</ele>
        <time>2011-05-28T15:15:23Z</time>
      </trkpt>
      <trkpt lat="59.3269433608" lon="18.0489959726">
        <ele>13.6</ele>
        <time>2011-05-28T15:15:29Z</time>
      </trkpt>
      <trkpt lat="59.3269620524" lon="18.0493343499">
        <ele>13.6</ele>
        <time>2011-05-28T15:15:36Z</time>
      </trkpt>
      <trkpt lat="59.3269745414" lon="18.0495614156">
        <ele>13.6</ele>
        <time>2011-05-28T15:15:41Z</time>
      </trkpt>
      <trkpt lat="59.3269911376" lon="18.0498411196">
        <ele>13.8</ele>
        <time>2011-05-28T15:15:47Z</time>
      </trkpt>
      <trkpt lat="59.3270094101" lon="18.0501639904">
        <ele>14.8</ele>
        <time>2011-05-28T15:15:54Z</time>
      </trkpt>
      <trkpt lat="59.3270410099" lon="18.0504721929">
        <ele>15.2</ele>
        <time>2011-05-28T15:16:01Z</time>
      </trkpt>
      <trkpt lat="59.3270589472" lon="18.050713843">
        <ele>15.4</ele>
        <time>2011-05-28T15:16:07Z</time>
      </trkpt>
      <trkpt lat="59.3270934806" lon="18.0510479456">
        <ele>15.4</ele>
        <time>2011-05-28T15:16:15Z</time>
      </trkpt>
      <trkpt lat="59.3271348872" lon="18.0512724967">
        <ele>15.6</ele>
        <time>2011-05-28T15:16:20Z</time>
      </trkpt>
      <trkpt lat="59.3271515672" lon="18.0515272226">
        <ele>15.6</ele>
        <time>2011-05-28T15:16:26Z</time>
      </trkpt>
      <trkpt lat="59.3271917165" lon="18.0517021529">
        <ele>15.6</ele>
        <time>2011-05-28T15:16:32Z</time>
      </trkpt>
      <trkpt lat="59.3271653135" lon="18.0517241973">
        <ele>15.8</ele>
        <time>2011-05-28T15:16:38Z</time>
      </trkpt>
      <trkpt lat="59.3271494717" lon="18.0518297254">
        <ele>16.8</ele>
        <time>2011-05-28T15:16:46Z</time>
      </trkpt>
      <trkpt lat="59.3271493879" lon="18.0519332418">
        <ele>17</ele>
        <time>2011-05-28T15:16:48Z</time>
      </trkpt>
      <trkpt lat="59.3271356416" lon="18.0520131214">
        <ele>17.2</ele>
        <time>2011-05-28T15:16:52Z</time>
      </trkpt>
      <trkpt lat="59.3271203027" lon="18.0520331541">
        <ele>17.4</ele>
        <time>2011-05-28T15:16:54Z</time>
      </trkpt>
      <trkpt lat="59.3271092386" lon="18.0521741377">
        <ele>17.6</ele>
        <time>2011-05-28T15:17:02Z</time>
      </trkpt>
      <trkpt lat="59.3271281817" lon="18.0524860282">
        <ele>17.6</ele>
        <time>2011-05-28T15:17:09Z</time>
      </trkpt>
      <trkpt lat="59.3271927223" lon="18.0527726053">
        <ele>17.6</ele>
        <time>2011-05-28T15:17:15Z</time>
      </trkpt>
      <trkpt lat="59.3272767089" lon="18.0530378924">
        <ele>17.6</ele>
        <time>2011-05-28T15:17:21Z</time>
      </trkpt>
      <trkpt lat="59.3273839134" lon="18.0530947217">
        <ele>17.6</ele>
        <time>2011-05-28T15:17:26Z</time>
      </trkpt>
      <trkpt lat="59.327528585" lon="18.053118191">
        <ele>17.6</ele>
        <time>2011-05-28T15:17:32Z</time>
      </trkpt>
      <trkpt lat="59.3276542297" lon="18.0530847473">
        <ele>17.6</ele>
        <time>2011-05-28T15:17:38Z</time>
      </trkpt>
      <trkpt lat="59.3277801258" lon="18.0530909499">
        <ele>17.6</ele>
        <time>2011-05-28T15:17:43Z</time>
      </trkpt>
      <trkpt lat="59.3277989013" lon="18.0531082166">
        <ele>17.6</ele>
        <time>2011-05-28T15:17:44Z</time>
      </trkpt>
      <trkpt lat="59.327878697" lon="18.0532366273">
        <ele>17.8</ele>
        <time>2011-05-28T15:17:49Z</time>
      </trkpt>
      <trkpt lat="59.3279187625" lon="18.0533335221">
        <ele>18.4</ele>
        <time>2011-05-28T15:17:52Z</time>
      </trkpt>
      <trkpt lat="59.327970395" lon="18.0536026649">
        <ele>19.2</ele>
        <time>2011-05-28T15:17:59Z</time>
      </trkpt>
      <trkpt lat="59.328012975" lon="18.0537905871">
        <ele>19.4</ele>
        <time>2011-05-28T15:18:04Z</time>
      </trkpt>
      <trkpt lat="59.3280629312" lon="18.0540320696">
        <ele>20.4</ele>
        <time>2011-05-28T15:18:09Z</time>
      </trkpt>
      <trkpt lat="59.3280857299" lon="18.0542880528">
        <ele>21.6</ele>
        <time>2011-05-28T15:18:15Z</time>
      </trkpt>
      <trkpt lat="59.3281112947" lon="18.0545717801">
        <ele>22.8</ele>
        <time>2011-05-28T15:18:22Z</time>
      </trkpt>
      <trkpt lat="59.328118587" lon="18.0548480476">
        <ele>23.4</ele>
        <time>2011-05-28T15:18:28Z</time>
      </trkpt>
      <trkpt lat="59.3281405475" lon="18.0551093114">
        <ele>23.6</ele>
        <time>2011-05-28T15:18:34Z</time>
      </trkpt>
      <trkpt lat="59.3281484265" lon="18.0554292485">
        <ele>24</ele>
        <time>2011-05-28T15:18:41Z</time>
      </trkpt>
      <trkpt lat="59.3281641007" lon="18.0557797796">
        <ele>25.2</ele>
        <time>2011-05-28T15:18:49Z</time>
      </trkpt>
      <trkpt lat="59.328191761" lon="18.0560165683">
        <ele>25.6</ele>
        <time>2011-05-28T15:18:55Z</time>
      </trkpt>
      <trkpt lat="59.3282114584" lon="18.0562702045">
        <ele>25.8</ele>
        <time>2011-05-28T15:19:01Z</time>
      </trkpt>
      <trkpt lat="59.3282453213" lon="18.0565434545">
        <ele>25.8</ele>
        <time>2011-05-28T15:19:07Z</time>
      </trkpt>
      <trkpt lat="59.3282742388" lon="18.0567595399">
        <ele>26</ele>
        <time>2011-05-28T15:19:12Z</time>
      </trkpt>
      <trkpt lat="59.3283124603" lon="18.0570638028">
        <ele>25.2</ele>
        <time>2011-05-28T15:19:19Z</time>
      </trkpt>
      <trkpt lat="59.3283589799" lon="18.0573780403">
        <ele>24.6</ele>
        <time>2011-05-28T15:19:26Z</time>
      </trkpt>
      <trkpt lat="59.3283951897" lon="18.0576797887">
        <ele>24.2</ele>
        <time>2011-05-28T15:19:33Z</time>
      </trkpt>
      <trkpt lat="59.3283993806" lon="18.0580356003">
        <ele>24.2</ele>
        <time>2011-05-28T15:19:41Z</time>
      </trkpt>
      <trkpt lat="59.3283827006" lon="18.0584208324">
        <ele>23.4</ele>
        <time>2011-05-28T15:19:49Z</time>
      </trkpt>
      <trkpt lat="59.3283272125" lon="18.0588087468">
        <ele>22.6</ele>
        <time>2011-05-28T15:19:57Z</time>
      </trkpt>
      <trkpt lat="59.3283054195" lon="18.059093899">
        <ele>21.8</ele>
        <time>2011-05-28T15:20:03Z</time>
      </trkpt>
      <trkpt lat="59.3282843809" lon="18.0593474515">
        <ele>20.8</ele>
        <time>2011-05-28T15:20:09Z</time>
      </trkpt>
      <trkpt lat="59.3282647673" lon="18.0594824001">
        <ele>20.6</ele>
        <time>2011-05-28T15:20:13Z</time>
      </trkpt>
      <trkpt lat="59.3282722272" lon="18.0596986531">
        <ele>20.2</ele>
        <time>2011-05-28T15:20:17Z</time>
      </trkpt>
      <trkpt lat="59.3283977881" lon="18.0609996078">
        <ele>18.8</ele>
        <time>2011-05-28T15:20:36Z</time>
      </trkpt>
      <trkpt lat="59.3284196648" lon="18.0609437005">
        <ele>18.6</ele>
        <time>2011-05-28T15:20:37Z</time>
      </trkpt>
      <trkpt lat="59.3284606523" lon="18.0608566964">
        <ele>18.4</ele>
        <time>2011-05-28T15:20:39Z</time>
      </trkpt>
      <trkpt lat="59.3284777514" lon="18.0608679282">
        <ele>18.4</ele>
        <time>2011-05-28T15:20:40Z</time>
      </trkpt>
      <trkpt lat="59.3285421244" lon="18.0608965104">
        <ele>18.2</ele>
        <time>2011-05-28T15:20:46Z</time>
      </trkpt>
      <trkpt lat="59.3286031446" lon="18.0609110949">
        <ele>18</ele>
        <time>2011-05-28T15:20:49Z</time>
      </trkpt>
      <trkpt lat="59.3287483191" lon="18.0608895535">
        <ele>17.8</ele>
        <time>2011-05-28T15:20:56Z</time>
      </trkpt>
      <trkpt lat="59.3289349002" lon="18.0607719554">
        <ele>17.8</ele>
        <time>2011-05-28T15:21:05Z</time>
      </trkpt>
      <trkpt lat="59.3290875346" lon="18.0606439638">
        <ele>17.8</ele>
        <time>2011-05-28T15:21:12Z</time>
      </trkpt>
      <trkpt lat="59.3291822501" lon="18.0605491645">
        <ele>17</ele>
        <time>2011-05-28T15:21:17Z</time>
      </trkpt>
      <trkpt lat="59.3292020314" lon="18.0605386871">
        <ele>16.8</ele>
        <time>2011-05-28T15:21:18Z</time>
      </trkpt>
      <trkpt lat="59.3292247463" lon="18.0605287965">
        <ele>16.8</ele>
        <time>2011-05-28T15:21:19Z</time>
      </trkpt>
      <trkpt lat="59.3293196294" lon="18.0604247771">
        <ele>16.4</ele>
        <time>2011-05-28T15:21:23Z</time>
      </trkpt>
      <trkpt lat="59.3293471221" lon="18.0604020621">
        <ele>16.4</ele>
        <time>2011-05-28T15:21:24Z</time>
      </trkpt>
      <trkpt lat="59.329442089" lon="18.0602998868">
        <ele>16.2</ele>
        <time>2011-05-28T15:21:29Z</time>
      </trkpt>
      <trkpt lat="59.3294558353" lon="18.0602867272">
        <ele>16</ele>
        <time>2011-05-28T15:21:30Z</time>
      </trkpt>
      <trkpt lat="59.3294957331" lon="18.0602477514">
        <ele>16</ele>
        <time>2011-05-28T15:21:34Z</time>
      </trkpt>
      <trkpt lat="59.3295964836" lon="18.0602015671">
        <ele>15.8</ele>
        <time>2011-05-28T15:21:40Z</time>
      </trkpt>
      <trkpt lat="59.3297089687" lon="18.0600565602">
        <ele>15.8</ele>
        <time>2011-05-28T15:21:46Z</time>
      </trkpt>
      <trkpt lat="59.3298206156" lon="18.0598975556">
        <ele>15.8</ele>
        <time>2011-05-28T15:21:52Z</time>
      </trkpt>
      <trkpt lat="59.3299025067" lon="18.059784819">
        <ele>15.8</ele>
        <time>2011-05-28T15:21:57Z</time>
      </trkpt>
      <trkpt lat="59.3299223718" lon="18.0597528002">
        <ele>15.8</ele>
        <time>2011-05-28T15:21:58Z</time>
      </trkpt>
      <trkpt lat="59.3299800393" lon="18.0597133214">
        <ele>15.8</ele>
        <time>2011-05-28T15:22:01Z</time>
      </trkpt>
      <trkpt lat="59.3300154948" lon="18.0597333542">
        <ele>15.8</ele>
        <time>2011-05-28T15:22:04Z</time>
      </trkpt>
      <trkpt lat="59.3300986432" lon="18.0597339409">
        <ele>15.8</ele>
        <time>2011-05-28T15:22:11Z</time>
      </trkpt>
      <trkpt lat="59.3301907603" lon="18.0596508763">
        <ele>15.8</ele>
        <time>2011-05-28T15:22:15Z</time>
      </trkpt>
      <trkpt lat="59.3302970428" lon="18.059571835">
        <ele>15.8</ele>
        <time>2011-05-28T15:22:20Z</time>
      </trkpt>
      <trkpt lat="59.3303929317" lon="18.0594745211">
        <ele>15.8</ele>
        <time>2011-05-28T15:22:25Z</time>
      </trkpt>
      <trkpt lat="59.3304846297" lon="18.059393971">
        <ele>15.8</ele>
        <time>2011-05-28T15:22:30Z</time>
      </trkpt>
      <trkpt lat="59.33056694" lon="18.0592884429">
        <ele>15.8</ele>
        <time>2011-05-28T15:22:35Z</time>
      </trkpt>
      <trkpt lat="59.3305847096" lon="18.0592680749">
        <ele>15.8</ele>
        <time>2011-05-28T15:22:36Z</time>
      </trkpt>
      <trkpt lat="59.3306684448" lon="18.0591699228">
        <ele>15.8</ele>
        <time>2011-05-28T15:22:41Z</time>
      </trkpt>
      <trkpt lat="59.3307351647" lon="18.0591239062">
        <ele>15.8</ele>
        <time>2011-05-28T15:22:44Z</time>
      </trkpt>
      <trkpt lat="59.3308741366" lon="18.058947551">
        <ele>16.6</ele>
        <time>2011-05-28T15:22:52Z</time>
      </trkpt>
      <trkpt lat="59.3310096719" lon="18.0588003649">
        <ele>17.2</ele>
        <time>2011-05-28T15:22:59Z</time>
      </trkpt>
      <trkpt lat="59.3311841831" lon="18.0586089223">
        <ele>17.6</ele>
        <time>2011-05-28T15:23:07Z</time>
      </trkpt>
      <trkpt lat="59.3313049663" lon="18.0585499975">
        <ele>17.8</ele>
        <time>2011-05-28T15:23:11Z</time>
      </trkpt>
      <trkpt lat="59.3314404178" lon="18.0585914041">
        <ele>17.8</ele>
        <time>2011-05-28T15:23:15Z</time>
      </trkpt>
      <trkpt lat="59.3315674035" lon="18.0585832737">
        <ele>17.8</ele>
        <time>2011-05-28T15:23:20Z</time>
      </trkpt>
      <trkpt lat="59.3317015139" lon="18.058546058">
        <ele>17.8</ele>
        <time>2011-05-28T15:23:26Z</time>
      </trkpt>
      <trkpt lat="59.3317905297" lon="18.0584888097">
        <ele>17.6</ele>
        <time>2011-05-28T15:23:30Z</time>
      </trkpt>
      <trkpt lat="59.331902009" lon="18.0583660148">
        <ele>16.8</ele>
        <time>2011-05-28T15:23:36Z</time>
      </trkpt>
      <trkpt lat="59.3320670486" lon="18.0582605705">
        <ele>16.2</ele>
        <time>2011-05-28T15:23:43Z</time>
      </trkpt>
      <trkpt lat="59.3322170008" lon="18.0581713871">
        <ele>15</ele>
        <time>2011-05-28T15:23:50Z</time>
      </trkpt>
      <trkpt lat="59.332341472" lon="18.0581180782">
        <ele>13.6</ele>
        <time>2011-05-28T15:23:56Z</time>
      </trkpt>
      <trkpt lat="59.3323997262" lon="18.0580509392">
        <ele>12.4</ele>
        <time>2011-05-28T15:24:00Z</time>
      </trkpt>
      <trkpt lat="59.3324315774" lon="18.0578572335">
        <ele>11.4</ele>
        <time>2011-05-28T15:24:05Z</time>
      </trkpt>
      <trkpt lat="59.3323907576" lon="18.0576237138">
        <ele>10.8</ele>
        <time>2011-05-28T15:24:09Z</time>
      </trkpt>
      <trkpt lat="59.3323744129" lon="18.0575667168">
        <ele>10.8</ele>
        <time>2011-05-28T15:24:10Z</time>
      </trkpt>
      <trkpt lat="59.3323142308" lon="18.0573228874">
        <ele>11.4</ele>
        <time>2011-05-28T15:24:14Z</time>
      </trkpt>
      <trkpt lat="59.3323057651" lon="18.0572651361">
        <ele>11.6</ele>
        <time>2011-05-28T15:24:15Z</time>
      </trkpt>
      <trkpt lat="59.3322527915" lon="18.0569977535">
        <ele>14.2</ele>
        <time>2011-05-28T15:24:20Z</time>
      </trkpt>
      <trkpt lat="59.3322406377" lon="18.0569410918">
        <ele>14.6</ele>
        <time>2011-05-28T15:24:21Z</time>
      </trkpt>
      <trkpt lat="59.3322113011" lon="18.0566832646">
        <ele>18.4</ele>
        <time>2011-05-28T15:24:26Z</time>
      </trkpt>
      <trkpt lat="59.3322213594" lon="18.0565609727">
        <ele>21</ele>
        <time>2011-05-28T15:24:29Z</time>
      </trkpt>
      <trkpt lat="59.3322207726" lon="18.0565253496">
        <ele>21.8</ele>
        <time>2011-05-28T15:24:30Z</time>
      </trkpt>
      <trkpt lat="59.3322258856" lon="18.0564682688">
        <ele>23.8</ele>
        <time>2011-05-28T15:24:32Z</time>
      </trkpt>
      <trkpt lat="59.3322959583" lon="18.0563919936">
        <ele>27.4</ele>
        <time>2011-05-28T15:24:36Z</time>
      </trkpt>
      <trkpt lat="59.3323838844" lon="18.0563108568">
        <ele>31</ele>
        <time>2011-05-28T15:24:40Z</time>
      </trkpt>
      <trkpt lat="59.3324591539" lon="18.056225529">
        <ele>33.4</ele>
        <time>2011-05-28T15:24:43Z</time>
      </trkpt>
      <trkpt lat="59.3325366865" lon="18.0561308974">
        <ele>36.8</ele>
        <time>2011-05-28T15:24:47Z</time>
      </trkpt>
      <trkpt lat="59.332550349" lon="18.0561014769">
        <ele>37.4</ele>
        <time>2011-05-28T15:24:48Z</time>
      </trkpt>
      <trkpt lat="59.3326249479" lon="18.0559900814">
        <ele>41</ele>
        <time>2011-05-28T15:24:53Z</time>
      </trkpt>
      <trkpt lat="59.3326803522" lon="18.0559365211">
        <ele>43.8</ele>
        <time>2011-05-28T15:24:57Z</time>
      </trkpt>
      <trkpt lat="59.3327236028" lon="18.0559002275">
        <ele>45</ele>
        <time>2011-05-28T15:24:59Z</time>
      </trkpt>
      <trkpt lat="59.3328780812" lon="18.0557713977">
        <ele>48</ele>
        <time>2011-05-28T15:25:05Z</time>
      </trkpt>
      <trkpt lat="59.3330456354" lon="18.0556301627">
        <ele>49.8</ele>
        <time>2011-05-28T15:25:12Z</time>
      </trkpt>
      <trkpt lat="59.3331411891" lon="18.0555128161">
        <ele>50.4</ele>
        <time>2011-05-28T15:25:17Z</time>
      </trkpt>
      <trkpt lat="59.3331996109" lon="18.0554235488">
        <ele>50.8</ele>
        <time>2011-05-28T15:25:21Z</time>
      </trkpt>
      <trkpt lat="59.3332152013" lon="18.0553443399">
        <ele>50.6</ele>
        <time>2011-05-28T15:25:23Z</time>
      </trkpt>
      <trkpt lat="59.3333214838" lon="18.0552130793">
        <ele>50</ele>
        <time>2011-05-28T15:25:28Z</time>
      </trkpt>
      <trkpt lat="59.3333484735" lon="18.0552226347">
        <ele>49.6</ele>
        <time>2011-05-28T15:25:29Z</time>
      </trkpt>
      <trkpt lat="59.3335110823" lon="18.0548711816">
        <ele>47.4</ele>
        <time>2011-05-28T15:25:37Z</time>
      </trkpt>
      <trkpt lat="59.3336158561" lon="18.0547412622">
        <ele>46</ele>
        <time>2011-05-28T15:25:41Z</time>
      </trkpt>
      <trkpt lat="59.3337360525" lon="18.0546289447">
        <ele>43.8</ele>
        <time>2011-05-28T15:25:46Z</time>
      </trkpt>
      <trkpt lat="59.3338287563" lon="18.0545731213">
        <ele>41.8</ele>
        <time>2011-05-28T15:25:50Z</time>
      </trkpt>
      <trkpt lat="59.3340079614" lon="18.0544752207">
        <ele>37.6</ele>
        <time>2011-05-28T15:25:57Z</time>
      </trkpt>
      <trkpt lat="59.3341149982" lon="18.0544266056">
        <ele>34.4</ele>
        <time>2011-05-28T15:26:02Z</time>
      </trkpt>
      <trkpt lat="59.3342694766" lon="18.0543021344">
        <ele>30</ele>
        <time>2011-05-28T15:26:09Z</time>
      </trkpt>
      <trkpt lat="59.3343116376" lon="18.0542630748">
        <ele>28.8</ele>
        <time>2011-05-28T15:26:11Z</time>
      </trkpt>
      <trkpt lat="59.3343930259" lon="18.0541185708">
        <ele>26</ele>
        <time>2011-05-28T15:26:16Z</time>
      </trkpt>
      <trkpt lat="59.3344043414" lon="18.0540873901">
        <ele>24.8</ele>
        <time>2011-05-28T15:26:19Z</time>
      </trkpt>
      <trkpt lat="59.3344682953" lon="18.0541181517">
        <ele>23.4</ele>
        <time>2011-05-28T15:26:24Z</time>
      </trkpt>
      <trkpt lat="59.3345195925" lon="18.0542506696">
        <ele>22.6</ele>
        <time>2011-05-28T15:26:29Z</time>
      </trkpt>
      <trkpt lat="59.334528645" lon="18.0542681039">
        <ele>22.4</ele>
        <time>2011-05-28T15:26:30Z</time>
      </trkpt>
      <trkpt lat="59.3345314948" lon="18.0542785813">
        <ele>22.4</ele>
        <time>2011-05-28T15:26:31Z</time>
      </trkpt>
      <trkpt lat="59.3345905034" lon="18.0542837781">
        <ele>22</ele>
        <time>2011-05-28T15:26:36Z</time>
      </trkpt>
      <trkpt lat="59.3346577263" lon="18.0542735521">
        <ele>22.6</ele>
        <time>2011-05-28T15:26:41Z</time>
      </trkpt>
      <trkpt lat="59.3347515197" lon="18.0542534356">
        <ele>23.2</ele>
        <time>2011-05-28T15:26:45Z</time>
      </trkpt>
      <trkpt lat="59.3347686188" lon="18.0541723826">
        <ele>24.2</ele>
        <time>2011-05-28T15:26:49Z</time>
      </trkpt>
      <trkpt lat="59.3347795153" lon="18.0541262822">
        <ele>25</ele>
        <time>2011-05-28T15:26:51Z</time>
      </trkpt>
      <trkpt lat="59.3347863884" lon="18.0541065009">
        <ele>25.6</ele>
        <time>2011-05-28T15:26:52Z</time>
      </trkpt>
      <trkpt lat="59.3348576346" lon="18.053940204">
        <ele>27</ele>
        <time>2011-05-28T15:26:57Z</time>
      </trkpt>
      <trkpt lat="59.3350475684" lon="18.0536316662">
        <ele>28.4</ele>
        <time>2011-05-28T15:27:03Z</time>
      </trkpt>
      <trkpt lat="59.3351007097" lon="18.0535089552">
        <ele>28.8</ele>
        <time>2011-05-28T15:27:05Z</time>
      </trkpt>
      <trkpt lat="59.3352062378" lon="18.0530662233">
        <ele>28.6</ele>
        <time>2011-05-28T15:27:11Z</time>
      </trkpt>
      <trkpt lat="59.3352245941" lon="18.0530076338">
        <ele>28.2</ele>
        <time>2011-05-28T15:27:12Z</time>
      </trkpt>
      <trkpt lat="59.3353198125" lon="18.0526932287">
        <ele>26.6</ele>
        <time>2011-05-28T15:27:17Z</time>
      </trkpt>
      <trkpt lat="59.3354073196" lon="18.0523275264">
        <ele>24.8</ele>
        <time>2011-05-28T15:27:23Z</time>
      </trkpt>
      <trkpt lat="59.3354732851" lon="18.0521238463">
        <ele>23.4</ele>
        <time>2011-05-28T15:27:27Z</time>
      </trkpt>
      <trkpt lat="59.3355294439" lon="18.0519128738">
        <ele>22.6</ele>
        <time>2011-05-28T15:27:31Z</time>
      </trkpt>
      <trkpt lat="59.3355356465" lon="18.0516863949">
        <ele>22.8</ele>
        <time>2011-05-28T15:27:35Z</time>
      </trkpt>
      <trkpt lat="59.3355551763" lon="18.0516119636">
        <ele>22.8</ele>
        <time>2011-05-28T15:27:37Z</time>
      </trkpt>
      <trkpt lat="59.3355819145" lon="18.0515357721">
        <ele>22.8</ele>
        <time>2011-05-28T15:27:39Z</time>
      </trkpt>
      <trkpt lat="59.3356539989" lon="18.051339971">
        <ele>23.8</ele>
        <time>2011-05-28T15:27:44Z</time>
      </trkpt>
      <trkpt lat="59.3356940644" lon="18.0512263124">
        <ele>24.2</ele>
        <time>2011-05-28T15:27:47Z</time>
      </trkpt>
      <trkpt lat="59.3357478762" lon="18.0509795493">
        <ele>25.2</ele>
        <time>2011-05-28T15:27:53Z</time>
      </trkpt>
      <trkpt lat="59.3358409153" lon="18.0506592769">
        <ele>26.2</ele>
        <time>2011-05-28T15:27:59Z</time>
      </trkpt>
      <trkpt lat="59.3358862613" lon="18.0504750427">
        <ele>26.6</ele>
        <time>2011-05-28T15:28:03Z</time>
      </trkpt>
      <trkpt lat="59.3359038633" lon="18.0504326303">
        <ele>27.6</ele>
        <time>2011-05-28T15:28:09Z</time>
      </trkpt>
      <trkpt lat="59.3359075514" lon="18.0504202251">
        <ele>28.2</ele>
        <time>2011-05-28T15:28:12Z</time>
      </trkpt>
      <trkpt lat="59.3359686554" lon="18.0502834325">
        <ele>28.6</ele>
        <time>2011-05-28T15:28:16Z</time>
      </trkpt>
      <trkpt lat="59.3360005066" lon="18.050172959">
        <ele>29</ele>
        <time>2011-05-28T15:28:18Z</time>
      </trkpt>
      <trkpt lat="59.3361033525" lon="18.0498465678">
        <ele>30.2</ele>
        <time>2011-05-28T15:28:24Z</time>
      </trkpt>
      <trkpt lat="59.3361078788" lon="18.0497471585">
        <ele>30.6</ele>
        <time>2011-05-28T15:28:26Z</time>
      </trkpt>
      <trkpt lat="59.3361264028" lon="18.0495290615">
        <ele>31.8</ele>
        <time>2011-05-28T15:28:31Z</time>
      </trkpt>
      <trkpt lat="59.3361858304" lon="18.0493218609">
        <ele>32.8</ele>
        <time>2011-05-28T15:28:36Z</time>
      </trkpt>
      <trkpt lat="59.3361975651" lon="18.0492724077">
        <ele>33</ele>
        <time>2011-05-28T15:28:37Z</time>
      </trkpt>
      <trkpt lat="59.3362187713" lon="18.0491875829">
        <ele>33.6</ele>
        <time>2011-05-28T15:28:39Z</time>
      </trkpt>
      <trkpt lat="59.3362372115" lon="18.0489653787">
        <ele>34.2</ele>
        <time>2011-05-28T15:28:43Z</time>
      </trkpt>
      <trkpt lat="59.3363047696" lon="18.0486257441">
        <ele>35.6</ele>
        <time>2011-05-28T15:28:50Z</time>
      </trkpt>
      <trkpt lat="59.3363312564" lon="18.0483741195">
        <ele>36.6</ele>
        <time>2011-05-28T15:28:56Z</time>
      </trkpt>
      <trkpt lat="59.3363527141" lon="18.048163147">
        <ele>38</ele>
        <time>2011-05-28T15:29:02Z</time>
      </trkpt>
      <trkpt lat="59.3363495289" lon="18.047989055">
        <ele>38.8</ele>
        <time>2011-05-28T15:29:08Z</time>
      </trkpt>
      <trkpt lat="59.3363652869" lon="18.047803815">
        <ele>39.2</ele>
        <time>2011-05-28T15:29:13Z</time>
      </trkpt>
      <trkpt lat="59.3364140696" lon="18.0475891545">
        <ele>38.6</ele>
        <time>2011-05-28T15:29:19Z</time>
      </trkpt>
      <trkpt lat="59.3364548894" lon="18.0472786051">
        <ele>36.8</ele>
        <time>2011-05-28T15:29:26Z</time>
      </trkpt>
      <trkpt lat="59.3364812086" lon="18.0470229572">
        <ele>35</ele>
        <time>2011-05-28T15:29:32Z</time>
      </trkpt>
      <trkpt lat="59.3365059352" lon="18.0468703228">
        <ele>33.6</ele>
        <time>2011-05-28T15:29:36Z</time>
      </trkpt>
      <trkpt lat="59.3365244592" lon="18.0466192011">
        <ele>31.6</ele>
        <time>2011-05-28T15:29:42Z</time>
      </trkpt>
      <trkpt lat="59.3365487667" lon="18.0464224779">
        <ele>30</ele>
        <time>2011-05-28T15:29:47Z</time>
      </trkpt>
      <trkpt lat="59.3365677936" lon="18.0463498906">
        <ele>29.4</ele>
        <time>2011-05-28T15:29:49Z</time>
      </trkpt>
      <trkpt lat="59.3365925202" lon="18.0461390858">
        <ele>28.2</ele>
        <time>2011-05-28T15:29:54Z</time>
      </trkpt>
      <trkpt lat="59.3366339268" lon="18.0458100963">
        <ele>26.2</ele>
        <time>2011-05-28T15:30:02Z</time>
      </trkpt>
      <trkpt lat="59.3366722321" lon="18.0454972838">
        <ele>24.6</ele>
        <time>2011-05-28T15:30:09Z</time>
      </trkpt>
      <trkpt lat="59.3367169914" lon="18.0452024923">
        <ele>23.6</ele>
        <time>2011-05-28T15:30:16Z</time>
      </trkpt>
      <trkpt lat="59.3367577275" lon="18.0449628538">
        <ele>23</ele>
        <time>2011-05-28T15:30:22Z</time>
      </trkpt>
      <trkpt lat="59.336805169" lon="18.0446746003">
        <ele>22.8</ele>
        <time>2011-05-28T15:30:29Z</time>
      </trkpt>
      <trkpt lat="59.3368566339" lon="18.0444036134">
        <ele>22.6</ele>
        <time>2011-05-28T15:30:36Z</time>
      </trkpt>
      <trkpt lat="59.3369095237" lon="18.044082419">
        <ele>22.6</ele>
        <time>2011-05-28T15:30:44Z</time>
      </trkpt>
      <trkpt lat="59.3369532772" lon="18.0438461333">
        <ele>22.6</ele>
        <time>2011-05-28T15:30:50Z</time>
      </trkpt>
      <trkpt lat="59.3370118667" lon="18.043516557">
        <ele>22.6</ele>
        <time>2011-05-28T15:30:58Z</time>
      </trkpt>
      <trkpt lat="59.337074228" lon="18.0432350089">
        <ele>22.6</ele>
        <time>2011-05-28T15:31:05Z</time>
      </trkpt>
      <trkpt lat="59.3370794248" lon="18.0431907525">
        <ele>22.6</ele>
        <time>2011-05-28T15:31:06Z</time>
      </trkpt>
      <trkpt lat="59.3371224239" lon="18.0430089491">
        <ele>22.6</ele>
        <time>2011-05-28T15:31:11Z</time>
      </trkpt>
      <trkpt lat="59.3371407803" lon="18.0429267227">
        <ele>22.6</ele>
        <time>2011-05-28T15:31:13Z</time>
      </trkpt>
      <trkpt lat="59.3372069135" lon="18.0426387206">
        <ele>22.6</ele>
        <time>2011-05-28T15:31:20Z</time>
      </trkpt>
      <trkpt lat="59.3372454702" lon="18.0424826496">
        <ele>22.6</ele>
        <time>2011-05-28T15:31:24Z</time>
      </trkpt>
      <trkpt lat="59.3373186442" lon="18.0422704199">
        <ele>22.6</ele>
        <time>2011-05-28T15:31:30Z</time>
      </trkpt>
      <trkpt lat="59.337397937" lon="18.0420870239">
        <ele>22.6</ele>
        <time>2011-05-28T15:31:36Z</time>
      </trkpt>
      <trkpt lat="59.3374711948" lon="18.0418706033">
        <ele>22.6</ele>
        <time>2011-05-28T15:31:42Z</time>
      </trkpt>
      <trkpt lat="59.337484522" lon="18.0418315436">
        <ele>22.6</ele>
        <time>2011-05-28T15:31:43Z</time>
      </trkpt>
      <trkpt lat="59.3375552653" lon="18.0417410191">
        <ele>22.6</ele>
        <time>2011-05-28T15:31:47Z</time>
      </trkpt>
      <trkpt lat="59.3375714423" lon="18.0417121853">
        <ele>22.6</ele>
        <time>2011-05-28T15:31:48Z</time>
      </trkpt>
      <trkpt lat="59.3376639785" lon="18.041532226">
        <ele>22.6</ele>
        <time>2011-05-28T15:31:54Z</time>
      </trkpt>
      <trkpt lat="59.3378006873" lon="18.0412954373">
        <ele>22.6</ele>
        <time>2011-05-28T15:32:02Z</time>
      </trkpt>
      <trkpt lat="59.3379188721" lon="18.041084381">
        <ele>22.6</ele>
        <time>2011-05-28T15:32:09Z</time>
      </trkpt>
      <trkpt lat="59.338036051" lon="18.0408752526">
        <ele>22.6</ele>
        <time>2011-05-28T15:32:16Z</time>
      </trkpt>
      <trkpt lat="59.3381778728" lon="18.0406520426">
        <ele>22.6</ele>
        <time>2011-05-28T15:32:24Z</time>
      </trkpt>
      <trkpt lat="59.338266218" lon="18.0405597579">
        <ele>22.6</ele>
        <time>2011-05-28T15:32:29Z</time>
      </trkpt>
      <trkpt lat="59.3382938783" lon="18.0405607637">
        <ele>23.2</ele>
        <time>2011-05-28T15:32:33Z</time>
      </trkpt>
      <trkpt lat="59.3383155036" lon="18.0405589197">
        <ele>23.6</ele>
        <time>2011-05-28T15:32:36Z</time>
      </trkpt>
      <trkpt lat="59.3383900187" lon="18.0405118973">
        <ele>24</ele>
        <time>2011-05-28T15:32:40Z</time>
      </trkpt>
      <trkpt lat="59.3385136517" lon="18.0404253961">
        <ele>24.2</ele>
        <time>2011-05-28T15:32:45Z</time>
      </trkpt>
      <trkpt lat="59.3386392126" lon="18.0402662238">
        <ele>24.4</ele>
        <time>2011-05-28T15:32:52Z</time>
      </trkpt>
      <trkpt lat="59.3388014862" lon="18.0400876055">
        <ele>24.6</ele>
        <time>2011-05-28T15:33:01Z</time>
      </trkpt>
      <trkpt lat="59.3389220179" lon="18.0399395811">
        <ele>24.6</ele>
        <time>2011-05-28T15:33:08Z</time>
      </trkpt>
      <trkpt lat="59.3390759934" lon="18.0397496473">
        <ele>24.6</ele>
        <time>2011-05-28T15:33:17Z</time>
      </trkpt>
      <trkpt lat="59.3392387699" lon="18.0396322169">
        <ele>24.6</ele>
        <time>2011-05-28T15:33:26Z</time>
      </trkpt>
      <trkpt lat="59.3393204934" lon="18.0395413571">
        <ele>24.6</ele>
        <time>2011-05-28T15:33:32Z</time>
      </trkpt>
      <trkpt lat="59.3394390973" lon="18.0394442108">
        <ele>24.6</ele>
        <time>2011-05-28T15:33:38Z</time>
      </trkpt>
      <trkpt lat="59.3396151172" lon="18.0392748126">
        <ele>24.6</ele>
        <time>2011-05-28T15:33:46Z</time>
      </trkpt>
      <trkpt lat="59.339707821" lon="18.039134332">
        <ele>24.6</ele>
        <time>2011-05-28T15:33:51Z</time>
      </trkpt>
      <trkpt lat="59.3397840125" lon="18.0390630859">
        <ele>24.6</ele>
        <time>2011-05-28T15:33:55Z</time>
      </trkpt>
      <trkpt lat="59.3399162789" lon="18.0391842881">
        <ele>25.6</ele>
        <time>2011-05-28T15:34:01Z</time>
      </trkpt>
      <trkpt lat="59.3400280096" lon="18.0394800016">
        <ele>27.2</ele>
        <time>2011-05-28T15:34:09Z</time>
      </trkpt>
      <trkpt lat="59.3400846712" lon="18.0396708574">
        <ele>28.8</ele>
        <time>2011-05-28T15:34:14Z</time>
      </trkpt>
      <trkpt lat="59.340095903" lon="18.0397047203">
        <ele>29</ele>
        <time>2011-05-28T15:34:15Z</time>
      </trkpt>
      <trkpt lat="59.3401725135" lon="18.0398795667">
        <ele>30.8</ele>
        <time>2011-05-28T15:34:20Z</time>
      </trkpt>
      <trkpt lat="59.3402289237" lon="18.0400207179">
        <ele>32</ele>
        <time>2011-05-28T15:34:24Z</time>
      </trkpt>
      <trkpt lat="59.3402933805" lon="18.0402320256">
        <ele>33.6</ele>
        <time>2011-05-28T15:34:30Z</time>
      </trkpt>
      <trkpt lat="59.3403347871" lon="18.0403840733">
        <ele>34.8</ele>
        <time>2011-05-28T15:34:34Z</time>
      </trkpt>
      <trkpt lat="59.3403887666" lon="18.0405873344">
        <ele>35.8</ele>
        <time>2011-05-28T15:34:39Z</time>
      </trkpt>
      <trkpt lat="59.3404433327" lon="18.040778777">
        <ele>36.8</ele>
        <time>2011-05-28T15:34:44Z</time>
      </trkpt>
      <trkpt lat="59.3405150818" lon="18.0410046692">
        <ele>38.2</ele>
        <time>2011-05-28T15:34:50Z</time>
      </trkpt>
      <trkpt lat="59.3405586677" lon="18.0411709661">
        <ele>38.6</ele>
        <time>2011-05-28T15:34:54Z</time>
      </trkpt>
      <trkpt lat="59.3406375414" lon="18.0414304697">
        <ele>39</ele>
        <time>2011-05-28T15:35:01Z</time>
      </trkpt>
      <trkpt lat="59.3406949574" lon="18.0416694377">
        <ele>39.2</ele>
        <time>2011-05-28T15:35:07Z</time>
      </trkpt>
      <trkpt lat="59.3407449135" lon="18.0418773088">
        <ele>39.4</ele>
        <time>2011-05-28T15:35:12Z</time>
      </trkpt>
      <trkpt lat="59.3407881641" lon="18.0420935618">
        <ele>40.4</ele>
        <time>2011-05-28T15:35:18Z</time>
      </trkpt>
      <trkpt lat="59.340832672" lon="18.0422405803">
        <ele>40.8</ele>
        <time>2011-05-28T15:35:22Z</time>
      </trkpt>
      <trkpt lat="59.340847927" lon="18.0423477848">
        <ele>41</ele>
        <time>2011-05-28T15:35:25Z</time>
      </trkpt>
      <trkpt lat="59.3408962068" lon="18.042582478">
        <ele>41.2</ele>
        <time>2011-05-28T15:35:31Z</time>
      </trkpt>
      <trkpt lat="59.3409399603" lon="18.0427678857">
        <ele>41.4</ele>
        <time>2011-05-28T15:35:36Z</time>
      </trkpt>
      <trkpt lat="59.3409760025" lon="18.0429497729">
        <ele>41.6</ele>
        <time>2011-05-28T15:35:41Z</time>
      </trkpt>
      <trkpt lat="59.3410271321" lon="18.0431457417">
        <ele>42.4</ele>
        <time>2011-05-28T15:35:46Z</time>
      </trkpt>
      <trkpt lat="59.3410793513" lon="18.0433336639">
        <ele>43</ele>
        <time>2011-05-28T15:35:51Z</time>
      </trkpt>
      <trkpt lat="59.3411138009" lon="18.0434723005">
        <ele>43.2</ele>
        <time>2011-05-28T15:35:56Z</time>
      </trkpt>
      <trkpt lat="59.341170714" lon="18.0436519246">
        <ele>44.6</ele>
        <time>2011-05-28T15:36:05Z</time>
      </trkpt>
      <trkpt lat="59.3412148866" lon="18.0438081633">
        <ele>46</ele>
        <time>2011-05-28T15:36:13Z</time>
      </trkpt>
      <trkpt lat="59.3412283815" lon="18.0439001127">
        <ele>46.8</ele>
        <time>2011-05-28T15:36:19Z</time>
      </trkpt>
      <trkpt lat="59.341236931" lon="18.0439798246">
        <ele>48</ele>
        <time>2011-05-28T15:36:24Z</time>
      </trkpt>
      <trkpt lat="59.3412268727" lon="18.044000947">
        <ele>48.2</ele>
        <time>2011-05-28T15:36:26Z</time>
      </trkpt>
      <trkpt lat="59.3412577181" lon="18.0440795692">
        <ele>48.8</ele>
        <time>2011-05-28T15:36:29Z</time>
      </trkpt>
      <trkpt lat="59.3412791758" lon="18.0441482169">
        <ele>49</ele>
        <time>2011-05-28T15:36:32Z</time>
      </trkpt>
      <trkpt lat="59.341281858" lon="18.0442603668">
        <ele>49.4</ele>
        <time>2011-05-28T15:36:38Z</time>
      </trkpt>
      <trkpt lat="59.3413077581" lon="18.0443906215">
        <ele>49.6</ele>
        <time>2011-05-28T15:36:42Z</time>
      </trkpt>
      <trkpt lat="59.341380513" lon="18.0446435034">
        <ele>49.6</ele>
        <time>2011-05-28T15:36:47Z</time>
      </trkpt>
      <trkpt lat="59.3414468976" lon="18.0448607623">
        <ele>50.4</ele>
        <time>2011-05-28T15:36:51Z</time>
      </trkpt>
      <trkpt lat="59.341459219" lon="18.0449113889">
        <ele>50.6</ele>
        <time>2011-05-28T15:36:52Z</time>
      </trkpt>
      <trkpt lat="59.3415425351" lon="18.0452784323">
        <ele>51.2</ele>
        <time>2011-05-28T15:36:59Z</time>
      </trkpt>
      <trkpt lat="59.3416483985" lon="18.0455983695">
        <ele>51.6</ele>
        <time>2011-05-28T15:37:05Z</time>
      </trkpt>
      <trkpt lat="59.3417302058" lon="18.0458447973">
        <ele>51.8</ele>
        <time>2011-05-28T15:37:10Z</time>
      </trkpt>
      <trkpt lat="59.341814863" lon="18.0461026246">
        <ele>51.8</ele>
        <time>2011-05-28T15:37:15Z</time>
      </trkpt>
      <trkpt lat="59.3418939882" lon="18.0463586078">
        <ele>51.8</ele>
        <time>2011-05-28T15:37:20Z</time>
      </trkpt>
      <trkpt lat="59.3419907991" lon="18.046719281">
        <ele>53</ele>
        <time>2011-05-28T15:37:27Z</time>
      </trkpt>
      <trkpt lat="59.3420586087" lon="18.0469794551">
        <ele>53.8</ele>
        <time>2011-05-28T15:37:32Z</time>
      </trkpt>
      <trkpt lat="59.3421268373" lon="18.0472794433">
        <ele>54.8</ele>
        <time>2011-05-28T15:37:38Z</time>
      </trkpt>
      <trkpt lat="59.3422206308" lon="18.047555124">
        <ele>56.6</ele>
        <time>2011-05-28T15:37:45Z</time>
      </trkpt>
      <trkpt lat="59.3423202078" lon="18.0478029768">
        <ele>58.4</ele>
        <time>2011-05-28T15:37:52Z</time>
      </trkpt>
      <trkpt lat="59.3423966507" lon="18.0480096745">
        <ele>60</ele>
        <time>2011-05-28T15:37:57Z</time>
      </trkpt>
      <trkpt lat="59.3424676454" lon="18.0482719441">
        <ele>62.4</ele>
        <time>2011-05-28T15:38:04Z</time>
      </trkpt>
      <trkpt lat="59.3425080462" lon="18.0484767977">
        <ele>64.2</ele>
        <time>2011-05-28T15:38:09Z</time>
      </trkpt>
      <trkpt lat="59.3425264863" lon="18.0485702559">
        <ele>65.2</ele>
        <time>2011-05-28T15:38:11Z</time>
      </trkpt>
      <trkpt lat="59.3425648754" lon="18.0488173543">
        <ele>67.6</ele>
        <time>2011-05-28T15:38:17Z</time>
      </trkpt>
      <trkpt lat="59.3426172623" lon="18.0490192743">
        <ele>69.2</ele>
        <time>2011-05-28T15:38:22Z</time>
      </trkpt>
      <trkpt lat="59.3426865806" lon="18.0492318393">
        <ele>71.2</ele>
        <time>2011-05-28T15:38:28Z</time>
      </trkpt>
      <trkpt lat="59.3427604252" lon="18.0494009022">
        <ele>72.6</ele>
        <time>2011-05-28T15:38:33Z</time>
      </trkpt>
      <trkpt lat="59.3428423163" lon="18.0496048338">
        <ele>74</ele>
        <time>2011-05-28T15:38:38Z</time>
      </trkpt>
      <trkpt lat="59.342905432" lon="18.0499358351">
        <ele>75</ele>
        <time>2011-05-28T15:38:46Z</time>
      </trkpt>
      <trkpt lat="59.3430140615" lon="18.050247055">
        <ele>75.8</ele>
        <time>2011-05-28T15:38:54Z</time>
      </trkpt>
      <trkpt lat="59.3431188352" lon="18.0505502283">
        <ele>77.6</ele>
        <time>2011-05-28T15:39:02Z</time>
      </trkpt>
      <trkpt lat="59.3431788496" lon="18.0509210436">
        <ele>80.2</ele>
        <time>2011-05-28T15:39:11Z</time>
      </trkpt>
      <trkpt lat="59.3432066775" lon="18.0511689802">
        <ele>81.2</ele>
        <time>2011-05-28T15:39:17Z</time>
      </trkpt>
      <trkpt lat="59.3432661052" lon="18.0514240414">
        <ele>81.6</ele>
        <time>2011-05-28T15:39:23Z</time>
      </trkpt>
      <trkpt lat="59.3433195817" lon="18.0517402905">
        <ele>81.2</ele>
        <time>2011-05-28T15:39:30Z</time>
      </trkpt>
      <trkpt lat="59.343355121" lon="18.0520126184">
        <ele>80</ele>
        <time>2011-05-28T15:39:36Z</time>
      </trkpt>
      <trkpt lat="59.3433935101" lon="18.0523685139">
        <ele>77.8</ele>
        <time>2011-05-28T15:39:44Z</time>
      </trkpt>
      <trkpt lat="59.3434396943" lon="18.0526291072">
        <ele>75.8</ele>
        <time>2011-05-28T15:39:50Z</time>
      </trkpt>
      <trkpt lat="59.3435048217" lon="18.0529238986">
        <ele>73.4</ele>
        <time>2011-05-28T15:39:57Z</time>
      </trkpt>
      <trkpt lat="59.3435647523" lon="18.0532773633">
        <ele>72</ele>
        <time>2011-05-28T15:40:05Z</time>
      </trkpt>
      <trkpt lat="59.3436321428" lon="18.0536302413">
        <ele>70.6</ele>
        <time>2011-05-28T15:40:13Z</time>
      </trkpt>
      <trkpt lat="59.3436877148" lon="18.0538359331">
        <ele>69.8</ele>
        <time>2011-05-28T15:40:18Z</time>
      </trkpt>
      <trkpt lat="59.3437365812" lon="18.0540120369">
        <ele>69</ele>
        <time>2011-05-28T15:40:22Z</time>
      </trkpt>
      <trkpt lat="59.3438013733" lon="18.0542266973">
        <ele>68.2</ele>
        <time>2011-05-28T15:40:27Z</time>
      </trkpt>
      <trkpt lat="59.3438640699" lon="18.0544202354">
        <ele>67.8</ele>
        <time>2011-05-28T15:40:32Z</time>
      </trkpt>
      <trkpt lat="59.3439017885" lon="18.0545926511">
        <ele>67.6</ele>
        <time>2011-05-28T15:40:36Z</time>
      </trkpt>
      <trkpt lat="59.34394462" lon="18.0548175375">
        <ele>67.6</ele>
        <time>2011-05-28T15:40:41Z</time>
      </trkpt>
      <trkpt lat="59.3440015331" lon="18.055040496">
        <ele>67.4</ele>
        <time>2011-05-28T15:40:46Z</time>
      </trkpt>
      <trkpt lat="59.3440537523" lon="18.0552849122">
        <ele>67.4</ele>
        <time>2011-05-28T15:40:51Z</time>
      </trkpt>
      <trkpt lat="59.344098847" lon="18.05554802">
        <ele>67.4</ele>
        <time>2011-05-28T15:40:57Z</time>
      </trkpt>
      <trkpt lat="59.344169674" lon="18.0558247904">
        <ele>66.4</ele>
        <time>2011-05-28T15:41:04Z</time>
      </trkpt>
      <trkpt lat="59.3442529901" lon="18.056100974">
        <ele>65.8</ele>
        <time>2011-05-28T15:41:11Z</time>
      </trkpt>
      <trkpt lat="59.3443104061" lon="18.0563420374">
        <ele>65.6</ele>
        <time>2011-05-28T15:41:17Z</time>
      </trkpt>
      <trkpt lat="59.344378551" lon="18.0564891398">
        <ele>65.4</ele>
        <time>2011-05-28T15:41:21Z</time>
      </trkpt>
      <trkpt lat="59.3444264116" lon="18.056648815">
        <ele>65.8</ele>
        <time>2011-05-28T15:41:25Z</time>
      </trkpt>
      <trkpt lat="59.3445187801" lon="18.0568716897">
        <ele>66.8</ele>
        <time>2011-05-28T15:41:31Z</time>
      </trkpt>
      <trkpt lat="59.3445268268" lon="18.0569047982">
        <ele>67</ele>
        <time>2011-05-28T15:41:32Z</time>
      </trkpt>
      <trkpt lat="59.3445592647" lon="18.0570596119">
        <ele>67.8</ele>
        <time>2011-05-28T15:41:36Z</time>
      </trkpt>
      <trkpt lat="59.3445906968" lon="18.0571766232">
        <ele>68.4</ele>
        <time>2011-05-28T15:41:39Z</time>
      </trkpt>
      <trkpt lat="59.3446339475" lon="18.057384662">
        <ele>69.4</ele>
        <time>2011-05-28T15:41:44Z</time>
      </trkpt>
      <trkpt lat="59.344682311" lon="18.057626396">
        <ele>70.4</ele>
        <time>2011-05-28T15:41:50Z</time>
      </trkpt>
      <trkpt lat="59.3446784553" lon="18.0576835605">
        <ele>70.8</ele>
        <time>2011-05-28T15:41:51Z</time>
      </trkpt>
      <trkpt lat="59.3446974823" lon="18.0578669565">
        <ele>71.8</ele>
        <time>2011-05-28T15:41:55Z</time>
      </trkpt>
      <trkpt lat="59.344752719" lon="18.0580527832">
        <ele>72.6</ele>
        <time>2011-05-28T15:42:00Z</time>
      </trkpt>
      <trkpt lat="59.3447632802" lon="18.0580842153">
        <ele>72.6</ele>
        <time>2011-05-28T15:42:01Z</time>
      </trkpt>
      <trkpt lat="59.3448139068" lon="18.0582545356">
        <ele>73</ele>
        <time>2011-05-28T15:42:06Z</time>
      </trkpt>
      <trkpt lat="59.3448690597" lon="18.0584338244">
        <ele>73.2</ele>
        <time>2011-05-28T15:42:10Z</time>
      </trkpt>
      <trkpt lat="59.3449974705" lon="18.0587856966">
        <ele>72.2</ele>
        <time>2011-05-28T15:42:17Z</time>
      </trkpt>
      <trkpt lat="59.345007864" lon="18.0588766402">
        <ele>72</ele>
        <time>2011-05-28T15:42:21Z</time>
      </trkpt>
      <trkpt lat="59.3450123064" lon="18.0588928172">
        <ele>71.6</ele>
        <time>2011-05-28T15:42:27Z</time>
      </trkpt>
      <trkpt lat="59.3450107139" lon="18.0589121794">
        <ele>71.6</ele>
        <time>2011-05-28T15:42:29Z</time>
      </trkpt>
      <trkpt lat="59.345031501" lon="18.0591459506">
        <ele>71.4</ele>
        <time>2011-05-28T15:42:34Z</time>
      </trkpt>
      <trkpt lat="59.3451281443" lon="18.0595212921">
        <ele>71.4</ele>
        <time>2011-05-28T15:42:40Z</time>
      </trkpt>
      <trkpt lat="59.3452068503" lon="18.059839469">
        <ele>71.4</ele>
        <time>2011-05-28T15:42:46Z</time>
      </trkpt>
      <trkpt lat="59.3452529508" lon="18.0600649421">
        <ele>71.4</ele>
        <time>2011-05-28T15:42:51Z</time>
      </trkpt>
      <trkpt lat="59.3453010629" lon="18.0602977913">
        <ele>71.8</ele>
        <time>2011-05-28T15:42:57Z</time>
      </trkpt>
      <trkpt lat="59.345357054" lon="18.0605529363">
        <ele>73</ele>
        <time>2011-05-28T15:43:04Z</time>
      </trkpt>
      <trkpt lat="59.3454158111" lon="18.0608316345">
        <ele>75.2</ele>
        <time>2011-05-28T15:43:11Z</time>
      </trkpt>
      <trkpt lat="59.3455005521" lon="18.0611277671">
        <ele>77.8</ele>
        <time>2011-05-28T15:43:19Z</time>
      </trkpt>
      <trkpt lat="59.3455649251" lon="18.0613948982">
        <ele>78.8</ele>
        <time>2011-05-28T15:43:26Z</time>
      </trkpt>
      <trkpt lat="59.3456281246" lon="18.0616741831">
        <ele>79.4</ele>
        <time>2011-05-28T15:43:33Z</time>
      </trkpt>
      <trkpt lat="59.3456930843" lon="18.0619185155">
        <ele>79.8</ele>
        <time>2011-05-28T15:43:39Z</time>
      </trkpt>
      <trkpt lat="59.3457720418" lon="18.0622083616">
        <ele>79.8</ele>
        <time>2011-05-28T15:43:46Z</time>
      </trkpt>
      <trkpt lat="59.3457971037" lon="18.06243417">
        <ele>80.8</ele>
        <time>2011-05-28T15:43:51Z</time>
      </trkpt>
      <trkpt lat="59.3457938348" lon="18.0625018119">
        <ele>81</ele>
        <time>2011-05-28T15:43:53Z</time>
      </trkpt>
      <trkpt lat="59.3456370932" lon="18.0627561188">
        <ele>81.6</ele>
        <time>2011-05-28T15:44:00Z</time>
      </trkpt>
      <trkpt lat="59.3455117838" lon="18.0629234215">
        <ele>81.8</ele>
        <time>2011-05-28T15:44:06Z</time>
      </trkpt>
      <trkpt lat="59.3453759971" lon="18.0630921491">
        <ele>80.4</ele>
        <time>2011-05-28T15:44:12Z</time>
      </trkpt>
      <trkpt lat="59.3452328342" lon="18.0632607091">
        <ele>78.4</ele>
        <time>2011-05-28T15:44:18Z</time>
      </trkpt>
      <trkpt lat="59.3451021604" lon="18.0633711826">
        <ele>76.6</ele>
        <time>2011-05-28T15:44:23Z</time>
      </trkpt>
      <trkpt lat="59.3450246278" lon="18.0635429277">
        <ele>75.2</ele>
        <time>2011-05-28T15:44:28Z</time>
      </trkpt>
      <trkpt lat="59.3449753422" lon="18.0636699973">
        <ele>74.6</ele>
        <time>2011-05-28T15:44:32Z</time>
      </trkpt>
      <trkpt lat="59.344872664" lon="18.0638140822">
        <ele>73</ele>
        <time>2011-05-28T15:44:38Z</time>
      </trkpt>
      <trkpt lat="59.3447674711" lon="18.0639407327">
        <ele>71.2</ele>
        <time>2011-05-28T15:44:43Z</time>
      </trkpt>
      <trkpt lat="59.3447382183" lon="18.0639832289">
        <ele>70.4</ele>
        <time>2011-05-28T15:44:45Z</time>
      </trkpt>
      <trkpt lat="59.3446618592" lon="18.0640907687">
        <ele>69</ele>
        <time>2011-05-28T15:44:49Z</time>
      </trkpt>
      <trkpt lat="59.344637384" lon="18.0641206083">
        <ele>68.6</ele>
        <time>2011-05-28T15:44:50Z</time>
      </trkpt>
      <trkpt lat="59.3444634596" lon="18.0643976301">
        <ele>65.2</ele>
        <time>2011-05-28T15:44:58Z</time>
      </trkpt>
      <trkpt lat="59.3443689118" lon="18.0645501806">
        <ele>62.6</ele>
        <time>2011-05-28T15:45:03Z</time>
      </trkpt>
      <trkpt lat="59.3443423412" lon="18.0645753263">
        <ele>59.8</ele>
        <time>2011-05-28T15:45:08Z</time>
      </trkpt>
      <trkpt lat="59.3443270023" lon="18.0645854684">
        <ele>55.4</ele>
        <time>2011-05-28T15:45:16Z</time>
      </trkpt>
      <trkpt lat="59.344271095" lon="18.0647492508">
        <ele>52.8</ele>
        <time>2011-05-28T15:45:21Z</time>
      </trkpt>
      <trkpt lat="59.3441845938" lon="18.064900125">
        <ele>50.8</ele>
        <time>2011-05-28T15:45:25Z</time>
      </trkpt>
      <trkpt lat="59.3441214781" lon="18.0651307949">
        <ele>48.8</ele>
        <time>2011-05-28T15:45:29Z</time>
      </trkpt>
      <trkpt lat="59.3440727792" lon="18.0653243329">
        <ele>47.2</ele>
        <time>2011-05-28T15:45:33Z</time>
      </trkpt>
      <trkpt lat="59.3439988509" lon="18.0656234829">
        <ele>45</ele>
        <time>2011-05-28T15:45:39Z</time>
      </trkpt>
      <trkpt lat="59.3439800754" lon="18.0656567591">
        <ele>44.8</ele>
        <time>2011-05-28T15:45:40Z</time>
      </trkpt>
      <trkpt lat="59.3439204801" lon="18.0658426696">
        <ele>43</ele>
        <time>2011-05-28T15:45:45Z</time>
      </trkpt>
      <trkpt lat="59.343848312" lon="18.066023551">
        <ele>42</ele>
        <time>2011-05-28T15:45:50Z</time>
      </trkpt>
      <trkpt lat="59.3437980206" lon="18.0661244691">
        <ele>41.6</ele>
        <time>2011-05-28T15:45:53Z</time>
      </trkpt>
      <trkpt lat="59.343726523" lon="18.0662974715">
        <ele>41</ele>
        <time>2011-05-28T15:45:58Z</time>
      </trkpt>
      <trkpt lat="59.3436158819" lon="18.0665573942">
        <ele>40.6</ele>
        <time>2011-05-28T15:46:06Z</time>
      </trkpt>
      <trkpt lat="59.3436053207" lon="18.0665914247">
        <ele>40.6</ele>
        <time>2011-05-28T15:46:07Z</time>
      </trkpt>
      <trkpt lat="59.3435266146" lon="18.066751519">
        <ele>40.6</ele>
        <time>2011-05-28T15:46:13Z</time>
      </trkpt>
      <trkpt lat="59.343495434" lon="18.0668195801">
        <ele>40.4</ele>
        <time>2011-05-28T15:46:17Z</time>
      </trkpt>
      <trkpt lat="59.343482442" lon="18.0669008007">
        <ele>40.4</ele>
        <time>2011-05-28T15:46:23Z</time>
      </trkpt>
      <trkpt lat="59.3434763232" lon="18.0669370943">
        <ele>40.4</ele>
        <time>2011-05-28T15:46:25Z</time>
      </trkpt>
      <trkpt lat="59.3434624931" lon="18.0669839491">
        <ele>40</ele>
        <time>2011-05-28T15:46:27Z</time>
      </trkpt>
      <trkpt lat="59.3433788417" lon="18.0672101766">
        <ele>39.2</ele>
        <time>2011-05-28T15:46:34Z</time>
      </trkpt>
      <trkpt lat="59.3432645126" lon="18.0674355659">
        <ele>38.8</ele>
        <time>2011-05-28T15:46:41Z</time>
      </trkpt>
      <trkpt lat="59.34319905" lon="18.0676218117">
        <ele>38</ele>
        <time>2011-05-28T15:46:46Z</time>
      </trkpt>
      <trkpt lat="59.3431126326" lon="18.0678150983">
        <ele>37.2</ele>
        <time>2011-05-28T15:46:52Z</time>
      </trkpt>
      <trkpt lat="59.3430334236" lon="18.0679579259">
        <ele>36.8</ele>
        <time>2011-05-28T15:46:57Z</time>
      </trkpt>
      <trkpt lat="59.3429384567" lon="18.0681556549">
        <ele>35.6</ele>
        <time>2011-05-28T15:47:03Z</time>
      </trkpt>
      <trkpt lat="59.3428594154" lon="18.0683764342">
        <ele>35</ele>
        <time>2011-05-28T15:47:09Z</time>
      </trkpt>
      <trkpt lat="59.3427884207" lon="18.0685801982">
        <ele>34.6</ele>
        <time>2011-05-28T15:47:15Z</time>
      </trkpt>
      <trkpt lat="59.3427157496" lon="18.0687045017">
        <ele>34.4</ele>
        <time>2011-05-28T15:47:19Z</time>
      </trkpt>
      <trkpt lat="59.3426059467" lon="18.0688298111">
        <ele>34.2</ele>
        <time>2011-05-28T15:47:24Z</time>
      </trkpt>
      <trkpt lat="59.3425197808" lon="18.06893316">
        <ele>33.4</ele>
        <time>2011-05-28T15:47:28Z</time>
      </trkpt>
      <trkpt lat="59.3424347883" lon="18.0690358382">
        <ele>33</ele>
        <time>2011-05-28T15:47:32Z</time>
      </trkpt>
      <trkpt lat="59.3423519752" lon="18.0691902328">
        <ele>32</ele>
        <time>2011-05-28T15:47:37Z</time>
      </trkpt>
      <trkpt lat="59.3423403243" lon="18.0692292087">
        <ele>31.8</ele>
        <time>2011-05-28T15:47:38Z</time>
      </trkpt>
      <trkpt lat="59.342229348" lon="18.0693748023">
        <ele>30.8</ele>
        <time>2011-05-28T15:47:44Z</time>
      </trkpt>
      <trkpt lat="59.3421498037" lon="18.0695118463">
        <ele>29.8</ele>
        <time>2011-05-28T15:47:49Z</time>
      </trkpt>
      <trkpt lat="59.3420765459" lon="18.0696282709">
        <ele>29.2</ele>
        <time>2011-05-28T15:47:53Z</time>
      </trkpt>
      <trkpt lat="59.3419941519" lon="18.0697919694">
        <ele>28</ele>
        <time>2011-05-28T15:47:58Z</time>
      </trkpt>
      <trkpt lat="59.3418580298" lon="18.0699612">
        <ele>27</ele>
        <time>2011-05-28T15:48:04Z</time>
      </trkpt>
      <trkpt lat="59.3418326327" lon="18.0699840826">
        <ele>26.8</ele>
        <time>2011-05-28T15:48:05Z</time>
      </trkpt>
      <trkpt lat="59.3417530884" lon="18.070147362">
        <ele>25.6</ele>
        <time>2011-05-28T15:48:10Z</time>
      </trkpt>
      <trkpt lat="59.3417397612" lon="18.0701878466">
        <ele>25.4</ele>
        <time>2011-05-28T15:48:11Z</time>
      </trkpt>
      <trkpt lat="59.3417028808" lon="18.0704304188">
        <ele>24.8</ele>
        <time>2011-05-28T15:48:16Z</time>
      </trkpt>
      <trkpt lat="59.341676897" lon="18.0707212707">
        <ele>24.4</ele>
        <time>2011-05-28T15:48:22Z</time>
      </trkpt>
      <trkpt lat="59.3416646594" lon="18.0709930119">
        <ele>24.2</ele>
        <time>2011-05-28T15:48:28Z</time>
      </trkpt>
      <trkpt lat="59.3416188942" lon="18.07130046">
        <ele>24.6</ele>
        <time>2011-05-28T15:48:35Z</time>
      </trkpt>
      <trkpt lat="59.3415716203" lon="18.0715591254">
        <ele>25.4</ele>
        <time>2011-05-28T15:48:41Z</time>
      </trkpt>
      <trkpt lat="59.3415356619" lon="18.0718568505">
        <ele>26.4</ele>
        <time>2011-05-28T15:48:48Z</time>
      </trkpt>
      <trkpt lat="59.341480509" lon="18.0722333655">
        <ele>27.4</ele>
        <time>2011-05-28T15:48:57Z</time>
      </trkpt>
      <trkpt lat="59.3414491607" lon="18.0725030112">
        <ele>28.2</ele>
        <time>2011-05-28T15:49:03Z</time>
      </trkpt>
      <trkpt lat="59.341393924" lon="18.0727571504">
        <ele>29.2</ele>
        <time>2011-05-28T15:49:09Z</time>
      </trkpt>
      <trkpt lat="59.3413410342" lon="18.0730729804">
        <ele>29.6</ele>
        <time>2011-05-28T15:49:16Z</time>
      </trkpt>
      <trkpt lat="59.3412911619" lon="18.0732337452">
        <ele>29.8</ele>
        <time>2011-05-28T15:49:19Z</time>
      </trkpt>
      <trkpt lat="59.3412458997" lon="18.0735015469">
        <ele>29.8</ele>
        <time>2011-05-28T15:49:24Z</time>
      </trkpt>
      <trkpt lat="59.3412065885" lon="18.0736445421">
        <ele>30</ele>
        <time>2011-05-28T15:49:28Z</time>
      </trkpt>
      <trkpt lat="59.3411908306" lon="18.0736759743">
        <ele>30</ele>
        <time>2011-05-28T15:49:33Z</time>
      </trkpt>
      <trkpt lat="59.3411335822" lon="18.0738857732">
        <ele>30</ele>
        <time>2011-05-28T15:49:38Z</time>
      </trkpt>
      <trkpt lat="59.341085051" lon="18.0741784692">
        <ele>30</ele>
        <time>2011-05-28T15:49:44Z</time>
      </trkpt>
      <trkpt lat="59.3410460752" lon="18.0743932973">
        <ele>30</ele>
        <time>2011-05-28T15:49:49Z</time>
      </trkpt>
      <trkpt lat="59.3410236955" lon="18.0745255636">
        <ele>30</ele>
        <time>2011-05-28T15:49:52Z</time>
      </trkpt>
      <trkpt lat="59.3409643516" lon="18.0748621808">
        <ele>30</ele>
        <time>2011-05-28T15:50:00Z</time>
      </trkpt>
      <trkpt lat="59.3409257949" lon="18.0751345925">
        <ele>30</ele>
        <time>2011-05-28T15:50:06Z</time>
      </trkpt>
      <trkpt lat="59.3409003977" lon="18.0752544537">
        <ele>30</ele>
        <time>2011-05-28T15:50:09Z</time>
      </trkpt>
      <trkpt lat="59.3408463345" lon="18.0754500872">
        <ele>30.8</ele>
        <time>2011-05-28T15:50:14Z</time>
      </trkpt>
      <trkpt lat="59.3407931094" lon="18.075606242">
        <ele>31.2</ele>
        <time>2011-05-28T15:50:18Z</time>
      </trkpt>
      <trkpt lat="59.3407273953" lon="18.0757499078">
        <ele>31.6</ele>
        <time>2011-05-28T15:50:22Z</time>
      </trkpt>
      <trkpt lat="59.3406843124" lon="18.0758805816">
        <ele>31.6</ele>
        <time>2011-05-28T15:50:25Z</time>
      </trkpt>
      <trkpt lat="59.3406507009" lon="18.0760124289">
        <ele>31.8</ele>
        <time>2011-05-28T15:50:28Z</time>
      </trkpt>
      <trkpt lat="59.3406393854" lon="18.0760529973">
        <ele>31.8</ele>
        <time>2011-05-28T15:50:29Z</time>
      </trkpt>
      <trkpt lat="59.340622873" lon="18.0762528218">
        <ele>32</ele>
        <time>2011-05-28T15:50:33Z</time>
      </trkpt>
      <trkpt lat="59.3406686382" lon="18.0764023549">
        <ele>32</ele>
        <time>2011-05-28T15:50:37Z</time>
      </trkpt>
      <trkpt lat="59.3407579054" lon="18.0765238086">
        <ele>32</ele>
        <time>2011-05-28T15:50:42Z</time>
      </trkpt>
      <trkpt lat="59.3408563928" lon="18.0766406523">
        <ele>32.2</ele>
        <time>2011-05-28T15:50:47Z</time>
      </trkpt>
      <trkpt lat="59.3408749168" lon="18.0766601821">
        <ele>32.4</ele>
        <time>2011-05-28T15:50:48Z</time>
      </trkpt>
      <trkpt lat="59.340913222" lon="18.0766966434">
        <ele>32.8</ele>
        <time>2011-05-28T15:50:50Z</time>
      </trkpt>
      <trkpt lat="59.341043812" lon="18.0768545584">
        <ele>34.4</ele>
        <time>2011-05-28T15:50:57Z</time>
      </trkpt>
      <trkpt lat="59.341153112" lon="18.0769329291">
        <ele>35.8</ele>
        <time>2011-05-28T15:51:02Z</time>
      </trkpt>
      <trkpt lat="59.3412928383" lon="18.0770076957">
        <ele>37.4</ele>
        <time>2011-05-28T15:51:09Z</time>
      </trkpt>
      <trkpt lat="59.3414095143" lon="18.0770890839">
        <ele>39.4</ele>
        <time>2011-05-28T15:51:16Z</time>
      </trkpt>
      <trkpt lat="59.3415162997" lon="18.0771753337">
        <ele>42</ele>
        <time>2011-05-28T15:51:23Z</time>
      </trkpt>
      <trkpt lat="59.3416176369" lon="18.0772699653">
        <ele>45</ele>
        <time>2011-05-28T15:51:29Z</time>
      </trkpt>
      <trkpt lat="59.3417684273" lon="18.0774027346">
        <ele>49.4</ele>
        <time>2011-05-28T15:51:36Z</time>
      </trkpt>
      <trkpt lat="59.3418954969" lon="18.0774731426">
        <ele>52.8</ele>
        <time>2011-05-28T15:51:42Z</time>
      </trkpt>
      <trkpt lat="59.3420050483" lon="18.0774806863">
        <ele>54.6</ele>
        <time>2011-05-28T15:51:47Z</time>
      </trkpt>
      <trkpt lat="59.3421156894" lon="18.0775318159">
        <ele>55.6</ele>
        <time>2011-05-28T15:51:52Z</time>
      </trkpt>
      <trkpt lat="59.3421618737" lon="18.0775556205">
        <ele>56</ele>
        <time>2011-05-28T15:51:54Z</time>
      </trkpt>
      <trkpt lat="59.3422555833" lon="18.0775769943">
        <ele>56</ele>
        <time>2011-05-28T15:51:59Z</time>
      </trkpt>
      <trkpt lat="59.3423218003" lon="18.0776195744">
        <ele>55.8</ele>
        <time>2011-05-28T15:52:02Z</time>
      </trkpt>
      <trkpt lat="59.3424828166" lon="18.0776953468">
        <ele>55.4</ele>
        <time>2011-05-28T15:52:09Z</time>
      </trkpt>
      <trkpt lat="59.3426020073" lon="18.0777638269">
        <ele>54.8</ele>
        <time>2011-05-28T15:52:14Z</time>
      </trkpt>
      <trkpt lat="59.3426906039" lon="18.0778594644">
        <ele>54</ele>
        <time>2011-05-28T15:52:19Z</time>
      </trkpt>
      <trkpt lat="59.3427704834" lon="18.0779274416">
        <ele>53.8</ele>
        <time>2011-05-28T15:52:22Z</time>
      </trkpt>
      <trkpt lat="59.3429246266" lon="18.0780769747">
        <ele>53.4</ele>
        <time>2011-05-28T15:52:28Z</time>
      </trkpt>
      <trkpt lat="59.3429900054" lon="18.0781825028">
        <ele>53.2</ele>
        <time>2011-05-28T15:52:31Z</time>
      </trkpt>
      <trkpt lat="59.3430325016" lon="18.0782378233">
        <ele>53</ele>
        <time>2011-05-28T15:52:33Z</time>
      </trkpt>
      <trkpt lat="59.3431426398" lon="18.0783793936">
        <ele>52</ele>
        <time>2011-05-28T15:52:38Z</time>
      </trkpt>
      <trkpt lat="59.3432246148" lon="18.0784540764">
        <ele>51.4</ele>
        <time>2011-05-28T15:52:43Z</time>
      </trkpt>
      <trkpt lat="59.3432361818" lon="18.0784845865">
        <ele>51.2</ele>
        <time>2011-05-28T15:52:44Z</time>
      </trkpt>
      <trkpt lat="59.3433136306" lon="18.0786077166">
        <ele>50.2</ele>
        <time>2011-05-28T15:52:49Z</time>
      </trkpt>
      <trkpt lat="59.3434530216" lon="18.0787147535">
        <ele>49.4</ele>
        <time>2011-05-28T15:52:55Z</time>
      </trkpt>
      <trkpt lat="59.3436166362" lon="18.0788785358">
        <ele>49</ele>
        <time>2011-05-28T15:53:03Z</time>
      </trkpt>
      <trkpt lat="59.343783017" lon="18.0790465929">
        <ele>47.6</ele>
        <time>2011-05-28T15:53:11Z</time>
      </trkpt>
      <trkpt lat="59.3438888804" lon="18.0790361993">
        <ele>47.2</ele>
        <time>2011-05-28T15:53:16Z</time>
      </trkpt>
      <trkpt lat="59.3439636469" lon="18.0788287473">
        <ele>45.8</ele>
        <time>2011-05-28T15:53:22Z</time>
      </trkpt>
      <trkpt lat="59.3440393355" lon="18.0785423378">
        <ele>45.2</ele>
        <time>2011-05-28T15:53:29Z</time>
      </trkpt>
      <trkpt lat="59.3440913871" lon="18.0783302757">
        <ele>44.8</ele>
        <time>2011-05-28T15:53:34Z</time>
      </trkpt>
      <trkpt lat="59.3441379066" lon="18.078106479">
        <ele>44.2</ele>
        <time>2011-05-28T15:53:39Z</time>
      </trkpt>
      <trkpt lat="59.3441588614" lon="18.0780297008">
        <ele>43.8</ele>
        <time>2011-05-28T15:53:41Z</time>
      </trkpt>
      <trkpt lat="59.3441930595" lon="18.0778034733">
        <ele>43.2</ele>
        <time>2011-05-28T15:53:47Z</time>
      </trkpt>
      <trkpt lat="59.3442328735" lon="18.0776120307">
        <ele>42.8</ele>
        <time>2011-05-28T15:53:52Z</time>
      </trkpt>
      <trkpt lat="59.3442830811" lon="18.0773865576">
        <ele>42</ele>
        <time>2011-05-28T15:53:57Z</time>
      </trkpt>
      <trkpt lat="59.3443379826" lon="18.0771291494">
        <ele>41.2</ele>
        <time>2011-05-28T15:54:03Z</time>
      </trkpt>
      <trkpt lat="59.3443730189" lon="18.0768944562">
        <ele>40.8</ele>
        <time>2011-05-28T15:54:08Z</time>
      </trkpt>
      <trkpt lat="59.3444201252" lon="18.0766863337">
        <ele>40.6</ele>
        <time>2011-05-28T15:54:13Z</time>
      </trkpt>
      <trkpt lat="59.3444566703" lon="18.0764816477">
        <ele>40.4</ele>
        <time>2011-05-28T15:54:18Z</time>
      </trkpt>
      <trkpt lat="59.3444659742" lon="18.0764461084">
        <ele>40.4</ele>
        <time>2011-05-28T15:54:19Z</time>
      </trkpt>
      <trkpt lat="59.3445436744" lon="18.0764045342">
        <ele>39.8</ele>
        <time>2011-05-28T15:54:23Z</time>
      </trkpt>
      <trkpt lat="59.3446578359" lon="18.0764652191">
        <ele>39.2</ele>
        <time>2011-05-28T15:54:28Z</time>
      </trkpt>
      <trkpt lat="59.3447169283" lon="18.076520372">
        <ele>38.8</ele>
        <time>2011-05-28T15:54:32Z</time>
      </trkpt>
      <trkpt lat="59.3448203609" lon="18.0766585896">
        <ele>38</ele>
        <time>2011-05-28T15:54:37Z</time>
      </trkpt>
      <trkpt lat="59.3449527111" lon="18.0768643652">
        <ele>37.2</ele>
        <time>2011-05-28T15:54:42Z</time>
      </trkpt>
      <trkpt lat="59.3450964607" lon="18.0770646926">
        <ele>36.4</ele>
        <time>2011-05-28T15:54:48Z</time>
      </trkpt>
      <trkpt lat="59.3452013183" lon="18.077211292">
        <ele>35.4</ele>
        <time>2011-05-28T15:54:53Z</time>
      </trkpt>
      <trkpt lat="59.3452634281" lon="18.0772735696">
        <ele>35</ele>
        <time>2011-05-28T15:54:56Z</time>
      </trkpt>
      <trkpt lat="59.3453316568" lon="18.0773899103">
        <ele>34.6</ele>
        <time>2011-05-28T15:55:00Z</time>
      </trkpt>
      <trkpt lat="59.3454127098" lon="18.0775268706">
        <ele>34.2</ele>
        <time>2011-05-28T15:55:05Z</time>
      </trkpt>
      <trkpt lat="59.3454244444" lon="18.0775585542">
        <ele>34.2</ele>
        <time>2011-05-28T15:55:06Z</time>
      </trkpt>
      <trkpt lat="59.3455032343" lon="18.0776624897">
        <ele>34</ele>
        <time>2011-05-28T15:55:10Z</time>
      </trkpt>
      <trkpt lat="59.3456105226" lon="18.0778043953">
        <ele>34</ele>
        <time>2011-05-28T15:55:16Z</time>
      </trkpt>
      <trkpt lat="59.3456274541" lon="18.0778271102">
        <ele>34</ele>
        <time>2011-05-28T15:55:17Z</time>
      </trkpt>
      <trkpt lat="59.3456810982" lon="18.0778870408">
        <ele>34</ele>
        <time>2011-05-28T15:55:20Z</time>
      </trkpt>
      <trkpt lat="59.3457789988" lon="18.0780192234">
        <ele>33.8</ele>
        <time>2011-05-28T15:55:26Z</time>
      </trkpt>
      <trkpt lat="59.3458615605" lon="18.0781594526">
        <ele>33.8</ele>
        <time>2011-05-28T15:55:31Z</time>
      </trkpt>
      <trkpt lat="59.3459471397" lon="18.0782736979">
        <ele>33.8</ele>
        <time>2011-05-28T15:55:35Z</time>
      </trkpt>
      <trkpt lat="59.3459924858" lon="18.0783344666">
        <ele>33.8</ele>
        <time>2011-05-28T15:55:37Z</time>
      </trkpt>
      <trkpt lat="59.3460673362" lon="18.0784858438">
        <ele>33.8</ele>
        <time>2011-05-28T15:55:41Z</time>
      </trkpt>
      <trkpt lat="59.3461562681" lon="18.0786798009">
        <ele>34.6</ele>
        <time>2011-05-28T15:55:47Z</time>
      </trkpt>
      <trkpt lat="59.3461551785" lon="18.0787175195">
        <ele>34.6</ele>
        <time>2011-05-28T15:55:48Z</time>
      </trkpt>
      <trkpt lat="59.3460833456" lon="18.0789410648">
        <ele>35</ele>
        <time>2011-05-28T15:55:52Z</time>
      </trkpt>
      <trkpt lat="59.3460358202" lon="18.07901273">
        <ele>35.4</ele>
        <time>2011-05-28T15:55:57Z</time>
      </trkpt>
      <trkpt lat="59.3459506601" lon="18.0790262249">
        <ele>35.8</ele>
        <time>2011-05-28T15:56:07Z</time>
      </trkpt>
      <trkpt lat="59.3457862911" lon="18.0788543121">
        <ele>35.8</ele>
        <time>2011-05-28T15:56:12Z</time>
      </trkpt>
      <trkpt lat="59.3456215867" lon="18.0786241451">
        <ele>35.8</ele>
        <time>2011-05-28T15:56:17Z</time>
      </trkpt>
      <trkpt lat="59.3454477461" lon="18.0784208002">
        <ele>35.8</ele>
        <time>2011-05-28T15:56:22Z</time>
      </trkpt>
      <trkpt lat="59.3452522802" lon="18.0782493904">
        <ele>35.8</ele>
        <time>2011-05-28T15:56:27Z</time>
      </trkpt>
      <trkpt lat="59.3451767593" lon="18.0781723607">
        <ele>35.8</ele>
        <time>2011-05-28T15:56:29Z</time>
      </trkpt>
      <trkpt lat="59.3449960455" lon="18.078039759">
        <ele>35.8</ele>
        <time>2011-05-28T15:56:34Z</time>
      </trkpt>
      <trkpt lat="59.3447893479" lon="18.0781018689">
        <ele>35.8</ele>
        <time>2011-05-28T15:56:39Z</time>
      </trkpt>
      <trkpt lat="59.3447554012" lon="18.0781410124">
        <ele>35.8</ele>
        <time>2011-05-28T15:56:40Z</time>
      </trkpt>
      <trkpt lat="59.3446207879" lon="18.0784039526">
        <ele>35.8</ele>
        <time>2011-05-28T15:56:45Z</time>
      </trkpt>
      <trkpt lat="59.3445996655" lon="18.0786315212">
        <ele>35.8</ele>
        <time>2011-05-28T15:56:49Z</time>
      </trkpt>
      <trkpt lat="59.3446518009" lon="18.0789255582">
        <ele>35.8</ele>
        <time>2011-05-28T15:56:54Z</time>
      </trkpt>
      <trkpt lat="59.3446921178" lon="18.0791033383">
        <ele>35.8</ele>
        <time>2011-05-28T15:56:57Z</time>
      </trkpt>
      <trkpt lat="59.3449162498" lon="18.0793737384">
        <ele>35.2</ele>
        <time>2011-05-28T15:57:04Z</time>
      </trkpt>
      <trkpt lat="59.3450754221" lon="18.0795443939">
        <ele>34.4</ele>
        <time>2011-05-28T15:57:09Z</time>
      </trkpt>
      <trkpt lat="59.3451487637" lon="18.0796646742">
        <ele>33.4</ele>
        <time>2011-05-28T15:57:13Z</time>
      </trkpt>
      <trkpt lat="59.3451896674" lon="18.0796826114">
        <ele>32.8</ele>
        <time>2011-05-28T15:57:18Z</time>
      </trkpt>
      <trkpt lat="59.3451920144" lon="18.0796857966">
        <ele>32</ele>
        <time>2011-05-28T15:57:27Z</time>
      </trkpt>
      <trkpt lat="59.3452219377" lon="18.0796864671">
        <ele>31.8</ele>
        <time>2011-05-28T15:57:37Z</time>
      </trkpt>
      <trkpt lat="59.3452414676" lon="18.0796819409">
        <ele>31.8</ele>
        <time>2011-05-28T15:57:44Z</time>
      </trkpt>
      <trkpt lat="59.3452510229" lon="18.0796949328">
        <ele>31.8</ele>
        <time>2011-05-28T15:57:54Z</time>
      </trkpt>
      <trkpt lat="59.3452720615" lon="18.0797295501">
        <ele>31.6</ele>
        <time>2011-05-28T15:58:03Z</time>
      </trkpt>
      <trkpt lat="59.3453058406" lon="18.0797681068">
        <ele>31.6</ele>
        <time>2011-05-28T15:58:10Z</time>
      </trkpt>
      <trkpt lat="59.3453359316" lon="18.0798061606">
        <ele>31.2</ele>
        <time>2011-05-28T15:58:18Z</time>
      </trkpt>
      <trkpt lat="59.3453407093" lon="18.0798183982">
        <ele>30.4</ele>
        <time>2011-05-28T15:58:25Z</time>
      </trkpt>
      <trkpt lat="59.3453611611" lon="18.0798278698">
        <ele>30</ele>
        <time>2011-05-28T15:58:33Z</time>
      </trkpt>
      <trkpt lat="59.3453650168" lon="18.0798788317">
        <ele>29.8</ele>
        <time>2011-05-28T15:58:40Z</time>
      </trkpt>
      <trkpt lat="59.3453900787" lon="18.0799499102">
        <ele>29.2</ele>
        <time>2011-05-28T15:58:52Z</time>
      </trkpt>
      <trkpt lat="59.3454064234" lon="18.0799751398">
        <ele>28.6</ele>
        <time>2011-05-28T15:58:56Z</time>
      </trkpt>
      <trkpt lat="59.3454111172" lon="18.0799918197">
        <ele>28.4</ele>
        <time>2011-05-28T15:58:59Z</time>
      </trkpt>
    </trkseg>
  </trk>
</gpx>